Wetterdaten: Donnerstag, 13.04.2017
Datum Zeit Temp. A. Temp. A. max Feuchte A. Luftdruck Regen Wind Richtung Richtung Sonnenschein ET UV Solar Taupunkt Windchill Windböen
13.04.2017 00:00 12,1 °C 12,1 °C 56 % 1013,2 hPa 0,0 mm 9,3 km/h (2 Bft) W-NW 291 ° 0 min 0,000 mm 0,0 UV-I 0 W/m² 3,6 °C 12,1 °C 16,1 km/h (3 Bft)
13.04.2017 00:01 12,1 °C 12,1 °C 56 % 1013,2 hPa 0,0 mm 11,8 km/h (2 Bft) W-SW 257 ° 0 min 0,000 mm 0,0 UV-I 0 W/m² 3,6 °C 12,1 °C 17,7 km/h (3 Bft)
13.04.2017 00:02 12,1 °C 12,1 °C 56 % 1013,2 hPa 0,0 mm 7,4 km/h (2 Bft) SW 223 ° 0 min 0,000 mm 0,0 UV-I 0 W/m² 3,6 °C 12,1 °C 11,3 km/h (2 Bft)
13.04.2017 00:03 12,1 °C 12,1 °C 55 % 1013,2 hPa 0,0 mm 20,9 km/h (4 Bft) W 277 ° 0 min 0,000 mm 0,0 UV-I 0 W/m² 3,3 °C 12,1 °C 35,4 km/h (5 Bft)
13.04.2017 00:04 12,1 °C 12,1 °C 55 % 1013,1 hPa 0,0 mm 13,0 km/h (3 Bft) W 276 ° 0 min 0,000 mm 0,0 UV-I 0 W/m² 3,3 °C 12,1 °C 20,9 km/h (4 Bft)
13.04.2017 00:05 12,1 °C 12,1 °C 56 % 1013,1 hPa 0,0 mm 11,2 km/h (2 Bft) W 263 ° 0 min 0,000 mm 0,0 UV-I 0 W/m² 3,6 °C 12,1 °C 12,9 km/h (3 Bft)
13.04.2017 00:06 12,1 °C 12,1 °C 55 % 1013,1 hPa 0,0 mm 13,2 km/h (3 Bft) W-NW 298 ° 0 min 0,000 mm 0,0 UV-I 0 W/m² 3,3 °C 12,1 °C 17,7 km/h (3 Bft)
13.04.2017 00:07 12,1 °C 12,1 °C 55 % 1013,2 hPa 0,0 mm 12,7 km/h (3 Bft) W-SW 245 ° 0 min 0,000 mm 0,0 UV-I 0 W/m² 3,3 °C 12,1 °C 16,1 km/h (3 Bft)
13.04.2017 00:08 12,1 °C 12,1 °C 55 % 1013,1 hPa 0,0 mm 17,8 km/h (3 Bft) W-NW 299 ° 0 min 0,000 mm 0,0 UV-I 0 W/m² 3,3 °C 12,1 °C 22,5 km/h (4 Bft)
13.04.2017 00:09 12,2 °C 12,2 °C 55 % 1013,1 hPa 0,0 mm 20,9 km/h (4 Bft) W-NW 289 ° 0 min 0,000 mm 0,0 UV-I 0 W/m² 3,4 °C 12,2 °C 32,2 km/h (5 Bft)
13.04.2017 00:10 12,2 °C 12,2 °C 54 % 1013,0 hPa 0,0 mm 13,1 km/h (3 Bft) W 271 ° 0 min 0,000 mm 0,0 UV-I 0 W/m² 3,2 °C 12,2 °C 17,7 km/h (3 Bft)
13.04.2017 00:11 12,2 °C 12,2 °C 54 % 1013,1 hPa 0,0 mm 14,3 km/h (3 Bft) W-NW 291 ° 0 min 0,000 mm 0,0 UV-I 0 W/m² 3,2 °C 12,2 °C 20,9 km/h (4 Bft)
13.04.2017 00:12 12,2 °C 12,2 °C 54 % 1013,1 hPa 0,0 mm 11,7 km/h (2 Bft) W-NW 285 ° 0 min 0,000 mm 0,0 UV-I 0 W/m² 3,2 °C 12,2 °C 17,7 km/h (3 Bft)
13.04.2017 00:13 12,2 °C 12,2 °C 53 % 1013,1 hPa 0,0 mm 15,2 km/h (3 Bft) W-NW 296 ° 0 min 0,000 mm 0,0 UV-I 0 W/m² 2,9 °C 12,2 °C 27,4 km/h (4 Bft)
13.04.2017 00:14 12,2 °C 12,2 °C 54 % 1013,1 hPa 0,0 mm 17,9 km/h (3 Bft) W 271 ° 0 min 0,000 mm 0,0 UV-I 0 W/m² 3,2 °C 12,2 °C 27,4 km/h (4 Bft)
13.04.2017 00:15 12,2 °C 12,2 °C 53 % 1013,1 hPa 0,0 mm 18,4 km/h (3 Bft) W-NW 286 ° 0 min 0,000 mm 0,0 UV-I 0 W/m² 2,9 °C 12,2 °C 29,0 km/h (5 Bft)
13.04.2017 00:16 12,3 °C 12,3 °C 53 % 1013,1 hPa 0,0 mm 14,1 km/h (3 Bft) W 271 ° 0 min 0,000 mm 0,0 UV-I 0 W/m² 3,0 °C 12,3 °C 20,9 km/h (4 Bft)
13.04.2017 00:17 12,3 °C 12,3 °C 53 % 1013,1 hPa 0,0 mm 9,9 km/h (2 Bft) W-NW 298 ° 0 min 0,000 mm 0,0 UV-I 0 W/m² 3,0 °C 12,3 °C 17,7 km/h (3 Bft)
13.04.2017 00:18 12,3 °C 12,3 °C 53 % 1013,0 hPa 0,0 mm 11,5 km/h (2 Bft) W 263 ° 0 min 0,000 mm 0,0 UV-I 0 W/m² 3,0 °C 12,3 °C 17,7 km/h (3 Bft)
13.04.2017 00:19 12,3 °C 12,3 °C 53 % 1013,1 hPa 0,0 mm 9,7 km/h (2 Bft) W 277 ° 0 min 0,000 mm 0,0 UV-I 0 W/m² 3,0 °C 12,3 °C 14,5 km/h (3 Bft)
13.04.2017 00:20 12,3 °C 12,3 °C 53 % 1013,1 hPa 0,0 mm 13,1 km/h (3 Bft) W 269 ° 0 min 0,000 mm 0,0 UV-I 0 W/m² 3,0 °C 12,3 °C 24,1 km/h (4 Bft)
13.04.2017 00:21 12,2 °C 12,3 °C 52 % 1013,2 hPa 0,0 mm 17,8 km/h (3 Bft) W-SW 248 ° 0 min 0,000 mm 0,0 UV-I 0 W/m² 2,6 °C 12,2 °C 24,1 km/h (4 Bft)
13.04.2017 00:22 12,3 °C 12,3 °C 52 % 1013,2 hPa 0,0 mm 17,4 km/h (3 Bft) W-SW 252 ° 0 min 0,000 mm 0,0 UV-I 0 W/m² 2,7 °C 12,3 °C 22,5 km/h (4 Bft)
13.04.2017 00:23 12,3 °C 12,3 °C 52 % 1013,1 hPa 0,0 mm 19,0 km/h (3 Bft) W 279 ° 0 min 0,000 mm 0,0 UV-I 0 W/m² 2,7 °C 12,3 °C 27,4 km/h (4 Bft)
13.04.2017 00:24 12,3 °C 12,3 °C 53 % 1013,1 hPa 0,0 mm 15,6 km/h (3 Bft) NW 305 ° 0 min 0,000 mm 0,0 UV-I 0 W/m² 3,0 °C 12,3 °C 22,5 km/h (4 Bft)
13.04.2017 00:25 12,3 °C 12,3 °C 53 % 1013,1 hPa 0,0 mm 15,4 km/h (3 Bft) W-NW 298 ° 0 min 0,000 mm 0,0 UV-I 0 W/m² 3,0 °C 12,3 °C 20,9 km/h (4 Bft)
13.04.2017 00:26 12,3 °C 12,3 °C 53 % 1013,2 hPa 0,0 mm 15,0 km/h (3 Bft) N-NW 339 ° 0 min 0,000 mm 0,0 UV-I 0 W/m² 3,0 °C 12,3 °C 20,9 km/h (4 Bft)
13.04.2017 00:27 12,3 °C 12,3 °C 52 % 1013,1 hPa 0,0 mm 10,4 km/h (2 Bft) W 267 ° 0 min 0,000 mm 0,0 UV-I 0 W/m² 2,7 °C 12,3 °C 16,1 km/h (3 Bft)
13.04.2017 00:28 12,3 °C 12,3 °C 52 % 1013,2 hPa 0,0 mm 9,1 km/h (2 Bft) W 262 ° 0 min 0,000 mm 0,0 UV-I 0 W/m² 2,7 °C 12,3 °C 16,1 km/h (3 Bft)
13.04.2017 00:29 12,3 °C 12,3 °C 52 % 1013,2 hPa 0,0 mm 5,4 km/h (1 Bft) W 266 ° 0 min 0,000 mm 0,0 UV-I 0 W/m² 2,7 °C 12,3 °C 11,3 km/h (2 Bft)
13.04.2017 00:30 12,2 °C 12,3 °C 53 % 1013,2 hPa 0,0 mm 11,3 km/h (2 Bft) W 275 ° 0 min 0,000 mm 0,0 UV-I 0 W/m² 2,9 °C 12,2 °C 16,1 km/h (3 Bft)
13.04.2017 00:31 12,2 °C 12,2 °C 52 % 1013,3 hPa 0,0 mm 9,1 km/h (2 Bft) W 263 ° 0 min 0,000 mm 0,0 UV-I 0 W/m² 2,6 °C 12,2 °C 14,5 km/h (3 Bft)
13.04.2017 00:32 12,1 °C 12,2 °C 52 % 1013,3 hPa 0,0 mm 14,5 km/h (3 Bft) W 263 ° 0 min 0,000 mm 0,0 UV-I 0 W/m² 2,5 °C 12,1 °C 22,5 km/h (4 Bft)
13.04.2017 00:33 12,1 °C 12,1 °C 52 % 1013,2 hPa 0,0 mm 19,3 km/h (3 Bft) W 277 ° 0 min 0,000 mm 0,0 UV-I 0 W/m² 2,5 °C 12,1 °C 25,7 km/h (4 Bft)
13.04.2017 00:34 12,1 °C 12,1 °C 52 % 1013,2 hPa 0,0 mm 13,6 km/h (3 Bft) W-NW 297 ° 0 min 0,000 mm 0,0 UV-I 0 W/m² 2,5 °C 12,1 °C 22,5 km/h (4 Bft)
13.04.2017 00:35 12,1 °C 12,1 °C 52 % 1013,2 hPa 0,0 mm 19,5 km/h (3 Bft) W-NW 284 ° 0 min 0,000 mm 0,0 UV-I 0 W/m² 2,5 °C 12,1 °C 25,7 km/h (4 Bft)
13.04.2017 00:36 12,1 °C 12,1 °C 52 % 1013,2 hPa 0,0 mm 13,3 km/h (3 Bft) S-SW 213 ° 0 min 0,000 mm 0,0 UV-I 0 W/m² 2,5 °C 12,1 °C 19,3 km/h (3 Bft)
13.04.2017 00:37 12,1 °C 12,1 °C 51 % 1013,2 hPa 0,0 mm 12,3 km/h (3 Bft) W 273 ° 0 min 0,000 mm 0,0 UV-I 0 W/m² 2,3 °C 12,1 °C 16,1 km/h (3 Bft)
13.04.2017 00:38 12,1 °C 12,1 °C 52 % 1013,3 hPa 0,0 mm 9,6 km/h (2 Bft) W 266 ° 0 min 0,000 mm 0,0 UV-I 0 W/m² 2,5 °C 12,1 °C 12,9 km/h (3 Bft)
13.04.2017 00:39 12,1 °C 12,1 °C 51 % 1013,3 hPa 0,0 mm 9,3 km/h (2 Bft) W 270 ° 0 min 0,000 mm 0,0 UV-I 0 W/m² 2,3 °C 12,1 °C 14,5 km/h (3 Bft)
13.04.2017 00:40 12,1 °C 12,1 °C 51 % 1013,2 hPa 0,0 mm 13,4 km/h (3 Bft) W-NW 299 ° 0 min 0,000 mm 0,0 UV-I 0 W/m² 2,3 °C 12,1 °C 20,9 km/h (4 Bft)
13.04.2017 00:41 12,1 °C 12,2 °C 51 % 1013,2 hPa 0,0 mm 11,7 km/h (2 Bft) W 263 ° 0 min 0,000 mm 0,0 UV-I 0 W/m² 2,3 °C 12,1 °C 20,9 km/h (4 Bft)
13.04.2017 00:42 12,1 °C 12,1 °C 51 % 1013,2 hPa 0,0 mm 9,7 km/h (2 Bft) W-NW 286 ° 0 min 0,000 mm 0,0 UV-I 0 W/m² 2,3 °C 12,1 °C 14,5 km/h (3 Bft)
13.04.2017 00:43 12,1 °C 12,1 °C 52 % 1013,2 hPa 0,0 mm 11,7 km/h (2 Bft) W-SW 242 ° 0 min 0,000 mm 0,0 UV-I 0 W/m² 2,5 °C 12,1 °C 16,1 km/h (3 Bft)
13.04.2017 00:44 12,1 °C 12,1 °C 50 % 1013,3 hPa 0,0 mm 10,3 km/h (2 Bft) W 269 ° 0 min 0,000 mm 0,0 UV-I 0 W/m² 2,0 °C 12,1 °C 16,1 km/h (3 Bft)
13.04.2017 00:45 12,1 °C 12,1 °C 51 % 1013,3 hPa 0,0 mm 9,3 km/h (2 Bft) NW 307 ° 0 min 0,000 mm 0,0 UV-I 0 W/m² 2,3 °C 12,1 °C 12,9 km/h (3 Bft)
13.04.2017 00:46 12,1 °C 12,1 °C 51 % 1013,3 hPa 0,0 mm 8,0 km/h (2 Bft) W 277 ° 0 min 0,000 mm 0,0 UV-I 0 W/m² 2,3 °C 12,1 °C 12,9 km/h (3 Bft)
13.04.2017 00:47 12,0 °C 12,1 °C 51 % 1013,3 hPa 0,0 mm 9,3 km/h (2 Bft) N-NW 330 ° 0 min 0,000 mm 0,0 UV-I 0 W/m² 2,2 °C 12,0 °C 12,9 km/h (3 Bft)
13.04.2017 00:48 11,9 °C 12,0 °C 51 % 1013,3 hPa 0,0 mm 12,5 km/h (3 Bft) W-NW 300 ° 0 min 0,000 mm 0,0 UV-I 0 W/m² 2,1 °C 11,9 °C 17,7 km/h (3 Bft)
13.04.2017 00:49 12,0 °C 12,0 °C 51 % 1013,3 hPa 0,0 mm 11,7 km/h (2 Bft) NW 315 ° 0 min 0,000 mm 0,0 UV-I 0 W/m² 2,2 °C 12,0 °C 16,1 km/h (3 Bft)
13.04.2017 00:50 12,0 °C 12,0 °C 50 % 1013,3 hPa 0,0 mm 8,6 km/h (2 Bft) W-NW 301 ° 0 min 0,000 mm 0,0 UV-I 0 W/m² 1,9 °C 12,0 °C 12,9 km/h (3 Bft)
13.04.2017 00:51 12,0 °C 12,1 °C 51 % 1013,3 hPa 0,0 mm 9,9 km/h (2 Bft) W 267 ° 0 min 0,000 mm 0,0 UV-I 0 W/m² 2,2 °C 12,0 °C 19,3 km/h (3 Bft)
13.04.2017 00:52 12,0 °C 12,1 °C 51 % 1013,3 hPa 0,0 mm 9,9 km/h (2 Bft) W 259 ° 0 min 0,000 mm 0,0 UV-I 0 W/m² 2,2 °C 12,0 °C 12,9 km/h (3 Bft)
13.04.2017 00:53 12,0 °C 12,0 °C 51 % 1013,3 hPa 0,0 mm 10,3 km/h (2 Bft) W-NW 284 ° 0 min 0,000 mm 0,0 UV-I 0 W/m² 2,2 °C 12,0 °C 17,7 km/h (3 Bft)
13.04.2017 00:54 11,9 °C 12,0 °C 51 % 1013,3 hPa 0,0 mm 9,3 km/h (2 Bft) W-NW 296 ° 0 min 0,000 mm 0,0 UV-I 0 W/m² 2,1 °C 11,9 °C 12,9 km/h (3 Bft)
13.04.2017 00:55 11,9 °C 11,9 °C 51 % 1013,3 hPa 0,0 mm 11,9 km/h (2 Bft) W 271 ° 0 min 0,000 mm 0,0 UV-I 0 W/m² 2,1 °C 11,9 °C 17,7 km/h (3 Bft)
13.04.2017 00:56 12,0 °C 12,0 °C 51 % 1013,3 hPa 0,0 mm 9,9 km/h (2 Bft) W-NW 300 ° 0 min 0,000 mm 0,0 UV-I 0 W/m² 2,2 °C 12,0 °C 16,1 km/h (3 Bft)
13.04.2017 00:57 12,0 °C 12,0 °C 51 % 1013,3 hPa 0,0 mm 10,0 km/h (2 Bft) W-NW 284 ° 0 min 0,000 mm 0,0 UV-I 0 W/m² 2,2 °C 12,0 °C 16,1 km/h (3 Bft)
13.04.2017 00:58 12,1 °C 12,1 °C 51 % 1013,3 hPa 0,0 mm 11,0 km/h (2 Bft) W-NW 300 ° 0 min 0,000 mm 0,0 UV-I 0 W/m² 2,3 °C 12,1 °C 14,5 km/h (3 Bft)
13.04.2017 00:59 12,1 °C 12,1 °C 50 % 1013,3 hPa 0,0 mm 8,3 km/h (2 Bft) W 273 ° 0 min 0,000 mm 0,0 UV-I 0 W/m² 2,0 °C 12,1 °C 11,3 km/h (2 Bft)
13.04.2017 01:00 12,0 °C 12,1 °C 51 % 1013,3 hPa 0,0 mm 10,8 km/h (2 Bft) NW 311 ° 0 min 0,000 mm 0,0 UV-I 0 W/m² 2,2 °C 12,0 °C 16,1 km/h (3 Bft)
13.04.2017 01:01 11,9 °C 12,0 °C 51 % 1013,3 hPa 0,0 mm 8,9 km/h (2 Bft) W 259 ° 0 min 0,076 mm 0,0 UV-I 0 W/m² 2,1 °C 11,9 °C 14,5 km/h (3 Bft)
13.04.2017 01:02 11,9 °C 11,9 °C 51 % 1013,3 hPa 0,0 mm 16,4 km/h (3 Bft) N-NW 337 ° 0 min 0,000 mm 0,0 UV-I 0 W/m² 2,1 °C 11,9 °C 19,3 km/h (3 Bft)
13.04.2017 01:03 11,9 °C 11,9 °C 50 % 1013,3 hPa 0,0 mm 9,7 km/h (2 Bft) W 277 ° 0 min 0,000 mm 0,0 UV-I 0 W/m² 1,8 °C 11,9 °C 16,1 km/h (3 Bft)
13.04.2017 01:04 11,9 °C 11,9 °C 51 % 1013,4 hPa 0,0 mm 12,9 km/h (3 Bft) W-NW 290 ° 0 min 0,000 mm 0,0 UV-I 0 W/m² 2,1 °C 11,9 °C 19,3 km/h (3 Bft)
13.04.2017 01:05 12,0 °C 12,0 °C 51 % 1013,4 hPa 0,0 mm 11,1 km/h (2 Bft) W-SW 256 ° 0 min 0,000 mm 0,0 UV-I 0 W/m² 2,2 °C 12,0 °C 17,7 km/h (3 Bft)
13.04.2017 01:06 11,9 °C 12,0 °C 51 % 1013,3 hPa 0,0 mm 13,1 km/h (3 Bft) W-NW 282 ° 0 min 0,000 mm 0,0 UV-I 0 W/m² 2,1 °C 11,9 °C 22,5 km/h (4 Bft)
13.04.2017 01:07 11,9 °C 11,9 °C 51 % 1013,4 hPa 0,0 mm 15,2 km/h (3 Bft) NW 321 ° 0 min 0,000 mm 0,0 UV-I 0 W/m² 2,1 °C 11,9 °C 20,9 km/h (4 Bft)
13.04.2017 01:08 11,9 °C 11,9 °C 51 % 1013,4 hPa 0,0 mm 12,0 km/h (2 Bft) W-NW 292 ° 0 min 0,000 mm 0,0 UV-I 0 W/m² 2,1 °C 11,9 °C 17,7 km/h (3 Bft)
13.04.2017 01:09 11,9 °C 11,9 °C 51 % 1013,4 hPa 0,0 mm 18,2 km/h (3 Bft) W-NW 288 ° 0 min 0,000 mm 0,0 UV-I 0 W/m² 2,1 °C 11,9 °C 27,4 km/h (4 Bft)
13.04.2017 01:10 11,9 °C 11,9 °C 51 % 1013,3 hPa 0,0 mm 16,6 km/h (3 Bft) W 281 ° 0 min 0,000 mm 0,0 UV-I 0 W/m² 2,1 °C 11,9 °C 24,1 km/h (4 Bft)
13.04.2017 01:11 11,9 °C 11,9 °C 51 % 1013,3 hPa 0,0 mm 16,9 km/h (3 Bft) W-NW 297 ° 0 min 0,000 mm 0,0 UV-I 0 W/m² 2,1 °C 11,9 °C 20,9 km/h (4 Bft)
13.04.2017 01:12 11,9 °C 12,0 °C 51 % 1013,3 hPa 0,0 mm 9,9 km/h (2 Bft) NW 304 ° 0 min 0,000 mm 0,0 UV-I 0 W/m² 2,1 °C 11,9 °C 16,1 km/h (3 Bft)
13.04.2017 01:13 11,9 °C 11,9 °C 51 % 1013,3 hPa 0,0 mm 13,9 km/h (3 Bft) NW 304 ° 0 min 0,000 mm 0,0 UV-I 0 W/m² 2,1 °C 11,9 °C 17,7 km/h (3 Bft)
13.04.2017 01:14 11,9 °C 11,9 °C 50 % 1013,2 hPa 0,0 mm 10,7 km/h (2 Bft) W-NW 291 ° 0 min 0,000 mm 0,0 UV-I 0 W/m² 1,8 °C 11,9 °C 19,3 km/h (3 Bft)
13.04.2017 01:15 11,9 °C 11,9 °C 51 % 1013,2 hPa 0,0 mm 13,8 km/h (3 Bft) N-NW 333 ° 0 min 0,000 mm 0,0 UV-I 0 W/m² 2,1 °C 11,9 °C 20,9 km/h (4 Bft)
13.04.2017 01:16 11,9 °C 11,9 °C 51 % 1013,2 hPa 0,0 mm 14,1 km/h (3 Bft) W 274 ° 0 min 0,000 mm 0,0 UV-I 0 W/m² 2,1 °C 11,9 °C 19,3 km/h (3 Bft)
13.04.2017 01:17 11,9 °C 11,9 °C 51 % 1013,2 hPa 0,0 mm 12,2 km/h (2 Bft) W-NW 292 ° 0 min 0,000 mm 0,0 UV-I 0 W/m² 2,1 °C 11,9 °C 17,7 km/h (3 Bft)
13.04.2017 01:18 11,9 °C 11,9 °C 51 % 1013,2 hPa 0,0 mm 10,7 km/h (2 Bft) W 281 ° 0 min 0,000 mm 0,0 UV-I 0 W/m² 2,1 °C 11,9 °C 17,7 km/h (3 Bft)
13.04.2017 01:19 11,9 °C 11,9 °C 51 % 1013,3 hPa 0,0 mm 10,3 km/h (2 Bft) W 277 ° 0 min 0,000 mm 0,0 UV-I 0 W/m² 2,1 °C 11,9 °C 14,5 km/h (3 Bft)
13.04.2017 01:20 11,9 °C 11,9 °C 50 % 1013,2 hPa 0,0 mm 22,5 km/h (4 Bft) W 270 ° 0 min 0,000 mm 0,0 UV-I 0 W/m² 1,8 °C 11,9 °C 32,2 km/h (5 Bft)
13.04.2017 01:21 11,9 °C 11,9 °C 50 % 1013,2 hPa 0,0 mm 13,3 km/h (3 Bft) W-NW 288 ° 0 min 0,000 mm 0,0 UV-I 0 W/m² 1,8 °C 11,9 °C 25,7 km/h (4 Bft)
13.04.2017 01:22 11,9 °C 11,9 °C 50 % 1013,2 hPa 0,0 mm 15,3 km/h (3 Bft) W 277 ° 0 min 0,000 mm 0,0 UV-I 0 W/m² 1,8 °C 11,9 °C 20,9 km/h (4 Bft)
13.04.2017 01:23 11,9 °C 11,9 °C 50 % 1013,3 hPa 0,0 mm 12,6 km/h (3 Bft) NW 305 ° 0 min 0,000 mm 0,0 UV-I 0 W/m² 1,8 °C 11,9 °C 16,1 km/h (3 Bft)
13.04.2017 01:24 11,9 °C 11,9 °C 50 % 1013,3 hPa 0,0 mm 14,1 km/h (3 Bft) W-NW 296 ° 0 min 0,000 mm 0,0 UV-I 0 W/m² 1,8 °C 11,9 °C 24,1 km/h (4 Bft)
13.04.2017 01:25 11,9 °C 11,9 °C 49 % 1013,2 hPa 0,0 mm 13,2 km/h (3 Bft) W-NW 296 ° 0 min 0,000 mm 0,0 UV-I 0 W/m² 1,5 °C 11,9 °C 19,3 km/h (3 Bft)
13.04.2017 01:26 11,9 °C 11,9 °C 50 % 1013,2 hPa 0,0 mm 12,0 km/h (2 Bft) W 273 ° 0 min 0,000 mm 0,0 UV-I 0 W/m² 1,8 °C 11,9 °C 20,9 km/h (4 Bft)
13.04.2017 01:27 11,9 °C 11,9 °C 49 % 1013,2 hPa 0,0 mm 17,6 km/h (3 Bft) W-NW 296 ° 0 min 0,000 mm 0,0 UV-I 0 W/m² 1,5 °C 11,9 °C 27,4 km/h (4 Bft)
13.04.2017 01:28 11,9 °C 11,9 °C 49 % 1013,2 hPa 0,0 mm 14,5 km/h (3 Bft) W 275 ° 0 min 0,000 mm 0,0 UV-I 0 W/m² 1,5 °C 11,9 °C 25,7 km/h (4 Bft)
13.04.2017 01:29 11,9 °C 11,9 °C 49 % 1013,2 hPa 0,0 mm 17,7 km/h (3 Bft) W 281 ° 0 min 0,000 mm 0,0 UV-I 0 W/m² 1,5 °C 11,9 °C 25,7 km/h (4 Bft)
13.04.2017 01:30 11,9 °C 11,9 °C 48 % 1013,2 hPa 0,0 mm 13,7 km/h (3 Bft) W-NW 300 ° 0 min 0,000 mm 0,0 UV-I 0 W/m² 1,2 °C 11,9 °C 19,3 km/h (3 Bft)
13.04.2017 01:31 11,9 °C 12,0 °C 48 % 1013,1 hPa 0,0 mm 15,0 km/h (3 Bft) NW 313 ° 0 min 0,000 mm 0,0 UV-I 0 W/m² 1,2 °C 11,9 °C 27,4 km/h (4 Bft)
13.04.2017 01:32 12,0 °C 12,1 °C 48 % 1013,2 hPa 0,0 mm 17,1 km/h (3 Bft) W 269 ° 0 min 0,000 mm 0,0 UV-I 0 W/m² 1,3 °C 12,0 °C 22,5 km/h (4 Bft)
13.04.2017 01:33 12,0 °C 12,0 °C 48 % 1013,2 hPa 0,0 mm 18,1 km/h (3 Bft) W 275 ° 0 min 0,000 mm 0,0 UV-I 0 W/m² 1,3 °C 12,0 °C 27,4 km/h (4 Bft)
13.04.2017 01:34 12,1 °C 12,1 °C 49 % 1013,2 hPa 0,0 mm 19,1 km/h (3 Bft) NW 322 ° 0 min 0,000 mm 0,0 UV-I 0 W/m² 1,7 °C 12,1 °C 29,0 km/h (5 Bft)
13.04.2017 01:35 11,9 °C 12,1 °C 49 % 1013,2 hPa 0,0 mm 16,8 km/h (3 Bft) W 276 ° 0 min 0,000 mm 0,0 UV-I 0 W/m² 1,5 °C 11,9 °C 25,7 km/h (4 Bft)
13.04.2017 01:36 11,9 °C 12,0 °C 49 % 1013,2 hPa 0,0 mm 13,9 km/h (3 Bft) NW 306 ° 0 min 0,000 mm 0,0 UV-I 0 W/m² 1,5 °C 11,9 °C 20,9 km/h (4 Bft)
13.04.2017 01:37 11,9 °C 11,9 °C 49 % 1013,1 hPa 0,0 mm 12,2 km/h (2 Bft) W-NW 292 ° 0 min 0,000 mm 0,0 UV-I 0 W/m² 1,5 °C 11,9 °C 20,9 km/h (4 Bft)
13.04.2017 01:38 11,9 °C 11,9 °C 49 % 1013,1 hPa 0,0 mm 14,8 km/h (3 Bft) NW 311 ° 0 min 0,000 mm 0,0 UV-I 0 W/m² 1,5 °C 11,9 °C 20,9 km/h (4 Bft)
13.04.2017 01:39 11,9 °C 11,9 °C 49 % 1013,2 hPa 0,0 mm 12,3 km/h (3 Bft) NW 313 ° 0 min 0,000 mm 0,0 UV-I 0 W/m² 1,5 °C 11,9 °C 17,7 km/h (3 Bft)
13.04.2017 01:40 11,9 °C 11,9 °C 50 % 1013,1 hPa 0,0 mm 14,8 km/h (3 Bft) NW 310 ° 0 min 0,000 mm 0,0 UV-I 0 W/m² 1,8 °C 11,9 °C 20,9 km/h (4 Bft)
13.04.2017 01:41 11,9 °C 11,9 °C 49 % 1013,1 hPa 0,0 mm 14,7 km/h (3 Bft) W-SW 258 ° 0 min 0,000 mm 0,0 UV-I 0 W/m² 1,5 °C 11,9 °C 19,3 km/h (3 Bft)
13.04.2017 01:42 11,9 °C 11,9 °C 48 % 1013,1 hPa 0,0 mm 15,1 km/h (3 Bft) W-NW 284 ° 0 min 0,000 mm 0,0 UV-I 0 W/m² 1,2 °C 11,9 °C 19,3 km/h (3 Bft)
13.04.2017 01:43 11,9 °C 11,9 °C 49 % 1013,1 hPa 0,0 mm 9,3 km/h (2 Bft) W 266 ° 0 min 0,000 mm 0,0 UV-I 0 W/m² 1,5 °C 11,9 °C 12,9 km/h (3 Bft)
13.04.2017 01:44 11,8 °C 11,9 °C 49 % 1013,1 hPa 0,0 mm 11,2 km/h (2 Bft) N-NW 334 ° 0 min 0,000 mm 0,0 UV-I 0 W/m² 1,4 °C 11,8 °C 14,5 km/h (3 Bft)
13.04.2017 01:45 11,8 °C 11,8 °C 50 % 1013,1 hPa 0,0 mm 7,6 km/h (2 Bft) W-NW 300 ° 0 min 0,000 mm 0,0 UV-I 0 W/m² 1,7 °C 11,8 °C 14,5 km/h (3 Bft)
13.04.2017 01:46 11,8 °C 11,8 °C 50 % 1013,1 hPa 0,0 mm 18,4 km/h (3 Bft) W 279 ° 0 min 0,000 mm 0,0 UV-I 0 W/m² 1,7 °C 11,8 °C 29,0 km/h (5 Bft)
13.04.2017 01:47 11,8 °C 11,8 °C 49 % 1013,1 hPa 0,0 mm 17,0 km/h (3 Bft) N-NW 332 ° 0 min 0,000 mm 0,0 UV-I 0 W/m² 1,4 °C 11,8 °C 25,7 km/h (4 Bft)
13.04.2017 01:48 11,8 °C 11,8 °C 49 % 1013,1 hPa 0,0 mm 17,5 km/h (3 Bft) W-NW 292 ° 0 min 0,000 mm 0,0 UV-I 0 W/m² 1,4 °C 11,8 °C 24,1 km/h (4 Bft)
13.04.2017 01:49 11,8 °C 11,8 °C 49 % 1013,1 hPa 0,0 mm 14,1 km/h (3 Bft) W-NW 298 ° 0 min 0,000 mm 0,0 UV-I 0 W/m² 1,4 °C 11,8 °C 22,5 km/h (4 Bft)
13.04.2017 01:50 11,8 °C 11,8 °C 49 % 1013,1 hPa 0,0 mm 12,5 km/h (3 Bft) W-NW 302 ° 0 min 0,000 mm 0,0 UV-I 0 W/m² 1,4 °C 11,8 °C 20,9 km/h (4 Bft)
13.04.2017 01:51 11,8 °C 11,9 °C 49 % 1013,1 hPa 0,0 mm 15,6 km/h (3 Bft) W-NW 299 ° 0 min 0,000 mm 0,0 UV-I 0 W/m² 1,4 °C 11,8 °C 20,9 km/h (4 Bft)
13.04.2017 01:52 11,8 °C 11,8 °C 50 % 1013,0 hPa 0,0 mm 12,7 km/h (3 Bft) W-NW 287 ° 0 min 0,000 mm 0,0 UV-I 0 W/m² 1,7 °C 11,8 °C 16,1 km/h (3 Bft)
13.04.2017 01:53 11,8 °C 11,9 °C 49 % 1013,0 hPa 0,0 mm 13,7 km/h (3 Bft) W-NW 301 ° 0 min 0,000 mm 0,0 UV-I 0 W/m² 1,4 °C 11,8 °C 20,9 km/h (4 Bft)
13.04.2017 01:54 11,9 °C 11,9 °C 49 % 1013,0 hPa 0,0 mm 13,7 km/h (3 Bft) W 267 ° 0 min 0,000 mm 0,0 UV-I 0 W/m² 1,5 °C 11,9 °C 19,3 km/h (3 Bft)
13.04.2017 01:55 11,8 °C 11,9 °C 49 % 1013,0 hPa 0,0 mm 13,0 km/h (3 Bft) W-NW 292 ° 0 min 0,000 mm 0,0 UV-I 0 W/m² 1,4 °C 11,8 °C 20,9 km/h (4 Bft)
13.04.2017 01:56 11,8 °C 11,9 °C 49 % 1012,9 hPa 0,0 mm 12,5 km/h (3 Bft) W 262 ° 0 min 0,000 mm 0,0 UV-I 0 W/m² 1,4 °C 11,8 °C 16,1 km/h (3 Bft)
13.04.2017 01:57 11,8 °C 11,8 °C 50 % 1013,0 hPa 0,0 mm 17,6 km/h (3 Bft) W 269 ° 0 min 0,000 mm 0,0 UV-I 0 W/m² 1,7 °C 11,8 °C 22,5 km/h (4 Bft)
13.04.2017 01:58 11,8 °C 11,8 °C 49 % 1012,9 hPa 0,0 mm 14,8 km/h (3 Bft) W-SW 257 ° 0 min 0,000 mm 0,0 UV-I 0 W/m² 1,4 °C 11,8 °C 20,9 km/h (4 Bft)
13.04.2017 01:59 11,8 °C 11,8 °C 49 % 1012,9 hPa 0,0 mm 17,2 km/h (3 Bft) W 267 ° 0 min 0,000 mm 0,0 UV-I 0 W/m² 1,4 °C 11,8 °C 24,1 km/h (4 Bft)
13.04.2017 02:00 11,8 °C 11,8 °C 50 % 1012,9 hPa 0,0 mm 12,1 km/h (2 Bft) W-NW 298 ° 0 min 0,000 mm 0,0 UV-I 0 W/m² 1,7 °C 11,8 °C 17,7 km/h (3 Bft)
13.04.2017 02:01 11,7 °C 11,8 °C 50 % 1012,8 hPa 0,0 mm 9,9 km/h (2 Bft) NW 306 ° 0 min 0,102 mm 0,0 UV-I 0 W/m² 1,6 °C 11,7 °C 14,5 km/h (3 Bft)
13.04.2017 02:02 11,7 °C 11,7 °C 50 % 1012,9 hPa 0,0 mm 12,4 km/h (3 Bft) W-SW 252 ° 0 min 0,000 mm 0,0 UV-I 0 W/m² 1,6 °C 11,7 °C 22,5 km/h (4 Bft)
13.04.2017 02:03 11,6 °C 11,7 °C 50 % 1012,9 hPa 0,0 mm 14,1 km/h (3 Bft) W 275 ° 0 min 0,000 mm 0,0 UV-I 0 W/m² 1,5 °C 11,6 °C 20,9 km/h (4 Bft)
13.04.2017 02:04 11,6 °C 11,6 °C 50 % 1012,8 hPa 0,0 mm 14,9 km/h (3 Bft) W 261 ° 0 min 0,000 mm 0,0 UV-I 0 W/m² 1,5 °C 11,6 °C 24,1 km/h (4 Bft)
13.04.2017 02:05 11,6 °C 11,6 °C 50 % 1012,8 hPa 0,0 mm 13,7 km/h (3 Bft) W-NW 296 ° 0 min 0,000 mm 0,0 UV-I 0 W/m² 1,5 °C 11,6 °C 24,1 km/h (4 Bft)
13.04.2017 02:06 11,6 °C 11,6 °C 50 % 1012,8 hPa 0,0 mm 10,3 km/h (2 Bft) W 267 ° 0 min 0,000 mm 0,0 UV-I 0 W/m² 1,5 °C 11,6 °C 14,5 km/h (3 Bft)
13.04.2017 02:07 11,4 °C 11,6 °C 51 % 1012,8 hPa 0,0 mm 10,6 km/h (2 Bft) W 279 ° 0 min 0,000 mm 0,0 UV-I 0 W/m² 1,6 °C 11,4 °C 14,5 km/h (3 Bft)
13.04.2017 02:08 11,5 °C 11,5 °C 50 % 1012,8 hPa 0,0 mm 11,2 km/h (2 Bft) W 271 ° 0 min 0,000 mm 0,0 UV-I 0 W/m² 1,4 °C 11,5 °C 16,1 km/h (3 Bft)
13.04.2017 02:09 11,4 °C 11,5 °C 50 % 1012,7 hPa 0,0 mm 16,6 km/h (3 Bft) W-NW 296 ° 0 min 0,000 mm 0,0 UV-I 0 W/m² 1,4 °C 11,4 °C 22,5 km/h (4 Bft)
13.04.2017 02:10 11,4 °C 11,4 °C 50 % 1012,7 hPa 0,0 mm 16,1 km/h (3 Bft) W-NW 300 ° 0 min 0,000 mm 0,0 UV-I 0 W/m² 1,4 °C 11,4 °C 22,5 km/h (4 Bft)
13.04.2017 02:11 11,5 °C 11,5 °C 50 % 1012,7 hPa 0,0 mm 14,3 km/h (3 Bft) W 272 ° 0 min 0,000 mm 0,0 UV-I 0 W/m² 1,4 °C 11,5 °C 20,9 km/h (4 Bft)
13.04.2017 02:12 11,4 °C 11,5 °C 51 % 1012,7 hPa 0,0 mm 14,5 km/h (3 Bft) W-NW 301 ° 0 min 0,000 mm 0,0 UV-I 0 W/m² 1,6 °C 11,4 °C 20,9 km/h (4 Bft)
13.04.2017 02:13 11,4 °C 11,4 °C 51 % 1012,7 hPa 0,0 mm 17,8 km/h (3 Bft) NW 304 ° 0 min 0,000 mm 0,0 UV-I 0 W/m² 1,6 °C 11,4 °C 24,1 km/h (4 Bft)
13.04.2017 02:14 11,4 °C 11,4 °C 51 % 1012,7 hPa 0,0 mm 16,3 km/h (3 Bft) W 261 ° 0 min 0,000 mm 0,0 UV-I 0 W/m² 1,6 °C 11,4 °C 24,1 km/h (4 Bft)
13.04.2017 02:15 11,4 °C 11,4 °C 51 % 1012,7 hPa 0,0 mm 22,0 km/h (4 Bft) W 263 ° 0 min 0,000 mm 0,0 UV-I 0 W/m² 1,6 °C 11,4 °C 32,2 km/h (5 Bft)
13.04.2017 02:16 11,4 °C 11,4 °C 50 % 1012,6 hPa 0,0 mm 14,4 km/h (3 Bft) NW 304 ° 0 min 0,000 mm 0,0 UV-I 0 W/m² 1,4 °C 11,4 °C 17,7 km/h (3 Bft)
13.04.2017 02:17 11,4 °C 11,4 °C 51 % 1012,6 hPa 0,0 mm 15,2 km/h (3 Bft) W 267 ° 0 min 0,000 mm 0,0 UV-I 0 W/m² 1,6 °C 11,4 °C 20,9 km/h (4 Bft)
13.04.2017 02:18 11,4 °C 11,4 °C 51 % 1012,6 hPa 0,0 mm 14,2 km/h (3 Bft) W-NW 291 ° 0 min 0,000 mm 0,0 UV-I 0 W/m² 1,6 °C 11,4 °C 27,4 km/h (4 Bft)
13.04.2017 02:19 11,4 °C 11,4 °C 51 % 1012,6 hPa 0,0 mm 20,8 km/h (4 Bft) W-NW 290 ° 0 min 0,000 mm 0,0 UV-I 0 W/m² 1,6 °C 11,4 °C 29,0 km/h (5 Bft)
13.04.2017 02:20 11,4 °C 11,4 °C 51 % 1012,6 hPa 0,0 mm 13,2 km/h (3 Bft) W 277 ° 0 min 0,000 mm 0,0 UV-I 0 W/m² 1,6 °C 11,4 °C 22,5 km/h (4 Bft)
13.04.2017 02:21 11,4 °C 11,4 °C 51 % 1012,5 hPa 0,0 mm 9,1 km/h (2 Bft) W 269 ° 0 min 0,000 mm 0,0 UV-I 0 W/m² 1,6 °C 11,4 °C 25,7 km/h (4 Bft)
13.04.2017 02:22 11,4 °C 11,4 °C 51 % 1012,5 hPa 0,0 mm 19,7 km/h (3 Bft) W-NW 292 ° 0 min 0,000 mm 0,0 UV-I 0 W/m² 1,6 °C 11,4 °C 32,2 km/h (5 Bft)
13.04.2017 02:23 11,4 °C 11,4 °C 51 % 1012,5 hPa 0,0 mm 17,7 km/h (3 Bft) W 271 ° 0 min 0,000 mm 0,0 UV-I 0 W/m² 1,6 °C 11,4 °C 27,4 km/h (4 Bft)
13.04.2017 02:24 11,4 °C 11,4 °C 50 % 1012,5 hPa 0,0 mm 12,8 km/h (3 Bft) W 270 ° 0 min 0,000 mm 0,0 UV-I 0 W/m² 1,4 °C 11,4 °C 20,9 km/h (4 Bft)
13.04.2017 02:25 11,4 °C 11,4 °C 51 % 1012,5 hPa 0,0 mm 13,5 km/h (3 Bft) SW 234 ° 0 min 0,000 mm 0,0 UV-I 0 W/m² 1,6 °C 11,4 °C 19,3 km/h (3 Bft)
13.04.2017 02:26 11,4 °C 11,4 °C 51 % 1012,5 hPa 0,0 mm 16,6 km/h (3 Bft) W 269 ° 0 min 0,000 mm 0,0 UV-I 0 W/m² 1,6 °C 11,4 °C 20,9 km/h (4 Bft)
13.04.2017 02:27 11,4 °C 11,4 °C 51 % 1012,5 hPa 0,0 mm 16,2 km/h (3 Bft) W 279 ° 0 min 0,000 mm 0,0 UV-I 0 W/m² 1,6 °C 11,4 °C 20,9 km/h (4 Bft)
13.04.2017 02:28 11,3 °C 11,4 °C 51 % 1012,4 hPa 0,0 mm 17,0 km/h (3 Bft) W-SW 257 ° 0 min 0,000 mm 0,0 UV-I 0 W/m² 1,5 °C 11,3 °C 24,1 km/h (4 Bft)
13.04.2017 02:29 11,3 °C 11,4 °C 51 % 1012,5 hPa 0,0 mm 14,1 km/h (3 Bft) W-NW 295 ° 0 min 0,000 mm 0,0 UV-I 0 W/m² 1,5 °C 11,3 °C 22,5 km/h (4 Bft)
13.04.2017 02:30 11,4 °C 11,4 °C 51 % 1012,5 hPa 0,0 mm 17,6 km/h (3 Bft) W 274 ° 0 min 0,000 mm 0,0 UV-I 0 W/m² 1,6 °C 11,4 °C 27,4 km/h (4 Bft)
13.04.2017 02:31 11,4 °C 11,4 °C 52 % 1012,4 hPa 0,0 mm 12,5 km/h (3 Bft) W 266 ° 0 min 0,000 mm 0,0 UV-I 0 W/m² 1,9 °C 11,4 °C 22,5 km/h (4 Bft)
13.04.2017 02:32 11,3 °C 11,4 °C 52 % 1012,4 hPa 0,0 mm 7,8 km/h (2 Bft) W 277 ° 0 min 0,000 mm 0,0 UV-I 0 W/m² 1,8 °C 11,3 °C 14,5 km/h (3 Bft)
13.04.2017 02:33 11,3 °C 11,3 °C 52 % 1012,4 hPa 0,0 mm 14,8 km/h (3 Bft) W-NW 284 ° 0 min 0,000 mm 0,0 UV-I 0 W/m² 1,8 °C 11,3 °C 30,6 km/h (5 Bft)
13.04.2017 02:34 11,3 °C 11,3 °C 52 % 1012,4 hPa 0,0 mm 15,2 km/h (3 Bft) W-NW 294 ° 0 min 0,000 mm 0,0 UV-I 0 W/m² 1,8 °C 11,3 °C 20,9 km/h (4 Bft)
13.04.2017 02:35 11,3 °C 11,3 °C 52 % 1012,5 hPa 0,0 mm 14,5 km/h (3 Bft) W 275 ° 0 min 0,000 mm 0,0 UV-I 0 W/m² 1,8 °C 11,3 °C 19,3 km/h (3 Bft)
13.04.2017 02:36 11,3 °C 11,3 °C 52 % 1012,5 hPa 0,0 mm 14,0 km/h (3 Bft) W-NW 292 ° 0 min 0,000 mm 0,0 UV-I 0 W/m² 1,8 °C 11,3 °C 19,3 km/h (3 Bft)
13.04.2017 02:37 11,3 °C 11,3 °C 52 % 1012,5 hPa 0,0 mm 13,7 km/h (3 Bft) W 274 ° 0 min 0,000 mm 0,0 UV-I 0 W/m² 1,8 °C 11,3 °C 20,9 km/h (4 Bft)
13.04.2017 02:38 11,4 °C 11,4 °C 52 % 1012,4 hPa 0,0 mm 17,2 km/h (3 Bft) W 260 ° 0 min 0,000 mm 0,0 UV-I 0 W/m² 1,9 °C 11,4 °C 24,1 km/h (4 Bft)
13.04.2017 02:39 11,4 °C 11,4 °C 52 % 1012,4 hPa 0,0 mm 13,9 km/h (3 Bft) NW 311 ° 0 min 0,000 mm 0,0 UV-I 0 W/m² 1,9 °C 11,4 °C 17,7 km/h (3 Bft)
13.04.2017 02:40 11,4 °C 11,4 °C 52 % 1012,5 hPa 0,0 mm 22,8 km/h (4 Bft) W-NW 292 ° 0 min 0,000 mm 0,0 UV-I 0 W/m² 1,9 °C 11,4 °C 37,0 km/h (5 Bft)
13.04.2017 02:41 11,4 °C 11,4 °C 51 % 1012,4 hPa 0,0 mm 16,3 km/h (3 Bft) W-NW 302 ° 0 min 0,000 mm 0,0 UV-I 0 W/m² 1,6 °C 11,4 °C 22,5 km/h (4 Bft)
13.04.2017 02:42 11,5 °C 11,5 °C 51 % 1012,5 hPa 0,0 mm 16,3 km/h (3 Bft) NW 321 ° 0 min 0,000 mm 0,0 UV-I 0 W/m² 1,7 °C 11,5 °C 25,7 km/h (4 Bft)
13.04.2017 02:43 11,5 °C 11,5 °C 52 % 1012,4 hPa 0,0 mm 17,1 km/h (3 Bft) W 275 ° 0 min 0,000 mm 0,0 UV-I 0 W/m² 2,0 °C 11,5 °C 24,1 km/h (4 Bft)
13.04.2017 02:44 11,5 °C 11,6 °C 52 % 1012,4 hPa 0,0 mm 21,1 km/h (4 Bft) W-NW 303 ° 0 min 0,000 mm 0,0 UV-I 0 W/m² 2,0 °C 11,5 °C 32,2 km/h (5 Bft)
13.04.2017 02:45 11,6 °C 11,6 °C 52 % 1012,4 hPa 0,0 mm 20,4 km/h (4 Bft) W-NW 290 ° 0 min 0,000 mm 0,0 UV-I 0 W/m² 2,1 °C 11,6 °C 27,4 km/h (4 Bft)
13.04.2017 02:46 11,6 °C 11,6 °C 51 % 1012,4 hPa 0,0 mm 8,9 km/h (2 Bft) W 281 ° 0 min 0,000 mm 0,0 UV-I 0 W/m² 1,8 °C 11,6 °C 16,1 km/h (3 Bft)
13.04.2017 02:47 11,6 °C 11,6 °C 52 % 1012,5 hPa 0,0 mm 12,5 km/h (3 Bft) W-SW 249 ° 0 min 0,000 mm 0,0 UV-I 0 W/m² 2,1 °C 11,6 °C 19,3 km/h (3 Bft)
13.04.2017 02:48 11,6 °C 11,6 °C 52 % 1012,5 hPa 0,0 mm 18,8 km/h (3 Bft) W-NW 300 ° 0 min 0,000 mm 0,0 UV-I 0 W/m² 2,1 °C 11,6 °C 32,2 km/h (5 Bft)
13.04.2017 02:49 11,6 °C 11,6 °C 52 % 1012,4 hPa 0,0 mm 17,2 km/h (3 Bft) N-NW 346 ° 0 min 0,000 mm 0,0 UV-I 0 W/m² 2,1 °C 11,6 °C 22,5 km/h (4 Bft)
13.04.2017 02:50 11,6 °C 11,6 °C 52 % 1012,4 hPa 0,0 mm 17,4 km/h (3 Bft) W-NW 303 ° 0 min 0,000 mm 0,0 UV-I 0 W/m² 2,1 °C 11,6 °C 25,7 km/h (4 Bft)
13.04.2017 02:51 11,6 °C 11,6 °C 51 % 1012,4 hPa 0,0 mm 21,2 km/h (4 Bft) W-NW 293 ° 0 min 0,000 mm 0,0 UV-I 0 W/m² 1,8 °C 11,6 °C 33,8 km/h (5 Bft)
13.04.2017 02:52 11,6 °C 11,6 °C 52 % 1012,4 hPa 0,0 mm 19,5 km/h (3 Bft) W-NW 294 ° 0 min 0,000 mm 0,0 UV-I 0 W/m² 2,1 °C 11,6 °C 24,1 km/h (4 Bft)
13.04.2017 02:53 11,6 °C 11,6 °C 52 % 1012,4 hPa 0,0 mm 10,7 km/h (2 Bft) W-SW 248 ° 0 min 0,000 mm 0,0 UV-I 0 W/m² 2,1 °C 11,6 °C 14,5 km/h (3 Bft)
13.04.2017 02:54 11,6 °C 11,6 °C 52 % 1012,3 hPa 0,0 mm 17,6 km/h (3 Bft) W-NW 286 ° 0 min 0,000 mm 0,0 UV-I 0 W/m² 2,1 °C 11,6 °C 24,1 km/h (4 Bft)
13.04.2017 02:55 11,6 °C 11,6 °C 52 % 1012,4 hPa 0,0 mm 17,1 km/h (3 Bft) NW 321 ° 0 min 0,000 mm 0,0 UV-I 0 W/m² 2,1 °C 11,6 °C 24,1 km/h (4 Bft)
13.04.2017 02:56 11,5 °C 11,6 °C 52 % 1012,4 hPa 0,0 mm 17,1 km/h (3 Bft) NW 326 ° 0 min 0,000 mm 0,0 UV-I 0 W/m² 2,0 °C 11,5 °C 29,0 km/h (5 Bft)
13.04.2017 02:57 11,5 °C 11,5 °C 52 % 1012,4 hPa 0,0 mm 14,7 km/h (3 Bft) W-NW 292 ° 0 min 0,000 mm 0,0 UV-I 0 W/m² 2,0 °C 11,5 °C 20,9 km/h (4 Bft)
13.04.2017 02:58 11,5 °C 11,6 °C 52 % 1012,4 hPa 0,0 mm 14,0 km/h (3 Bft) W-NW 294 ° 0 min 0,000 mm 0,0 UV-I 0 W/m² 2,0 °C 11,5 °C 20,9 km/h (4 Bft)
13.04.2017 02:59 11,4 °C 11,5 °C 52 % 1012,3 hPa 0,0 mm 12,8 km/h (3 Bft) W-NW 297 ° 0 min 0,000 mm 0,0 UV-I 0 W/m² 1,9 °C 11,4 °C 19,3 km/h (3 Bft)
13.04.2017 03:00 11,4 °C 11,4 °C 53 % 1012,3 hPa 0,0 mm 13,3 km/h (3 Bft) W 278 ° 0 min 0,101 mm 0,0 UV-I 0 W/m² 2,2 °C 11,4 °C 22,5 km/h (4 Bft)
13.04.2017 03:01 11,4 °C 11,4 °C 53 % 1012,4 hPa 0,0 mm 14,0 km/h (3 Bft) W 272 ° 0 min 0,000 mm 0,0 UV-I 0 W/m² 2,2 °C 11,4 °C 22,5 km/h (4 Bft)
13.04.2017 03:02 11,3 °C 11,4 °C 53 % 1012,2 hPa 0,0 mm 14,4 km/h (3 Bft) N 355 ° 0 min 0,000 mm 0,0 UV-I 0 W/m² 2,1 °C 11,3 °C 24,1 km/h (4 Bft)
13.04.2017 03:03 11,3 °C 11,3 °C 53 % 1012,3 hPa 0,0 mm 13,1 km/h (3 Bft) W 280 ° 0 min 0,000 mm 0,0 UV-I 0 W/m² 2,1 °C 11,3 °C 20,9 km/h (4 Bft)
13.04.2017 03:04 11,3 °C 11,3 °C 53 % 1012,3 hPa 0,0 mm 16,4 km/h (3 Bft) W 274 ° 0 min 0,000 mm 0,0 UV-I 0 W/m² 2,1 °C 11,3 °C 20,9 km/h (4 Bft)
13.04.2017 03:05 11,2 °C 11,3 °C 54 % 1012,3 hPa 0,0 mm 22,5 km/h (4 Bft) W-SW 242 ° 0 min 0,000 mm 0,0 UV-I 0 W/m² 2,2 °C 11,2 °C 37,0 km/h (5 Bft)
13.04.2017 03:06 11,2 °C 11,2 °C 54 % 1012,3 hPa 0,0 mm 20,1 km/h (4 Bft) W 278 ° 0 min 0,000 mm 0,0 UV-I 0 W/m² 2,2 °C 11,2 °C 27,4 km/h (4 Bft)
13.04.2017 03:07 11,2 °C 11,2 °C 54 % 1012,2 hPa 0,0 mm 19,0 km/h (3 Bft) W-NW 296 ° 0 min 0,000 mm 0,0 UV-I 0 W/m² 2,2 °C 11,2 °C 27,4 km/h (4 Bft)
13.04.2017 03:08 11,2 °C 11,2 °C 54 % 1012,2 hPa 0,0 mm 14,1 km/h (3 Bft) NW 309 ° 0 min 0,000 mm 0,0 UV-I 0 W/m² 2,2 °C 11,2 °C 20,9 km/h (4 Bft)
13.04.2017 03:09 11,2 °C 11,2 °C 54 % 1012,3 hPa 0,0 mm 22,8 km/h (4 Bft) W-NW 285 ° 0 min 0,000 mm 0,0 UV-I 0 W/m² 2,2 °C 11,2 °C 32,2 km/h (5 Bft)
13.04.2017 03:10 11,2 °C 11,2 °C 54 % 1012,3 hPa 0,0 mm 14,9 km/h (3 Bft) W-NW 296 ° 0 min 0,000 mm 0,0 UV-I 0 W/m² 2,2 °C 11,2 °C 22,5 km/h (4 Bft)
13.04.2017 03:11 11,1 °C 11,2 °C 54 % 1012,2 hPa 0,0 mm 14,4 km/h (3 Bft) W-NW 286 ° 0 min 0,000 mm 0,0 UV-I 0 W/m² 2,2 °C 11,1 °C 19,3 km/h (3 Bft)
13.04.2017 03:12 11,1 °C 11,1 °C 54 % 1012,1 hPa 0,0 mm 16,7 km/h (3 Bft) W-NW 302 ° 0 min 0,000 mm 0,0 UV-I 0 W/m² 2,2 °C 11,1 °C 27,4 km/h (4 Bft)
13.04.2017 03:13 11,1 °C 11,1 °C 55 % 1012,2 hPa 0,0 mm 16,6 km/h (3 Bft) W 263 ° 0 min 0,000 mm 0,0 UV-I 0 W/m² 2,4 °C 11,1 °C 27,4 km/h (4 Bft)
13.04.2017 03:14 11,0 °C 11,1 °C 55 % 1012,2 hPa 0,0 mm 9,0 km/h (2 Bft) NW 309 ° 0 min 0,000 mm 0,0 UV-I 0 W/m² 2,3 °C 11,0 °C 14,5 km/h (3 Bft)
13.04.2017 03:15 11,0 °C 11,0 °C 55 % 1012,2 hPa 0,0 mm 18,2 km/h (3 Bft) W 281 ° 0 min 0,000 mm 0,0 UV-I 0 W/m² 2,3 °C 11,0 °C 24,1 km/h (4 Bft)
13.04.2017 03:16 11,0 °C 11,0 °C 55 % 1012,2 hPa 0,0 mm 16,7 km/h (3 Bft) W-NW 295 ° 0 min 0,000 mm 0,0 UV-I 0 W/m² 2,3 °C 11,0 °C 25,7 km/h (4 Bft)
13.04.2017 03:17 11,0 °C 11,0 °C 55 % 1012,2 hPa 0,0 mm 13,3 km/h (3 Bft) W-NW 290 ° 0 min 0,000 mm 0,0 UV-I 0 W/m² 2,3 °C 11,0 °C 19,3 km/h (3 Bft)
13.04.2017 03:18 10,9 °C 11,0 °C 55 % 1012,2 hPa 0,0 mm 16,2 km/h (3 Bft) NW 315 ° 0 min 0,000 mm 0,0 UV-I 0 W/m² 2,2 °C 10,9 °C 25,7 km/h (4 Bft)
13.04.2017 03:19 10,9 °C 11,0 °C 56 % 1012,1 hPa 0,0 mm 16,6 km/h (3 Bft) W-SW 258 ° 0 min 0,000 mm 0,0 UV-I 0 W/m² 2,5 °C 10,9 °C 22,5 km/h (4 Bft)
13.04.2017 03:20 10,9 °C 10,9 °C 56 % 1012,1 hPa 0,0 mm 13,8 km/h (3 Bft) W-SW 252 ° 0 min 0,000 mm 0,0 UV-I 0 W/m² 2,5 °C 10,9 °C 19,3 km/h (3 Bft)
13.04.2017 03:21 10,8 °C 10,9 °C 56 % 1012,1 hPa 0,0 mm 16,2 km/h (3 Bft) W-NW 295 ° 0 min 0,000 mm 0,0 UV-I 0 W/m² 2,4 °C 10,8 °C 22,5 km/h (4 Bft)
13.04.2017 03:22 10,8 °C 10,8 °C 56 % 1012,1 hPa 0,0 mm 13,7 km/h (3 Bft) NW 311 ° 0 min 0,000 mm 0,0 UV-I 0 W/m² 2,4 °C 10,8 °C 20,9 km/h (4 Bft)
13.04.2017 03:23 10,8 °C 10,8 °C 56 % 1012,1 hPa 0,0 mm 15,0 km/h (3 Bft) W 281 ° 0 min 0,000 mm 0,0 UV-I 0 W/m² 2,4 °C 10,8 °C 22,5 km/h (4 Bft)
13.04.2017 03:24 10,8 °C 10,8 °C 57 % 1012,1 hPa 0,0 mm 12,9 km/h (3 Bft) W-NW 288 ° 0 min 0,000 mm 0,0 UV-I 0 W/m² 2,6 °C 10,8 °C 17,7 km/h (3 Bft)
13.04.2017 03:25 10,7 °C 10,8 °C 57 % 1012,1 hPa 0,0 mm 14,3 km/h (3 Bft) W 276 ° 0 min 0,000 mm 0,0 UV-I 0 W/m² 2,5 °C 10,7 °C 27,4 km/h (4 Bft)
13.04.2017 03:26 10,7 °C 10,7 °C 57 % 1012,1 hPa 0,0 mm 15,2 km/h (3 Bft) W-NW 283 ° 0 min 0,000 mm 0,0 UV-I 0 W/m² 2,5 °C 10,7 °C 27,4 km/h (4 Bft)
13.04.2017 03:27 10,7 °C 10,7 °C 57 % 1012,1 hPa 0,0 mm 10,6 km/h (2 Bft) W-NW 290 ° 0 min 0,000 mm 0,0 UV-I 0 W/m² 2,5 °C 10,7 °C 20,9 km/h (4 Bft)
13.04.2017 03:28 10,6 °C 10,7 °C 57 % 1012,1 hPa 0,0 mm 16,4 km/h (3 Bft) W 280 ° 0 min 0,000 mm 0,0 UV-I 0 W/m² 2,4 °C 10,6 °C 24,1 km/h (4 Bft)
13.04.2017 03:29 10,6 °C 10,6 °C 57 % 1012,0 hPa 0,0 mm 16,9 km/h (3 Bft) NW 309 ° 0 min 0,000 mm 0,0 UV-I 0 W/m² 2,4 °C 10,6 °C 33,8 km/h (5 Bft)
13.04.2017 03:30 10,6 °C 10,7 °C 58 % 1012,0 hPa 0,0 mm 18,0 km/h (3 Bft) W-NW 286 ° 0 min 0,000 mm 0,0 UV-I 0 W/m² 2,7 °C 10,6 °C 25,7 km/h (4 Bft)
13.04.2017 03:31 10,6 °C 10,6 °C 58 % 1012,0 hPa 0,0 mm 18,1 km/h (3 Bft) W-SW 253 ° 0 min 0,000 mm 0,0 UV-I 0 W/m² 2,7 °C 10,6 °C 24,1 km/h (4 Bft)
13.04.2017 03:32 10,6 °C 10,6 °C 57 % 1012,0 hPa 0,0 mm 11,8 km/h (2 Bft) SW 225 ° 0 min 0,000 mm 0,0 UV-I 0 W/m² 2,4 °C 10,6 °C 19,3 km/h (3 Bft)
13.04.2017 03:33 10,6 °C 10,6 °C 57 % 1012,1 hPa 0,0 mm 17,8 km/h (3 Bft) W-NW 285 ° 0 min 0,000 mm 0,0 UV-I 0 W/m² 2,4 °C 10,6 °C 25,7 km/h (4 Bft)
13.04.2017 03:34 10,6 °C 10,6 °C 58 % 1012,1 hPa 0,0 mm 20,6 km/h (4 Bft) W-NW 284 ° 0 min 0,000 mm 0,0 UV-I 0 W/m² 2,7 °C 10,6 °C 29,0 km/h (5 Bft)
13.04.2017 03:35 10,6 °C 10,6 °C 57 % 1012,1 hPa 0,0 mm 12,3 km/h (3 Bft) W-NW 284 ° 0 min 0,000 mm 0,0 UV-I 0 W/m² 2,4 °C 10,6 °C 16,1 km/h (3 Bft)
13.04.2017 03:36 10,5 °C 10,6 °C 58 % 1012,2 hPa 0,0 mm 11,8 km/h (2 Bft) W 274 ° 0 min 0,000 mm 0,0 UV-I 0 W/m² 2,6 °C 10,5 °C 17,7 km/h (3 Bft)
13.04.2017 03:37 10,5 °C 10,6 °C 58 % 1012,1 hPa 0,0 mm 15,9 km/h (3 Bft) W 275 ° 0 min 0,000 mm 0,0 UV-I 0 W/m² 2,6 °C 10,5 °C 22,5 km/h (4 Bft)
13.04.2017 03:38 10,5 °C 10,5 °C 58 % 1012,1 hPa 0,0 mm 12,2 km/h (2 Bft) NW 315 ° 0 min 0,000 mm 0,0 UV-I 0 W/m² 2,6 °C 10,5 °C 16,1 km/h (3 Bft)
13.04.2017 03:39 10,4 °C 10,5 °C 59 % 1012,0 hPa 0,0 mm 14,2 km/h (3 Bft) W-NW 297 ° 0 min 0,000 mm 0,0 UV-I 0 W/m² 2,7 °C 10,4 °C 22,5 km/h (4 Bft)
13.04.2017 03:40 10,4 °C 10,4 °C 58 % 1012,1 hPa 0,0 mm 17,4 km/h (3 Bft) W-SW 255 ° 0 min 0,000 mm 0,0 UV-I 0 W/m² 2,5 °C 10,4 °C 30,6 km/h (5 Bft)
13.04.2017 03:41 10,4 °C 10,4 °C 58 % 1012,1 hPa 0,0 mm 18,8 km/h (3 Bft) W-NW 287 ° 0 min 0,000 mm 0,0 UV-I 0 W/m² 2,5 °C 10,4 °C 32,2 km/h (5 Bft)
13.04.2017 03:42 10,5 °C 10,5 °C 58 % 1012,0 hPa 0,0 mm 13,6 km/h (3 Bft) W-SW 249 ° 0 min 0,000 mm 0,0 UV-I 0 W/m² 2,6 °C 10,5 °C 17,7 km/h (3 Bft)
13.04.2017 03:43 10,5 °C 10,5 °C 58 % 1012,1 hPa 0,0 mm 18,6 km/h (3 Bft) W-NW 284 ° 0 min 0,000 mm 0,0 UV-I 0 W/m² 2,6 °C 10,5 °C 27,4 km/h (4 Bft)
13.04.2017 03:44 10,5 °C 10,5 °C 58 % 1012,2 hPa 0,0 mm 14,1 km/h (3 Bft) W-NW 297 ° 0 min 0,000 mm 0,0 UV-I 0 W/m² 2,6 °C 10,5 °C 20,9 km/h (4 Bft)
13.04.2017 03:45 10,5 °C 10,5 °C 59 % 1012,1 hPa 0,0 mm 9,2 km/h (2 Bft) W 275 ° 0 min 0,000 mm 0,0 UV-I 0 W/m² 2,8 °C 10,5 °C 20,9 km/h (4 Bft)
13.04.2017 03:46 10,5 °C 10,5 °C 59 % 1012,0 hPa 0,0 mm 19,2 km/h (3 Bft) W-NW 289 ° 0 min 0,000 mm 0,0 UV-I 0 W/m² 2,8 °C 10,5 °C 33,8 km/h (5 Bft)
13.04.2017 03:47 10,4 °C 10,5 °C 58 % 1012,1 hPa 0,0 mm 14,7 km/h (3 Bft) W 270 ° 0 min 0,000 mm 0,0 UV-I 0 W/m² 2,5 °C 10,4 °C 19,3 km/h (3 Bft)
13.04.2017 03:48 10,4 °C 10,5 °C 59 % 1012,1 hPa 0,0 mm 17,1 km/h (3 Bft) W 274 ° 0 min 0,000 mm 0,0 UV-I 0 W/m² 2,7 °C 10,4 °C 30,6 km/h (5 Bft)
13.04.2017 03:49 10,4 °C 10,4 °C 59 % 1012,1 hPa 0,0 mm 17,6 km/h (3 Bft) W 263 ° 0 min 0,000 mm 0,0 UV-I 0 W/m² 2,7 °C 10,4 °C 27,4 km/h (4 Bft)
13.04.2017 03:50 10,5 °C 10,5 °C 58 % 1012,1 hPa 0,0 mm 16,4 km/h (3 Bft) NW 316 ° 0 min 0,000 mm 0,0 UV-I 0 W/m² 2,6 °C 10,5 °C 24,1 km/h (4 Bft)
13.04.2017 03:51 10,4 °C 10,5 °C 59 % 1012,1 hPa 0,0 mm 14,3 km/h (3 Bft) NW 313 ° 0 min 0,000 mm 0,0 UV-I 0 W/m² 2,7 °C 10,4 °C 25,7 km/h (4 Bft)
13.04.2017 03:52 10,5 °C 10,5 °C 59 % 1012,1 hPa 0,0 mm 17,0 km/h (3 Bft) W-NW 287 ° 0 min 0,000 mm 0,0 UV-I 0 W/m² 2,8 °C 10,5 °C 20,9 km/h (4 Bft)
13.04.2017 03:53 10,4 °C 10,5 °C 58 % 1012,0 hPa 0,0 mm 17,7 km/h (3 Bft) W 279 ° 0 min 0,000 mm 0,0 UV-I 0 W/m² 2,5 °C 10,4 °C 24,1 km/h (4 Bft)
13.04.2017 03:54 10,4 °C 10,5 °C 59 % 1012,0 hPa 0,0 mm 18,3 km/h (3 Bft) W-SW 248 ° 0 min 0,000 mm 0,0 UV-I 0 W/m² 2,7 °C 10,4 °C 24,1 km/h (4 Bft)
13.04.2017 03:55 10,4 °C 10,4 °C 59 % 1012,0 hPa 0,0 mm 18,4 km/h (3 Bft) W 274 ° 0 min 0,000 mm 0,0 UV-I 0 W/m² 2,7 °C 10,4 °C 25,7 km/h (4 Bft)
13.04.2017 03:56 10,4 °C 10,4 °C 59 % 1012,0 hPa 0,0 mm 15,2 km/h (3 Bft) W 268 ° 0 min 0,000 mm 0,0 UV-I 0 W/m² 2,7 °C 10,4 °C 20,9 km/h (4 Bft)
13.04.2017 03:57 10,4 °C 10,4 °C 59 % 1012,0 hPa 0,0 mm 12,5 km/h (3 Bft) W-NW 287 ° 0 min 0,000 mm 0,0 UV-I 0 W/m² 2,7 °C 10,4 °C 17,7 km/h (3 Bft)
13.04.2017 03:58 10,3 °C 10,4 °C 59 % 1012,0 hPa 0,0 mm 11,5 km/h (2 Bft) W 265 ° 0 min 0,000 mm 0,0 UV-I 0 W/m² 2,6 °C 10,3 °C 16,1 km/h (3 Bft)
13.04.2017 03:59 10,3 °C 10,3 °C 60 % 1012,0 hPa 0,0 mm 11,0 km/h (2 Bft) W 281 ° 0 min 0,000 mm 0,0 UV-I 0 W/m² 2,9 °C 10,3 °C 12,9 km/h (3 Bft)
13.04.2017 04:00 10,3 °C 10,3 °C 60 % 1012,0 hPa 0,0 mm 9,0 km/h (2 Bft) W 259 ° 0 min 0,000 mm 0,0 UV-I 0 W/m² 2,9 °C 10,3 °C 12,9 km/h (3 Bft)
13.04.2017 04:01 10,3 °C 10,3 °C 59 % 1012,0 hPa 0,0 mm 15,0 km/h (3 Bft) W-NW 283 ° 0 min 0,077 mm 0,0 UV-I 0 W/m² 2,6 °C 10,3 °C 20,9 km/h (4 Bft)
13.04.2017 04:02 10,2 °C 10,3 °C 59 % 1012,0 hPa 0,0 mm 14,6 km/h (3 Bft) W 281 ° 0 min 0,000 mm 0,0 UV-I 0 W/m² 2,6 °C 10,2 °C 22,5 km/h (4 Bft)
13.04.2017 04:03 10,3 °C 10,3 °C 59 % 1012,0 hPa 0,0 mm 11,7 km/h (2 Bft) W-NW 288 ° 0 min 0,000 mm 0,0 UV-I 0 W/m² 2,6 °C 10,3 °C 19,3 km/h (3 Bft)
13.04.2017 04:04 10,3 °C 10,3 °C 59 % 1012,0 hPa 0,0 mm 17,2 km/h (3 Bft) SW 219 ° 0 min 0,000 mm 0,0 UV-I 0 W/m² 2,6 °C 10,3 °C 24,1 km/h (4 Bft)
13.04.2017 04:05 10,2 °C 10,3 °C 59 % 1012,0 hPa 0,0 mm 15,8 km/h (3 Bft) NW 310 ° 0 min 0,000 mm 0,0 UV-I 0 W/m² 2,6 °C 10,2 °C 25,7 km/h (4 Bft)
13.04.2017 04:06 10,2 °C 10,3 °C 60 % 1012,0 hPa 0,0 mm 10,8 km/h (2 Bft) W 269 ° 0 min 0,000 mm 0,0 UV-I 0 W/m² 2,8 °C 10,2 °C 14,5 km/h (3 Bft)
13.04.2017 04:07 10,2 °C 10,2 °C 60 % 1012,0 hPa 0,0 mm 9,5 km/h (2 Bft) W 279 ° 0 min 0,000 mm 0,0 UV-I 0 W/m² 2,8 °C 10,2 °C 12,9 km/h (3 Bft)
13.04.2017 04:08 10,1 °C 10,2 °C 60 % 1011,9 hPa 0,0 mm 11,0 km/h (2 Bft) W-NW 287 ° 0 min 0,000 mm 0,0 UV-I 0 W/m² 2,7 °C 10,1 °C 16,1 km/h (3 Bft)
13.04.2017 04:09 10,1 °C 10,1 °C 60 % 1011,9 hPa 0,0 mm 9,8 km/h (2 Bft) W-NW 290 ° 0 min 0,000 mm 0,0 UV-I 0 W/m² 2,7 °C 10,1 °C 14,5 km/h (3 Bft)
13.04.2017 04:10 10,1 °C 10,1 °C 60 % 1011,9 hPa 0,0 mm 13,6 km/h (3 Bft) W 275 ° 0 min 0,000 mm 0,0 UV-I 0 W/m² 2,7 °C 10,1 °C 19,3 km/h (3 Bft)
13.04.2017 04:11 10,1 °C 10,1 °C 60 % 1012,0 hPa 0,0 mm 14,3 km/h (3 Bft) W-NW 296 ° 0 min 0,000 mm 0,0 UV-I 0 W/m² 2,7 °C 10,1 °C 22,5 km/h (4 Bft)
13.04.2017 04:12 10,2 °C 10,2 °C 60 % 1012,0 hPa 0,0 mm 12,3 km/h (3 Bft) W 274 ° 0 min 0,000 mm 0,0 UV-I 0 W/m² 2,8 °C 10,2 °C 19,3 km/h (3 Bft)
13.04.2017 04:13 10,2 °C 10,2 °C 60 % 1012,0 hPa 0,0 mm 10,8 km/h (2 Bft) W 267 ° 0 min 0,000 mm 0,0 UV-I 0 W/m² 2,8 °C 10,2 °C 19,3 km/h (3 Bft)
13.04.2017 04:14 10,2 °C 10,2 °C 60 % 1012,0 hPa 0,0 mm 11,4 km/h (2 Bft) W 275 ° 0 min 0,000 mm 0,0 UV-I 0 W/m² 2,8 °C 10,2 °C 16,1 km/h (3 Bft)
13.04.2017 04:15 10,1 °C 10,2 °C 60 % 1012,0 hPa 0,0 mm 12,0 km/h (2 Bft) W 275 ° 0 min 0,000 mm 0,0 UV-I 0 W/m² 2,7 °C 10,1 °C 19,3 km/h (3 Bft)
13.04.2017 04:16 10,1 °C 10,1 °C 60 % 1012,0 hPa 0,0 mm 13,3 km/h (3 Bft) NW 323 ° 0 min 0,000 mm 0,0 UV-I 0 W/m² 2,7 °C 10,1 °C 19,3 km/h (3 Bft)
13.04.2017 04:17 10,1 °C 10,1 °C 60 % 1012,0 hPa 0,0 mm 16,7 km/h (3 Bft) W 269 ° 0 min 0,000 mm 0,0 UV-I 0 W/m² 2,7 °C 10,1 °C 27,4 km/h (4 Bft)
13.04.2017 04:18 10,1 °C 10,1 °C 60 % 1012,0 hPa 0,0 mm 12,2 km/h (2 Bft) W 280 ° 0 min 0,000 mm 0,0 UV-I 0 W/m² 2,7 °C 10,1 °C 19,3 km/h (3 Bft)
13.04.2017 04:19 10,1 °C 10,1 °C 60 % 1012,0 hPa 0,0 mm 16,5 km/h (3 Bft) NW 323 ° 0 min 0,000 mm 0,0 UV-I 0 W/m² 2,7 °C 10,1 °C 22,5 km/h (4 Bft)
13.04.2017 04:20 10,1 °C 10,1 °C 60 % 1012,0 hPa 0,0 mm 11,7 km/h (2 Bft) W 277 ° 0 min 0,000 mm 0,0 UV-I 0 W/m² 2,7 °C 10,1 °C 14,5 km/h (3 Bft)
13.04.2017 04:21 10,1 °C 10,1 °C 60 % 1012,0 hPa 0,0 mm 7,5 km/h (2 Bft) W-NW 292 ° 0 min 0,000 mm 0,0 UV-I 0 W/m² 2,7 °C 10,1 °C 11,3 km/h (2 Bft)
13.04.2017 04:22 10,1 °C 10,1 °C 60 % 1012,1 hPa 0,0 mm 15,5 km/h (3 Bft) W-NW 289 ° 0 min 0,000 mm 0,0 UV-I 0 W/m² 2,7 °C 10,1 °C 22,5 km/h (4 Bft)
13.04.2017 04:23 10,0 °C 10,1 °C 60 % 1012,0 hPa 0,0 mm 11,2 km/h (2 Bft) W 267 ° 0 min 0,000 mm 0,0 UV-I 0 W/m² 2,6 °C 8,4 °C 14,5 km/h (3 Bft)
13.04.2017 04:24 9,9 °C 10,0 °C 61 % 1012,0 hPa 0,0 mm 11,9 km/h (2 Bft) W-NW 286 ° 0 min 0,000 mm 0,0 UV-I 0 W/m² 2,7 °C 8,2 °C 20,9 km/h (4 Bft)
13.04.2017 04:25 9,9 °C 9,9 °C 61 % 1011,9 hPa 0,0 mm 5,7 km/h (1 Bft) W-NW 292 ° 0 min 0,000 mm 0,0 UV-I 0 W/m² 2,7 °C 9,4 °C 14,5 km/h (3 Bft)
13.04.2017 04:26 9,9 °C 9,9 °C 61 % 1012,0 hPa 0,0 mm 14,2 km/h (3 Bft) W 267 ° 0 min 0,000 mm 0,0 UV-I 0 W/m² 2,7 °C 7,9 °C 19,3 km/h (3 Bft)
13.04.2017 04:27 9,9 °C 9,9 °C 61 % 1012,0 hPa 0,0 mm 12,2 km/h (2 Bft) W 270 ° 0 min 0,000 mm 0,0 UV-I 0 W/m² 2,7 °C 8,2 °C 16,1 km/h (3 Bft)
13.04.2017 04:28 9,9 °C 9,9 °C 61 % 1012,0 hPa 0,0 mm 17,9 km/h (3 Bft) W 260 ° 0 min 0,000 mm 0,0 UV-I 0 W/m² 2,7 °C 7,5 °C 24,1 km/h (4 Bft)
13.04.2017 04:29 9,9 °C 9,9 °C 61 % 1012,0 hPa 0,0 mm 12,5 km/h (3 Bft) W-NW 287 ° 0 min 0,000 mm 0,0 UV-I 0 W/m² 2,7 °C 8,1 °C 19,3 km/h (3 Bft)
13.04.2017 04:30 9,9 °C 9,9 °C 61 % 1012,0 hPa 0,0 mm 12,5 km/h (3 Bft) W-NW 288 ° 0 min 0,000 mm 0,0 UV-I 0 W/m² 2,7 °C 8,1 °C 17,7 km/h (3 Bft)
13.04.2017 04:31 9,9 °C 9,9 °C 61 % 1011,9 hPa 0,0 mm 12,1 km/h (2 Bft) W 265 ° 0 min 0,000 mm 0,0 UV-I 0 W/m² 2,7 °C 8,2 °C 17,7 km/h (3 Bft)
13.04.2017 04:32 9,9 °C 9,9 °C 61 % 1011,9 hPa 0,0 mm 10,7 km/h (2 Bft) W 261 ° 0 min 0,000 mm 0,0 UV-I 0 W/m² 2,7 °C 8,4 °C 14,5 km/h (3 Bft)
13.04.2017 04:33 9,9 °C 9,9 °C 61 % 1012,0 hPa 0,0 mm 12,8 km/h (3 Bft) NW 316 ° 0 min 0,000 mm 0,0 UV-I 0 W/m² 2,7 °C 8,1 °C 19,3 km/h (3 Bft)
13.04.2017 04:34 9,9 °C 9,9 °C 61 % 1011,9 hPa 0,0 mm 18,0 km/h (3 Bft) W 273 ° 0 min 0,000 mm 0,0 UV-I 0 W/m² 2,7 °C 7,5 °C 22,5 km/h (4 Bft)
13.04.2017 04:35 9,9 °C 10,0 °C 61 % 1011,9 hPa 0,0 mm 14,6 km/h (3 Bft) W 270 ° 0 min 0,000 mm 0,0 UV-I 0 W/m² 2,7 °C 7,8 °C 22,5 km/h (4 Bft)
13.04.2017 04:36 10,0 °C 10,0 °C 60 % 1011,9 hPa 0,0 mm 17,6 km/h (3 Bft) W 281 ° 0 min 0,000 mm 0,0 UV-I 0 W/m² 2,6 °C 7,6 °C 30,6 km/h (5 Bft)
13.04.2017 04:37 10,1 °C 10,1 °C 61 % 1011,9 hPa 0,0 mm 18,5 km/h (3 Bft) W-NW 298 ° 0 min 0,000 mm 0,0 UV-I 0 W/m² 2,9 °C 10,1 °C 25,7 km/h (4 Bft)
13.04.2017 04:38 10,1 °C 10,1 °C 60 % 1011,9 hPa 0,0 mm 16,1 km/h (3 Bft) W 265 ° 0 min 0,000 mm 0,0 UV-I 0 W/m² 2,7 °C 10,1 °C 22,5 km/h (4 Bft)
13.04.2017 04:39 10,1 °C 10,1 °C 61 % 1011,9 hPa 0,0 mm 16,0 km/h (3 Bft) W-NW 283 ° 0 min 0,000 mm 0,0 UV-I 0 W/m² 2,9 °C 10,1 °C 27,4 km/h (4 Bft)
13.04.2017 04:40 10,1 °C 10,1 °C 61 % 1011,9 hPa 0,0 mm 13,8 km/h (3 Bft) W 273 ° 0 min 0,000 mm 0,0 UV-I 0 W/m² 2,9 °C 10,1 °C 29,0 km/h (5 Bft)
13.04.2017 04:41 10,1 °C 10,1 °C 61 % 1011,9 hPa 0,0 mm 10,5 km/h (2 Bft) W 276 ° 0 min 0,000 mm 0,0 UV-I 0 W/m² 2,9 °C 10,1 °C 19,3 km/h (3 Bft)
13.04.2017 04:42 10,1 °C 10,1 °C 61 % 1011,9 hPa 0,0 mm 15,9 km/h (3 Bft) NW 304 ° 0 min 0,000 mm 0,0 UV-I 0 W/m² 2,9 °C 10,1 °C 27,4 km/h (4 Bft)
13.04.2017 04:43 10,1 °C 10,1 °C 60 % 1011,9 hPa 0,0 mm 17,1 km/h (3 Bft) W-NW 296 ° 0 min 0,000 mm 0,0 UV-I 0 W/m² 2,7 °C 10,1 °C 22,5 km/h (4 Bft)
13.04.2017 04:44 10,1 °C 10,1 °C 60 % 1011,9 hPa 0,0 mm 11,7 km/h (2 Bft) W 265 ° 0 min 0,000 mm 0,0 UV-I 0 W/m² 2,7 °C 10,1 °C 16,1 km/h (3 Bft)
13.04.2017 04:45 10,1 °C 10,1 °C 61 % 1011,8 hPa 0,0 mm 14,4 km/h (3 Bft) W 279 ° 0 min 0,000 mm 0,0 UV-I 0 W/m² 2,9 °C 10,1 °C 22,5 km/h (4 Bft)
13.04.2017 04:46 10,1 °C 10,1 °C 60 % 1011,8 hPa 0,0 mm 20,3 km/h (4 Bft) W-NW 293 ° 0 min 0,000 mm 0,0 UV-I 0 W/m² 2,7 °C 10,1 °C 27,4 km/h (4 Bft)
13.04.2017 04:47 10,1 °C 10,1 °C 61 % 1011,7 hPa 0,0 mm 16,8 km/h (3 Bft) W 274 ° 0 min 0,000 mm 0,0 UV-I 0 W/m² 2,9 °C 10,1 °C 20,9 km/h (4 Bft)
13.04.2017 04:48 10,1 °C 10,1 °C 60 % 1011,7 hPa 0,0 mm 19,0 km/h (3 Bft) W-NW 282 ° 0 min 0,000 mm 0,0 UV-I 0 W/m² 2,7 °C 10,1 °C 30,6 km/h (5 Bft)
13.04.2017 04:49 10,1 °C 10,1 °C 61 % 1011,8 hPa 0,0 mm 12,1 km/h (2 Bft) W-SW 252 ° 0 min 0,000 mm 0,0 UV-I 0 W/m² 2,9 °C 10,1 °C 16,1 km/h (3 Bft)
13.04.2017 04:50 10,1 °C 10,1 °C 61 % 1011,8 hPa 0,0 mm 12,9 km/h (3 Bft) W 270 ° 0 min 0,000 mm 0,0 UV-I 0 W/m² 2,9 °C 10,1 °C 22,5 km/h (4 Bft)
13.04.2017 04:51 10,1 °C 10,1 °C 61 % 1011,7 hPa 0,0 mm 9,7 km/h (2 Bft) W 273 ° 0 min 0,000 mm 0,0 UV-I 0 W/m² 2,9 °C 10,1 °C 14,5 km/h (3 Bft)
13.04.2017 04:52 10,1 °C 10,1 °C 61 % 1011,7 hPa 0,0 mm 16,2 km/h (3 Bft) W 265 ° 0 min 0,000 mm 0,0 UV-I 0 W/m² 2,9 °C 10,1 °C 20,9 km/h (4 Bft)
13.04.2017 04:53 10,1 °C 10,1 °C 61 % 1011,8 hPa 0,0 mm 17,2 km/h (3 Bft) W 267 ° 0 min 0,000 mm 0,0 UV-I 0 W/m² 2,9 °C 10,1 °C 24,1 km/h (4 Bft)
13.04.2017 04:54 10,0 °C 10,1 °C 61 % 1011,7 hPa 0,0 mm 10,5 km/h (2 Bft) W-NW 295 ° 0 min 0,000 mm 0,0 UV-I 0 W/m² 2,8 °C 8,5 °C 22,5 km/h (4 Bft)
13.04.2017 04:55 10,0 °C 10,0 °C 61 % 1011,7 hPa 0,0 mm 8,8 km/h (2 Bft) W-NW 303 ° 0 min 0,000 mm 0,0 UV-I 0 W/m² 2,8 °C 8,8 °C 16,1 km/h (3 Bft)
13.04.2017 04:56 10,0 °C 10,0 °C 61 % 1011,7 hPa 0,0 mm 14,0 km/h (3 Bft) W 274 ° 0 min 0,000 mm 0,0 UV-I 0 W/m² 2,8 °C 8,0 °C 19,3 km/h (3 Bft)
13.04.2017 04:57 10,0 °C 10,0 °C 61 % 1011,7 hPa 0,0 mm 9,1 km/h (2 Bft) W-NW 286 ° 0 min 0,000 mm 0,0 UV-I 0 W/m² 2,8 °C 8,8 °C 16,1 km/h (3 Bft)
13.04.2017 04:58 9,9 °C 10,0 °C 61 % 1011,7 hPa 0,0 mm 17,0 km/h (3 Bft) W-NW 292 ° 0 min 0,000 mm 0,0 UV-I 0 W/m² 2,7 °C 7,6 °C 22,5 km/h (4 Bft)
13.04.2017 04:59 9,9 °C 9,9 °C 61 % 1011,6 hPa 0,0 mm 16,5 km/h (3 Bft) W-SW 254 ° 0 min 0,000 mm 0,0 UV-I 0 W/m² 2,7 °C 7,6 °C 27,4 km/h (4 Bft)
13.04.2017 05:00 10,0 °C 10,0 °C 61 % 1011,7 hPa 0,0 mm 20,7 km/h (4 Bft) W-NW 302 ° 0 min 0,076 mm 0,0 UV-I 0 W/m² 2,8 °C 7,3 °C 27,4 km/h (4 Bft)
13.04.2017 05:01 10,0 °C 10,0 °C 61 % 1011,6 hPa 0,0 mm 14,9 km/h (3 Bft) W 273 ° 0 min 0,000 mm 0,0 UV-I 0 W/m² 2,8 °C 7,9 °C 20,9 km/h (4 Bft)
13.04.2017 05:02 10,0 °C 10,0 °C 61 % 1011,7 hPa 0,0 mm 14,4 km/h (3 Bft) NW 315 ° 0 min 0,000 mm 0,0 UV-I 0 W/m² 2,8 °C 8,0 °C 20,9 km/h (4 Bft)
13.04.2017 05:03 10,1 °C 10,1 °C 61 % 1011,7 hPa 0,0 mm 15,9 km/h (3 Bft) W-NW 288 ° 0 min 0,000 mm 0,0 UV-I 0 W/m² 2,9 °C 10,1 °C 19,3 km/h (3 Bft)
13.04.2017 05:04 10,1 °C 10,1 °C 60 % 1011,6 hPa 0,0 mm 22,3 km/h (4 Bft) W-NW 298 ° 0 min 0,000 mm 0,0 UV-I 0 W/m² 2,7 °C 10,1 °C 29,0 km/h (5 Bft)
13.04.2017 05:05 10,1 °C 10,1 °C 61 % 1011,7 hPa 0,0 mm 14,8 km/h (3 Bft) W 259 ° 0 min 0,000 mm 0,0 UV-I 0 W/m² 2,9 °C 10,1 °C 22,5 km/h (4 Bft)
13.04.2017 05:06 10,1 °C 10,1 °C 61 % 1011,7 hPa 0,0 mm 13,3 km/h (3 Bft) W 273 ° 0 min 0,000 mm 0,0 UV-I 0 W/m² 2,9 °C 10,1 °C 20,9 km/h (4 Bft)
13.04.2017 05:07 10,1 °C 10,1 °C 61 % 1011,6 hPa 0,0 mm 11,9 km/h (2 Bft) W 260 ° 0 min 0,000 mm 0,0 UV-I 0 W/m² 2,9 °C 10,1 °C 19,3 km/h (3 Bft)
13.04.2017 05:08 10,1 °C 10,1 °C 61 % 1011,7 hPa 0,0 mm 12,6 km/h (3 Bft) W 279 ° 0 min 0,000 mm 0,0 UV-I 0 W/m² 2,9 °C 10,1 °C 16,1 km/h (3 Bft)
13.04.2017 05:09 10,1 °C 10,1 °C 61 % 1011,6 hPa 0,0 mm 7,3 km/h (2 Bft) NW 313 ° 0 min 0,000 mm 0,0 UV-I 0 W/m² 2,9 °C 10,1 °C 14,5 km/h (3 Bft)
13.04.2017 05:10 10,1 °C 10,1 °C 61 % 1011,6 hPa 0,0 mm 8,0 km/h (2 Bft) W 272 ° 0 min 0,000 mm 0,0 UV-I 0 W/m² 2,9 °C 10,1 °C 12,9 km/h (3 Bft)
13.04.2017 05:11 10,0 °C 10,1 °C 61 % 1011,6 hPa 0,0 mm 11,1 km/h (2 Bft) W-NW 287 ° 0 min 0,000 mm 0,0 UV-I 0 W/m² 2,8 °C 8,5 °C 14,5 km/h (3 Bft)
13.04.2017 05:12 9,9 °C 10,0 °C 61 % 1011,7 hPa 0,0 mm 16,2 km/h (3 Bft) NW 314 ° 0 min 0,000 mm 0,0 UV-I 0 W/m² 2,7 °C 7,6 °C 25,7 km/h (4 Bft)
13.04.2017 05:13 10,0 °C 10,0 °C 61 % 1011,7 hPa 0,0 mm 15,3 km/h (3 Bft) W-SW 246 ° 0 min 0,000 mm 0,0 UV-I 0 W/m² 2,8 °C 7,9 °C 24,1 km/h (4 Bft)
13.04.2017 05:14 10,0 °C 10,0 °C 61 % 1011,7 hPa 0,0 mm 14,1 km/h (3 Bft) W 271 ° 0 min 0,000 mm 0,0 UV-I 0 W/m² 2,8 °C 8,0 °C 20,9 km/h (4 Bft)
13.04.2017 05:15 10,1 °C 10,1 °C 61 % 1011,7 hPa 0,0 mm 11,8 km/h (2 Bft) W-SW 252 ° 0 min 0,000 mm 0,0 UV-I 0 W/m² 2,9 °C 10,1 °C 20,9 km/h (4 Bft)
13.04.2017 05:16 10,1 °C 10,1 °C 61 % 1011,7 hPa 0,0 mm 13,3 km/h (3 Bft) NW 315 ° 0 min 0,000 mm 0,0 UV-I 0 W/m² 2,9 °C 10,1 °C 17,7 km/h (3 Bft)
13.04.2017 05:17 10,1 °C 10,1 °C 61 % 1011,7 hPa 0,0 mm 13,3 km/h (3 Bft) W-SW 253 ° 0 min 0,000 mm 0,0 UV-I 0 W/m² 2,9 °C 10,1 °C 20,9 km/h (4 Bft)
13.04.2017 05:18 10,1 °C 10,1 °C 61 % 1011,8 hPa 0,0 mm 12,7 km/h (3 Bft) W 274 ° 0 min 0,000 mm 0,0 UV-I 0 W/m² 2,9 °C 10,1 °C 25,7 km/h (4 Bft)
13.04.2017 05:19 10,1 °C 10,1 °C 61 % 1011,7 hPa 0,0 mm 16,7 km/h (3 Bft) W-NW 298 ° 0 min 0,000 mm 0,0 UV-I 0 W/m² 2,9 °C 10,1 °C 29,0 km/h (5 Bft)
13.04.2017 05:20 10,1 °C 10,1 °C 61 % 1011,7 hPa 0,0 mm 10,3 km/h (2 Bft) W 268 ° 0 min 0,000 mm 0,0 UV-I 0 W/m² 2,9 °C 10,1 °C 16,1 km/h (3 Bft)
13.04.2017 05:21 10,1 °C 10,1 °C 61 % 1011,7 hPa 0,0 mm 13,1 km/h (3 Bft) W 261 ° 0 min 0,000 mm 0,0 UV-I 0 W/m² 2,9 °C 10,1 °C 19,3 km/h (3 Bft)
13.04.2017 05:22 10,1 °C 10,1 °C 61 % 1011,8 hPa 0,0 mm 15,8 km/h (3 Bft) W 270 ° 0 min 0,000 mm 0,0 UV-I 0 W/m² 2,9 °C 10,1 °C 24,1 km/h (4 Bft)
13.04.2017 05:23 10,1 °C 10,1 °C 61 % 1011,8 hPa 0,0 mm 18,5 km/h (3 Bft) W 280 ° 0 min 0,000 mm 0,0 UV-I 0 W/m² 2,9 °C 10,1 °C 24,1 km/h (4 Bft)
13.04.2017 05:24 10,1 °C 10,1 °C 61 % 1011,7 hPa 0,0 mm 11,8 km/h (2 Bft) W 272 ° 0 min 0,000 mm 0,0 UV-I 0 W/m² 2,9 °C 10,1 °C 20,9 km/h (4 Bft)
13.04.2017 05:25 10,1 °C 10,1 °C 61 % 1011,7 hPa 0,0 mm 14,9 km/h (3 Bft) W 277 ° 0 min 0,000 mm 0,0 UV-I 0 W/m² 2,9 °C 10,1 °C 19,3 km/h (3 Bft)
13.04.2017 05:26 10,1 °C 10,1 °C 61 % 1011,7 hPa 0,0 mm 12,7 km/h (3 Bft) W 279 ° 0 min 0,000 mm 0,0 UV-I 0 W/m² 2,9 °C 10,1 °C 22,5 km/h (4 Bft)
13.04.2017 05:27 10,1 °C 10,1 °C 61 % 1011,7 hPa 0,0 mm 16,8 km/h (3 Bft) W 264 ° 0 min 0,000 mm 0,0 UV-I 0 W/m² 2,9 °C 10,1 °C 20,9 km/h (4 Bft)
13.04.2017 05:28 10,1 °C 10,2 °C 60 % 1011,8 hPa 0,0 mm 15,3 km/h (3 Bft) NW 319 ° 0 min 0,000 mm 0,0 UV-I 0 W/m² 2,7 °C 10,1 °C 24,1 km/h (4 Bft)
13.04.2017 05:29 10,2 °C 10,2 °C 60 % 1011,6 hPa 0,0 mm 17,8 km/h (3 Bft) W 273 ° 0 min 0,000 mm 0,0 UV-I 0 W/m² 2,8 °C 10,2 °C 27,4 km/h (4 Bft)
13.04.2017 05:30 10,2 °C 10,2 °C 60 % 1011,7 hPa 0,0 mm 20,5 km/h (4 Bft) W 264 ° 0 min 0,000 mm 0,0 UV-I 0 W/m² 2,8 °C 10,2 °C 29,0 km/h (5 Bft)
13.04.2017 05:31 10,2 °C 10,2 °C 60 % 1011,6 hPa 0,0 mm 13,9 km/h (3 Bft) W 267 ° 0 min 0,000 mm 0,0 UV-I 0 W/m² 2,8 °C 10,2 °C 19,3 km/h (3 Bft)
13.04.2017 05:32 10,2 °C 10,2 °C 60 % 1011,7 hPa 0,0 mm 15,8 km/h (3 Bft) N-NW 328 ° 0 min 0,000 mm 0,0 UV-I 0 W/m² 2,8 °C 10,2 °C 20,9 km/h (4 Bft)
13.04.2017 05:33 10,2 °C 10,2 °C 61 % 1011,8 hPa 0,0 mm 9,5 km/h (2 Bft) W-NW 282 ° 0 min 0,000 mm 0,0 UV-I 0 W/m² 3,0 °C 10,2 °C 14,5 km/h (3 Bft)
13.04.2017 05:34 10,1 °C 10,2 °C 61 % 1011,7 hPa 0,0 mm 13,5 km/h (3 Bft) W 274 ° 0 min 0,000 mm 0,0 UV-I 0 W/m² 2,9 °C 10,1 °C 19,3 km/h (3 Bft)
13.04.2017 05:35 10,1 °C 10,2 °C 61 % 1011,7 hPa 0,0 mm 13,1 km/h (3 Bft) W-SW 252 ° 0 min 0,000 mm 0,0 UV-I 0 W/m² 2,9 °C 10,1 °C 19,3 km/h (3 Bft)
13.04.2017 05:36 10,1 °C 10,1 °C 61 % 1011,7 hPa 0,0 mm 18,3 km/h (3 Bft) W 277 ° 0 min 0,000 mm 0,0 UV-I 0 W/m² 2,9 °C 10,1 °C 27,4 km/h (4 Bft)
13.04.2017 05:37 10,1 °C 10,1 °C 61 % 1011,7 hPa 0,0 mm 13,3 km/h (3 Bft) W-SW 258 ° 0 min 0,000 mm 0,0 UV-I 0 W/m² 2,9 °C 10,1 °C 19,3 km/h (3 Bft)
13.04.2017 05:38 10,1 °C 10,1 °C 61 % 1011,7 hPa 0,0 mm 17,3 km/h (3 Bft) W 263 ° 0 min 0,000 mm 0,0 UV-I 0 W/m² 2,9 °C 10,1 °C 24,1 km/h (4 Bft)
13.04.2017 05:39 10,1 °C 10,1 °C 61 % 1011,6 hPa 0,0 mm 15,1 km/h (3 Bft) W-NW 290 ° 0 min 0,000 mm 0,0 UV-I 0 W/m² 2,9 °C 10,1 °C 22,5 km/h (4 Bft)
13.04.2017 05:40 10,1 °C 10,1 °C 61 % 1011,6 hPa 0,0 mm 19,9 km/h (4 Bft) W 271 ° 0 min 0,000 mm 0,0 UV-I 0 W/m² 2,9 °C 10,1 °C 24,1 km/h (4 Bft)
13.04.2017 05:41 10,1 °C 10,1 °C 61 % 1011,6 hPa 0,0 mm 19,2 km/h (3 Bft) W 265 ° 0 min 0,000 mm 0,0 UV-I 0 W/m² 2,9 °C 10,1 °C 27,4 km/h (4 Bft)
13.04.2017 05:42 10,1 °C 10,1 °C 61 % 1011,7 hPa 0,0 mm 16,6 km/h (3 Bft) W 277 ° 0 min 0,000 mm 0,0 UV-I 0 W/m² 2,9 °C 10,1 °C 22,5 km/h (4 Bft)
13.04.2017 05:43 10,1 °C 10,1 °C 61 % 1011,7 hPa 0,0 mm 8,6 km/h (2 Bft) W-NW 292 ° 0 min 0,000 mm 0,0 UV-I 0 W/m² 2,9 °C 10,1 °C 16,1 km/h (3 Bft)
13.04.2017 05:44 10,1 °C 10,1 °C 61 % 1011,6 hPa 0,0 mm 11,1 km/h (2 Bft) W 273 ° 0 min 0,000 mm 0,0 UV-I 0 W/m² 2,9 °C 10,1 °C 16,1 km/h (3 Bft)
13.04.2017 05:45 10,1 °C 10,1 °C 61 % 1011,6 hPa 0,0 mm 12,2 km/h (2 Bft) W 272 ° 0 min 0,000 mm 0,0 UV-I 0 W/m² 2,9 °C 10,1 °C 17,7 km/h (3 Bft)
13.04.2017 05:46 10,1 °C 10,1 °C 61 % 1011,6 hPa 0,0 mm 14,3 km/h (3 Bft) W 277 ° 0 min 0,000 mm 0,0 UV-I 0 W/m² 2,9 °C 10,1 °C 17,7 km/h (3 Bft)
13.04.2017 05:47 10,1 °C 10,1 °C 61 % 1011,6 hPa 0,0 mm 9,1 km/h (2 Bft) W-NW 287 ° 0 min 0,000 mm 0,0 UV-I 0 W/m² 2,9 °C 10,1 °C 16,1 km/h (3 Bft)
13.04.2017 05:48 10,1 °C 10,1 °C 61 % 1011,6 hPa 0,0 mm 14,2 km/h (3 Bft) W-NW 298 ° 0 min 0,000 mm 0,0 UV-I 0 W/m² 2,9 °C 10,1 °C 20,9 km/h (4 Bft)
13.04.2017 05:49 10,1 °C 10,1 °C 61 % 1011,6 hPa 0,0 mm 19,6 km/h (3 Bft) W-NW 286 ° 0 min 0,000 mm 0,0 UV-I 0 W/m² 2,9 °C 10,1 °C 29,0 km/h (5 Bft)
13.04.2017 05:50 10,1 °C 10,1 °C 61 % 1011,6 hPa 0,0 mm 14,8 km/h (3 Bft) W-SW 247 ° 0 min 0,000 mm 0,0 UV-I 0 W/m² 2,9 °C 10,1 °C 17,7 km/h (3 Bft)
13.04.2017 05:51 10,1 °C 10,2 °C 61 % 1011,6 hPa 0,0 mm 14,7 km/h (3 Bft) W-NW 291 ° 0 min 0,000 mm 0,0 UV-I 0 W/m² 2,9 °C 10,1 °C 24,1 km/h (4 Bft)
13.04.2017 05:52 10,1 °C 10,2 °C 61 % 1011,6 hPa 0,0 mm 8,1 km/h (2 Bft) W-NW 284 ° 0 min 0,000 mm 0,0 UV-I 0 W/m² 2,9 °C 10,1 °C 14,5 km/h (3 Bft)
13.04.2017 05:53 10,2 °C 10,2 °C 61 % 1011,6 hPa 0,0 mm 14,0 km/h (3 Bft) W-NW 296 ° 0 min 0,000 mm 0,0 UV-I 0 W/m² 3,0 °C 10,2 °C 17,7 km/h (3 Bft)
13.04.2017 05:54 10,2 °C 10,2 °C 61 % 1011,6 hPa 0,0 mm 14,7 km/h (3 Bft) NW 309 ° 0 min 0,000 mm 0,0 UV-I 0 W/m² 3,0 °C 10,2 °C 19,3 km/h (3 Bft)
13.04.2017 05:55 10,2 °C 10,2 °C 61 % 1011,6 hPa 0,0 mm 13,9 km/h (3 Bft) W 272 ° 0 min 0,000 mm 0,0 UV-I 0 W/m² 3,0 °C 10,2 °C 19,3 km/h (3 Bft)
13.04.2017 05:56 10,2 °C 10,2 °C 61 % 1011,6 hPa 0,0 mm 17,1 km/h (3 Bft) W 271 ° 0 min 0,000 mm 0,0 UV-I 0 W/m² 3,0 °C 10,2 °C 22,5 km/h (4 Bft)
13.04.2017 05:57 10,2 °C 10,2 °C 62 % 1011,6 hPa 0,0 mm 14,3 km/h (3 Bft) W 281 ° 0 min 0,000 mm 0,0 UV-I 0 W/m² 3,3 °C 10,2 °C 20,9 km/h (4 Bft)
13.04.2017 05:58 10,2 °C 10,2 °C 62 % 1011,6 hPa 0,0 mm 13,2 km/h (3 Bft) W 270 ° 0 min 0,000 mm 0,0 UV-I 0 W/m² 3,3 °C 10,2 °C 19,3 km/h (3 Bft)
13.04.2017 05:59 10,2 °C 10,2 °C 61 % 1011,6 hPa 0,0 mm 8,4 km/h (2 Bft) N-NW 333 ° 0 min 0,000 mm 0,0 UV-I 0 W/m² 3,0 °C 10,2 °C 14,5 km/h (3 Bft)
13.04.2017 06:00 10,2 °C 10,2 °C 61 % 1011,7 hPa 0,0 mm 14,8 km/h (3 Bft) NW 307 ° 0 min 0,076 mm 0,0 UV-I 0 W/m² 3,0 °C 10,2 °C 20,9 km/h (4 Bft)
13.04.2017 06:01 10,2 °C 10,2 °C 61 % 1011,7 hPa 0,0 mm 11,8 km/h (2 Bft) W 281 ° 0 min 0,000 mm 0,0 UV-I 0 W/m² 3,0 °C 10,2 °C 17,7 km/h (3 Bft)
13.04.2017 06:02 10,2 °C 10,2 °C 62 % 1011,6 hPa 0,0 mm 13,0 km/h (3 Bft) W 281 ° 0 min 0,000 mm 0,0 UV-I 0 W/m² 3,3 °C 10,2 °C 19,3 km/h (3 Bft)
13.04.2017 06:03 10,2 °C 10,2 °C 62 % 1011,6 hPa 0,0 mm 8,3 km/h (2 Bft) W-NW 300 ° 0 min 0,000 mm 0,0 UV-I 0 W/m² 3,3 °C 10,2 °C 12,9 km/h (3 Bft)
13.04.2017 06:04 10,2 °C 10,2 °C 61 % 1011,6 hPa 0,0 mm 10,6 km/h (2 Bft) W 281 ° 0 min 0,000 mm 0,0 UV-I 0 W/m² 3,0 °C 10,2 °C 17,7 km/h (3 Bft)
13.04.2017 06:05 10,2 °C 10,2 °C 62 % 1011,6 hPa 0,0 mm 16,0 km/h (3 Bft) W 273 ° 0 min 0,000 mm 0,0 UV-I 0 W/m² 3,3 °C 10,2 °C 20,9 km/h (4 Bft)
13.04.2017 06:06 10,2 °C 10,2 °C 61 % 1011,6 hPa 0,0 mm 12,3 km/h (3 Bft) W-NW 301 ° 0 min 0,000 mm 0,0 UV-I 0 W/m² 3,0 °C 10,2 °C 17,7 km/h (3 Bft)
13.04.2017 06:07 10,2 °C 10,2 °C 61 % 1011,6 hPa 0,0 mm 12,7 km/h (3 Bft) W 265 ° 0 min 0,000 mm 0,0 UV-I 0 W/m² 3,0 °C 10,2 °C 17,7 km/h (3 Bft)
13.04.2017 06:08 10,2 °C 10,2 °C 61 % 1011,6 hPa 0,0 mm 8,8 km/h (2 Bft) W-NW 291 ° 0 min 0,000 mm 0,0 UV-I 0 W/m² 3,0 °C 10,2 °C 16,1 km/h (3 Bft)
13.04.2017 06:09 10,2 °C 10,2 °C 61 % 1011,7 hPa 0,0 mm 12,6 km/h (3 Bft) NW 324 ° 0 min 0,000 mm 0,0 UV-I 0 W/m² 3,0 °C 10,2 °C 17,7 km/h (3 Bft)
13.04.2017 06:10 10,3 °C 10,3 °C 61 % 1011,6 hPa 0,0 mm 13,1 km/h (3 Bft) W 259 ° 0 min 0,000 mm 0,0 UV-I 0 W/m² 3,1 °C 10,3 °C 17,7 km/h (3 Bft)
13.04.2017 06:11 10,3 °C 10,3 °C 61 % 1011,6 hPa 0,0 mm 16,7 km/h (3 Bft) NW 325 ° 0 min 0,000 mm 0,0 UV-I 0 W/m² 3,1 °C 10,3 °C 25,7 km/h (4 Bft)
13.04.2017 06:12 10,3 °C 10,3 °C 61 % 1011,5 hPa 0,0 mm 20,5 km/h (4 Bft) W 276 ° 0 min 0,000 mm 0,0 UV-I 0 W/m² 3,1 °C 10,3 °C 33,8 km/h (5 Bft)
13.04.2017 06:13 10,3 °C 10,3 °C 61 % 1011,6 hPa 0,0 mm 23,3 km/h (4 Bft) W 278 ° 0 min 0,000 mm 0,0 UV-I 0 W/m² 3,1 °C 10,3 °C 32,2 km/h (5 Bft)
13.04.2017 06:14 10,3 °C 10,3 °C 61 % 1011,6 hPa 0,0 mm 18,3 km/h (3 Bft) W-NW 284 ° 0 min 0,000 mm 0,0 UV-I 0 W/m² 3,1 °C 10,3 °C 22,5 km/h (4 Bft)
13.04.2017 06:15 10,3 °C 10,3 °C 61 % 1011,5 hPa 0,0 mm 14,1 km/h (3 Bft) NW 310 ° 0 min 0,000 mm 0,0 UV-I 0 W/m² 3,1 °C 10,3 °C 20,9 km/h (4 Bft)
13.04.2017 06:16 10,3 °C 10,3 °C 61 % 1011,6 hPa 0,0 mm 17,6 km/h (3 Bft) NW 306 ° 0 min 0,000 mm 0,0 UV-I 0 W/m² 3,1 °C 10,3 °C 25,7 km/h (4 Bft)
13.04.2017 06:17 10,3 °C 10,3 °C 61 % 1011,6 hPa 0,0 mm 18,2 km/h (3 Bft) W 281 ° 0 min 0,000 mm 0,0 UV-I 0 W/m² 3,1 °C 10,3 °C 25,7 km/h (4 Bft)
13.04.2017 06:18 10,3 °C 10,3 °C 61 % 1011,6 hPa 0,0 mm 9,7 km/h (2 Bft) NW 309 ° 0 min 0,000 mm 0,0 UV-I 0 W/m² 3,1 °C 10,3 °C 16,1 km/h (3 Bft)
13.04.2017 06:19 10,3 °C 10,3 °C 61 % 1011,6 hPa 0,0 mm 11,8 km/h (2 Bft) W-NW 283 ° 0 min 0,000 mm 0,0 UV-I 0 W/m² 3,1 °C 10,3 °C 22,5 km/h (4 Bft)
13.04.2017 06:20 10,3 °C 10,3 °C 61 % 1011,6 hPa 0,0 mm 15,2 km/h (3 Bft) NW 317 ° 0 min 0,000 mm 0,0 UV-I 0 W/m² 3,1 °C 10,3 °C 24,1 km/h (4 Bft)
13.04.2017 06:21 10,3 °C 10,3 °C 62 % 1011,6 hPa 0,0 mm 12,2 km/h (2 Bft) W 271 ° 0 min 0,000 mm 0,0 UV-I 0 W/m² 3,3 °C 10,3 °C 17,7 km/h (3 Bft)
13.04.2017 06:22 10,3 °C 10,3 °C 61 % 1011,6 hPa 0,0 mm 14,6 km/h (3 Bft) W-NW 300 ° 0 min 0,000 mm 0,0 UV-I 0 W/m² 3,1 °C 10,3 °C 20,9 km/h (4 Bft)
13.04.2017 06:23 10,3 °C 10,3 °C 61 % 1011,6 hPa 0,0 mm 13,5 km/h (3 Bft) W-NW 295 ° 0 min 0,000 mm 0,0 UV-I 0 W/m² 3,1 °C 10,3 °C 17,7 km/h (3 Bft)
13.04.2017 06:24 10,3 °C 10,3 °C 62 % 1011,6 hPa 0,0 mm 7,8 km/h (2 Bft) W-NW 302 ° 0 min 0,000 mm 0,0 UV-I 0 W/m² 3,3 °C 10,3 °C 12,9 km/h (3 Bft)
13.04.2017 06:25 10,3 °C 10,3 °C 62 % 1011,6 hPa 0,0 mm 9,9 km/h (2 Bft) W 265 ° 0 min 0,000 mm 0,0 UV-I 0 W/m² 3,3 °C 10,3 °C 17,7 km/h (3 Bft)
13.04.2017 06:26 10,3 °C 10,3 °C 62 % 1011,6 hPa 0,0 mm 13,1 km/h (3 Bft) W-NW 296 ° 0 min 0,000 mm 0,0 UV-I 0 W/m² 3,3 °C 10,3 °C 20,9 km/h (4 Bft)
13.04.2017 06:27 10,3 °C 10,3 °C 61 % 1011,6 hPa 0,0 mm 15,6 km/h (3 Bft) NW 321 ° 0 min 0,000 mm 0,0 UV-I 0 W/m² 3,1 °C 10,3 °C 22,5 km/h (4 Bft)
13.04.2017 06:28 10,3 °C 10,3 °C 62 % 1011,7 hPa 0,0 mm 15,1 km/h (3 Bft) W 264 ° 0 min 0,000 mm 0,0 UV-I 0 W/m² 3,3 °C 10,3 °C 24,1 km/h (4 Bft)
13.04.2017 06:29 10,3 °C 10,3 °C 62 % 1011,6 hPa 0,0 mm 11,7 km/h (2 Bft) W 264 ° 0 min 0,000 mm 0,0 UV-I 0 W/m² 3,3 °C 10,3 °C 16,1 km/h (3 Bft)
13.04.2017 06:30 10,3 °C 10,3 °C 62 % 1011,6 hPa 0,0 mm 19,4 km/h (3 Bft) NW 310 ° 0 min 0,000 mm 0,0 UV-I 0 W/m² 3,3 °C 10,3 °C 35,4 km/h (5 Bft)
13.04.2017 06:31 10,3 °C 10,3 °C 62 % 1011,6 hPa 0,0 mm 15,4 km/h (3 Bft) W-NW 302 ° 0 min 0,000 mm 0,0 UV-I 0 W/m² 3,3 °C 10,3 °C 24,1 km/h (4 Bft)
13.04.2017 06:32 10,3 °C 10,3 °C 62 % 1011,6 hPa 0,0 mm 17,0 km/h (3 Bft) W-NW 301 ° 0 min 0,000 mm 0,0 UV-I 0 W/m² 3,3 °C 10,3 °C 25,7 km/h (4 Bft)
13.04.2017 06:33 10,3 °C 10,3 °C 62 % 1011,6 hPa 0,0 mm 12,7 km/h (3 Bft) W 272 ° 0 min 0,000 mm 0,0 UV-I 0 W/m² 3,3 °C 10,3 °C 17,7 km/h (3 Bft)
13.04.2017 06:34 10,2 °C 10,3 °C 62 % 1011,6 hPa 0,0 mm 13,7 km/h (3 Bft) W 275 ° 0 min 0,000 mm 0,0 UV-I 0 W/m² 3,3 °C 10,2 °C 19,3 km/h (3 Bft)
13.04.2017 06:35 10,2 °C 10,3 °C 62 % 1011,7 hPa 0,0 mm 18,2 km/h (3 Bft) W-SW 250 ° 0 min 0,000 mm 0,0 UV-I 0 W/m² 3,3 °C 10,2 °C 24,1 km/h (4 Bft)
13.04.2017 06:36 10,3 °C 10,3 °C 63 % 1011,7 hPa 0,0 mm 17,6 km/h (3 Bft) W-NW 300 ° 0 min 0,000 mm 0,0 UV-I 0 W/m² 3,6 °C 10,3 °C 25,7 km/h (4 Bft)
13.04.2017 06:37 10,2 °C 10,3 °C 62 % 1011,8 hPa 0,0 mm 17,5 km/h (3 Bft) W 281 ° 0 min 0,000 mm 0,0 UV-I 0 W/m² 3,3 °C 10,2 °C 29,0 km/h (5 Bft)
13.04.2017 06:38 10,2 °C 10,2 °C 62 % 1011,6 hPa 0,0 mm 21,8 km/h (4 Bft) W 281 ° 0 min 0,000 mm 0,0 UV-I 0 W/m² 3,3 °C 10,2 °C 30,6 km/h (5 Bft)
13.04.2017 06:39 10,3 °C 10,3 °C 62 % 1011,7 hPa 0,0 mm 19,9 km/h (4 Bft) W 281 ° 0 min 0,000 mm 0,0 UV-I 0 W/m² 3,3 °C 10,3 °C 27,4 km/h (4 Bft)
13.04.2017 06:40 10,3 °C 10,3 °C 62 % 1011,7 hPa 0,0 mm 16,7 km/h (3 Bft) W 281 ° 0 min 0,000 mm 0,0 UV-I 0 W/m² 3,3 °C 10,3 °C 22,5 km/h (4 Bft)
13.04.2017 06:41 10,2 °C 10,3 °C 63 % 1011,8 hPa 0,0 mm 16,9 km/h (3 Bft) NW 310 ° 0 min 0,000 mm 0,0 UV-I 0 W/m² 3,5 °C 10,2 °C 25,7 km/h (4 Bft)
13.04.2017 06:42 10,2 °C 10,3 °C 63 % 1011,8 hPa 0,0 mm 19,3 km/h (3 Bft) W 261 ° 0 min 0,000 mm 0,0 UV-I 0 W/m² 3,5 °C 10,2 °C 27,4 km/h (4 Bft)
13.04.2017 06:43 10,2 °C 10,3 °C 62 % 1011,8 hPa 0,0 mm 16,9 km/h (3 Bft) W 259 ° 0 min 0,000 mm 0,0 UV-I 0 W/m² 3,3 °C 10,2 °C 24,1 km/h (4 Bft)
13.04.2017 06:44 10,3 °C 10,3 °C 62 % 1011,8 hPa 0,0 mm 20,3 km/h (4 Bft) W 281 ° 0 min 0,000 mm 0,0 UV-I 0 W/m² 3,3 °C 10,3 °C 27,4 km/h (4 Bft)
13.04.2017 06:45 10,2 °C 10,3 °C 62 % 1011,8 hPa 0,0 mm 16,4 km/h (3 Bft) W 275 ° 0 min 0,000 mm 0,0 UV-I 0 W/m² 3,3 °C 10,2 °C 22,5 km/h (4 Bft)
13.04.2017 06:46 10,3 °C 10,3 °C 62 % 1011,8 hPa 0,0 mm 22,5 km/h (4 Bft) W 277 ° 0 min 0,000 mm 0,0 UV-I 0 W/m² 3,3 °C 10,3 °C 37,0 km/h (5 Bft)
13.04.2017 06:47 10,3 °C 10,3 °C 63 % 1011,8 hPa 0,0 mm 14,8 km/h (3 Bft) W-NW 292 ° 0 min 0,000 mm 0,0 UV-I 0 W/m² 3,6 °C 10,3 °C 22,5 km/h (4 Bft)
13.04.2017 06:48 10,2 °C 10,3 °C 63 % 1011,8 hPa 0,0 mm 18,2 km/h (3 Bft) NW 313 ° 0 min 0,000 mm 0,0 UV-I 0 W/m² 3,5 °C 10,2 °C 25,7 km/h (4 Bft)
13.04.2017 06:49 10,2 °C 10,3 °C 62 % 1011,8 hPa 0,0 mm 14,1 km/h (3 Bft) W 277 ° 0 min 0,000 mm 0,0 UV-I 0 W/m² 3,3 °C 10,2 °C 22,5 km/h (4 Bft)
13.04.2017 06:50 10,2 °C 10,3 °C 63 % 1011,8 hPa 0,0 mm 18,3 km/h (3 Bft) W 263 ° 0 min 0,000 mm 0,0 UV-I 0 W/m² 3,5 °C 10,2 °C 32,2 km/h (5 Bft)
13.04.2017 06:51 10,2 °C 10,2 °C 63 % 1011,8 hPa 0,0 mm 20,3 km/h (4 Bft) W-NW 292 ° 0 min 0,000 mm 0,0 UV-I 0 W/m² 3,5 °C 10,2 °C 29,0 km/h (5 Bft)
13.04.2017 06:52 10,2 °C 10,2 °C 63 % 1011,8 hPa 0,0 mm 15,6 km/h (3 Bft) W-NW 289 ° 0 min 0,000 mm 0,0 UV-I 0 W/m² 3,5 °C 10,2 °C 27,4 km/h (4 Bft)
13.04.2017 06:53 10,2 °C 10,2 °C 63 % 1011,7 hPa 0,0 mm 11,4 km/h (2 Bft) W-NW 293 ° 0 min 0,000 mm 0,0 UV-I 0 W/m² 3,5 °C 10,2 °C 24,1 km/h (4 Bft)
13.04.2017 06:54 10,2 °C 10,2 °C 63 % 1011,7 hPa 0,0 mm 22,7 km/h (4 Bft) NW 313 ° 0 min 0,000 mm 0,0 UV-I 0 W/m² 3,5 °C 10,2 °C 37,0 km/h (5 Bft)
13.04.2017 06:55 10,2 °C 10,2 °C 63 % 1011,7 hPa 0,0 mm 17,8 km/h (3 Bft) W-NW 290 ° 0 min 0,000 mm 0,0 UV-I 0 W/m² 3,5 °C 10,2 °C 25,7 km/h (4 Bft)
13.04.2017 06:56 10,2 °C 10,2 °C 63 % 1011,7 hPa 0,0 mm 14,6 km/h (3 Bft) N-NW 331 ° 0 min 0,000 mm 0,0 UV-I 0 W/m² 3,5 °C 10,2 °C 20,9 km/h (4 Bft)
13.04.2017 06:57 10,1 °C 10,2 °C 63 % 1011,7 hPa 0,0 mm 19,4 km/h (3 Bft) W-NW 303 ° 0 min 0,000 mm 0,0 UV-I 0 W/m² 3,4 °C 10,1 °C 25,7 km/h (4 Bft)
13.04.2017 06:58 10,2 °C 10,2 °C 63 % 1011,7 hPa 0,0 mm 15,6 km/h (3 Bft) W 261 ° 0 min 0,000 mm 0,0 UV-I 5 W/m² 3,5 °C 10,2 °C 19,3 km/h (3 Bft)
13.04.2017 06:59 10,1 °C 10,2 °C 63 % 1011,8 hPa 0,0 mm 14,1 km/h (3 Bft) W-NW 299 ° 0 min 0,000 mm 0,0 UV-I 5 W/m² 3,4 °C 10,1 °C 25,7 km/h (4 Bft)
13.04.2017 07:00 10,2 °C 10,2 °C 63 % 1011,9 hPa 0,0 mm 18,7 km/h (3 Bft) NW 313 ° 0 min 0,000 mm 0,0 UV-I 5 W/m² 3,5 °C 10,2 °C 27,4 km/h (4 Bft)
13.04.2017 07:01 10,1 °C 10,2 °C 63 % 1011,8 hPa 0,0 mm 16,2 km/h (3 Bft) W-NW 297 ° 0 min 0,076 mm 0,0 UV-I 5 W/m² 3,4 °C 10,1 °C 22,5 km/h (4 Bft)
13.04.2017 07:02 10,1 °C 10,1 °C 63 % 1011,8 hPa 0,0 mm 15,8 km/h (3 Bft) W-NW 291 ° 0 min 0,000 mm 0,0 UV-I 7 W/m² 3,4 °C 10,1 °C 22,5 km/h (4 Bft)
13.04.2017 07:03 10,1 °C 10,1 °C 63 % 1011,8 hPa 0,0 mm 9,0 km/h (2 Bft) W-NW 300 ° 0 min 0,000 mm 0,0 UV-I 7 W/m² 3,4 °C 10,1 °C 14,5 km/h (3 Bft)
13.04.2017 07:04 10,1 °C 10,1 °C 63 % 1011,8 hPa 0,0 mm 10,7 km/h (2 Bft) W-NW 292 ° 0 min 0,000 mm 0,0 UV-I 9 W/m² 3,4 °C 10,1 °C 14,5 km/h (3 Bft)
13.04.2017 07:05 10,1 °C 10,1 °C 64 % 1011,8 hPa 0,0 mm 12,6 km/h (3 Bft) W 271 ° 0 min 0,000 mm 0,0 UV-I 11 W/m² 3,6 °C 10,1 °C 19,3 km/h (3 Bft)
13.04.2017 07:06 10,1 °C 10,1 °C 64 % 1011,8 hPa 0,0 mm 16,4 km/h (3 Bft) W 276 ° 0 min 0,000 mm 0,0 UV-I 11 W/m² 3,6 °C 10,1 °C 20,9 km/h (4 Bft)
13.04.2017 07:07 10,1 °C 10,1 °C 64 % 1011,8 hPa 0,0 mm 17,9 km/h (3 Bft) W 266 ° 0 min 0,000 mm 0,0 UV-I 11 W/m² 3,6 °C 10,1 °C 25,7 km/h (4 Bft)
13.04.2017 07:08 10,1 °C 10,1 °C 64 % 1011,7 hPa 0,0 mm 16,2 km/h (3 Bft) W 279 ° 0 min 0,000 mm 0,0 UV-I 11 W/m² 3,6 °C 10,1 °C 33,8 km/h (5 Bft)
13.04.2017 07:09 10,0 °C 10,1 °C 64 % 1011,8 hPa 0,0 mm 18,3 km/h (3 Bft) W-NW 301 ° 0 min 0,000 mm 0,0 UV-I 11 W/m² 3,5 °C 7,5 °C 27,4 km/h (4 Bft)
13.04.2017 07:10 10,0 °C 10,1 °C 64 % 1011,8 hPa 0,0 mm 10,5 km/h (2 Bft) W-NW 303 ° 0 min 0,000 mm 0,0 UV-I 12 W/m² 3,5 °C 8,5 °C 16,1 km/h (3 Bft)
13.04.2017 07:11 10,0 °C 10,0 °C 64 % 1011,8 hPa 0,0 mm 12,5 km/h (3 Bft) W-SW 248 ° 0 min 0,000 mm 0,0 UV-I 14 W/m² 3,5 °C 8,2 °C 20,9 km/h (4 Bft)
13.04.2017 07:12 10,0 °C 10,0 °C 64 % 1011,8 hPa 0,0 mm 15,9 km/h (3 Bft) W-NW 284 ° 0 min 0,000 mm 0,0 UV-I 16 W/m² 3,5 °C 7,8 °C 24,1 km/h (4 Bft)
13.04.2017 07:13 10,0 °C 10,0 °C 64 % 1011,8 hPa 0,0 mm 15,4 km/h (3 Bft) W 279 ° 0 min 0,000 mm 0,0 UV-I 16 W/m² 3,5 °C 7,9 °C 19,3 km/h (3 Bft)
13.04.2017 07:14 10,0 °C 10,0 °C 65 % 1011,8 hPa 0,0 mm 14,3 km/h (3 Bft) W 277 ° 0 min 0,000 mm 0,0 UV-I 18 W/m² 3,7 °C 8,0 °C 22,5 km/h (4 Bft)
13.04.2017 07:15 9,9 °C 10,0 °C 64 % 1011,8 hPa 0,0 mm 16,1 km/h (3 Bft) W-NW 300 ° 0 min 0,000 mm 0,0 UV-I 18 W/m² 3,4 °C 7,7 °C 20,9 km/h (4 Bft)
13.04.2017 07:16 9,9 °C 9,9 °C 64 % 1011,8 hPa 0,0 mm 18,5 km/h (3 Bft) W-NW 296 ° 0 min 0,000 mm 0,0 UV-I 18 W/m² 3,4 °C 7,4 °C 22,5 km/h (4 Bft)
13.04.2017 07:17 9,9 °C 9,9 °C 64 % 1011,8 hPa 0,0 mm 10,2 km/h (2 Bft) W-NW 295 ° 0 min 0,000 mm 0,0 UV-I 18 W/m² 3,4 °C 8,5 °C 14,5 km/h (3 Bft)
13.04.2017 07:18 9,9 °C 9,9 °C 65 % 1011,8 hPa 0,0 mm 9,2 km/h (2 Bft) W-SW 250 ° 0 min 0,000 mm 0,0 UV-I 19 W/m² 3,6 °C 8,7 °C 12,9 km/h (3 Bft)
13.04.2017 07:19 9,9 °C 9,9 °C 64 % 1011,8 hPa 0,0 mm 10,8 km/h (2 Bft) NW 321 ° 0 min 0,000 mm 0,0 UV-I 19 W/m² 3,4 °C 8,4 °C 16,1 km/h (3 Bft)
13.04.2017 07:20 9,9 °C 9,9 °C 64 % 1011,7 hPa 0,0 mm 10,3 km/h (2 Bft) W-NW 301 ° 0 min 0,000 mm 0,0 UV-I 19 W/m² 3,4 °C 8,5 °C 17,7 km/h (3 Bft)
13.04.2017 07:21 9,9 °C 9,9 °C 64 % 1011,8 hPa 0,0 mm 9,2 km/h (2 Bft) W 259 ° 0 min 0,000 mm 0,0 UV-I 21 W/m² 3,4 °C 8,7 °C 14,5 km/h (3 Bft)
13.04.2017 07:22 9,9 °C 9,9 °C 64 % 1011,8 hPa 0,0 mm 6,1 km/h (2 Bft) NW 311 ° 0 min 0,000 mm 0,0 UV-I 23 W/m² 3,4 °C 9,3 °C 9,7 km/h (2 Bft)
13.04.2017 07:23 9,9 °C 9,9 °C 65 % 1011,8 hPa 0,0 mm 9,1 km/h (2 Bft) W 278 ° 0 min 0,000 mm 0,0 UV-I 23 W/m² 3,6 °C 8,7 °C 14,5 km/h (3 Bft)
13.04.2017 07:24 9,9 °C 9,9 °C 65 % 1011,8 hPa 0,0 mm 11,0 km/h (2 Bft) W-NW 292 ° 0 min 0,000 mm 0,0 UV-I 25 W/m² 3,6 °C 8,3 °C 17,7 km/h (3 Bft)
13.04.2017 07:25 9,9 °C 9,9 °C 64 % 1011,8 hPa 0,0 mm 14,3 km/h (3 Bft) W 278 ° 0 min 0,000 mm 0,0 UV-I 25 W/m² 3,4 °C 7,9 °C 20,9 km/h (4 Bft)
13.04.2017 07:26 9,9 °C 9,9 °C 64 % 1011,8 hPa 0,0 mm 7,0 km/h (2 Bft) W-SW 245 ° 0 min 0,000 mm 0,0 UV-I 25 W/m² 3,4 °C 9,1 °C 11,3 km/h (2 Bft)
13.04.2017 07:27 9,9 °C 9,9 °C 64 % 1011,7 hPa 0,0 mm 11,9 km/h (2 Bft) W 271 ° 0 min 0,000 mm 0,0 UV-I 25 W/m² 3,4 °C 8,2 °C 14,5 km/h (3 Bft)
13.04.2017 07:28 9,9 °C 9,9 °C 64 % 1011,8 hPa 0,0 mm 8,5 km/h (2 Bft) NW 319 ° 0 min 0,000 mm 0,0 UV-I 23 W/m² 3,4 °C 8,8 °C 14,5 km/h (3 Bft)
13.04.2017 07:29 9,9 °C 9,9 °C 64 % 1011,8 hPa 0,0 mm 8,0 km/h (2 Bft) NW 307 ° 0 min 0,000 mm 0,0 UV-I 23 W/m² 3,4 °C 8,9 °C 11,3 km/h (2 Bft)
13.04.2017 07:30 9,9 °C 9,9 °C 65 % 1011,8 hPa 0,0 mm 7,6 km/h (2 Bft) W-NW 291 ° 0 min 0,000 mm 0,0 UV-I 23 W/m² 3,6 °C 9,0 °C 11,3 km/h (2 Bft)
13.04.2017 07:31 9,9 °C 9,9 °C 64 % 1011,9 hPa 0,0 mm 17,1 km/h (3 Bft) W-NW 296 ° 0 min 0,000 mm 0,0 UV-I 21 W/m² 3,4 °C 7,5 °C 27,4 km/h (4 Bft)
13.04.2017 07:32 9,9 °C 9,9 °C 64 % 1011,8 hPa 0,0 mm 12,6 km/h (3 Bft) W 268 ° 0 min 0,000 mm 0,0 UV-I 21 W/m² 3,4 °C 8,1 °C 20,9 km/h (4 Bft)
13.04.2017 07:33 9,9 °C 9,9 °C 65 % 1011,8 hPa 0,0 mm 9,7 km/h (2 Bft) W-NW 285 ° 0 min 0,000 mm 0,0 UV-I 21 W/m² 3,6 °C 8,6 °C 19,3 km/h (3 Bft)
13.04.2017 07:34 9,9 °C 9,9 °C 64 % 1011,9 hPa 0,0 mm 6,2 km/h (2 Bft) W 263 ° 0 min 0,000 mm 0,0 UV-I 21 W/m² 3,4 °C 9,3 °C 12,9 km/h (3 Bft)
13.04.2017 07:35 9,9 °C 9,9 °C 64 % 1011,8 hPa 0,0 mm 8,5 km/h (2 Bft) W 263 ° 0 min 0,000 mm 0,0 UV-I 21 W/m² 3,4 °C 8,8 °C 17,7 km/h (3 Bft)
13.04.2017 07:36 9,9 °C 9,9 °C 64 % 1011,9 hPa 0,0 mm 11,2 km/h (2 Bft) NW 313 ° 0 min 0,000 mm 0,0 UV-I 21 W/m² 3,4 °C 8,3 °C 16,1 km/h (3 Bft)
13.04.2017 07:37 9,9 °C 9,9 °C 64 % 1011,9 hPa 0,0 mm 13,2 km/h (3 Bft) W 265 ° 0 min 0,000 mm 0,0 UV-I 21 W/m² 3,4 °C 8,0 °C 17,7 km/h (3 Bft)
13.04.2017 07:38 9,9 °C 9,9 °C 65 % 1011,9 hPa 0,0 mm 14,3 km/h (3 Bft) W 275 ° 0 min 0,000 mm 0,0 UV-I 21 W/m² 3,6 °C 7,9 °C 19,3 km/h (3 Bft)
13.04.2017 07:39 9,9 °C 9,9 °C 64 % 1011,8 hPa 0,0 mm 15,7 km/h (3 Bft) W 278 ° 0 min 0,000 mm 0,0 UV-I 25 W/m² 3,4 °C 7,7 °C 22,5 km/h (4 Bft)
13.04.2017 07:40 9,9 °C 9,9 °C 64 % 1011,8 hPa 0,0 mm 10,2 km/h (2 Bft) W-NW 302 ° 0 min 0,000 mm 0,0 UV-I 26 W/m² 3,4 °C 8,5 °C 16,1 km/h (3 Bft)
13.04.2017 07:41 9,9 °C 9,9 °C 65 % 1011,9 hPa 0,0 mm 13,4 km/h (3 Bft) NW 317 ° 0 min 0,000 mm 0,0 UV-I 28 W/m² 3,6 °C 8,0 °C 19,3 km/h (3 Bft)
13.04.2017 07:42 9,9 °C 9,9 °C 65 % 1011,8 hPa 0,0 mm 9,7 km/h (2 Bft) NW 309 ° 0 min 0,000 mm 0,0 UV-I 28 W/m² 3,6 °C 8,6 °C 16,1 km/h (3 Bft)
13.04.2017 07:43 9,9 °C 9,9 °C 65 % 1011,9 hPa 0,0 mm 5,9 km/h (2 Bft) W-NW 292 ° 0 min 0,000 mm 0,0 UV-I 28 W/m² 3,6 °C 9,4 °C 12,9 km/h (3 Bft)
13.04.2017 07:44 9,9 °C 9,9 °C 65 % 1011,9 hPa 0,0 mm 7,6 km/h (2 Bft) W 268 ° 0 min 0,000 mm 0,0 UV-I 28 W/m² 3,6 °C 9,0 °C 12,9 km/h (3 Bft)
13.04.2017 07:45 9,9 °C 9,9 °C 65 % 1011,9 hPa 0,0 mm 16,0 km/h (3 Bft) W-NW 285 ° 0 min 0,000 mm 0,0 UV-I 28 W/m² 3,6 °C 7,7 °C 25,7 km/h (4 Bft)
13.04.2017 07:46 9,9 °C 9,9 °C 65 % 1011,8 hPa 0,0 mm 16,6 km/h (3 Bft) W-NW 298 ° 0 min 0,000 mm 0,0 UV-I 30 W/m² 3,6 °C 7,6 °C 24,1 km/h (4 Bft)
13.04.2017 07:47 9,9 °C 9,9 °C 64 % 1011,9 hPa 0,0 mm 10,2 km/h (2 Bft) W-NW 291 ° 0 min 0,000 mm 0,0 UV-I 30 W/m² 3,4 °C 8,5 °C 12,9 km/h (3 Bft)
13.04.2017 07:48 9,9 °C 9,9 °C 65 % 1011,8 hPa 0,0 mm 7,2 km/h (2 Bft) W 263 ° 0 min 0,000 mm 0,0 UV-I 32 W/m² 3,6 °C 9,1 °C 12,9 km/h (3 Bft)
13.04.2017 07:49 9,9 °C 9,9 °C 65 % 1011,8 hPa 0,0 mm 13,7 km/h (3 Bft) NW 325 ° 0 min 0,000 mm 0,0 UV-I 30 W/m² 3,6 °C 8,0 °C 22,5 km/h (4 Bft)
13.04.2017 07:50 9,9 °C 9,9 °C 65 % 1011,8 hPa 0,0 mm 10,6 km/h (2 Bft) W-NW 303 ° 0 min 0,000 mm 0,0 UV-I 35 W/m² 3,6 °C 8,4 °C 12,9 km/h (3 Bft)
13.04.2017 07:51 9,9 °C 9,9 °C 65 % 1011,8 hPa 0,0 mm 10,1 km/h (2 Bft) W-NW 299 ° 0 min 0,000 mm 0,0 UV-I 35 W/m² 3,6 °C 8,5 °C 22,5 km/h (4 Bft)
13.04.2017 07:52 9,9 °C 9,9 °C 65 % 1011,8 hPa 0,0 mm 13,3 km/h (3 Bft) NW 304 ° 0 min 0,000 mm 0,0 UV-I 33 W/m² 3,6 °C 8,0 °C 17,7 km/h (3 Bft)
13.04.2017 07:53 9,9 °C 9,9 °C 65 % 1011,7 hPa 0,0 mm 11,3 km/h (2 Bft) NW 317 ° 0 min 0,000 mm 0,0 UV-I 32 W/m² 3,6 °C 8,3 °C 16,1 km/h (3 Bft)
13.04.2017 07:54 9,9 °C 9,9 °C 65 % 1011,7 hPa 0,0 mm 13,6 km/h (3 Bft) NW 310 ° 0 min 0,000 mm 0,0 UV-I 33 W/m² 3,6 °C 8,0 °C 19,3 km/h (3 Bft)
13.04.2017 07:55 9,9 °C 9,9 °C 65 % 1011,7 hPa 0,0 mm 13,7 km/h (3 Bft) W-NW 294 ° 0 min 0,000 mm 0,0 UV-I 35 W/m² 3,6 °C 8,0 °C 22,5 km/h (4 Bft)
13.04.2017 07:56 10,0 °C 10,0 °C 65 % 1011,8 hPa 0,0 mm 18,7 km/h (3 Bft) W-SW 257 ° 0 min 0,000 mm 0,0 UV-I 37 W/m² 3,7 °C 7,5 °C 30,6 km/h (5 Bft)
13.04.2017 07:57 10,0 °C 10,0 °C 65 % 1011,8 hPa 0,0 mm 16,5 km/h (3 Bft) W 281 ° 0 min 0,000 mm 0,0 UV-I 35 W/m² 3,7 °C 7,7 °C 24,1 km/h (4 Bft)
13.04.2017 07:58 10,0 °C 10,0 °C 64 % 1011,8 hPa 0,0 mm 18,8 km/h (3 Bft) W 269 ° 0 min 0,000 mm 0,0 UV-I 30 W/m² 3,5 °C 7,5 °C 25,7 km/h (4 Bft)
13.04.2017 07:59 10,1 °C 10,1 °C 65 % 1011,9 hPa 0,0 mm 13,3 km/h (3 Bft) W-NW 287 ° 0 min 0,000 mm 0,0 UV-I 30 W/m² 3,8 °C 10,1 °C 20,9 km/h (4 Bft)
13.04.2017 08:00 10,1 °C 10,1 °C 65 % 1011,8 hPa 0,0 mm 10,3 km/h (2 Bft) W 259 ° 0 min 0,051 mm 0,0 UV-I 28 W/m² 3,8 °C 10,1 °C 17,7 km/h (3 Bft)
13.04.2017 08:01 10,1 °C 10,1 °C 65 % 1011,9 hPa 0,0 mm 17,6 km/h (3 Bft) W 270 ° 0 min 0,000 mm 0,0 UV-I 26 W/m² 3,8 °C 10,1 °C 27,4 km/h (4 Bft)
13.04.2017 08:02 10,1 °C 10,1 °C 64 % 1011,9 hPa 0,0 mm 13,6 km/h (3 Bft) W-NW 296 ° 0 min 0,000 mm 0,0 UV-I 26 W/m² 3,6 °C 10,1 °C 19,3 km/h (3 Bft)
13.04.2017 08:03 10,1 °C 10,1 °C 65 % 1011,9 hPa 0,0 mm 12,5 km/h (3 Bft) W-NW 298 ° 0 min 0,000 mm 0,0 UV-I 26 W/m² 3,8 °C 10,1 °C 17,7 km/h (3 Bft)
13.04.2017 08:04 10,1 °C 10,1 °C 65 % 1011,9 hPa 0,0 mm 15,6 km/h (3 Bft) W-NW 284 ° 0 min 0,000 mm 0,0 UV-I 25 W/m² 3,8 °C 10,1 °C 24,1 km/h (4 Bft)
13.04.2017 08:05 10,1 °C 10,1 °C 65 % 1011,9 hPa 0,0 mm 11,5 km/h (2 Bft) NW 305 ° 0 min 0,000 mm 0,0 UV-I 25 W/m² 3,8 °C 10,1 °C 16,1 km/h (3 Bft)
13.04.2017 08:06 10,1 °C 10,1 °C 65 % 1011,9 hPa 0,0 mm 14,4 km/h (3 Bft) W-NW 298 ° 0 min 0,000 mm 0,0 UV-I 23 W/m² 3,8 °C 10,1 °C 22,5 km/h (4 Bft)
13.04.2017 08:07 10,1 °C 10,1 °C 65 % 1012,0 hPa 0,0 mm 17,8 km/h (3 Bft) W 267 ° 0 min 0,000 mm 0,0 UV-I 21 W/m² 3,8 °C 10,1 °C 29,0 km/h (5 Bft)
13.04.2017 08:08 10,1 °C 10,1 °C 65 % 1012,0 hPa 0,0 mm 13,3 km/h (3 Bft) W-NW 297 ° 0 min 0,000 mm 0,0 UV-I 21 W/m² 3,8 °C 10,1 °C 19,3 km/h (3 Bft)
13.04.2017 08:09 10,1 °C 10,1 °C 65 % 1011,9 hPa 0,0 mm 8,7 km/h (2 Bft) NW 314 ° 0 min 0,000 mm 0,0 UV-I 25 W/m² 3,8 °C 10,1 °C 12,9 km/h (3 Bft)
13.04.2017 08:10 10,1 °C 10,1 °C 65 % 1012,0 hPa 0,0 mm 10,6 km/h (2 Bft) W 261 ° 0 min 0,000 mm 0,0 UV-I 26 W/m² 3,8 °C 10,1 °C 19,3 km/h (3 Bft)
13.04.2017 08:11 10,1 °C 10,1 °C 65 % 1011,9 hPa 0,0 mm 9,0 km/h (2 Bft) W 277 ° 0 min 0,000 mm 0,0 UV-I 25 W/m² 3,8 °C 10,1 °C 14,5 km/h (3 Bft)
13.04.2017 08:12 10,1 °C 10,1 °C 65 % 1012,0 hPa 0,0 mm 13,5 km/h (3 Bft) W-NW 285 ° 0 min 0,000 mm 0,0 UV-I 23 W/m² 3,8 °C 10,1 °C 20,9 km/h (4 Bft)
13.04.2017 08:13 10,1 °C 10,1 °C 65 % 1012,0 hPa 0,0 mm 12,5 km/h (3 Bft) W-NW 300 ° 0 min 0,000 mm 0,0 UV-I 21 W/m² 3,8 °C 10,1 °C 20,9 km/h (4 Bft)
13.04.2017 08:14 10,1 °C 10,1 °C 65 % 1011,9 hPa 0,0 mm 16,8 km/h (3 Bft) W-NW 290 ° 0 min 0,000 mm 0,0 UV-I 21 W/m² 3,8 °C 10,1 °C 19,3 km/h (3 Bft)
13.04.2017 08:15 10,1 °C 10,1 °C 65 % 1011,9 hPa 0,0 mm 13,4 km/h (3 Bft) W-NW 298 ° 0 min 0,000 mm 0,0 UV-I 23 W/m² 3,8 °C 10,1 °C 22,5 km/h (4 Bft)
13.04.2017 08:16 10,1 °C 10,1 °C 65 % 1011,9 hPa 0,0 mm 8,4 km/h (2 Bft) NW 321 ° 0 min 0,000 mm 0,0 UV-I 25 W/m² 3,8 °C 10,1 °C 12,9 km/h (3 Bft)
13.04.2017 08:17 10,1 °C 10,1 °C 65 % 1012,0 hPa 0,0 mm 15,2 km/h (3 Bft) W 263 ° 0 min 0,000 mm 0,0 UV-I 26 W/m² 3,8 °C 10,1 °C 22,5 km/h (4 Bft)
13.04.2017 08:18 10,1 °C 10,1 °C 65 % 1011,9 hPa 0,0 mm 19,3 km/h (3 Bft) W-SW 255 ° 0 min 0,000 mm 0,0 UV-I 23 W/m² 3,8 °C 10,1 °C 27,4 km/h (4 Bft)
13.04.2017 08:19 10,1 °C 10,1 °C 65 % 1012,0 hPa 0,0 mm 15,6 km/h (3 Bft) W-NW 292 ° 0 min 0,000 mm 0,0 UV-I 23 W/m² 3,8 °C 10,1 °C 24,1 km/h (4 Bft)
13.04.2017 08:20 10,1 °C 10,1 °C 65 % 1012,0 hPa 0,0 mm 16,0 km/h (3 Bft) W-NW 303 ° 0 min 0,000 mm 0,0 UV-I 25 W/m² 3,8 °C 10,1 °C 22,5 km/h (4 Bft)
13.04.2017 08:21 10,1 °C 10,1 °C 65 % 1012,0 hPa 0,0 mm 14,7 km/h (3 Bft) W-NW 299 ° 0 min 0,000 mm 0,0 UV-I 25 W/m² 3,8 °C 10,1 °C 20,9 km/h (4 Bft)
13.04.2017 08:22 10,1 °C 10,1 °C 65 % 1012,0 hPa 0,0 mm 15,8 km/h (3 Bft) NW 324 ° 0 min 0,000 mm 0,0 UV-I 26 W/m² 3,8 °C 10,1 °C 22,5 km/h (4 Bft)
13.04.2017 08:23 10,1 °C 10,1 °C 66 % 1012,0 hPa 0,0 mm 12,7 km/h (3 Bft) N-NW 331 ° 0 min 0,000 mm 0,0 UV-I 25 W/m² 4,0 °C 10,1 °C 27,4 km/h (4 Bft)
13.04.2017 08:24 10,1 °C 10,1 °C 66 % 1011,9 hPa 0,0 mm 15,8 km/h (3 Bft) NW 310 ° 0 min 0,000 mm 0,0 UV-I 21 W/m² 4,0 °C 10,1 °C 27,4 km/h (4 Bft)
13.04.2017 08:25 10,1 °C 10,1 °C 65 % 1012,0 hPa 0,0 mm 11,0 km/h (2 Bft) W 259 ° 0 min 0,000 mm 0,0 UV-I 19 W/m² 3,8 °C 10,1 °C 14,5 km/h (3 Bft)
13.04.2017 08:26 10,1 °C 10,1 °C 66 % 1012,0 hPa 0,0 mm 13,7 km/h (3 Bft) W-NW 288 ° 0 min 0,000 mm 0,0 UV-I 21 W/m² 4,0 °C 10,1 °C 22,5 km/h (4 Bft)
13.04.2017 08:27 10,1 °C 10,1 °C 65 % 1012,0 hPa 0,0 mm 11,6 km/h (2 Bft) NW 311 ° 0 min 0,000 mm 0,0 UV-I 26 W/m² 3,8 °C 10,1 °C 16,1 km/h (3 Bft)
13.04.2017 08:28 10,0 °C 10,1 °C 66 % 1012,0 hPa 0,0 mm 12,7 km/h (3 Bft) W 261 ° 0 min 0,000 mm 0,0 UV-I 25 W/m² 3,9 °C 8,2 °C 19,3 km/h (3 Bft)
13.04.2017 08:29 10,0 °C 10,0 °C 66 % 1012,1 hPa 0,0 mm 9,0 km/h (2 Bft) N-NW 330 ° 0 min 0,000 mm 0,0 UV-I 25 W/m² 3,9 °C 8,8 °C 16,1 km/h (3 Bft)
13.04.2017 08:30 10,0 °C 10,0 °C 66 % 1012,1 hPa 0,0 mm 8,2 km/h (2 Bft) W-NW 302 ° 0 min 0,000 mm 0,0 UV-I 25 W/m² 3,9 °C 9,0 °C 11,3 km/h (2 Bft)
13.04.2017 08:31 10,0 °C 10,0 °C 66 % 1012,1 hPa 0,0 mm 6,5 km/h (2 Bft) W-NW 302 ° 0 min 0,000 mm 0,0 UV-I 25 W/m² 3,9 °C 9,3 °C 11,3 km/h (2 Bft)
13.04.2017 08:32 10,0 °C 10,0 °C 66 % 1012,1 hPa 0,0 mm 15,8 km/h (3 Bft) W-NW 290 ° 0 min 0,000 mm 0,0 UV-I 23 W/m² 3,9 °C 7,8 °C 25,7 km/h (4 Bft)
13.04.2017 08:33 10,0 °C 10,0 °C 66 % 1012,1 hPa 0,0 mm 14,1 km/h (3 Bft) NW 321 ° 0 min 0,000 mm 0,0 UV-I 23 W/m² 3,9 °C 8,0 °C 20,9 km/h (4 Bft)
13.04.2017 08:34 10,0 °C 10,0 °C 66 % 1012,0 hPa 0,0 mm 14,1 km/h (3 Bft) W 280 ° 0 min 0,000 mm 0,0 UV-I 19 W/m² 3,9 °C 8,0 °C 19,3 km/h (3 Bft)
13.04.2017 08:35 10,0 °C 10,0 °C 66 % 1012,0 hPa 0,0 mm 13,2 km/h (3 Bft) W-NW 288 ° 0 min 0,000 mm 0,0 UV-I 19 W/m² 3,9 °C 8,1 °C 17,7 km/h (3 Bft)
13.04.2017 08:36 9,9 °C 10,0 °C 66 % 1012,1 hPa 0,0 mm 19,4 km/h (3 Bft) W 265 ° 0 min 0,000 mm 0,0 UV-I 19 W/m² 3,9 °C 7,3 °C 27,4 km/h (4 Bft)
13.04.2017 08:37 10,0 °C 10,0 °C 66 % 1012,2 hPa 0,0 mm 16,7 km/h (3 Bft) W-NW 295 ° 0 min 0,000 mm 0,0 UV-I 19 W/m² 3,9 °C 7,7 °C 29,0 km/h (5 Bft)
13.04.2017 08:38 10,0 °C 10,0 °C 66 % 1012,1 hPa 0,0 mm 16,3 km/h (3 Bft) W-NW 286 ° 0 min 0,000 mm 0,0 UV-I 16 W/m² 3,9 °C 7,8 °C 24,1 km/h (4 Bft)
13.04.2017 08:39 10,0 °C 10,1 °C 67 % 1012,1 hPa 0,0 mm 17,6 km/h (3 Bft) NW 306 ° 0 min 0,000 mm 0,0 UV-I 16 W/m² 4,2 °C 7,6 °C 24,1 km/h (4 Bft)
13.04.2017 08:40 10,0 °C 10,0 °C 66 % 1012,1 hPa 0,0 mm 9,8 km/h (2 Bft) W-NW 298 ° 0 min 0,000 mm 0,0 UV-I 16 W/m² 3,9 °C 8,7 °C 14,5 km/h (3 Bft)
13.04.2017 08:41 10,0 °C 10,0 °C 66 % 1012,1 hPa 0,0 mm 9,7 km/h (2 Bft) W-NW 283 ° 0 min 0,000 mm 0,0 UV-I 18 W/m² 3,9 °C 8,7 °C 17,7 km/h (3 Bft)
13.04.2017 08:42 10,0 °C 10,1 °C 66 % 1012,1 hPa 0,0 mm 11,3 km/h (2 Bft) W 277 ° 0 min 0,000 mm 0,0 UV-I 19 W/m² 3,9 °C 8,4 °C 14,5 km/h (3 Bft)
13.04.2017 08:43 10,0 °C 10,0 °C 67 % 1012,2 hPa 0,0 mm 11,5 km/h (2 Bft) W 273 ° 0 min 0,000 mm 0,0 UV-I 25 W/m² 4,2 °C 8,4 °C 16,1 km/h (3 Bft)
13.04.2017 08:44 10,0 °C 10,0 °C 66 % 1012,2 hPa 0,0 mm 13,3 km/h (3 Bft) NW 305 ° 0 min 0,000 mm 0,0 UV-I 25 W/m² 3,9 °C 8,1 °C 20,9 km/h (4 Bft)
13.04.2017 08:45 10,0 °C 10,0 °C 67 % 1012,1 hPa 0,0 mm 11,3 km/h (2 Bft) W 265 ° 0 min 0,000 mm 0,0 UV-I 21 W/m² 4,2 °C 8,4 °C 17,7 km/h (3 Bft)
13.04.2017 08:46 10,0 °C 10,0 °C 67 % 1012,1 hPa 0,0 mm 10,9 km/h (2 Bft) W-SW 252 ° 0 min 0,000 mm 0,0 UV-I 21 W/m² 4,2 °C 8,5 °C 16,1 km/h (3 Bft)
13.04.2017 08:47 10,0 °C 10,0 °C 67 % 1012,1 hPa 0,0 mm 11,1 km/h (2 Bft) NW 309 ° 0 min 0,000 mm 0,0 UV-I 26 W/m² 4,2 °C 8,5 °C 16,1 km/h (3 Bft)
13.04.2017 08:48 10,0 °C 10,0 °C 66 % 1012,1 hPa 0,0 mm 8,0 km/h (2 Bft) W-SW 257 ° 0 min 0,000 mm 0,0 UV-I 30 W/m² 3,9 °C 9,0 °C 11,3 km/h (2 Bft)
13.04.2017 08:49 10,0 °C 10,0 °C 67 % 1012,1 hPa 0,0 mm 18,0 km/h (3 Bft) W-NW 302 ° 0 min 0,000 mm 0,0 UV-I 26 W/m² 4,2 °C 7,6 °C 27,4 km/h (4 Bft)
13.04.2017 08:50 10,0 °C 10,0 °C 67 % 1012,2 hPa 0,0 mm 17,1 km/h (3 Bft) W 269 ° 0 min 0,000 mm 0,0 UV-I 28 W/m² 4,2 °C 7,7 °C 22,5 km/h (4 Bft)
13.04.2017 08:51 10,0 °C 10,1 °C 67 % 1012,1 hPa 0,0 mm 15,4 km/h (3 Bft) W 262 ° 0 min 0,000 mm 0,0 UV-I 32 W/m² 4,2 °C 7,9 °C 22,5 km/h (4 Bft)
13.04.2017 08:52 10,0 °C 10,0 °C 67 % 1012,1 hPa 0,0 mm 13,9 km/h (3 Bft) W 272 ° 0 min 0,000 mm 0,0 UV-I 37 W/m² 4,2 °C 8,1 °C 19,3 km/h (3 Bft)
13.04.2017 08:53 10,0 °C 10,0 °C 67 % 1012,1 hPa 0,0 mm 13,5 km/h (3 Bft) NW 310 ° 0 min 0,000 mm 0,0 UV-I 42 W/m² 4,2 °C 8,1 °C 22,5 km/h (4 Bft)
13.04.2017 08:54 10,0 °C 10,0 °C 67 % 1012,1 hPa 0,0 mm 16,6 km/h (3 Bft) W-NW 294 ° 0 min 0,000 mm 0,0 UV-I 44 W/m² 4,2 °C 7,7 °C 25,7 km/h (4 Bft)
13.04.2017 08:55 10,0 °C 10,0 °C 67 % 1012,2 hPa 0,0 mm 14,3 km/h (3 Bft) N-NW 340 ° 0 min 0,000 mm 0,0 UV-I 46 W/m² 4,2 °C 8,0 °C 22,5 km/h (4 Bft)
13.04.2017 08:56 10,0 °C 10,0 °C 67 % 1012,3 hPa 0,0 mm 14,6 km/h (3 Bft) W-SW 243 ° 0 min 0,000 mm 0,0 UV-I 39 W/m² 4,2 °C 8,0 °C 20,9 km/h (4 Bft)
13.04.2017 08:57 10,0 °C 10,1 °C 67 % 1012,3 hPa 0,0 mm 14,4 km/h (3 Bft) NW 317 ° 0 min 0,000 mm 0,0 UV-I 40 W/m² 4,2 °C 8,0 °C 19,3 km/h (3 Bft)
13.04.2017 08:58 10,1 °C 10,1 °C 67 % 1012,2 hPa 0,0 mm 9,8 km/h (2 Bft) W-NW 294 ° 0 min 0,000 mm 0,0 UV-I 40 W/m² 4,3 °C 10,1 °C 19,3 km/h (3 Bft)
13.04.2017 08:59 10,1 °C 10,1 °C 67 % 1012,2 hPa 0,0 mm 13,2 km/h (3 Bft) W-NW 291 ° 0 min 0,000 mm 0,0 UV-I 37 W/m² 4,3 °C 10,1 °C 17,7 km/h (3 Bft)
13.04.2017 09:00 10,1 °C 10,1 °C 67 % 1012,3 hPa 0,0 mm 12,1 km/h (2 Bft) W-NW 291 ° 0 min 0,051 mm 0,0 UV-I 39 W/m² 4,3 °C 10,1 °C 20,9 km/h (4 Bft)
13.04.2017 09:01 10,1 °C 10,1 °C 67 % 1012,2 hPa 0,0 mm 11,3 km/h (2 Bft) W-NW 288 ° 0 min 0,000 mm 0,0 UV-I 56 W/m² 4,3 °C 10,1 °C 20,9 km/h (4 Bft)
13.04.2017 09:02 10,1 °C 10,1 °C 67 % 1012,2 hPa 0,0 mm 13,7 km/h (3 Bft) W-NW 290 ° 0 min 0,000 mm 0,0 UV-I 56 W/m² 4,3 °C 10,1 °C 22,5 km/h (4 Bft)
13.04.2017 09:03 10,1 °C 10,1 °C 67 % 1012,3 hPa 0,0 mm 18,8 km/h (3 Bft) W 280 ° 0 min 0,000 mm 0,0 UV-I 51 W/m² 4,3 °C 10,1 °C 29,0 km/h (5 Bft)
13.04.2017 09:04 10,1 °C 10,1 °C 67 % 1012,2 hPa 0,0 mm 19,5 km/h (3 Bft) W 261 ° 0 min 0,000 mm 0,0 UV-I 49 W/m² 4,3 °C 10,1 °C 25,7 km/h (4 Bft)
13.04.2017 09:05 10,1 °C 10,1 °C 67 % 1012,2 hPa 0,0 mm 19,6 km/h (3 Bft) N-NW 327 ° 0 min 0,000 mm 0,0 UV-I 49 W/m² 4,3 °C 10,1 °C 29,0 km/h (5 Bft)
13.04.2017 09:06 10,1 °C 10,1 °C 67 % 1012,3 hPa 0,0 mm 14,3 km/h (3 Bft) W-NW 296 ° 0 min 0,000 mm 0,0 UV-I 49 W/m² 4,3 °C 10,1 °C 19,3 km/h (3 Bft)
13.04.2017 09:07 10,1 °C 10,1 °C 67 % 1012,3 hPa 0,0 mm 12,6 km/h (3 Bft) W 267 ° 0 min 0,000 mm 0,0 UV-I 54 W/m² 4,3 °C 10,1 °C 19,3 km/h (3 Bft)
13.04.2017 09:08 10,1 °C 10,1 °C 67 % 1012,3 hPa 0,0 mm 14,9 km/h (3 Bft) W-NW 293 ° 0 min 0,000 mm 0,0 UV-I 53 W/m² 4,3 °C 10,1 °C 25,7 km/h (4 Bft)
13.04.2017 09:09 10,1 °C 10,1 °C 67 % 1012,2 hPa 0,0 mm 20,5 km/h (4 Bft) W-NW 300 ° 0 min 0,000 mm 0,0 UV-I 53 W/m² 4,3 °C 10,1 °C 32,2 km/h (5 Bft)
13.04.2017 09:10 10,1 °C 10,1 °C 67 % 1012,4 hPa 0,0 mm 20,3 km/h (4 Bft) W-NW 298 ° 0 min 0,000 mm 0,0 UV-I 51 W/m² 4,3 °C 10,1 °C 29,0 km/h (5 Bft)
13.04.2017 09:11 10,1 °C 10,1 °C 67 % 1012,2 hPa 0,0 mm 17,2 km/h (3 Bft) NW 310 ° 0 min 0,000 mm 0,0 UV-I 56 W/m² 4,3 °C 10,1 °C 24,1 km/h (4 Bft)
13.04.2017 09:12 10,1 °C 10,1 °C 68 % 1012,2 hPa 0,0 mm 13,8 km/h (3 Bft) W 279 ° 0 min 0,000 mm 0,5 UV-I 62 W/m² 4,5 °C 10,1 °C 17,7 km/h (3 Bft)
13.04.2017 09:13 10,1 °C 10,1 °C 67 % 1012,3 hPa 0,0 mm 9,9 km/h (2 Bft) NW 306 ° 0 min 0,000 mm 0,5 UV-I 63 W/m² 4,3 °C 10,1 °C 17,7 km/h (3 Bft)
13.04.2017 09:14 10,1 °C 10,1 °C 67 % 1012,2 hPa 0,0 mm 9,2 km/h (2 Bft) W 279 ° 0 min 0,000 mm 0,5 UV-I 62 W/m² 4,3 °C 10,1 °C 14,5 km/h (3 Bft)
13.04.2017 09:15 10,1 °C 10,1 °C 68 % 1012,3 hPa 0,0 mm 10,7 km/h (2 Bft) W-NW 292 ° 0 min 0,000 mm 0,0 UV-I 54 W/m² 4,5 °C 10,1 °C 19,3 km/h (3 Bft)
13.04.2017 09:16 10,1 °C 10,1 °C 68 % 1012,3 hPa 0,0 mm 13,8 km/h (3 Bft) W-NW 284 ° 0 min 0,000 mm 0,0 UV-I 46 W/m² 4,5 °C 10,1 °C 24,1 km/h (4 Bft)
13.04.2017 09:17 10,1 °C 10,1 °C 67 % 1012,2 hPa 0,0 mm 15,6 km/h (3 Bft) W 277 ° 0 min 0,000 mm 0,0 UV-I 42 W/m² 4,3 °C 10,1 °C 22,5 km/h (4 Bft)
13.04.2017 09:18 10,1 °C 10,1 °C 68 % 1012,2 hPa 0,0 mm 15,8 km/h (3 Bft) W-NW 294 ° 0 min 0,000 mm 0,0 UV-I 47 W/m² 4,5 °C 10,1 °C 20,9 km/h (4 Bft)
13.04.2017 09:19 10,1 °C 10,1 °C 68 % 1012,4 hPa 0,0 mm 10,3 km/h (2 Bft) W-NW 289 ° 0 min 0,000 mm 0,0 UV-I 51 W/m² 4,5 °C 10,1 °C 16,1 km/h (3 Bft)
13.04.2017 09:20 10,1 °C 10,1 °C 67 % 1012,3 hPa 0,0 mm 10,2 km/h (2 Bft) NW 306 ° 0 min 0,000 mm 0,5 UV-I 60 W/m² 4,3 °C 10,1 °C 17,7 km/h (3 Bft)
13.04.2017 09:21 10,1 °C 10,1 °C 67 % 1012,3 hPa 0,0 mm 13,4 km/h (3 Bft) W 279 ° 0 min 0,000 mm 0,5 UV-I 70 W/m² 4,3 °C 10,1 °C 19,3 km/h (3 Bft)
13.04.2017 09:22 10,1 °C 10,1 °C 69 % 1012,3 hPa 0,0 mm 12,8 km/h (3 Bft) W 272 ° 0 min 0,000 mm 0,6 UV-I 74 W/m² 4,7 °C 10,1 °C 19,3 km/h (3 Bft)
13.04.2017 09:23 10,0 °C 10,1 °C 68 % 1012,2 hPa 0,0 mm 14,2 km/h (3 Bft) W 277 ° 0 min 0,000 mm 0,6 UV-I 77 W/m² 4,4 °C 8,0 °C 22,5 km/h (4 Bft)
13.04.2017 09:24 10,0 °C 10,1 °C 68 % 1012,3 hPa 0,0 mm 12,0 km/h (2 Bft) W 262 ° 0 min 0,000 mm 0,6 UV-I 79 W/m² 4,4 °C 8,3 °C 16,1 km/h (3 Bft)
13.04.2017 09:25 10,0 °C 10,0 °C 68 % 1012,2 hPa 0,0 mm 11,5 km/h (2 Bft) W 265 ° 0 min 0,000 mm 0,5 UV-I 63 W/m² 4,4 °C 8,4 °C 17,7 km/h (3 Bft)
13.04.2017 09:26 10,0 °C 10,1 °C 68 % 1012,3 hPa 0,0 mm 13,7 km/h (3 Bft) W 268 ° 0 min 0,000 mm 0,0 UV-I 54 W/m² 4,4 °C 8,1 °C 19,3 km/h (3 Bft)
13.04.2017 09:27 10,1 °C 10,1 °C 68 % 1012,3 hPa 0,0 mm 15,5 km/h (3 Bft) W 260 ° 0 min 0,000 mm 0,5 UV-I 60 W/m² 4,5 °C 10,1 °C 24,1 km/h (4 Bft)
13.04.2017 09:28 10,1 °C 10,1 °C 68 % 1012,3 hPa 0,0 mm 17,0 km/h (3 Bft) W-NW 291 ° 0 min 0,000 mm 0,5 UV-I 62 W/m² 4,5 °C 10,1 °C 20,9 km/h (4 Bft)
13.04.2017 09:29 10,1 °C 10,1 °C 68 % 1012,3 hPa 0,0 mm 12,3 km/h (3 Bft) W 272 ° 0 min 0,000 mm 0,0 UV-I 54 W/m² 4,5 °C 10,1 °C 17,7 km/h (3 Bft)
13.04.2017 09:30 10,1 °C 10,1 °C 68 % 1012,2 hPa 0,0 mm 12,3 km/h (3 Bft) NW 311 ° 0 min 0,000 mm 0,0 UV-I 44 W/m² 4,5 °C 10,1 °C 17,7 km/h (3 Bft)
13.04.2017 09:31 10,0 °C 10,1 °C 69 % 1012,3 hPa 0,0 mm 9,5 km/h (2 Bft) W 274 ° 0 min 0,000 mm 0,0 UV-I 39 W/m² 4,6 °C 8,7 °C 16,1 km/h (3 Bft)
13.04.2017 09:32 10,0 °C 10,1 °C 68 % 1012,3 hPa 0,0 mm 13,0 km/h (3 Bft) W-NW 297 ° 0 min 0,000 mm 0,0 UV-I 39 W/m² 4,4 °C 8,2 °C 19,3 km/h (3 Bft)
13.04.2017 09:33 10,0 °C 10,0 °C 69 % 1012,4 hPa 0,0 mm 10,6 km/h (2 Bft) W 265 ° 0 min 0,000 mm 0,0 UV-I 40 W/m² 4,6 °C 8,5 °C 16,1 km/h (3 Bft)
13.04.2017 09:34 10,0 °C 10,0 °C 69 % 1012,4 hPa 0,0 mm 14,4 km/h (3 Bft) W 280 ° 0 min 0,000 mm 0,0 UV-I 51 W/m² 4,6 °C 8,0 °C 19,3 km/h (3 Bft)
13.04.2017 09:35 9,9 °C 10,0 °C 69 % 1012,4 hPa 0,0 mm 11,9 km/h (2 Bft) W-NW 302 ° 0 min 0,000 mm 0,5 UV-I 62 W/m² 4,5 °C 8,2 °C 17,7 km/h (3 Bft)
13.04.2017 09:36 9,9 °C 9,9 °C 68 % 1012,4 hPa 0,0 mm 14,8 km/h (3 Bft) W 278 ° 0 min 0,000 mm 0,5 UV-I 69 W/m² 4,3 °C 7,8 °C 19,3 km/h (3 Bft)
13.04.2017 09:37 9,9 °C 9,9 °C 69 % 1012,4 hPa 0,0 mm 14,7 km/h (3 Bft) N-NW 336 ° 0 min 0,000 mm 0,5 UV-I 72 W/m² 4,5 °C 7,8 °C 20,9 km/h (4 Bft)
13.04.2017 09:38 9,9 °C 9,9 °C 69 % 1012,4 hPa 0,0 mm 11,8 km/h (2 Bft) W-NW 286 ° 0 min 0,000 mm 0,5 UV-I 72 W/m² 4,5 °C 8,2 °C 17,7 km/h (3 Bft)
13.04.2017 09:39 9,9 °C 9,9 °C 69 % 1012,4 hPa 0,0 mm 12,2 km/h (2 Bft) W 262 ° 0 min 0,000 mm 0,5 UV-I 63 W/m² 4,5 °C 8,2 °C 14,5 km/h (3 Bft)
13.04.2017 09:40 9,9 °C 9,9 °C 69 % 1012,4 hPa 0,0 mm 17,1 km/h (3 Bft) W 268 ° 0 min 0,000 mm 0,0 UV-I 56 W/m² 4,5 °C 7,5 °C 20,9 km/h (4 Bft)
13.04.2017 09:41 9,9 °C 9,9 °C 69 % 1012,3 hPa 0,0 mm 11,5 km/h (2 Bft) W-SW 258 ° 0 min 0,000 mm 0,0 UV-I 49 W/m² 4,5 °C 8,3 °C 16,1 km/h (3 Bft)
13.04.2017 09:42 9,9 °C 9,9 °C 69 % 1012,4 hPa 0,0 mm 16,9 km/h (3 Bft) W 273 ° 0 min 0,000 mm 0,0 UV-I 51 W/m² 4,5 °C 7,6 °C 24,1 km/h (4 Bft)
13.04.2017 09:43 9,9 °C 9,9 °C 69 % 1012,5 hPa 0,0 mm 15,2 km/h (3 Bft) N-NW 336 ° 0 min 0,000 mm 0,0 UV-I 49 W/m² 4,5 °C 7,8 °C 22,5 km/h (4 Bft)
13.04.2017 09:44 9,9 °C 9,9 °C 69 % 1012,4 hPa 0,0 mm 12,8 km/h (3 Bft) W-NW 296 ° 0 min 0,000 mm 0,0 UV-I 51 W/m² 4,5 °C 8,1 °C 19,3 km/h (3 Bft)
13.04.2017 09:45 9,9 °C 9,9 °C 69 % 1012,4 hPa 0,0 mm 12,7 km/h (3 Bft) NW 322 ° 0 min 0,000 mm 0,5 UV-I 58 W/m² 4,5 °C 8,1 °C 17,7 km/h (3 Bft)
13.04.2017 09:46 9,9 °C 9,9 °C 69 % 1012,4 hPa 0,0 mm 16,5 km/h (3 Bft) W 263 ° 0 min 0,000 mm 0,5 UV-I 58 W/m² 4,5 °C 7,6 °C 20,9 km/h (4 Bft)
13.04.2017 09:47 9,9 °C 9,9 °C 69 % 1012,4 hPa 0,0 mm 12,9 km/h (3 Bft) W 275 ° 0 min 0,000 mm 0,5 UV-I 60 W/m² 4,5 °C 8,1 °C 20,9 km/h (4 Bft)
13.04.2017 09:48 9,9 °C 9,9 °C 69 % 1012,4 hPa 0,0 mm 15,7 km/h (3 Bft) W-NW 292 ° 0 min 0,000 mm 0,5 UV-I 63 W/m² 4,5 °C 7,7 °C 22,5 km/h (4 Bft)
13.04.2017 09:49 9,9 °C 9,9 °C 69 % 1012,4 hPa 0,0 mm 13,9 km/h (3 Bft) NW 317 ° 0 min 0,000 mm 0,5 UV-I 60 W/m² 4,5 °C 7,9 °C 20,9 km/h (4 Bft)
13.04.2017 09:50 9,9 °C 9,9 °C 69 % 1012,4 hPa 0,0 mm 13,5 km/h (3 Bft) S-SW 213 ° 0 min 0,000 mm 0,5 UV-I 62 W/m² 4,5 °C 8,0 °C 22,5 km/h (4 Bft)
13.04.2017 09:51 9,9 °C 9,9 °C 68 % 1012,5 hPa 0,0 mm 14,4 km/h (3 Bft) W 277 ° 0 min 0,000 mm 0,5 UV-I 63 W/m² 4,3 °C 7,9 °C 25,7 km/h (4 Bft)
13.04.2017 09:52 9,9 °C 9,9 °C 69 % 1012,5 hPa 0,0 mm 11,3 km/h (2 Bft) W-NW 303 ° 0 min 0,000 mm 0,5 UV-I 65 W/m² 4,5 °C 8,3 °C 16,1 km/h (3 Bft)
13.04.2017 09:53 9,9 °C 9,9 °C 69 % 1012,5 hPa 0,0 mm 8,5 km/h (2 Bft) W 281 ° 0 min 0,000 mm 0,0 UV-I 58 W/m² 4,5 °C 8,8 °C 14,5 km/h (3 Bft)
13.04.2017 09:54 9,9 °C 9,9 °C 70 % 1012,6 hPa 0,0 mm 10,0 km/h (2 Bft) W 270 ° 0 min 0,000 mm 0,0 UV-I 63 W/m² 4,7 °C 8,5 °C 14,5 km/h (3 Bft)
13.04.2017 09:55 9,9 °C 9,9 °C 69 % 1012,7 hPa 0,0 mm 15,3 km/h (3 Bft) W-SW 256 ° 0 min 0,000 mm 0,5 UV-I 65 W/m² 4,5 °C 7,8 °C 20,9 km/h (4 Bft)
13.04.2017 09:56 9,9 °C 9,9 °C 69 % 1012,6 hPa 0,0 mm 14,3 km/h (3 Bft) SW 229 ° 0 min 0,000 mm 0,5 UV-I 65 W/m² 4,5 °C 7,9 °C 20,9 km/h (4 Bft)
13.04.2017 09:57 9,9 °C 9,9 °C 69 % 1012,6 hPa 0,0 mm 10,1 km/h (2 Bft) NW 308 ° 0 min 0,000 mm 0,6 UV-I 77 W/m² 4,5 °C 8,5 °C 17,7 km/h (3 Bft)
13.04.2017 09:58 9,9 °C 9,9 °C 69 % 1012,7 hPa 0,0 mm 9,7 km/h (2 Bft) NW 304 ° 0 min 0,000 mm 0,6 UV-I 81 W/m² 4,5 °C 8,6 °C 14,5 km/h (3 Bft)
13.04.2017 09:59 9,9 °C 9,9 °C 69 % 1012,6 hPa 0,0 mm 12,9 km/h (3 Bft) W 265 ° 0 min 0,000 mm 0,6 UV-I 72 W/m² 4,5 °C 8,1 °C 20,9 km/h (4 Bft)
13.04.2017 10:00 9,9 °C 9,9 °C 68 % 1012,6 hPa 0,0 mm 11,3 km/h (2 Bft) W-NW 286 ° 0 min 0,000 mm 0,6 UV-I 74 W/m² 4,3 °C 8,3 °C 17,7 km/h (3 Bft)
13.04.2017 10:01 9,9 °C 10,0 °C 68 % 1012,6 hPa 0,0 mm 14,5 km/h (3 Bft) W-SW 251 ° 0 min 0,076 mm 0,7 UV-I 84 W/m² 4,3 °C 7,9 °C 24,1 km/h (4 Bft)
13.04.2017 10:02 9,9 °C 9,9 °C 69 % 1012,6 hPa 0,0 mm 18,2 km/h (3 Bft) NW 304 ° 0 min 0,000 mm 0,7 UV-I 93 W/m² 4,5 °C 7,4 °C 22,5 km/h (4 Bft)
13.04.2017 10:03 9,9 °C 10,0 °C 69 % 1012,7 hPa 0,0 mm 14,8 km/h (3 Bft) W-SW 249 ° 0 min 0,000 mm 0,7 UV-I 90 W/m² 4,5 °C 7,8 °C 24,1 km/h (4 Bft)
13.04.2017 10:04 10,0 °C 10,0 °C 68 % 1012,7 hPa 0,0 mm 10,9 km/h (2 Bft) NW 321 ° 0 min 0,000 mm 0,6 UV-I 77 W/m² 4,4 °C 8,5 °C 20,9 km/h (4 Bft)
13.04.2017 10:05 10,0 °C 10,0 °C 68 % 1012,6 hPa 0,0 mm 24,4 km/h (4 Bft) W 279 ° 0 min 0,000 mm 0,6 UV-I 74 W/m² 4,4 °C 7,0 °C 32,2 km/h (5 Bft)
13.04.2017 10:06 10,0 °C 10,0 °C 68 % 1012,7 hPa 0,0 mm 21,5 km/h (4 Bft) W-NW 289 ° 0 min 0,000 mm 0,7 UV-I 83 W/m² 4,4 °C 7,2 °C 27,4 km/h (4 Bft)
13.04.2017 10:07 9,9 °C 10,0 °C 68 % 1012,7 hPa 0,0 mm 18,8 km/h (3 Bft) W-SW 244 ° 0 min 0,000 mm 0,8 UV-I 95 W/m² 4,3 °C 7,4 °C 29,0 km/h (5 Bft)
13.04.2017 10:08 10,0 °C 10,0 °C 68 % 1012,7 hPa 0,0 mm 20,4 km/h (4 Bft) W-NW 294 ° 0 min 0,000 mm 0,9 UV-I 111 W/m² 4,4 °C 7,3 °C 30,6 km/h (5 Bft)
13.04.2017 10:09 10,0 °C 10,0 °C 68 % 1012,7 hPa 0,0 mm 11,9 km/h (2 Bft) W 279 ° 0 min 0,000 mm 1,0 UV-I 127 W/m² 4,4 °C 8,3 °C 17,7 km/h (3 Bft)
13.04.2017 10:10 10,0 °C 10,0 °C 69 % 1012,7 hPa 0,0 mm 10,4 km/h (2 Bft) W 263 ° 0 min 0,000 mm 0,9 UV-I 121 W/m² 4,6 °C 8,6 °C 19,3 km/h (3 Bft)
13.04.2017 10:11 10,0 °C 10,1 °C 68 % 1012,7 hPa 0,0 mm 16,6 km/h (3 Bft) W 267 ° 0 min 0,000 mm 0,9 UV-I 120 W/m² 4,4 °C 7,7 °C 22,5 km/h (4 Bft)
13.04.2017 10:12 10,1 °C 10,1 °C 68 % 1012,7 hPa 0,0 mm 19,2 km/h (3 Bft) W 261 ° 0 min 0,000 mm 0,9 UV-I 118 W/m² 4,5 °C 10,1 °C 35,4 km/h (5 Bft)
13.04.2017 10:13 10,1 °C 10,1 °C 67 % 1012,7 hPa 0,0 mm 23,9 km/h (4 Bft) W-NW 290 ° 0 min 0,000 mm 1,0 UV-I 121 W/m² 4,3 °C 10,1 °C 32,2 km/h (5 Bft)
13.04.2017 10:14 10,1 °C 10,1 °C 68 % 1012,7 hPa 0,0 mm 17,6 km/h (3 Bft) W-NW 302 ° 0 min 0,000 mm 1,0 UV-I 123 W/m² 4,5 °C 10,1 °C 22,5 km/h (4 Bft)
13.04.2017 10:15 10,1 °C 10,1 °C 67 % 1012,7 hPa 0,0 mm 18,9 km/h (3 Bft) W 275 ° 0 min 0,000 mm 1,0 UV-I 128 W/m² 4,3 °C 10,1 °C 27,4 km/h (4 Bft)
13.04.2017 10:16 10,1 °C 10,1 °C 68 % 1012,7 hPa 0,0 mm 18,2 km/h (3 Bft) W 279 ° 0 min 0,000 mm 1,0 UV-I 123 W/m² 4,5 °C 10,1 °C 29,0 km/h (5 Bft)
13.04.2017 10:17 10,1 °C 10,1 °C 68 % 1012,7 hPa 0,0 mm 10,1 km/h (2 Bft) W-NW 296 ° 0 min 0,000 mm 1,0 UV-I 132 W/m² 4,5 °C 10,1 °C 16,1 km/h (3 Bft)
13.04.2017 10:18 10,1 °C 10,2 °C 69 % 1012,7 hPa 0,0 mm 17,2 km/h (3 Bft) W 281 ° 0 min 0,000 mm 1,0 UV-I 130 W/m² 4,7 °C 10,1 °C 24,1 km/h (4 Bft)
13.04.2017 10:19 10,2 °C 10,2 °C 67 % 1012,7 hPa 0,0 mm 14,3 km/h (3 Bft) W 279 ° 0 min 0,000 mm 1,1 UV-I 130 W/m² 4,4 °C 10,2 °C 24,1 km/h (4 Bft)
13.04.2017 10:20 10,2 °C 10,2 °C 68 % 1012,8 hPa 0,0 mm 17,7 km/h (3 Bft) W 275 ° 0 min 0,000 mm 1,1 UV-I 135 W/m² 4,6 °C 10,2 °C 27,4 km/h (4 Bft)
13.04.2017 10:21 10,2 °C 10,2 °C 67 % 1012,8 hPa 0,0 mm 18,2 km/h (3 Bft) W 276 ° 0 min 0,000 mm 1,0 UV-I 130 W/m² 4,4 °C 10,2 °C 25,7 km/h (4 Bft)
13.04.2017 10:22 10,2 °C 10,2 °C 68 % 1012,8 hPa 0,0 mm 12,6 km/h (3 Bft) W-NW 284 ° 0 min 0,000 mm 1,1 UV-I 130 W/m² 4,6 °C 10,2 °C 19,3 km/h (3 Bft)
13.04.2017 10:23 10,2 °C 10,2 °C 68 % 1012,9 hPa 0,0 mm 20,2 km/h (4 Bft) NW 324 ° 0 min 0,000 mm 1,2 UV-I 149 W/m² 4,6 °C 10,2 °C 27,4 km/h (4 Bft)
13.04.2017 10:24 10,2 °C 10,3 °C 68 % 1012,8 hPa 0,0 mm 16,5 km/h (3 Bft) W 267 ° 0 min 0,000 mm 1,4 UV-I 174 W/m² 4,6 °C 10,2 °C 20,9 km/h (4 Bft)
13.04.2017 10:25 10,2 °C 10,3 °C 68 % 1012,8 hPa 0,0 mm 22,2 km/h (4 Bft) W 276 ° 0 min 0,000 mm 1,4 UV-I 181 W/m² 4,6 °C 10,2 °C 32,2 km/h (5 Bft)
13.04.2017 10:26 10,3 °C 10,3 °C 68 % 1012,8 hPa 0,0 mm 16,7 km/h (3 Bft) NW 304 ° 0 min 0,000 mm 1,4 UV-I 169 W/m² 4,7 °C 10,3 °C 24,1 km/h (4 Bft)
13.04.2017 10:27 10,3 °C 10,3 °C 67 % 1012,8 hPa 0,0 mm 10,5 km/h (2 Bft) W-NW 285 ° 0 min 0,000 mm 1,4 UV-I 167 W/m² 4,4 °C 10,3 °C 19,3 km/h (3 Bft)
13.04.2017 10:28 10,3 °C 10,3 °C 69 % 1012,8 hPa 0,0 mm 13,3 km/h (3 Bft) W 279 ° 0 min 0,000 mm 1,4 UV-I 165 W/m² 4,9 °C 10,3 °C 20,9 km/h (4 Bft)
13.04.2017 10:29 10,3 °C 10,3 °C 69 % 1012,8 hPa 0,0 mm 13,6 km/h (3 Bft) W-SW 257 ° 0 min 0,000 mm 1,4 UV-I 174 W/m² 4,9 °C 10,3 °C 17,7 km/h (3 Bft)
13.04.2017 10:30 10,3 °C 10,4 °C 68 % 1012,7 hPa 0,0 mm 13,0 km/h (3 Bft) W-NW 293 ° 0 min 0,000 mm 1,3 UV-I 155 W/m² 4,7 °C 10,3 °C 19,3 km/h (3 Bft)
13.04.2017 10:31 10,4 °C 10,4 °C 68 % 1012,7 hPa 0,0 mm 12,8 km/h (3 Bft) W-NW 289 ° 0 min 0,000 mm 1,3 UV-I 153 W/m² 4,8 °C 10,4 °C 19,3 km/h (3 Bft)
13.04.2017 10:32 10,4 °C 10,4 °C 68 % 1012,8 hPa 0,0 mm 10,6 km/h (2 Bft) W 265 ° 0 min 0,000 mm 1,4 UV-I 169 W/m² 4,8 °C 10,4 °C 17,7 km/h (3 Bft)
13.04.2017 10:33 10,4 °C 10,4 °C 68 % 1012,8 hPa 0,0 mm 18,7 km/h (3 Bft) W-NW 286 ° 0 min 0,000 mm 1,4 UV-I 172 W/m² 4,8 °C 10,4 °C 27,4 km/h (4 Bft)
13.04.2017 10:34 10,4 °C 10,4 °C 68 % 1012,7 hPa 0,0 mm 18,2 km/h (3 Bft) W-NW 301 ° 0 min 0,000 mm 1,4 UV-I 174 W/m² 4,8 °C 10,4 °C 29,0 km/h (5 Bft)
13.04.2017 10:35 10,4 °C 10,4 °C 67 % 1012,7 hPa 0,0 mm 17,0 km/h (3 Bft) NW 309 ° 0 min 0,000 mm 1,4 UV-I 162 W/m² 4,5 °C 10,4 °C 25,7 km/h (4 Bft)
13.04.2017 10:36 10,4 °C 10,4 °C 67 % 1012,8 hPa 0,0 mm 14,8 km/h (3 Bft) W 281 ° 0 min 0,000 mm 1,4 UV-I 160 W/m² 4,5 °C 10,4 °C 19,3 km/h (3 Bft)
13.04.2017 10:37 10,4 °C 10,4 °C 67 % 1012,7 hPa 0,0 mm 15,1 km/h (3 Bft) W-NW 290 ° 0 min 0,000 mm 1,5 UV-I 172 W/m² 4,5 °C 10,4 °C 24,1 km/h (4 Bft)
13.04.2017 10:38 10,4 °C 10,4 °C 67 % 1012,8 hPa 0,0 mm 17,8 km/h (3 Bft) W-NW 294 ° 0 min 0,000 mm 1,6 UV-I 186 W/m² 4,5 °C 10,4 °C 27,4 km/h (4 Bft)
13.04.2017 10:39 10,4 °C 10,4 °C 68 % 1012,8 hPa 0,0 mm 15,6 km/h (3 Bft) W-NW 288 ° 0 min 0,000 mm 1,4 UV-I 171 W/m² 4,8 °C 10,4 °C 19,3 km/h (3 Bft)
13.04.2017 10:40 10,4 °C 10,4 °C 66 % 1012,8 hPa 0,0 mm 23,8 km/h (4 Bft) W 275 ° 0 min 0,000 mm 1,4 UV-I 171 W/m² 4,3 °C 10,4 °C 32,2 km/h (5 Bft)
13.04.2017 10:41 10,4 °C 10,4 °C 67 % 1012,8 hPa 0,0 mm 13,8 km/h (3 Bft) W-NW 293 ° 0 min 0,000 mm 1,5 UV-I 176 W/m² 4,5 °C 10,4 °C 32,2 km/h (5 Bft)
13.04.2017 10:42 10,4 °C 10,4 °C 67 % 1012,8 hPa 0,0 mm 15,6 km/h (3 Bft) W-NW 290 ° 0 min 0,000 mm 1,4 UV-I 163 W/m² 4,5 °C 10,4 °C 24,1 km/h (4 Bft)
13.04.2017 10:43 10,4 °C 10,4 °C 67 % 1012,8 hPa 0,0 mm 13,6 km/h (3 Bft) W-NW 291 ° 0 min 0,000 mm 1,5 UV-I 160 W/m² 4,5 °C 10,4 °C 20,9 km/h (4 Bft)
13.04.2017 10:44 10,4 °C 10,5 °C 67 % 1012,8 hPa 0,0 mm 19,0 km/h (3 Bft) W 277 ° 0 min 0,000 mm 1,6 UV-I 169 W/m² 4,5 °C 10,4 °C 29,0 km/h (5 Bft)
13.04.2017 10:45 10,4 °C 10,5 °C 67 % 1012,9 hPa 0,0 mm 14,1 km/h (3 Bft) W-NW 290 ° 0 min 0,000 mm 1,6 UV-I 179 W/m² 4,5 °C 10,4 °C 19,3 km/h (3 Bft)
13.04.2017 10:46 10,4 °C 10,5 °C 66 % 1012,9 hPa 0,0 mm 17,8 km/h (3 Bft) W-NW 298 ° 0 min 0,000 mm 1,7 UV-I 190 W/m² 4,3 °C 10,4 °C 25,7 km/h (4 Bft)
13.04.2017 10:47 10,5 °C 10,5 °C 67 % 1012,8 hPa 0,0 mm 12,7 km/h (3 Bft) W 271 ° 0 min 0,000 mm 1,6 UV-I 185 W/m² 4,6 °C 10,5 °C 17,7 km/h (3 Bft)
13.04.2017 10:48 10,5 °C 10,5 °C 66 % 1012,8 hPa 0,0 mm 16,4 km/h (3 Bft) W-NW 286 ° 0 min 0,000 mm 1,7 UV-I 181 W/m² 4,4 °C 10,5 °C 24,1 km/h (4 Bft)
13.04.2017 10:49 10,5 °C 10,5 °C 66 % 1012,8 hPa 0,0 mm 23,8 km/h (4 Bft) W-NW 285 ° 0 min 0,000 mm 1,8 UV-I 186 W/m² 4,4 °C 10,5 °C 27,4 km/h (4 Bft)
13.04.2017 10:50 10,5 °C 10,5 °C 67 % 1012,8 hPa 0,0 mm 15,6 km/h (3 Bft) W 259 ° 0 min 0,000 mm 2,0 UV-I 209 W/m² 4,6 °C 10,5 °C 27,4 km/h (4 Bft)
13.04.2017 10:51 10,6 °C 10,6 °C 67 % 1012,8 hPa 0,0 mm 20,9 km/h (4 Bft) W-NW 285 ° 0 min 0,000 mm 1,9 UV-I 207 W/m² 4,7 °C 10,6 °C 27,4 km/h (4 Bft)
13.04.2017 10:52 10,6 °C 10,6 °C 67 % 1012,8 hPa 0,0 mm 11,4 km/h (2 Bft) W 271 ° 0 min 0,000 mm 1,9 UV-I 207 W/m² 4,7 °C 10,6 °C 14,5 km/h (3 Bft)
13.04.2017 10:53 10,6 °C 10,6 °C 67 % 1012,9 hPa 0,0 mm 19,5 km/h (3 Bft) W-NW 286 ° 0 min 0,000 mm 1,9 UV-I 207 W/m² 4,7 °C 10,6 °C 27,4 km/h (4 Bft)
13.04.2017 10:54 10,6 °C 10,6 °C 67 % 1012,9 hPa 0,0 mm 12,2 km/h (2 Bft) W-NW 284 ° 0 min 0,000 mm 1,9 UV-I 216 W/m² 4,7 °C 10,6 °C 17,7 km/h (3 Bft)
13.04.2017 10:55 10,6 °C 10,6 °C 66 % 1012,9 hPa 0,0 mm 16,6 km/h (3 Bft) W 263 ° 0 min 0,000 mm 1,8 UV-I 214 W/m² 4,5 °C 10,6 °C 27,4 km/h (4 Bft)
13.04.2017 10:56 10,6 °C 10,6 °C 66 % 1012,9 hPa 0,0 mm 22,3 km/h (4 Bft) W 273 ° 0 min 0,000 mm 1,8 UV-I 209 W/m² 4,5 °C 10,6 °C 27,4 km/h (4 Bft)
13.04.2017 10:57 10,6 °C 10,6 °C 66 % 1012,8 hPa 0,0 mm 19,6 km/h (3 Bft) W-NW 294 ° 0 min 0,000 mm 1,8 UV-I 225 W/m² 4,5 °C 10,6 °C 30,6 km/h (5 Bft)
13.04.2017 10:58 10,6 °C 10,6 °C 66 % 1012,9 hPa 0,0 mm 17,6 km/h (3 Bft) W 260 ° 0 min 0,000 mm 1,6 UV-I 204 W/m² 4,5 °C 10,6 °C 22,5 km/h (4 Bft)
13.04.2017 10:59 10,7 °C 10,7 °C 67 % 1012,8 hPa 0,0 mm 9,8 km/h (2 Bft) NW 316 ° 0 min 0,000 mm 1,7 UV-I 209 W/m² 4,8 °C 10,7 °C 16,1 km/h (3 Bft)
13.04.2017 11:00 10,7 °C 10,7 °C 66 % 1012,8 hPa 0,0 mm 9,2 km/h (2 Bft) W 269 ° 0 min 0,127 mm 1,5 UV-I 181 W/m² 4,6 °C 10,7 °C 16,1 km/h (3 Bft)
13.04.2017 11:01 10,7 °C 10,7 °C 66 % 1012,9 hPa 0,0 mm 17,2 km/h (3 Bft) W-SW 247 ° 0 min 0,000 mm 1,6 UV-I 186 W/m² 4,6 °C 10,7 °C 24,1 km/h (4 Bft)
13.04.2017 11:02 10,7 °C 10,7 °C 65 % 1012,9 hPa 0,0 mm 17,5 km/h (3 Bft) W 276 ° 0 min 0,000 mm 1,8 UV-I 209 W/m² 4,4 °C 10,7 °C 29,0 km/h (5 Bft)
13.04.2017 11:03 10,7 °C 10,7 °C 66 % 1012,9 hPa 0,0 mm 10,6 km/h (2 Bft) W 267 ° 0 min 0,000 mm 1,8 UV-I 223 W/m² 4,6 °C 10,7 °C 16,1 km/h (3 Bft)
13.04.2017 11:04 10,7 °C 10,7 °C 66 % 1012,9 hPa 0,0 mm 14,1 km/h (3 Bft) W 267 ° 0 min 0,000 mm 1,6 UV-I 165 W/m² 4,6 °C 10,7 °C 25,7 km/h (4 Bft)
13.04.2017 11:05 10,7 °C 10,7 °C 67 % 1012,9 hPa 0,0 mm 18,0 km/h (3 Bft) S-SW 209 ° 0 min 0,000 mm 1,3 UV-I 148 W/m² 4,8 °C 10,7 °C 24,1 km/h (4 Bft)
13.04.2017 11:06 10,7 °C 10,7 °C 65 % 1013,0 hPa 0,0 mm 15,8 km/h (3 Bft) W 271 ° 0 min 0,000 mm 1,3 UV-I 162 W/m² 4,4 °C 10,7 °C 29,0 km/h (5 Bft)
13.04.2017 11:07 10,7 °C 10,7 °C 65 % 1012,9 hPa 0,0 mm 14,2 km/h (3 Bft) W-SW 251 ° 0 min 0,000 mm 1,2 UV-I 162 W/m² 4,4 °C 10,7 °C 25,7 km/h (4 Bft)
13.04.2017 11:08 10,7 °C 10,7 °C 65 % 1012,9 hPa 0,0 mm 12,5 km/h (3 Bft) W-NW 298 ° 0 min 0,000 mm 1,0 UV-I 127 W/m² 4,4 °C 10,7 °C 22,5 km/h (4 Bft)
13.04.2017 11:09 10,7 °C 10,7 °C 66 % 1012,9 hPa 0,0 mm 15,6 km/h (3 Bft) W 265 ° 0 min 0,000 mm 1,0 UV-I 118 W/m² 4,6 °C 10,7 °C 20,9 km/h (4 Bft)
13.04.2017 11:10 10,6 °C 10,7 °C 65 % 1013,1 hPa 0,0 mm 17,0 km/h (3 Bft) W 264 ° 0 min 0,000 mm 0,8 UV-I 93 W/m² 4,3 °C 10,6 °C 20,9 km/h (4 Bft)
13.04.2017 11:11 10,6 °C 10,6 °C 66 % 1013,0 hPa 0,0 mm 18,6 km/h (3 Bft) W 266 ° 0 min 0,000 mm 0,7 UV-I 86 W/m² 4,5 °C 10,6 °C 25,7 km/h (4 Bft)
13.04.2017 11:12 10,5 °C 10,6 °C 65 % 1013,0 hPa 0,0 mm 23,3 km/h (4 Bft) W-NW 282 ° 0 min 0,000 mm 0,6 UV-I 74 W/m² 4,2 °C 10,5 °C 37,0 km/h (5 Bft)
13.04.2017 11:13 10,4 °C 10,5 °C 65 % 1013,0 hPa 0,0 mm 18,8 km/h (3 Bft) NW 326 ° 0 min 0,000 mm 0,5 UV-I 65 W/m² 4,1 °C 10,4 °C 30,6 km/h (5 Bft)
13.04.2017 11:14 10,4 °C 10,4 °C 66 % 1013,1 hPa 0,0 mm 16,8 km/h (3 Bft) W 265 ° 0 min 0,000 mm 0,0 UV-I 58 W/m² 4,3 °C 10,4 °C 24,1 km/h (4 Bft)
13.04.2017 11:15 10,3 °C 10,4 °C 66 % 1013,0 hPa 0,0 mm 17,2 km/h (3 Bft) W-NW 284 ° 0 min 0,000 mm 0,0 UV-I 60 W/m² 4,2 °C 10,3 °C 22,5 km/h (4 Bft)
13.04.2017 11:16 10,3 °C 10,3 °C 66 % 1013,1 hPa 0,0 mm 12,9 km/h (3 Bft) W 270 ° 0 min 0,000 mm 0,5 UV-I 72 W/m² 4,2 °C 10,3 °C 19,3 km/h (3 Bft)
13.04.2017 11:17 10,3 °C 10,3 °C 66 % 1013,1 hPa 0,0 mm 12,3 km/h (3 Bft) W 273 ° 0 min 0,000 mm 0,6 UV-I 70 W/m² 4,2 °C 10,3 °C 16,1 km/h (3 Bft)
13.04.2017 11:18 10,3 °C 10,3 °C 67 % 1013,1 hPa 0,0 mm 18,4 km/h (3 Bft) W-NW 290 ° 0 min 0,000 mm 0,6 UV-I 74 W/m² 4,4 °C 10,3 °C 24,1 km/h (4 Bft)
13.04.2017 11:19 10,3 °C 10,3 °C 66 % 1013,1 hPa 0,0 mm 19,8 km/h (3 Bft) W 281 ° 0 min 0,000 mm 0,7 UV-I 86 W/m² 4,2 °C 10,3 °C 25,7 km/h (4 Bft)
13.04.2017 11:20 10,2 °C 10,3 °C 67 % 1013,1 hPa 0,0 mm 12,9 km/h (3 Bft) W-NW 286 ° 0 min 0,000 mm 0,7 UV-I 91 W/m² 4,4 °C 10,2 °C 16,1 km/h (3 Bft)
13.04.2017 11:21 10,2 °C 10,2 °C 67 % 1013,1 hPa 0,0 mm 21,3 km/h (4 Bft) W 281 ° 0 min 0,000 mm 0,6 UV-I 81 W/m² 4,4 °C 10,2 °C 27,4 km/h (4 Bft)
13.04.2017 11:22 10,2 °C 10,2 °C 68 % 1013,1 hPa 0,0 mm 16,7 km/h (3 Bft) W 277 ° 0 min 0,000 mm 0,5 UV-I 56 W/m² 4,6 °C 10,2 °C 22,5 km/h (4 Bft)
13.04.2017 11:23 10,2 °C 10,2 °C 67 % 1013,1 hPa 0,0 mm 16,2 km/h (3 Bft) NW 315 ° 0 min 0,000 mm 0,0 UV-I 49 W/m² 4,4 °C 10,2 °C 22,5 km/h (4 Bft)
13.04.2017 11:24 10,2 °C 10,2 °C 67 % 1013,1 hPa 0,0 mm 8,9 km/h (2 Bft) W-NW 286 ° 0 min 0,000 mm 0,0 UV-I 46 W/m² 4,4 °C 10,2 °C 14,5 km/h (3 Bft)
13.04.2017 11:25 10,2 °C 10,2 °C 68 % 1013,2 hPa 0,0 mm 7,7 km/h (2 Bft) W-NW 286 ° 0 min 0,000 mm 0,0 UV-I 49 W/m² 4,6 °C 10,2 °C 12,9 km/h (3 Bft)
13.04.2017 11:26 10,1 °C 10,2 °C 67 % 1013,2 hPa 0,0 mm 11,0 km/h (2 Bft) W 265 ° 0 min 0,000 mm 0,6 UV-I 63 W/m² 4,3 °C 10,1 °C 14,5 km/h (3 Bft)
13.04.2017 11:27 10,1 °C 10,1 °C 68 % 1013,1 hPa 0,0 mm 11,9 km/h (2 Bft) W 267 ° 0 min 0,000 mm 0,7 UV-I 74 W/m² 4,5 °C 10,1 °C 17,7 km/h (3 Bft)
13.04.2017 11:28 10,1 °C 10,1 °C 68 % 1013,1 hPa 0,0 mm 16,4 km/h (3 Bft) W-NW 294 ° 0 min 0,000 mm 0,7 UV-I 76 W/m² 4,5 °C 10,1 °C 24,1 km/h (4 Bft)
13.04.2017 11:29 10,1 °C 10,1 °C 68 % 1013,1 hPa 0,0 mm 13,4 km/h (3 Bft) N-NW 344 ° 0 min 0,000 mm 0,7 UV-I 84 W/m² 4,5 °C 10,1 °C 20,9 km/h (4 Bft)
13.04.2017 11:30 10,1 °C 10,1 °C 68 % 1013,2 hPa 0,0 mm 12,9 km/h (3 Bft) W 273 ° 0 min 0,000 mm 0,8 UV-I 90 W/m² 4,5 °C 10,1 °C 24,1 km/h (4 Bft)
13.04.2017 11:31 10,1 °C 10,1 °C 68 % 1013,1 hPa 0,0 mm 14,3 km/h (3 Bft) W-SW 237 ° 0 min 0,000 mm 0,8 UV-I 91 W/m² 4,5 °C 10,1 °C 19,3 km/h (3 Bft)
13.04.2017 11:32 10,1 °C 10,1 °C 69 % 1013,2 hPa 0,0 mm 16,6 km/h (3 Bft) W 277 ° 0 min 0,000 mm 0,8 UV-I 90 W/m² 4,7 °C 10,1 °C 22,5 km/h (4 Bft)
13.04.2017 11:33 10,1 °C 10,1 °C 69 % 1013,2 hPa 0,0 mm 9,4 km/h (2 Bft) W-NW 287 ° 0 min 0,000 mm 0,7 UV-I 79 W/m² 4,7 °C 10,1 °C 16,1 km/h (3 Bft)
13.04.2017 11:34 10,1 °C 10,1 °C 68 % 1013,1 hPa 0,0 mm 10,6 km/h (2 Bft) NW 320 ° 0 min 0,000 mm 0,6 UV-I 77 W/m² 4,5 °C 10,1 °C 16,1 km/h (3 Bft)
13.04.2017 11:35 10,1 °C 10,1 °C 68 % 1013,2 hPa 0,0 mm 12,7 km/h (3 Bft) W 277 ° 0 min 0,000 mm 0,6 UV-I 72 W/m² 4,5 °C 10,1 °C 16,1 km/h (3 Bft)
13.04.2017 11:36 10,1 °C 10,1 °C 68 % 1013,2 hPa 0,0 mm 11,9 km/h (2 Bft) W-SW 244 ° 0 min 0,000 mm 0,6 UV-I 72 W/m² 4,5 °C 10,1 °C 16,1 km/h (3 Bft)
13.04.2017 11:37 10,1 °C 10,1 °C 68 % 1013,2 hPa 0,0 mm 13,8 km/h (3 Bft) W-NW 285 ° 0 min 0,000 mm 0,8 UV-I 91 W/m² 4,5 °C 10,1 °C 24,1 km/h (4 Bft)
13.04.2017 11:38 10,1 °C 10,1 °C 68 % 1013,2 hPa 0,0 mm 16,8 km/h (3 Bft) W 279 ° 0 min 0,000 mm 1,0 UV-I 123 W/m² 4,5 °C 10,1 °C 22,5 km/h (4 Bft)
13.04.2017 11:39 10,1 °C 10,1 °C 68 % 1013,2 hPa 0,0 mm 11,3 km/h (2 Bft) W-NW 296 ° 0 min 0,000 mm 1,0 UV-I 111 W/m² 4,5 °C 10,1 °C 16,1 km/h (3 Bft)
13.04.2017 11:40 10,1 °C 10,1 °C 69 % 1013,2 hPa 0,0 mm 11,8 km/h (2 Bft) W 277 ° 0 min 0,000 mm 0,7 UV-I 88 W/m² 4,7 °C 10,1 °C 19,3 km/h (3 Bft)
13.04.2017 11:41 10,1 °C 10,1 °C 68 % 1013,3 hPa 0,0 mm 13,3 km/h (3 Bft) W-NW 292 ° 0 min 0,000 mm 0,6 UV-I 76 W/m² 4,5 °C 10,1 °C 19,3 km/h (3 Bft)
13.04.2017 11:42 10,1 °C 10,1 °C 68 % 1013,2 hPa 0,0 mm 17,7 km/h (3 Bft) W 264 ° 0 min 0,000 mm 0,6 UV-I 77 W/m² 4,5 °C 10,1 °C 22,5 km/h (4 Bft)
13.04.2017 11:43 10,1 °C 10,1 °C 68 % 1013,2 hPa 0,0 mm 16,0 km/h (3 Bft) W-NW 297 ° 0 min 0,000 mm 0,6 UV-I 74 W/m² 4,5 °C 10,1 °C 19,3 km/h (3 Bft)
13.04.2017 11:44 10,1 °C 10,1 °C 68 % 1013,2 hPa 0,0 mm 15,6 km/h (3 Bft) W 261 ° 0 min 0,000 mm 0,6 UV-I 72 W/m² 4,5 °C 10,1 °C 20,9 km/h (4 Bft)
13.04.2017 11:45 10,1 °C 10,1 °C 69 % 1013,2 hPa 0,0 mm 10,7 km/h (2 Bft) W 273 ° 0 min 0,000 mm 0,6 UV-I 74 W/m² 4,7 °C 10,1 °C 14,5 km/h (3 Bft)
13.04.2017 11:46 10,1 °C 10,1 °C 68 % 1013,2 hPa 0,0 mm 10,4 km/h (2 Bft) W 274 ° 0 min 0,000 mm 0,6 UV-I 72 W/m² 4,5 °C 10,1 °C 14,5 km/h (3 Bft)
13.04.2017 11:47 10,1 °C 10,1 °C 69 % 1013,2 hPa 0,0 mm 6,4 km/h (2 Bft) W 259 ° 0 min 0,000 mm 0,5 UV-I 65 W/m² 4,7 °C 10,1 °C 11,3 km/h (2 Bft)
13.04.2017 11:48 10,1 °C 10,1 °C 68 % 1013,2 hPa 0,0 mm 7,1 km/h (2 Bft) W-NW 292 ° 0 min 0,000 mm 0,6 UV-I 72 W/m² 4,5 °C 10,1 °C 12,9 km/h (3 Bft)
13.04.2017 11:49 10,0 °C 10,1 °C 69 % 1013,2 hPa 0,0 mm 11,0 km/h (2 Bft) W-NW 296 ° 0 min 0,000 mm 0,8 UV-I 93 W/m² 4,6 °C 8,5 °C 20,9 km/h (4 Bft)
13.04.2017 11:50 10,1 °C 10,1 °C 69 % 1013,2 hPa 0,0 mm 10,0 km/h (2 Bft) W 273 ° 0 min 0,000 mm 1,1 UV-I 132 W/m² 4,7 °C 10,1 °C 20,9 km/h (4 Bft)
13.04.2017 11:51 10,1 °C 10,1 °C 69 % 1013,1 hPa 0,0 mm 12,4 km/h (3 Bft) NW 311 ° 0 min 0,000 mm 1,3 UV-I 139 W/m² 4,7 °C 10,1 °C 25,7 km/h (4 Bft)
13.04.2017 11:52 10,1 °C 10,1 °C 69 % 1013,2 hPa 0,0 mm 8,2 km/h (2 Bft) W-SW 257 ° 0 min 0,000 mm 0,7 UV-I 91 W/m² 4,7 °C 10,1 °C 16,1 km/h (3 Bft)
13.04.2017 11:53 10,1 °C 10,1 °C 69 % 1013,2 hPa 0,0 mm 16,4 km/h (3 Bft) W-NW 283 ° 0 min 0,000 mm 0,6 UV-I 76 W/m² 4,7 °C 10,1 °C 20,9 km/h (4 Bft)
13.04.2017 11:54 10,1 °C 10,1 °C 69 % 1013,1 hPa 0,0 mm 9,5 km/h (2 Bft) W 281 ° 0 min 0,000 mm 0,7 UV-I 84 W/m² 4,7 °C 10,1 °C 14,5 km/h (3 Bft)
13.04.2017 11:55 10,1 °C 10,1 °C 68 % 1013,1 hPa 0,0 mm 7,8 km/h (2 Bft) NW 321 ° 0 min 0,000 mm 0,8 UV-I 104 W/m² 4,5 °C 10,1 °C 14,5 km/h (3 Bft)
13.04.2017 11:56 10,1 °C 10,1 °C 69 % 1013,1 hPa 0,0 mm 9,5 km/h (2 Bft) W-SW 257 ° 0 min 0,000 mm 1,1 UV-I 188 W/m² 4,7 °C 10,1 °C 17,7 km/h (3 Bft)
13.04.2017 11:57 10,2 °C 10,2 °C 69 % 1013,1 hPa 0,0 mm 17,8 km/h (3 Bft) W-SW 247 ° 0 min 0,000 mm 1,5 UV-I 213 W/m² 4,8 °C 10,2 °C 25,7 km/h (4 Bft)
13.04.2017 11:58 10,2 °C 10,2 °C 68 % 1013,2 hPa 0,0 mm 13,5 km/h (3 Bft) W 271 ° 0 min 0,000 mm 1,5 UV-I 192 W/m² 4,6 °C 10,2 °C 19,3 km/h (3 Bft)
13.04.2017 11:59 10,2 °C 10,3 °C 69 % 1013,1 hPa 0,0 mm 17,8 km/h (3 Bft) W-NW 286 ° 0 min 0,000 mm 1,5 UV-I 188 W/m² 4,8 °C 10,2 °C 25,7 km/h (4 Bft)
13.04.2017 12:00 10,3 °C 10,3 °C 68 % 1013,2 hPa 0,0 mm 13,3 km/h (3 Bft) W 275 ° 0 min 0,000 mm 1,4 UV-I 188 W/m² 4,7 °C 10,3 °C 17,7 km/h (3 Bft)
13.04.2017 12:01 10,3 °C 10,3 °C 68 % 1013,2 hPa 0,0 mm 16,3 km/h (3 Bft) W-SW 255 ° 0 min 0,102 mm 1,0 UV-I 134 W/m² 4,7 °C 10,3 °C 20,9 km/h (4 Bft)
13.04.2017 12:02 10,3 °C 10,3 °C 68 % 1013,2 hPa 0,0 mm 15,5 km/h (3 Bft) NW 309 ° 0 min 0,000 mm 0,8 UV-I 93 W/m² 4,7 °C 10,3 °C 22,5 km/h (4 Bft)
13.04.2017 12:03 10,3 °C 10,3 °C 68 % 1013,2 hPa 0,0 mm 9,6 km/h (2 Bft) W 266 ° 0 min 0,000 mm 0,7 UV-I 79 W/m² 4,7 °C 10,3 °C 14,5 km/h (3 Bft)
13.04.2017 12:04 10,3 °C 10,3 °C 68 % 1013,2 hPa 0,0 mm 10,3 km/h (2 Bft) W 269 ° 0 min 0,000 mm 0,6 UV-I 70 W/m² 4,7 °C 10,3 °C 17,7 km/h (3 Bft)
13.04.2017 12:05 10,3 °C 10,3 °C 67 % 1013,1 hPa 0,0 mm 12,2 km/h (2 Bft) W-NW 298 ° 0 min 0,000 mm 0,6 UV-I 72 W/m² 4,4 °C 10,3 °C 27,4 km/h (4 Bft)
13.04.2017 12:06 10,2 °C 10,3 °C 68 % 1013,2 hPa 0,0 mm 15,0 km/h (3 Bft) W 271 ° 0 min 0,000 mm 0,5 UV-I 70 W/m² 4,6 °C 10,2 °C 25,7 km/h (4 Bft)
13.04.2017 12:07 10,2 °C 10,2 °C 68 % 1013,2 hPa 0,0 mm 12,4 km/h (3 Bft) W 269 ° 0 min 0,000 mm 0,5 UV-I 72 W/m² 4,6 °C 10,2 °C 19,3 km/h (3 Bft)
13.04.2017 12:08 10,2 °C 10,2 °C 68 % 1013,2 hPa 0,0 mm 9,1 km/h (2 Bft) W-NW 294 ° 0 min 0,000 mm 0,6 UV-I 91 W/m² 4,6 °C 10,2 °C 14,5 km/h (3 Bft)
13.04.2017 12:09 10,1 °C 10,2 °C 68 % 1013,2 hPa 0,0 mm 12,7 km/h (3 Bft) W 265 ° 0 min 0,000 mm 0,7 UV-I 98 W/m² 4,5 °C 10,1 °C 22,5 km/h (4 Bft)
13.04.2017 12:10 10,1 °C 10,1 °C 68 % 1013,1 hPa 0,0 mm 11,8 km/h (2 Bft) S-SW 212 ° 0 min 0,000 mm 0,9 UV-I 116 W/m² 4,5 °C 10,1 °C 16,1 km/h (3 Bft)
13.04.2017 12:11 10,1 °C 10,1 °C 68 % 1013,2 hPa 0,0 mm 12,7 km/h (3 Bft) W-NW 295 ° 0 min 0,000 mm 0,9 UV-I 120 W/m² 4,5 °C 10,1 °C 20,9 km/h (4 Bft)
13.04.2017 12:12 10,1 °C 10,1 °C 68 % 1013,2 hPa 0,0 mm 16,1 km/h (3 Bft) W-NW 294 ° 0 min 0,000 mm 0,8 UV-I 111 W/m² 4,5 °C 10,1 °C 25,7 km/h (4 Bft)
13.04.2017 12:13 10,1 °C 10,1 °C 68 % 1013,2 hPa 0,0 mm 13,4 km/h (3 Bft) W 273 ° 0 min 0,000 mm 0,7 UV-I 97 W/m² 4,5 °C 10,1 °C 17,7 km/h (3 Bft)
13.04.2017 12:14 10,1 °C 10,1 °C 69 % 1013,2 hPa 0,0 mm 12,5 km/h (3 Bft) W 275 ° 0 min 0,000 mm 0,7 UV-I 86 W/m² 4,7 °C 10,1 °C 17,7 km/h (3 Bft)
13.04.2017 12:15 10,1 °C 10,1 °C 68 % 1013,3 hPa 0,0 mm 15,5 km/h (3 Bft) W 270 ° 0 min 0,000 mm 0,7 UV-I 90 W/m² 4,5 °C 10,1 °C 25,7 km/h (4 Bft)
13.04.2017 12:16 10,1 °C 10,1 °C 68 % 1013,3 hPa 0,0 mm 14,1 km/h (3 Bft) SW 232 ° 0 min 0,000 mm 0,7 UV-I 90 W/m² 4,5 °C 10,1 °C 19,3 km/h (3 Bft)
13.04.2017 12:17 10,1 °C 10,1 °C 68 % 1013,2 hPa 0,0 mm 14,8 km/h (3 Bft) W-SW 251 ° 0 min 0,000 mm 0,7 UV-I 90 W/m² 4,5 °C 10,1 °C 24,1 km/h (4 Bft)
13.04.2017 12:18 10,1 °C 10,1 °C 68 % 1013,2 hPa 0,0 mm 15,8 km/h (3 Bft) W 275 ° 0 min 0,000 mm 0,8 UV-I 95 W/m² 4,5 °C 10,1 °C 25,7 km/h (4 Bft)
13.04.2017 12:19 10,1 °C 10,1 °C 69 % 1013,2 hPa 0,0 mm 20,2 km/h (4 Bft) W-SW 246 ° 0 min 0,000 mm 1,0 UV-I 116 W/m² 4,7 °C 10,1 °C 27,4 km/h (4 Bft)
13.04.2017 12:20 10,1 °C 10,1 °C 69 % 1013,2 hPa 0,0 mm 18,2 km/h (3 Bft) W 277 ° 0 min 0,000 mm 1,7 UV-I 239 W/m² 4,7 °C 10,1 °C 22,5 km/h (4 Bft)
13.04.2017 12:21 10,1 °C 10,1 °C 69 % 1013,2 hPa 0,0 mm 14,3 km/h (3 Bft) W-NW 284 ° 0 min 0,000 mm 2,5 UV-I 283 W/m² 4,7 °C 10,1 °C 22,5 km/h (4 Bft)
13.04.2017 12:22 10,2 °C 10,2 °C 69 % 1013,2 hPa 0,0 mm 10,4 km/h (2 Bft) W-NW 293 ° 0 min 0,000 mm 2,6 UV-I 283 W/m² 4,8 °C 10,2 °C 19,3 km/h (3 Bft)
13.04.2017 12:23 10,3 °C 10,3 °C 69 % 1013,2 hPa 0,0 mm 12,0 km/h (2 Bft) W-NW 296 ° 0 min 0,000 mm 2,3 UV-I 283 W/m² 4,9 °C 10,3 °C 17,7 km/h (3 Bft)
13.04.2017 12:24 10,4 °C 10,4 °C 69 % 1013,2 hPa 0,0 mm 11,3 km/h (2 Bft) W 279 ° 0 min 0,000 mm 2,3 UV-I 274 W/m² 5,0 °C 10,4 °C 20,9 km/h (4 Bft)
13.04.2017 12:25 10,5 °C 10,5 °C 68 % 1013,2 hPa 0,0 mm 13,9 km/h (3 Bft) W 269 ° 0 min 0,000 mm 2,2 UV-I 269 W/m² 4,8 °C 10,5 °C 19,3 km/h (3 Bft)
13.04.2017 12:26 10,6 °C 10,6 °C 69 % 1013,2 hPa 0,0 mm 8,0 km/h (2 Bft) W-NW 288 ° 0 min 0,000 mm 1,8 UV-I 178 W/m² 5,2 °C 10,6 °C 12,9 km/h (3 Bft)
13.04.2017 12:27 10,6 °C 10,6 °C 68 % 1013,2 hPa 0,0 mm 13,3 km/h (3 Bft) W-NW 299 ° 0 min 0,000 mm 1,3 UV-I 156 W/m² 4,9 °C 10,6 °C 20,9 km/h (4 Bft)
13.04.2017 12:28 10,6 °C 10,6 °C 68 % 1013,2 hPa 0,0 mm 11,7 km/h (2 Bft) W-NW 291 ° 0 min 0,000 mm 1,3 UV-I 158 W/m² 4,9 °C 10,6 °C 17,7 km/h (3 Bft)
13.04.2017 12:29 10,6 °C 10,6 °C 68 % 1013,2 hPa 0,0 mm 12,1 km/h (2 Bft) W-NW 284 ° 0 min 0,000 mm 1,2 UV-I 146 W/m² 4,9 °C 10,6 °C 19,3 km/h (3 Bft)
13.04.2017 12:30 10,6 °C 10,6 °C 68 % 1013,2 hPa 0,0 mm 7,1 km/h (2 Bft) W-NW 301 ° 0 min 0,000 mm 1,0 UV-I 123 W/m² 4,9 °C 10,6 °C 12,9 km/h (3 Bft)
13.04.2017 12:31 10,6 °C 10,6 °C 68 % 1013,2 hPa 0,0 mm 7,4 km/h (2 Bft) W-SW 251 ° 0 min 0,000 mm 1,0 UV-I 118 W/m² 4,9 °C 10,6 °C 12,9 km/h (3 Bft)
13.04.2017 12:32 10,5 °C 10,6 °C 68 % 1013,2 hPa 0,0 mm 15,1 km/h (3 Bft) W-NW 284 ° 0 min 0,000 mm 1,1 UV-I 118 W/m² 4,8 °C 10,5 °C 22,5 km/h (4 Bft)
13.04.2017 12:33 10,5 °C 10,6 °C 68 % 1013,2 hPa 0,0 mm 13,5 km/h (3 Bft) W 277 ° 0 min 0,000 mm 1,0 UV-I 113 W/m² 4,8 °C 10,5 °C 19,3 km/h (3 Bft)
13.04.2017 12:34 10,4 °C 10,5 °C 68 % 1013,2 hPa 0,0 mm 10,1 km/h (2 Bft) W 267 ° 0 min 0,000 mm 1,1 UV-I 130 W/m² 4,8 °C 10,4 °C 16,1 km/h (3 Bft)
13.04.2017 12:35 10,4 °C 10,4 °C 69 % 1013,2 hPa 0,0 mm 10,5 km/h (2 Bft) W 281 ° 0 min 0,000 mm 1,2 UV-I 139 W/m² 5,0 °C 10,4 °C 14,5 km/h (3 Bft)
13.04.2017 12:36 10,4 °C 10,4 °C 69 % 1013,2 hPa 0,0 mm 5,6 km/h (1 Bft) W-NW 292 ° 0 min 0,000 mm 1,2 UV-I 137 W/m² 5,0 °C 10,4 °C 11,3 km/h (2 Bft)
13.04.2017 12:37 10,4 °C 10,4 °C 69 % 1013,2 hPa 0,0 mm 11,7 km/h (2 Bft) W 268 ° 0 min 0,000 mm 1,2 UV-I 176 W/m² 5,0 °C 10,4 °C 17,7 km/h (3 Bft)
13.04.2017 12:38 10,4 °C 10,4 °C 68 % 1013,3 hPa 0,0 mm 16,2 km/h (3 Bft) W-NW 301 ° 0 min 0,000 mm 1,4 UV-I 178 W/m² 4,8 °C 10,4 °C 22,5 km/h (4 Bft)
13.04.2017 12:39 10,4 °C 10,4 °C 68 % 1013,2 hPa 0,0 mm 12,1 km/h (2 Bft) W-SW 257 ° 0 min 0,000 mm 1,3 UV-I 162 W/m² 4,8 °C 10,4 °C 19,3 km/h (3 Bft)
13.04.2017 12:40 10,4 °C 10,4 °C 68 % 1013,2 hPa 0,0 mm 17,4 km/h (3 Bft) W 275 ° 0 min 0,000 mm 1,4 UV-I 171 W/m² 4,8 °C 10,4 °C 30,6 km/h (5 Bft)
13.04.2017 12:41 10,4 °C 10,4 °C 68 % 1013,2 hPa 0,0 mm 14,3 km/h (3 Bft) NW 318 ° 0 min 0,000 mm 1,5 UV-I 183 W/m² 4,8 °C 10,4 °C 17,7 km/h (3 Bft)
13.04.2017 12:42 10,4 °C 10,4 °C 69 % 1013,2 hPa 0,0 mm 12,2 km/h (2 Bft) W 259 ° 0 min 0,000 mm 1,4 UV-I 169 W/m² 5,0 °C 10,4 °C 17,7 km/h (3 Bft)
13.04.2017 12:43 10,4 °C 10,4 °C 68 % 1013,2 hPa 0,0 mm 14,3 km/h (3 Bft) W 269 ° 0 min 0,000 mm 1,3 UV-I 156 W/m² 4,8 °C 10,4 °C 19,3 km/h (3 Bft)
13.04.2017 12:44 10,4 °C 10,4 °C 69 % 1013,2 hPa 0,0 mm 9,7 km/h (2 Bft) SW 214 ° 0 min 0,000 mm 1,1 UV-I 134 W/m² 5,0 °C 10,4 °C 24,1 km/h (4 Bft)
13.04.2017 12:45 10,4 °C 10,4 °C 68 % 1013,2 hPa 0,0 mm 18,5 km/h (3 Bft) W-NW 298 ° 0 min 0,000 mm 1,2 UV-I 141 W/m² 4,8 °C 10,4 °C 33,8 km/h (5 Bft)
13.04.2017 12:46 10,4 °C 10,4 °C 67 % 1013,2 hPa 0,0 mm 16,6 km/h (3 Bft) W 263 ° 0 min 0,000 mm 1,2 UV-I 148 W/m² 4,5 °C 10,4 °C 22,5 km/h (4 Bft)
13.04.2017 12:47 10,4 °C 10,4 °C 68 % 1013,2 hPa 0,0 mm 12,8 km/h (3 Bft) W 259 ° 0 min 0,000 mm 1,3 UV-I 158 W/m² 4,8 °C 10,4 °C 20,9 km/h (4 Bft)
13.04.2017 12:48 10,4 °C 10,4 °C 68 % 1013,2 hPa 0,0 mm 16,2 km/h (3 Bft) W-NW 288 ° 0 min 0,000 mm 1,5 UV-I 179 W/m² 4,8 °C 10,4 °C 20,9 km/h (4 Bft)
13.04.2017 12:49 10,4 °C 10,4 °C 68 % 1013,2 hPa 0,0 mm 16,2 km/h (3 Bft) W 275 ° 0 min 0,000 mm 1,7 UV-I 225 W/m² 4,8 °C 10,4 °C 27,4 km/h (4 Bft)
13.04.2017 12:50 10,4 °C 10,4 °C 68 % 1013,2 hPa 0,0 mm 17,9 km/h (3 Bft) W 278 ° 0 min 0,000 mm 2,2 UV-I 251 W/m² 4,8 °C 10,4 °C 27,4 km/h (4 Bft)
13.04.2017 12:51 10,4 °C 10,4 °C 68 % 1013,2 hPa 0,0 mm 10,1 km/h (2 Bft) NW 311 ° 0 min 0,000 mm 2,3 UV-I 271 W/m² 4,8 °C 10,4 °C 14,5 km/h (3 Bft)
13.04.2017 12:52 10,6 °C 10,6 °C 69 % 1013,2 hPa 0,0 mm 12,3 km/h (3 Bft) W 267 ° 0 min 0,000 mm 2,2 UV-I 257 W/m² 5,2 °C 10,6 °C 19,3 km/h (3 Bft)
13.04.2017 12:53 10,6 °C 10,6 °C 69 % 1013,2 hPa 0,0 mm 19,9 km/h (4 Bft) W 281 ° 0 min 0,000 mm 2,2 UV-I 257 W/m² 5,2 °C 10,6 °C 25,7 km/h (4 Bft)
13.04.2017 12:54 10,7 °C 10,7 °C 67 % 1013,3 hPa 0,0 mm 20,5 km/h (4 Bft) W 265 ° 0 min 0,000 mm 2,3 UV-I 265 W/m² 4,8 °C 10,7 °C 25,7 km/h (4 Bft)
13.04.2017 12:55 10,7 °C 10,7 °C 67 % 1013,3 hPa 0,0 mm 19,0 km/h (3 Bft) W 259 ° 0 min 0,000 mm 2,2 UV-I 232 W/m² 4,8 °C 10,7 °C 25,7 km/h (4 Bft)
13.04.2017 12:56 10,7 °C 10,7 °C 67 % 1013,2 hPa 0,0 mm 14,1 km/h (3 Bft) W-NW 288 ° 0 min 0,000 mm 2,0 UV-I 229 W/m² 4,8 °C 10,7 °C 19,3 km/h (3 Bft)
13.04.2017 12:57 10,7 °C 10,7 °C 67 % 1013,2 hPa 0,0 mm 11,9 km/h (2 Bft) W-SW 257 ° 0 min 0,000 mm 2,0 UV-I 239 W/m² 4,8 °C 10,7 °C 20,9 km/h (4 Bft)
13.04.2017 12:58 10,7 °C 10,7 °C 67 % 1013,2 hPa 0,0 mm 11,4 km/h (2 Bft) SW 234 ° 0 min 0,000 mm 1,9 UV-I 230 W/m² 4,8 °C 10,7 °C 16,1 km/h (3 Bft)
13.04.2017 12:59 10,7 °C 10,7 °C 68 % 1013,2 hPa 0,0 mm 9,1 km/h (2 Bft) W-NW 288 ° 0 min 0,000 mm 2,0 UV-I 236 W/m² 5,0 °C 10,7 °C 14,5 km/h (3 Bft)
13.04.2017 13:00 10,7 °C 10,7 °C 68 % 1013,2 hPa 0,0 mm 9,6 km/h (2 Bft) W-NW 293 ° 0 min 0,127 mm 2,0 UV-I 239 W/m² 5,0 °C 10,7 °C 16,1 km/h (3 Bft)
13.04.2017 13:01 10,8 °C 10,8 °C 68 % 1013,2 hPa 0,0 mm 10,4 km/h (2 Bft) W 273 ° 0 min 0,000 mm 2,0 UV-I 223 W/m² 5,1 °C 10,8 °C 14,5 km/h (3 Bft)
13.04.2017 13:02 10,7 °C 10,8 °C 68 % 1013,2 hPa 0,0 mm 9,1 km/h (2 Bft) W-NW 284 ° 0 min 0,000 mm 2,0 UV-I 236 W/m² 5,0 °C 10,7 °C 17,7 km/h (3 Bft)
13.04.2017 13:03 10,8 °C 10,8 °C 68 % 1013,2 hPa 0,0 mm 16,2 km/h (3 Bft) W 265 ° 0 min 0,000 mm 2,0 UV-I 250 W/m² 5,1 °C 10,8 °C 20,9 km/h (4 Bft)
13.04.2017 13:04 10,8 °C 10,8 °C 69 % 1013,2 hPa 0,0 mm 13,9 km/h (3 Bft) W 267 ° 0 min 0,000 mm 2,0 UV-I 244 W/m² 5,3 °C 10,8 °C 19,3 km/h (3 Bft)
13.04.2017 13:05 10,9 °C 10,9 °C 68 % 1013,2 hPa 0,0 mm 10,8 km/h (2 Bft) W 259 ° 0 min 0,000 mm 2,1 UV-I 244 W/m² 5,2 °C 10,9 °C 17,7 km/h (3 Bft)
13.04.2017 13:06 10,9 °C 10,9 °C 67 % 1013,2 hPa 0,0 mm 10,7 km/h (2 Bft) SW 236 ° 0 min 0,000 mm 2,1 UV-I 246 W/m² 5,0 °C 10,9 °C 16,1 km/h (3 Bft)
13.04.2017 13:07 10,9 °C 10,9 °C 67 % 1013,2 hPa 0,0 mm 16,9 km/h (3 Bft) W 271 ° 0 min 0,000 mm 2,0 UV-I 258 W/m² 5,0 °C 10,9 °C 25,7 km/h (4 Bft)
13.04.2017 13:08 10,9 °C 10,9 °C 67 % 1013,3 hPa 0,0 mm 16,6 km/h (3 Bft) NW 305 ° 0 min 0,000 mm 2,3 UV-I 283 W/m² 5,0 °C 10,9 °C 25,7 km/h (4 Bft)
13.04.2017 13:09 10,9 °C 10,9 °C 66 % 1013,2 hPa 0,0 mm 13,5 km/h (3 Bft) NW 317 ° 1 min 0,000 mm 2,2 UV-I 336 W/m² 4,8 °C 10,9 °C 20,9 km/h (4 Bft)
13.04.2017 13:10 10,8 °C 10,9 °C 66 % 1013,2 hPa 0,0 mm 12,9 km/h (3 Bft) W 278 ° 0 min 0,000 mm 2,0 UV-I 246 W/m² 4,7 °C 10,8 °C 22,5 km/h (4 Bft)
13.04.2017 13:11 10,9 °C 10,9 °C 68 % 1013,2 hPa 0,0 mm 12,8 km/h (3 Bft) W-SW 251 ° 0 min 0,000 mm 2,0 UV-I 232 W/m² 5,2 °C 10,9 °C 17,7 km/h (3 Bft)
13.04.2017 13:12 10,9 °C 10,9 °C 66 % 1013,2 hPa 0,0 mm 11,0 km/h (2 Bft) W 278 ° 0 min 0,000 mm 1,9 UV-I 232 W/m² 4,8 °C 10,9 °C 16,1 km/h (3 Bft)
13.04.2017 13:13 10,9 °C 10,9 °C 66 % 1013,2 hPa 0,0 mm 16,0 km/h (3 Bft) W 267 ° 0 min 0,000 mm 1,9 UV-I 213 W/m² 4,8 °C 10,9 °C 20,9 km/h (4 Bft)
13.04.2017 13:14 10,9 °C 10,9 °C 66 % 1013,3 hPa 0,0 mm 19,5 km/h (3 Bft) W-SW 256 ° 0 min 0,000 mm 1,9 UV-I 225 W/m² 4,8 °C 10,9 °C 27,4 km/h (4 Bft)
13.04.2017 13:15 10,8 °C 10,9 °C 66 % 1013,2 hPa 0,0 mm 14,6 km/h (3 Bft) W-SW 252 ° 0 min 0,000 mm 2,0 UV-I 243 W/m² 4,7 °C 10,8 °C 22,5 km/h (4 Bft)
13.04.2017 13:16 10,8 °C 10,8 °C 66 % 1013,4 hPa 0,0 mm 20,3 km/h (4 Bft) NW 313 ° 0 min 0,000 mm 1,9 UV-I 227 W/m² 4,7 °C 10,8 °C 32,2 km/h (5 Bft)
13.04.2017 13:17 10,8 °C 10,8 °C 66 % 1013,1 hPa 0,0 mm 17,1 km/h (3 Bft) W-NW 302 ° 0 min 0,000 mm 1,6 UV-I 192 W/m² 4,7 °C 10,8 °C 32,2 km/h (5 Bft)
13.04.2017 13:18 10,8 °C 10,8 °C 66 % 1013,2 hPa 0,0 mm 8,8 km/h (2 Bft) W 279 ° 0 min 0,000 mm 1,4 UV-I 158 W/m² 4,7 °C 10,8 °C 17,7 km/h (3 Bft)
13.04.2017 13:19 10,8 °C 10,8 °C 67 % 1013,2 hPa 0,0 mm 9,4 km/h (2 Bft) W-NW 303 ° 0 min 0,000 mm 1,3 UV-I 153 W/m² 4,9 °C 10,8 °C 17,7 km/h (3 Bft)
13.04.2017 13:20 10,8 °C 10,8 °C 67 % 1013,2 hPa 0,0 mm 12,0 km/h (2 Bft) W 279 ° 0 min 0,000 mm 1,3 UV-I 156 W/m² 4,9 °C 10,8 °C 17,7 km/h (3 Bft)
13.04.2017 13:21 10,8 °C 10,8 °C 67 % 1013,2 hPa 0,0 mm 10,7 km/h (2 Bft) W 275 ° 0 min 0,000 mm 1,4 UV-I 169 W/m² 4,9 °C 10,8 °C 16,1 km/h (3 Bft)
13.04.2017 13:22 10,7 °C 10,8 °C 67 % 1013,3 hPa 0,0 mm 12,7 km/h (3 Bft) W-NW 295 ° 0 min 0,000 mm 1,5 UV-I 185 W/m² 4,8 °C 10,7 °C 19,3 km/h (3 Bft)
13.04.2017 13:23 10,7 °C 10,8 °C 68 % 1013,3 hPa 0,0 mm 9,5 km/h (2 Bft) W 271 ° 0 min 0,000 mm 1,5 UV-I 179 W/m² 5,0 °C 10,7 °C 14,5 km/h (3 Bft)
13.04.2017 13:24 10,7 °C 10,8 °C 68 % 1013,2 hPa 0,0 mm 10,2 km/h (2 Bft) SW 231 ° 0 min 0,000 mm 1,5 UV-I 174 W/m² 5,0 °C 10,7 °C 14,5 km/h (3 Bft)
13.04.2017 13:25 10,8 °C 10,8 °C 67 % 1013,2 hPa 0,0 mm 9,9 km/h (2 Bft) W-NW 302 ° 0 min 0,000 mm 1,3 UV-I 162 W/m² 4,9 °C 10,8 °C 20,9 km/h (4 Bft)
13.04.2017 13:26 10,7 °C 10,8 °C 68 % 1013,3 hPa 0,0 mm 12,7 km/h (3 Bft) W-NW 294 ° 0 min 0,000 mm 1,5 UV-I 176 W/m² 5,0 °C 10,7 °C 17,7 km/h (3 Bft)
13.04.2017 13:27 10,8 °C 10,8 °C 67 % 1013,2 hPa 0,0 mm 13,3 km/h (3 Bft) W-SW 257 ° 0 min 0,000 mm 2,2 UV-I 176 W/m² 4,9 °C 10,8 °C 22,5 km/h (4 Bft)
13.04.2017 13:28 10,8 °C 10,8 °C 67 % 1013,2 hPa 0,0 mm 9,0 km/h (2 Bft) W 281 ° 0 min 0,000 mm 1,9 UV-I 176 W/m² 4,9 °C 10,8 °C 12,9 km/h (3 Bft)
13.04.2017 13:29 10,8 °C 10,8 °C 68 % 1013,2 hPa 0,0 mm 17,0 km/h (3 Bft) W 281 ° 0 min 0,000 mm 1,8 UV-I 232 W/m² 5,1 °C 10,8 °C 19,3 km/h (3 Bft)
13.04.2017 13:30 10,8 °C 10,9 °C 68 % 1013,2 hPa 0,0 mm 15,2 km/h (3 Bft) W 274 ° 0 min 0,000 mm 1,7 UV-I 179 W/m² 5,1 °C 10,8 °C 20,9 km/h (4 Bft)
13.04.2017 13:31 10,9 °C 10,9 °C 66 % 1013,3 hPa 0,0 mm 14,4 km/h (3 Bft) W 281 ° 0 min 0,000 mm 1,2 UV-I 151 W/m² 4,8 °C 10,9 °C 17,7 km/h (3 Bft)
13.04.2017 13:32 10,9 °C 10,9 °C 67 % 1013,2 hPa 0,0 mm 13,7 km/h (3 Bft) W 262 ° 0 min 0,000 mm 1,2 UV-I 146 W/m² 5,0 °C 10,9 °C 17,7 km/h (3 Bft)
13.04.2017 13:33 10,8 °C 10,9 °C 67 % 1013,2 hPa 0,0 mm 11,1 km/h (2 Bft) W 275 ° 0 min 0,000 mm 1,2 UV-I 146 W/m² 4,9 °C 10,8 °C 17,7 km/h (3 Bft)
13.04.2017 13:34 10,8 °C 10,8 °C 68 % 1013,2 hPa 0,0 mm 15,6 km/h (3 Bft) W-NW 287 ° 0 min 0,000 mm 1,1 UV-I 137 W/m² 5,1 °C 10,8 °C 20,9 km/h (4 Bft)
13.04.2017 13:35 10,8 °C 10,8 °C 67 % 1013,2 hPa 0,0 mm 19,9 km/h (4 Bft) W-NW 286 ° 0 min 0,000 mm 1,0 UV-I 130 W/m² 4,9 °C 10,8 °C 25,7 km/h (4 Bft)
13.04.2017 13:36 10,7 °C 10,8 °C 67 % 1013,2 hPa 0,0 mm 13,9 km/h (3 Bft) W 275 ° 0 min 0,000 mm 1,0 UV-I 132 W/m² 4,8 °C 10,7 °C 19,3 km/h (3 Bft)
13.04.2017 13:37 10,7 °C 10,7 °C 67 % 1013,2 hPa 0,0 mm 19,0 km/h (3 Bft) W-SW 248 ° 0 min 0,000 mm 1,2 UV-I 146 W/m² 4,8 °C 10,7 °C 30,6 km/h (5 Bft)
13.04.2017 13:38 10,6 °C 10,7 °C 67 % 1013,1 hPa 0,0 mm 15,0 km/h (3 Bft) W 277 ° 0 min 0,000 mm 1,3 UV-I 162 W/m² 4,7 °C 10,6 °C 22,5 km/h (4 Bft)
13.04.2017 13:39 10,6 °C 10,7 °C 67 % 1013,2 hPa 0,0 mm 14,0 km/h (3 Bft) W 273 ° 0 min 0,000 mm 1,4 UV-I 171 W/m² 4,7 °C 10,6 °C 22,5 km/h (4 Bft)
13.04.2017 13:40 10,6 °C 10,6 °C 68 % 1013,2 hPa 0,0 mm 17,3 km/h (3 Bft) W-SW 251 ° 0 min 0,000 mm 1,5 UV-I 179 W/m² 4,9 °C 10,6 °C 22,5 km/h (4 Bft)
13.04.2017 13:41 10,6 °C 10,7 °C 67 % 1013,2 hPa 0,0 mm 18,0 km/h (3 Bft) W 274 ° 0 min 0,000 mm 1,6 UV-I 192 W/m² 4,7 °C 10,6 °C 24,1 km/h (4 Bft)
13.04.2017 13:42 10,7 °C 10,7 °C 67 % 1013,2 hPa 0,0 mm 13,3 km/h (3 Bft) W 261 ° 0 min 0,000 mm 1,7 UV-I 223 W/m² 4,8 °C 10,7 °C 22,5 km/h (4 Bft)
13.04.2017 13:43 10,7 °C 10,7 °C 67 % 1013,2 hPa 0,0 mm 19,8 km/h (3 Bft) W-NW 284 ° 0 min 0,000 mm 2,0 UV-I 237 W/m² 4,8 °C 10,7 °C 27,4 km/h (4 Bft)
13.04.2017 13:44 10,7 °C 10,7 °C 67 % 1013,1 hPa 0,0 mm 15,6 km/h (3 Bft) W-SW 258 ° 0 min 0,000 mm 2,1 UV-I 278 W/m² 4,8 °C 10,7 °C 20,9 km/h (4 Bft)
13.04.2017 13:45 10,8 °C 10,8 °C 67 % 1013,2 hPa 0,0 mm 14,0 km/h (3 Bft) W 277 ° 0 min 0,000 mm 2,2 UV-I 279 W/m² 4,9 °C 10,8 °C 24,1 km/h (4 Bft)
13.04.2017 13:46 10,8 °C 10,8 °C 67 % 1013,2 hPa 0,0 mm 16,8 km/h (3 Bft) NW 325 ° 0 min 0,000 mm 2,0 UV-I 248 W/m² 4,9 °C 10,8 °C 24,1 km/h (4 Bft)
13.04.2017 13:47 10,8 °C 10,8 °C 67 % 1013,1 hPa 0,0 mm 11,3 km/h (2 Bft) W 261 ° 0 min 0,000 mm 1,7 UV-I 211 W/m² 4,9 °C 10,8 °C 14,5 km/h (3 Bft)
13.04.2017 13:48 10,9 °C 10,9 °C 67 % 1013,2 hPa 0,0 mm 7,1 km/h (2 Bft) W-NW 292 ° 0 min 0,000 mm 1,5 UV-I 183 W/m² 5,0 °C 10,9 °C 11,3 km/h (2 Bft)
13.04.2017 13:49 10,9 °C 10,9 °C 68 % 1013,1 hPa 0,0 mm 9,3 km/h (2 Bft) W-NW 287 ° 0 min 0,000 mm 1,6 UV-I 188 W/m² 5,2 °C 10,9 °C 17,7 km/h (3 Bft)
13.04.2017 13:50 10,9 °C 10,9 °C 68 % 1013,1 hPa 0,0 mm 13,3 km/h (3 Bft) W-SW 246 ° 0 min 0,000 mm 1,6 UV-I 197 W/m² 5,2 °C 10,9 °C 17,7 km/h (3 Bft)
13.04.2017 13:51 11,0 °C 11,0 °C 67 % 1013,1 hPa 0,0 mm 13,1 km/h (3 Bft) NW 304 ° 0 min 0,000 mm 1,6 UV-I 200 W/m² 5,1 °C 11,0 °C 20,9 km/h (4 Bft)
13.04.2017 13:52 10,9 °C 11,0 °C 67 % 1013,1 hPa 0,0 mm 12,0 km/h (2 Bft) W-SW 243 ° 0 min 0,000 mm 1,8 UV-I 216 W/m² 5,0 °C 10,9 °C 16,1 km/h (3 Bft)
13.04.2017 13:53 10,9 °C 10,9 °C 67 % 1013,1 hPa 0,0 mm 6,1 km/h (2 Bft) NW 308 ° 0 min 0,000 mm 1,9 UV-I 230 W/m² 5,0 °C 10,9 °C 9,7 km/h (2 Bft)
13.04.2017 13:54 10,9 °C 10,9 °C 67 % 1013,1 hPa 0,0 mm 7,8 km/h (2 Bft) W-NW 302 ° 0 min 0,000 mm 1,9 UV-I 230 W/m² 5,0 °C 10,9 °C 12,9 km/h (3 Bft)
13.04.2017 13:55 11,0 °C 11,0 °C 68 % 1013,1 hPa 0,0 mm 8,0 km/h (2 Bft) W-SW 242 ° 0 min 0,000 mm 2,1 UV-I 258 W/m² 5,3 °C 11,0 °C 12,9 km/h (3 Bft)
13.04.2017 13:56 11,1 °C 11,1 °C 68 % 1013,1 hPa 0,0 mm 4,6 km/h (1 Bft) W-NW 282 ° 1 min 0,000 mm 2,3 UV-I 290 W/m² 5,4 °C 11,1 °C 9,7 km/h (2 Bft)
13.04.2017 13:57 11,1 °C 11,1 °C 67 % 1013,1 hPa 0,0 mm 5,1 km/h (1 Bft) W-NW 301 ° 0 min 0,000 mm 2,2 UV-I 283 W/m² 5,2 °C 11,1 °C 6,4 km/h (2 Bft)
13.04.2017 13:58 11,2 °C 11,2 °C 68 % 1013,1 hPa 0,0 mm 9,1 km/h (2 Bft) W-NW 285 ° 0 min 0,000 mm 2,0 UV-I 250 W/m² 5,5 °C 11,2 °C 14,5 km/h (3 Bft)
13.04.2017 13:59 11,2 °C 11,2 °C 67 % 1013,1 hPa 0,0 mm 12,3 km/h (3 Bft) W-NW 290 ° 0 min 0,000 mm 2,1 UV-I 253 W/m² 5,3 °C 11,2 °C 14,5 km/h (3 Bft)
13.04.2017 14:00 11,3 °C 11,3 °C 68 % 1013,1 hPa 0,0 mm 8,9 km/h (2 Bft) W-NW 285 ° 1 min 0,000 mm 2,4 UV-I 301 W/m² 5,6 °C 11,3 °C 14,5 km/h (3 Bft)
13.04.2017 14:01 11,3 °C 11,3 °C 68 % 1013,1 hPa 0,0 mm 11,3 km/h (2 Bft) W 263 ° 1 min 0,152 mm 2,6 UV-I 316 W/m² 5,6 °C 11,3 °C 16,1 km/h (3 Bft)
13.04.2017 14:02 11,3 °C 11,3 °C 67 % 1013,1 hPa 0,0 mm 16,8 km/h (3 Bft) W-NW 282 ° 1 min 0,000 mm 2,4 UV-I 292 W/m² 5,4 °C 11,3 °C 22,5 km/h (4 Bft)
13.04.2017 14:03 11,3 °C 11,3 °C 67 % 1013,1 hPa 0,0 mm 13,6 km/h (3 Bft) W 277 ° 0 min 0,000 mm 2,2 UV-I 269 W/m² 5,4 °C 11,3 °C 19,3 km/h (3 Bft)
13.04.2017 14:04 11,3 °C 11,3 °C 66 % 1013,1 hPa 0,0 mm 20,2 km/h (4 Bft) W-NW 299 ° 0 min 0,000 mm 2,2 UV-I 260 W/m² 5,2 °C 11,3 °C 30,6 km/h (5 Bft)
13.04.2017 14:05 11,3 °C 11,3 °C 66 % 1013,1 hPa 0,0 mm 14,6 km/h (3 Bft) S-SW 201 ° 0 min 0,000 mm 2,2 UV-I 251 W/m² 5,2 °C 11,3 °C 20,9 km/h (4 Bft)
13.04.2017 14:06 11,3 °C 11,3 °C 67 % 1013,0 hPa 0,0 mm 13,0 km/h (3 Bft) W 279 ° 0 min 0,000 mm 2,1 UV-I 239 W/m² 5,4 °C 11,3 °C 20,9 km/h (4 Bft)
13.04.2017 14:07 11,2 °C 11,3 °C 67 % 1013,1 hPa 0,0 mm 8,9 km/h (2 Bft) NW 323 ° 0 min 0,000 mm 2,0 UV-I 232 W/m² 5,3 °C 11,2 °C 12,9 km/h (3 Bft)
13.04.2017 14:08 11,3 °C 11,3 °C 68 % 1013,1 hPa 0,0 mm 11,7 km/h (2 Bft) NW 309 ° 0 min 0,000 mm 1,9 UV-I 223 W/m² 5,6 °C 11,3 °C 16,1 km/h (3 Bft)
13.04.2017 14:09 11,3 °C 11,3 °C 68 % 1013,1 hPa 0,0 mm 8,0 km/h (2 Bft) W-SW 251 ° 0 min 0,000 mm 1,8 UV-I 221 W/m² 5,6 °C 11,3 °C 11,3 km/h (2 Bft)
13.04.2017 14:10 11,3 °C 11,3 °C 66 % 1013,0 hPa 0,0 mm 9,0 km/h (2 Bft) W-SW 248 ° 0 min 0,000 mm 1,8 UV-I 223 W/m² 5,2 °C 11,3 °C 16,1 km/h (3 Bft)
13.04.2017 14:11 11,3 °C 11,3 °C 65 % 1013,0 hPa 0,0 mm 11,4 km/h (2 Bft) N-NW 334 ° 0 min 0,000 mm 1,9 UV-I 229 W/m² 5,0 °C 11,3 °C 20,9 km/h (4 Bft)
13.04.2017 14:12 11,3 °C 11,3 °C 67 % 1013,0 hPa 0,0 mm 13,6 km/h (3 Bft) W 263 ° 0 min 0,000 mm 2,2 UV-I 246 W/m² 5,4 °C 11,3 °C 17,7 km/h (3 Bft)
13.04.2017 14:13 11,3 °C 11,3 °C 67 % 1013,0 hPa 0,0 mm 9,1 km/h (2 Bft) NW 323 ° 0 min 0,000 mm 2,2 UV-I 258 W/m² 5,4 °C 11,3 °C 12,9 km/h (3 Bft)
13.04.2017 14:14 11,3 °C 11,3 °C 67 % 1013,0 hPa 0,0 mm 14,7 km/h (3 Bft) W 279 ° 0 min 0,000 mm 2,2 UV-I 257 W/m² 5,4 °C 11,3 °C 24,1 km/h (4 Bft)
13.04.2017 14:15 11,3 °C 11,3 °C 66 % 1013,0 hPa 0,0 mm 15,8 km/h (3 Bft) NW 304 ° 0 min 0,000 mm 2,2 UV-I 258 W/m² 5,2 °C 11,3 °C 22,5 km/h (4 Bft)
13.04.2017 14:16 11,3 °C 11,3 °C 65 % 1013,0 hPa 0,0 mm 11,0 km/h (2 Bft) W-NW 297 ° 0 min 0,000 mm 2,2 UV-I 269 W/m² 5,0 °C 11,3 °C 20,9 km/h (4 Bft)
13.04.2017 14:17 11,3 °C 11,3 °C 67 % 1012,9 hPa 0,0 mm 13,1 km/h (3 Bft) W-NW 301 ° 1 min 0,000 mm 2,4 UV-I 301 W/m² 5,4 °C 11,3 °C 19,3 km/h (3 Bft)
13.04.2017 14:18 11,3 °C 11,3 °C 66 % 1013,0 hPa 0,0 mm 14,1 km/h (3 Bft) W 268 ° 1 min 0,000 mm 2,3 UV-I 290 W/m² 5,2 °C 11,3 °C 22,5 km/h (4 Bft)
13.04.2017 14:19 11,3 °C 11,3 °C 67 % 1012,9 hPa 0,0 mm 14,6 km/h (3 Bft) W-SW 255 ° 0 min 0,000 mm 2,1 UV-I 265 W/m² 5,4 °C 11,3 °C 19,3 km/h (3 Bft)
13.04.2017 14:20 11,4 °C 11,4 °C 66 % 1012,9 hPa 0,0 mm 16,5 km/h (3 Bft) NW 317 ° 0 min 0,000 mm 2,0 UV-I 257 W/m² 5,3 °C 11,4 °C 20,9 km/h (4 Bft)
13.04.2017 14:21 11,4 °C 11,4 °C 66 % 1012,9 hPa 0,0 mm 18,7 km/h (3 Bft) W 259 ° 0 min 0,000 mm 2,1 UV-I 262 W/m² 5,3 °C 11,4 °C 25,7 km/h (4 Bft)
13.04.2017 14:22 11,4 °C 11,4 °C 66 % 1012,9 hPa 0,0 mm 11,5 km/h (2 Bft) W 267 ° 0 min 0,000 mm 2,3 UV-I 288 W/m² 5,3 °C 11,4 °C 17,7 km/h (3 Bft)
13.04.2017 14:23 11,4 °C 11,4 °C 65 % 1013,0 hPa 0,0 mm 21,6 km/h (4 Bft) W 261 ° 1 min 0,000 mm 2,4 UV-I 306 W/m² 5,1 °C 11,4 °C 33,8 km/h (5 Bft)
13.04.2017 14:24 11,4 °C 11,4 °C 65 % 1012,9 hPa 0,0 mm 13,7 km/h (3 Bft) W-NW 292 ° 1 min 0,000 mm 2,4 UV-I 299 W/m² 5,1 °C 11,4 °C 22,5 km/h (4 Bft)
13.04.2017 14:25 11,4 °C 11,4 °C 65 % 1012,9 hPa 0,0 mm 14,9 km/h (3 Bft) W-NW 296 ° 1 min 0,000 mm 2,5 UV-I 315 W/m² 5,1 °C 11,4 °C 20,9 km/h (4 Bft)
13.04.2017 14:26 11,4 °C 11,4 °C 66 % 1012,9 hPa 0,0 mm 16,1 km/h (3 Bft) W 276 ° 1 min 0,000 mm 2,7 UV-I 345 W/m² 5,3 °C 11,4 °C 22,5 km/h (4 Bft)
13.04.2017 14:27 11,4 °C 11,4 °C 65 % 1012,9 hPa 0,0 mm 17,4 km/h (3 Bft) W 275 ° 1 min 0,000 mm 3,1 UV-I 390 W/m² 5,1 °C 11,4 °C 25,7 km/h (4 Bft)
13.04.2017 14:28 11,4 °C 11,4 °C 64 % 1013,0 hPa 0,0 mm 13,7 km/h (3 Bft) NW 306 ° 1 min 0,000 mm 3,2 UV-I 401 W/m² 4,8 °C 11,4 °C 24,1 km/h (4 Bft)
13.04.2017 14:29 11,5 °C 11,5 °C 65 % 1012,9 hPa 0,0 mm 10,7 km/h (2 Bft) W-NW 282 ° 1 min 0,000 mm 3,1 UV-I 350 W/m² 5,2 °C 11,5 °C 12,9 km/h (3 Bft)
13.04.2017 14:30 11,6 °C 11,6 °C 66 % 1012,9 hPa 0,0 mm 10,1 km/h (2 Bft) W 263 ° 1 min 0,000 mm 2,9 UV-I 336 W/m² 5,5 °C 11,6 °C 14,5 km/h (3 Bft)
13.04.2017 14:31 11,7 °C 11,7 °C 65 % 1012,9 hPa 0,0 mm 16,0 km/h (3 Bft) NW 311 ° 1 min 0,000 mm 2,9 UV-I 339 W/m² 5,3 °C 11,7 °C 20,9 km/h (4 Bft)
13.04.2017 14:32 11,7 °C 11,7 °C 64 % 1012,9 hPa 0,0 mm 12,9 km/h (3 Bft) W 261 ° 1 min 0,000 mm 2,9 UV-I 346 W/m² 5,1 °C 11,7 °C 22,5 km/h (4 Bft)
13.04.2017 14:33 11,7 °C 11,7 °C 65 % 1012,9 hPa 0,0 mm 19,0 km/h (3 Bft) W-NW 302 ° 1 min 0,000 mm 2,9 UV-I 345 W/m² 5,3 °C 11,7 °C 24,1 km/h (4 Bft)
13.04.2017 14:34 11,7 °C 11,7 °C 65 % 1012,9 hPa 0,0 mm 15,1 km/h (3 Bft) W 271 ° 1 min 0,000 mm 2,9 UV-I 338 W/m² 5,3 °C 11,7 °C 20,9 km/h (4 Bft)
13.04.2017 14:35 11,8 °C 11,8 °C 65 % 1012,9 hPa 0,0 mm 14,4 km/h (3 Bft) W 271 ° 1 min 0,000 mm 2,8 UV-I 336 W/m² 5,4 °C 11,8 °C 24,1 km/h (4 Bft)
13.04.2017 14:36 11,8 °C 11,8 °C 65 % 1013,0 hPa 0,0 mm 17,5 km/h (3 Bft) W 264 ° 1 min 0,000 mm 2,7 UV-I 330 W/m² 5,4 °C 11,8 °C 30,6 km/h (5 Bft)
13.04.2017 14:37 11,8 °C 11,8 °C 64 % 1013,0 hPa 0,0 mm 17,8 km/h (3 Bft) NW 304 ° 1 min 0,000 mm 2,8 UV-I 396 W/m² 5,2 °C 11,8 °C 22,5 km/h (4 Bft)
13.04.2017 14:38 11,8 °C 11,8 °C 65 % 1012,9 hPa 0,0 mm 12,6 km/h (3 Bft) W-NW 301 ° 1 min 0,000 mm 4,1 UV-I 396 W/m² 5,4 °C 11,8 °C 19,3 km/h (3 Bft)
13.04.2017 14:39 11,8 °C 11,8 °C 63 % 1013,0 hPa 0,0 mm 16,7 km/h (3 Bft) NW 312 ° 1 min 0,000 mm 2,8 UV-I 396 W/m² 5,0 °C 11,8 °C 25,7 km/h (4 Bft)
13.04.2017 14:40 11,8 °C 11,8 °C 63 % 1013,0 hPa 0,0 mm 13,8 km/h (3 Bft) S-SW 201 ° 1 min 0,000 mm 2,9 UV-I 367 W/m² 5,0 °C 11,8 °C 19,3 km/h (3 Bft)
13.04.2017 14:41 11,9 °C 11,9 °C 64 % 1012,9 hPa 0,0 mm 25,1 km/h (4 Bft) W-NW 289 ° 1 min 0,000 mm 4,2 UV-I 482 W/m² 5,3 °C 11,9 °C 37,0 km/h (5 Bft)
13.04.2017 14:42 11,9 °C 11,9 °C 61 % 1013,0 hPa 0,0 mm 19,6 km/h (3 Bft) W-NW 296 ° 1 min 0,000 mm 3,1 UV-I 411 W/m² 4,6 °C 11,9 °C 32,2 km/h (5 Bft)
13.04.2017 14:43 11,9 °C 11,9 °C 63 % 1012,9 hPa 0,0 mm 16,5 km/h (3 Bft) W-SW 254 ° 1 min 0,000 mm 3,1 UV-I 411 W/m² 5,1 °C 11,9 °C 22,5 km/h (4 Bft)
13.04.2017 14:44 11,9 °C 11,9 °C 64 % 1012,9 hPa 0,0 mm 13,1 km/h (3 Bft) NW 320 ° 1 min 0,000 mm 2,9 UV-I 411 W/m² 5,3 °C 11,9 °C 19,3 km/h (3 Bft)
13.04.2017 14:45 11,9 °C 11,9 °C 63 % 1012,8 hPa 0,0 mm 6,6 km/h (2 Bft) W-NW 285 ° 1 min 0,000 mm 2,7 UV-I 353 W/m² 5,1 °C 11,9 °C 12,9 km/h (3 Bft)
13.04.2017 14:46 11,9 °C 11,9 °C 64 % 1012,8 hPa 0,0 mm 10,9 km/h (2 Bft) W-NW 298 ° 1 min 0,000 mm 2,6 UV-I 327 W/m² 5,3 °C 11,9 °C 17,7 km/h (3 Bft)
13.04.2017 14:47 11,9 °C 12,0 °C 64 % 1012,8 hPa 0,0 mm 14,0 km/h (3 Bft) NW 304 ° 1 min 0,000 mm 2,5 UV-I 323 W/m² 5,3 °C 11,9 °C 19,3 km/h (3 Bft)
13.04.2017 14:48 12,0 °C 12,0 °C 63 % 1012,9 hPa 0,0 mm 14,8 km/h (3 Bft) NW 319 ° 1 min 0,000 mm 2,5 UV-I 329 W/m² 5,2 °C 12,0 °C 24,1 km/h (4 Bft)
13.04.2017 14:49 12,0 °C 12,0 °C 62 % 1012,9 hPa 0,0 mm 15,5 km/h (3 Bft) W-NW 303 ° 1 min 0,000 mm 2,6 UV-I 345 W/m² 4,9 °C 12,0 °C 29,0 km/h (5 Bft)
13.04.2017 14:50 11,9 °C 12,0 °C 62 % 1012,9 hPa 0,0 mm 14,3 km/h (3 Bft) NW 310 ° 1 min 0,000 mm 2,6 UV-I 350 W/m² 4,9 °C 11,9 °C 20,9 km/h (4 Bft)
13.04.2017 14:51 11,9 °C 11,9 °C 63 % 1012,8 hPa 0,0 mm 16,2 km/h (3 Bft) W-NW 292 ° 1 min 0,000 mm 3,1 UV-I 350 W/m² 5,1 °C 11,9 °C 19,3 km/h (3 Bft)
13.04.2017 14:52 11,9 °C 11,9 °C 63 % 1012,9 hPa 0,0 mm 15,8 km/h (3 Bft) W-NW 295 ° 1 min 0,000 mm 4,6 UV-I 826 W/m² 5,1 °C 11,9 °C 24,1 km/h (4 Bft)
13.04.2017 14:53 12,1 °C 12,1 °C 63 % 1012,9 hPa 0,0 mm 19,7 km/h (3 Bft) W-NW 299 ° 1 min 0,000 mm 3,3 UV-I 826 W/m² 5,3 °C 12,1 °C 30,6 km/h (5 Bft)
13.04.2017 14:54 12,2 °C 12,2 °C 62 % 1012,8 hPa 0,0 mm 17,8 km/h (3 Bft) W-NW 286 ° 1 min 0,000 mm 4,3 UV-I 826 W/m² 5,1 °C 12,2 °C 32,2 km/h (5 Bft)
13.04.2017 14:55 12,3 °C 12,3 °C 62 % 1012,8 hPa 0,0 mm 21,9 km/h (4 Bft) W-NW 290 ° 1 min 0,000 mm 3,3 UV-I 826 W/m² 5,2 °C 12,3 °C 29,0 km/h (5 Bft)
13.04.2017 14:56 12,4 °C 12,4 °C 62 % 1012,8 hPa 0,0 mm 17,2 km/h (3 Bft) NW 304 ° 1 min 0,000 mm 4,4 UV-I 826 W/m² 5,3 °C 12,4 °C 24,1 km/h (4 Bft)
13.04.2017 14:57 12,5 °C 12,5 °C 61 % 1012,8 hPa 0,0 mm 17,3 km/h (3 Bft) W 278 ° 1 min 0,000 mm 4,4 UV-I 810 W/m² 5,2 °C 12,5 °C 22,5 km/h (4 Bft)
13.04.2017 14:58 12,6 °C 12,6 °C 61 % 1012,8 hPa 0,0 mm 19,0 km/h (3 Bft) W-NW 287 ° 1 min 0,000 mm 4,4 UV-I 766 W/m² 5,3 °C 12,6 °C 22,5 km/h (4 Bft)
13.04.2017 14:59 12,7 °C 12,7 °C 62 % 1012,8 hPa 0,0 mm 13,1 km/h (3 Bft) W-SW 257 ° 1 min 0,000 mm 3,7 UV-I 766 W/m² 5,6 °C 12,7 °C 16,1 km/h (3 Bft)
13.04.2017 15:00 12,8 °C 12,8 °C 61 % 1012,7 hPa 0,0 mm 10,9 km/h (2 Bft) W-NW 288 ° 1 min 0,000 mm 3,1 UV-I 766 W/m² 5,5 °C 12,8 °C 16,1 km/h (3 Bft)
13.04.2017 15:01 12,8 °C 12,8 °C 61 % 1012,7 hPa 0,0 mm 16,4 km/h (3 Bft) N-NW 336 ° 1 min 0,254 mm 4,0 UV-I 766 W/m² 5,5 °C 12,8 °C 22,5 km/h (4 Bft)
13.04.2017 15:02 12,9 °C 12,9 °C 63 % 1012,8 hPa 0,0 mm 12,8 km/h (3 Bft) NW 325 ° 1 min 0,000 mm 4,4 UV-I 742 W/m² 6,0 °C 12,9 °C 17,7 km/h (3 Bft)
13.04.2017 15:03 13,1 °C 13,1 °C 61 % 1012,7 hPa 0,0 mm 15,0 km/h (3 Bft) W-NW 293 ° 1 min 0,000 mm 3,9 UV-I 763 W/m² 5,8 °C 13,1 °C 24,1 km/h (4 Bft)
13.04.2017 15:04 13,0 °C 13,1 °C 60 % 1012,7 hPa 0,0 mm 13,4 km/h (3 Bft) NW 307 ° 1 min 0,000 mm 3,0 UV-I 763 W/m² 5,4 °C 13,0 °C 17,7 km/h (3 Bft)
13.04.2017 15:05 12,9 °C 13,0 °C 60 % 1012,8 hPa 0,0 mm 13,3 km/h (3 Bft) NW 315 ° 0 min 0,000 mm 2,4 UV-I 214 W/m² 5,3 °C 12,9 °C 25,7 km/h (4 Bft)
13.04.2017 15:06 12,8 °C 12,9 °C 60 % 1012,7 hPa 0,0 mm 16,3 km/h (3 Bft) W 267 ° 0 min 0,000 mm 2,3 UV-I 204 W/m² 5,2 °C 12,8 °C 24,1 km/h (4 Bft)
13.04.2017 15:07 12,7 °C 12,8 °C 59 % 1012,7 hPa 0,0 mm 17,7 km/h (3 Bft) W 271 ° 0 min 0,000 mm 2,5 UV-I 248 W/m² 4,9 °C 12,7 °C 27,4 km/h (4 Bft)
13.04.2017 15:08 12,5 °C 12,7 °C 61 % 1012,7 hPa 0,0 mm 19,2 km/h (3 Bft) N-NW 334 ° 0 min 0,000 mm 2,6 UV-I 253 W/m² 5,2 °C 12,5 °C 24,1 km/h (4 Bft)
13.04.2017 15:09 12,4 °C 12,5 °C 61 % 1012,7 hPa 0,0 mm 16,6 km/h (3 Bft) NW 309 ° 0 min 0,000 mm 2,4 UV-I 229 W/m² 5,1 °C 12,4 °C 25,7 km/h (4 Bft)
13.04.2017 15:10 12,3 °C 12,4 °C 60 % 1012,7 hPa 0,0 mm 15,8 km/h (3 Bft) W-NW 298 ° 0 min 0,000 mm 2,2 UV-I 199 W/m² 4,8 °C 12,3 °C 24,1 km/h (4 Bft)
13.04.2017 15:11 12,2 °C 12,3 °C 62 % 1012,6 hPa 0,0 mm 9,7 km/h (2 Bft) NW 306 ° 0 min 0,000 mm 2,2 UV-I 220 W/m² 5,1 °C 12,2 °C 16,1 km/h (3 Bft)
13.04.2017 15:12 12,3 °C 12,3 °C 62 % 1012,6 hPa 0,0 mm 8,9 km/h (2 Bft) W 265 ° 0 min 0,000 mm 2,4 UV-I 220 W/m² 5,2 °C 12,3 °C 16,1 km/h (3 Bft)
13.04.2017 15:13 12,3 °C 12,3 °C 61 % 1012,7 hPa 0,0 mm 19,2 km/h (3 Bft) N-NW 329 ° 0 min 0,000 mm 2,4 UV-I 220 W/m² 5,0 °C 12,3 °C 30,6 km/h (5 Bft)
13.04.2017 15:14 12,3 °C 12,3 °C 62 % 1012,6 hPa 0,0 mm 13,7 km/h (3 Bft) W 272 ° 0 min 0,000 mm 2,4 UV-I 285 W/m² 5,2 °C 12,3 °C 19,3 km/h (3 Bft)
13.04.2017 15:15 12,3 °C 12,3 °C 63 % 1012,6 hPa 0,0 mm 16,7 km/h (3 Bft) W 269 ° 0 min 0,000 mm 2,1 UV-I 258 W/m² 5,5 °C 12,3 °C 22,5 km/h (4 Bft)
13.04.2017 15:16 12,3 °C 12,3 °C 60 % 1012,6 hPa 0,0 mm 13,9 km/h (3 Bft) W-NW 292 ° 0 min 0,000 mm 1,8 UV-I 199 W/m² 4,8 °C 12,3 °C 16,1 km/h (3 Bft)
13.04.2017 15:17 12,3 °C 12,3 °C 61 % 1012,6 hPa 0,0 mm 14,4 km/h (3 Bft) W-NW 296 ° 0 min 0,000 mm 1,4 UV-I 178 W/m² 5,0 °C 12,3 °C 19,3 km/h (3 Bft)
13.04.2017 15:18 12,3 °C 12,3 °C 61 % 1012,6 hPa 0,0 mm 17,8 km/h (3 Bft) W-NW 302 ° 0 min 0,000 mm 1,3 UV-I 160 W/m² 5,0 °C 12,3 °C 22,5 km/h (4 Bft)
13.04.2017 15:19 12,2 °C 12,3 °C 61 % 1012,6 hPa 0,0 mm 13,0 km/h (3 Bft) W-NW 300 ° 0 min 0,000 mm 1,2 UV-I 148 W/m² 4,9 °C 12,2 °C 24,1 km/h (4 Bft)
13.04.2017 15:20 12,2 °C 12,2 °C 61 % 1012,6 hPa 0,0 mm 5,8 km/h (2 Bft) N-NW 337 ° 0 min 0,000 mm 1,2 UV-I 142 W/m² 4,9 °C 12,2 °C 9,7 km/h (2 Bft)
13.04.2017 15:21 12,2 °C 12,2 °C 62 % 1012,6 hPa 0,0 mm 7,8 km/h (2 Bft) NW 323 ° 0 min 0,000 mm 1,0 UV-I 109 W/m² 5,1 °C 12,2 °C 12,9 km/h (3 Bft)
13.04.2017 15:22 12,2 °C 12,2 °C 62 % 1012,7 hPa 0,0 mm 11,4 km/h (2 Bft) NW 321 ° 0 min 0,000 mm 0,8 UV-I 93 W/m² 5,1 °C 12,2 °C 20,9 km/h (4 Bft)
13.04.2017 15:23 12,2 °C 12,2 °C 63 % 1012,7 hPa 0,0 mm 13,6 km/h (3 Bft) N-NW 338 ° 0 min 0,000 mm 0,7 UV-I 88 W/m² 5,4 °C 12,2 °C 22,5 km/h (4 Bft)
13.04.2017 15:24 11,9 °C 12,2 °C 63 % 1012,7 hPa 0,0 mm 12,9 km/h (3 Bft) N-NW 331 ° 0 min 0,000 mm 0,7 UV-I 86 W/m² 5,1 °C 11,9 °C 16,1 km/h (3 Bft)
13.04.2017 15:25 11,8 °C 11,9 °C 65 % 1012,8 hPa 0,0 mm 10,2 km/h (2 Bft) W-NW 302 ° 0 min 0,000 mm 0,6 UV-I 81 W/m² 5,4 °C 11,8 °C 16,1 km/h (3 Bft)
13.04.2017 15:26 11,7 °C 11,8 °C 65 % 1012,9 hPa 0,0 mm 12,5 km/h (3 Bft) W-NW 301 ° 0 min 0,000 mm 0,6 UV-I 74 W/m² 5,3 °C 11,7 °C 17,7 km/h (3 Bft)
13.04.2017 15:27 11,5 °C 11,7 °C 64 % 1012,8 hPa 0,0 mm 10,1 km/h (2 Bft) NW 315 ° 0 min 0,000 mm 0,5 UV-I 70 W/m² 4,9 °C 11,5 °C 16,1 km/h (3 Bft)
13.04.2017 15:28 11,3 °C 11,5 °C 65 % 1012,9 hPa 0,0 mm 10,5 km/h (2 Bft) NW 311 ° 0 min 0,000 mm 0,5 UV-I 81 W/m² 5,0 °C 11,3 °C 17,7 km/h (3 Bft)
13.04.2017 15:29 11,2 °C 11,3 °C 65 % 1012,8 hPa 0,0 mm 7,9 km/h (2 Bft) NW 325 ° 0 min 0,000 mm 0,7 UV-I 84 W/m² 4,9 °C 11,2 °C 20,9 km/h (4 Bft)
13.04.2017 15:30 11,1 °C 11,2 °C 66 % 1012,8 hPa 0,0 mm 13,8 km/h (3 Bft) W-NW 298 ° 0 min 0,000 mm 0,7 UV-I 83 W/m² 5,0 °C 11,1 °C 20,9 km/h (4 Bft)
13.04.2017 15:31 10,9 °C 11,1 °C 66 % 1012,9 hPa 0,0 mm 8,8 km/h (2 Bft) NW 316 ° 0 min 0,000 mm 0,7 UV-I 81 W/m² 4,8 °C 10,9 °C 12,9 km/h (3 Bft)
13.04.2017 15:32 10,8 °C 10,9 °C 67 % 1012,9 hPa 0,0 mm 9,5 km/h (2 Bft) N-NW 333 ° 0 min 0,000 mm 0,6 UV-I 79 W/m² 4,9 °C 10,8 °C 19,3 km/h (3 Bft)
13.04.2017 15:33 10,8 °C 10,8 °C 68 % 1012,8 hPa 0,0 mm 13,1 km/h (3 Bft) N-NW 342 ° 0 min 0,000 mm 0,6 UV-I 74 W/m² 5,1 °C 10,8 °C 19,3 km/h (3 Bft)
13.04.2017 15:34 10,7 °C 10,8 °C 68 % 1012,8 hPa 0,0 mm 6,7 km/h (2 Bft) N-NW 348 ° 0 min 0,000 mm 0,6 UV-I 76 W/m² 5,0 °C 10,7 °C 9,7 km/h (2 Bft)
13.04.2017 15:35 10,7 °C 10,7 °C 68 % 1012,8 hPa 0,0 mm 8,1 km/h (2 Bft) NW 317 ° 0 min 0,000 mm 0,6 UV-I 81 W/m² 5,0 °C 10,7 °C 11,3 km/h (2 Bft)
13.04.2017 15:36 10,7 °C 10,7 °C 68 % 1012,8 hPa 0,0 mm 8,1 km/h (2 Bft) N-NW 333 ° 0 min 0,000 mm 0,7 UV-I 86 W/m² 5,0 °C 10,7 °C 14,5 km/h (3 Bft)
13.04.2017 15:37 10,6 °C 10,7 °C 69 % 1012,8 hPa 0,0 mm 9,3 km/h (2 Bft) NW 312 ° 0 min 0,000 mm 0,7 UV-I 88 W/m² 5,2 °C 10,6 °C 16,1 km/h (3 Bft)
13.04.2017 15:38 10,6 °C 10,6 °C 68 % 1012,8 hPa 0,0 mm 5,7 km/h (1 Bft) N 351 ° 0 min 0,000 mm 0,7 UV-I 88 W/m² 4,9 °C 10,6 °C 9,7 km/h (2 Bft)
13.04.2017 15:39 10,6 °C 10,6 °C 69 % 1012,8 hPa 0,0 mm 6,2 km/h (2 Bft) N-NW 337 ° 0 min 0,000 mm 0,7 UV-I 90 W/m² 5,2 °C 10,6 °C 11,3 km/h (2 Bft)
13.04.2017 15:40 10,6 °C 10,6 °C 70 % 1012,8 hPa 0,0 mm 7,2 km/h (2 Bft) N-NW 342 ° 0 min 0,000 mm 0,7 UV-I 95 W/m² 5,4 °C 10,6 °C 12,9 km/h (3 Bft)
13.04.2017 15:41 10,6 °C 10,6 °C 69 % 1012,8 hPa 0,0 mm 8,0 km/h (2 Bft) NW 326 ° 0 min 0,000 mm 0,8 UV-I 105 W/m² 5,2 °C 10,6 °C 9,7 km/h (2 Bft)
13.04.2017 15:42 10,6 °C 10,6 °C 70 % 1012,8 hPa 0,0 mm 6,1 km/h (2 Bft) NW 316 ° 0 min 0,000 mm 0,8 UV-I 113 W/m² 5,4 °C 10,6 °C 9,7 km/h (2 Bft)
13.04.2017 15:43 10,6 °C 10,6 °C 69 % 1012,8 hPa 0,0 mm 7,9 km/h (2 Bft) N-NW 329 ° 0 min 0,000 mm 0,9 UV-I 123 W/m² 5,2 °C 10,6 °C 12,9 km/h (3 Bft)
13.04.2017 15:44 10,6 °C 10,6 °C 70 % 1012,8 hPa 0,0 mm 9,3 km/h (2 Bft) NW 325 ° 0 min 0,000 mm 1,0 UV-I 134 W/m² 5,4 °C 10,6 °C 12,9 km/h (3 Bft)
13.04.2017 15:45 10,6 °C 10,6 °C 70 % 1012,8 hPa 0,0 mm 6,4 km/h (2 Bft) NW 311 ° 0 min 0,000 mm 1,1 UV-I 165 W/m² 5,4 °C 10,6 °C 12,9 km/h (3 Bft)
13.04.2017 15:46 10,7 °C 10,7 °C 69 % 1012,8 hPa 0,0 mm 8,4 km/h (2 Bft) N-NW 329 ° 0 min 0,000 mm 1,3 UV-I 178 W/m² 5,2 °C 10,7 °C 12,9 km/h (3 Bft)
13.04.2017 15:47 10,7 °C 10,7 °C 69 % 1012,8 hPa 0,0 mm 6,8 km/h (2 Bft) NW 317 ° 0 min 0,000 mm 1,4 UV-I 199 W/m² 5,2 °C 10,7 °C 12,9 km/h (3 Bft)
13.04.2017 15:48 10,7 °C 10,7 °C 70 % 1012,8 hPa 0,0 mm 7,4 km/h (2 Bft) NW 323 ° 0 min 0,000 mm 1,6 UV-I 218 W/m² 5,5 °C 10,7 °C 12,9 km/h (3 Bft)
13.04.2017 15:49 10,8 °C 10,8 °C 69 % 1012,8 hPa 0,0 mm 7,8 km/h (2 Bft) N-NW 330 ° 1 min 0,000 mm 1,8 UV-I 292 W/m² 5,3 °C 10,8 °C 12,9 km/h (3 Bft)
13.04.2017 15:50 10,8 °C 10,8 °C 70 % 1012,7 hPa 0,0 mm 7,9 km/h (2 Bft) NW 315 ° 0 min 0,000 mm 1,7 UV-I 244 W/m² 5,6 °C 10,8 °C 14,5 km/h (3 Bft)
13.04.2017 15:51 10,9 °C 10,9 °C 68 % 1012,8 hPa 0,0 mm 8,7 km/h (2 Bft) W-NW 288 ° 1 min 0,000 mm 1,7 UV-I 309 W/m² 5,2 °C 10,9 °C 16,1 km/h (3 Bft)
13.04.2017 15:52 10,9 °C 10,9 °C 67 % 1012,8 hPa 0,0 mm 7,8 km/h (2 Bft) W-NW 302 ° 1 min 0,000 mm 2,1 UV-I 352 W/m² 5,0 °C 10,9 °C 14,5 km/h (3 Bft)
13.04.2017 15:53 10,9 °C 10,9 °C 67 % 1012,8 hPa 0,0 mm 11,7 km/h (2 Bft) NW 319 ° 0 min 0,000 mm 1,8 UV-I 262 W/m² 5,0 °C 10,9 °C 16,1 km/h (3 Bft)
13.04.2017 15:54 10,9 °C 10,9 °C 67 % 1012,8 hPa 0,0 mm 7,4 km/h (2 Bft) W-NW 291 ° 0 min 0,000 mm 1,7 UV-I 239 W/m² 5,0 °C 10,9 °C 11,3 km/h (2 Bft)
13.04.2017 15:55 10,9 °C 10,9 °C 67 % 1012,8 hPa 0,0 mm 5,0 km/h (1 Bft) W 271 ° 0 min 0,000 mm 1,7 UV-I 230 W/m² 5,0 °C 10,9 °C 8,0 km/h (2 Bft)
13.04.2017 15:56 10,9 °C 10,9 °C 68 % 1012,8 hPa 0,0 mm 7,1 km/h (2 Bft) W-NW 296 ° 0 min 0,000 mm 1,8 UV-I 257 W/m² 5,2 °C 10,9 °C 12,9 km/h (3 Bft)
13.04.2017 15:57 10,9 °C 10,9 °C 67 % 1012,8 hPa 0,0 mm 6,6 km/h (2 Bft) W-NW 301 ° 1 min 0,000 mm 2,0 UV-I 323 W/m² 5,0 °C 10,9 °C 9,7 km/h (2 Bft)
13.04.2017 15:58 11,1 °C 11,1 °C 68 % 1012,8 hPa 0,0 mm 6,3 km/h (2 Bft) N-NW 333 ° 1 min 0,000 mm 2,2 UV-I 323 W/m² 5,4 °C 11,1 °C 8,0 km/h (2 Bft)
13.04.2017 15:59 11,2 °C 11,2 °C 69 % 1012,8 hPa 0,0 mm 8,6 km/h (2 Bft) N-NW 327 ° 1 min 0,000 mm 2,0 UV-I 323 W/m² 5,7 °C 11,2 °C 14,5 km/h (3 Bft)
13.04.2017 16:00 11,3 °C 11,3 °C 68 % 1012,8 hPa 0,0 mm 13,1 km/h (3 Bft) N-NW 333 ° 0 min 0,000 mm 1,9 UV-I 260 W/m² 5,6 °C 11,3 °C 17,7 km/h (3 Bft)
13.04.2017 16:01 11,4 °C 11,4 °C 67 % 1012,8 hPa 0,0 mm 12,3 km/h (3 Bft) N-NW 333 ° 0 min 0,152 mm 1,8 UV-I 241 W/m² 5,5 °C 11,4 °C 19,3 km/h (3 Bft)
13.04.2017 16:02 11,4 °C 11,4 °C 66 % 1012,8 hPa 0,0 mm 14,5 km/h (3 Bft) W-NW 282 ° 0 min 0,000 mm 1,7 UV-I 225 W/m² 5,3 °C 11,4 °C 17,7 km/h (3 Bft)
13.04.2017 16:03 11,3 °C 11,4 °C 65 % 1012,8 hPa 0,0 mm 12,6 km/h (3 Bft) W-NW 288 ° 1 min 0,000 mm 1,7 UV-I 294 W/m² 5,0 °C 11,3 °C 16,1 km/h (3 Bft)
13.04.2017 16:04 11,2 °C 11,3 °C 65 % 1012,8 hPa 0,0 mm 9,6 km/h (2 Bft) N-NW 345 ° 1 min 0,000 mm 2,0 UV-I 292 W/m² 4,9 °C 11,2 °C 14,5 km/h (3 Bft)
13.04.2017 16:05 11,2 °C 11,2 °C 65 % 1012,8 hPa 0,0 mm 8,1 km/h (2 Bft) N-NW 330 ° 0 min 0,000 mm 2,0 UV-I 287 W/m² 4,9 °C 11,2 °C 12,9 km/h (3 Bft)
13.04.2017 16:06 11,3 °C 11,3 °C 68 % 1012,8 hPa 0,0 mm 6,1 km/h (2 Bft) W-NW 288 ° 0 min 0,000 mm 2,0 UV-I 264 W/m² 5,6 °C 11,3 °C 11,3 km/h (2 Bft)
13.04.2017 16:07 11,3 °C 11,3 °C 67 % 1012,7 hPa 0,0 mm 6,4 km/h (2 Bft) W-NW 291 ° 0 min 0,000 mm 1,8 UV-I 232 W/m² 5,4 °C 11,3 °C 11,3 km/h (2 Bft)
13.04.2017 16:08 11,3 °C 11,3 °C 66 % 1012,8 hPa 0,0 mm 13,2 km/h (3 Bft) NW 309 ° 0 min 0,000 mm 1,7 UV-I 204 W/m² 5,2 °C 11,3 °C 19,3 km/h (3 Bft)
13.04.2017 16:09 11,3 °C 11,3 °C 65 % 1012,8 hPa 0,0 mm 15,9 km/h (3 Bft) NW 311 ° 0 min 0,000 mm 1,6 UV-I 202 W/m² 5,0 °C 11,3 °C 20,9 km/h (4 Bft)
13.04.2017 16:10 11,2 °C 11,3 °C 64 % 1012,7 hPa 0,0 mm 13,1 km/h (3 Bft) W 274 ° 0 min 0,000 mm 1,6 UV-I 220 W/m² 4,6 °C 11,2 °C 17,7 km/h (3 Bft)
13.04.2017 16:11 11,2 °C 11,2 °C 65 % 1012,8 hPa 0,0 mm 14,6 km/h (3 Bft) W 275 ° 0 min 0,000 mm 1,7 UV-I 250 W/m² 4,9 °C 11,2 °C 19,3 km/h (3 Bft)
13.04.2017 16:12 11,1 °C 11,2 °C 64 % 1012,8 hPa 0,0 mm 8,1 km/h (2 Bft) W 271 ° 0 min 0,000 mm 1,8 UV-I 264 W/m² 4,6 °C 11,1 °C 12,9 km/h (3 Bft)
13.04.2017 16:13 11,1 °C 11,1 °C 65 % 1012,9 hPa 0,0 mm 14,8 km/h (3 Bft) W 263 ° 0 min 0,000 mm 2,4 UV-I 264 W/m² 4,8 °C 11,1 °C 19,3 km/h (3 Bft)
13.04.2017 16:14 11,2 °C 11,2 °C 67 % 1012,8 hPa 0,0 mm 13,0 km/h (3 Bft) W-NW 285 ° 1 min 0,000 mm 1,9 UV-I 290 W/m² 5,3 °C 11,2 °C 19,3 km/h (3 Bft)
13.04.2017 16:15 11,2 °C 11,2 °C 65 % 1012,8 hPa 0,0 mm 7,8 km/h (2 Bft) NW 315 ° 0 min 0,000 mm 2,1 UV-I 283 W/m² 4,9 °C 11,2 °C 12,9 km/h (3 Bft)
13.04.2017 16:16 11,3 °C 11,3 °C 67 % 1012,8 hPa 0,0 mm 7,0 km/h (2 Bft) NW 312 ° 0 min 0,000 mm 2,1 UV-I 281 W/m² 5,4 °C 11,3 °C 9,7 km/h (2 Bft)
13.04.2017 16:17 11,3 °C 11,3 °C 66 % 1012,8 hPa 0,0 mm 8,0 km/h (2 Bft) NW 311 ° 0 min 0,000 mm 2,0 UV-I 253 W/m² 5,2 °C 11,3 °C 14,5 km/h (3 Bft)
13.04.2017 16:18 11,4 °C 11,4 °C 66 % 1012,8 hPa 0,0 mm 7,1 km/h (2 Bft) W-NW 284 ° 0 min 0,000 mm 2,1 UV-I 260 W/m² 5,3 °C 11,4 °C 9,7 km/h (2 Bft)
13.04.2017 16:19 11,4 °C 11,4 °C 64 % 1012,8 hPa 0,0 mm 5,6 km/h (1 Bft) W-NW 301 ° 0 min 0,000 mm 2,5 UV-I 260 W/m² 4,8 °C 11,4 °C 11,3 km/h (2 Bft)
13.04.2017 16:20 11,4 °C 11,4 °C 64 % 1012,8 hPa 0,0 mm 11,5 km/h (2 Bft) W 276 ° 1 min 0,000 mm 2,6 UV-I 431 W/m² 4,8 °C 11,4 °C 19,3 km/h (3 Bft)
13.04.2017 16:21 11,4 °C 11,5 °C 63 % 1012,8 hPa 0,0 mm 9,6 km/h (2 Bft) NW 318 ° 1 min 0,000 mm 2,5 UV-I 448 W/m² 4,6 °C 11,4 °C 14,5 km/h (3 Bft)
13.04.2017 16:22 11,6 °C 11,6 °C 64 % 1012,8 hPa 0,0 mm 6,8 km/h (2 Bft) NW 304 ° 1 min 0,000 mm 2,5 UV-I 432 W/m² 5,0 °C 11,6 °C 14,5 km/h (3 Bft)
13.04.2017 16:23 11,7 °C 11,7 °C 65 % 1012,8 hPa 0,0 mm 7,5 km/h (2 Bft) NW 313 ° 1 min 0,000 mm 2,5 UV-I 436 W/m² 5,3 °C 11,7 °C 14,5 km/h (3 Bft)
13.04.2017 16:24 11,8 °C 11,8 °C 65 % 1012,8 hPa 0,0 mm 7,3 km/h (2 Bft) NW 319 ° 1 min 0,000 mm 2,5 UV-I 425 W/m² 5,4 °C 11,8 °C 16,1 km/h (3 Bft)
13.04.2017 16:25 11,9 °C 11,9 °C 64 % 1012,8 hPa 0,0 mm 9,1 km/h (2 Bft) W 276 ° 1 min 0,000 mm 2,4 UV-I 381 W/m² 5,3 °C 11,9 °C 16,1 km/h (3 Bft)
13.04.2017 16:26 11,9 °C 11,9 °C 63 % 1012,8 hPa 0,0 mm 11,4 km/h (2 Bft) W 276 ° 1 min 0,000 mm 2,4 UV-I 385 W/m² 5,1 °C 11,9 °C 14,5 km/h (3 Bft)
13.04.2017 16:27 11,9 °C 11,9 °C 64 % 1012,7 hPa 0,0 mm 7,4 km/h (2 Bft) W 275 ° 1 min 0,000 mm 2,4 UV-I 406 W/m² 5,3 °C 11,9 °C 12,9 km/h (3 Bft)
13.04.2017 16:28 11,9 °C 11,9 °C 63 % 1012,8 hPa 0,0 mm 8,9 km/h (2 Bft) W-NW 290 ° 1 min 0,000 mm 2,4 UV-I 387 W/m² 5,1 °C 11,9 °C 14,5 km/h (3 Bft)
13.04.2017 16:29 11,9 °C 11,9 °C 63 % 1012,8 hPa 0,0 mm 7,7 km/h (2 Bft) W-SW 252 ° 1 min 0,000 mm 2,2 UV-I 373 W/m² 5,1 °C 11,9 °C 14,5 km/h (3 Bft)
13.04.2017 16:30 11,9 °C 11,9 °C 65 % 1012,7 hPa 0,0 mm 12,1 km/h (2 Bft) W 275 ° 1 min 0,000 mm 1,9 UV-I 373 W/m² 5,5 °C 11,9 °C 16,1 km/h (3 Bft)
13.04.2017 16:31 11,9 °C 11,9 °C 64 % 1012,8 hPa 0,0 mm 8,5 km/h (2 Bft) W 269 ° 0 min 0,000 mm 1,8 UV-I 163 W/m² 5,3 °C 11,9 °C 11,3 km/h (2 Bft)
13.04.2017 16:32 11,8 °C 11,9 °C 63 % 1012,7 hPa 0,0 mm 6,6 km/h (2 Bft) NW 317 ° 0 min 0,000 mm 1,9 UV-I 225 W/m² 5,0 °C 11,8 °C 8,0 km/h (2 Bft)
13.04.2017 16:33 11,7 °C 11,8 °C 63 % 1012,7 hPa 0,0 mm 5,9 km/h (2 Bft) W 259 ° 0 min 0,000 mm 1,8 UV-I 192 W/m² 4,9 °C 11,7 °C 9,7 km/h (2 Bft)
13.04.2017 16:34 11,7 °C 11,7 °C 63 % 1012,7 hPa 0,0 mm 9,3 km/h (2 Bft) NW 304 ° 0 min 0,000 mm 2,1 UV-I 278 W/m² 4,9 °C 11,7 °C 12,9 km/h (3 Bft)
13.04.2017 16:35 11,7 °C 11,7 °C 64 % 1012,7 hPa 0,0 mm 9,7 km/h (2 Bft) W-NW 295 ° 0 min 0,000 mm 1,9 UV-I 239 W/m² 5,1 °C 11,7 °C 12,9 km/h (3 Bft)
13.04.2017 16:36 11,6 °C 11,7 °C 64 % 1012,7 hPa 0,0 mm 6,2 km/h (2 Bft) W 274 ° 0 min 0,000 mm 2,1 UV-I 288 W/m² 5,0 °C 11,6 °C 12,9 km/h (3 Bft)
13.04.2017 16:37 11,7 °C 11,7 °C 64 % 1012,7 hPa 0,0 mm 7,8 km/h (2 Bft) W 275 ° 0 min 0,000 mm 2,3 UV-I 288 W/m² 5,1 °C 11,7 °C 11,3 km/h (2 Bft)
13.04.2017 16:38 11,7 °C 11,7 °C 65 % 1012,7 hPa 0,0 mm 9,9 km/h (2 Bft) W-SW 258 ° 1 min 0,000 mm 2,2 UV-I 396 W/m² 5,3 °C 11,7 °C 12,9 km/h (3 Bft)
13.04.2017 16:39 11,9 °C 11,9 °C 64 % 1012,7 hPa 0,0 mm 10,0 km/h (2 Bft) NW 312 ° 1 min 0,000 mm 2,2 UV-I 378 W/m² 5,3 °C 11,9 °C 16,1 km/h (3 Bft)
13.04.2017 16:40 12,0 °C 12,0 °C 65 % 1012,7 hPa 0,0 mm 13,9 km/h (3 Bft) W 276 ° 1 min 0,000 mm 2,1 UV-I 346 W/m² 5,6 °C 12,0 °C 19,3 km/h (3 Bft)
13.04.2017 16:41 12,1 °C 12,1 °C 63 % 1012,7 hPa 0,0 mm 13,7 km/h (3 Bft) W 267 ° 0 min 0,000 mm 2,0 UV-I 287 W/m² 5,3 °C 12,1 °C 20,9 km/h (4 Bft)
13.04.2017 16:42 12,1 °C 12,1 °C 64 % 1012,7 hPa 0,0 mm 13,2 km/h (3 Bft) W-SW 256 ° 1 min 0,000 mm 2,1 UV-I 348 W/m² 5,5 °C 12,1 °C 20,9 km/h (4 Bft)
13.04.2017 16:43 12,1 °C 12,1 °C 62 % 1012,7 hPa 0,0 mm 12,9 km/h (3 Bft) W-NW 301 ° 1 min 0,000 mm 2,1 UV-I 322 W/m² 5,0 °C 12,1 °C 17,7 km/h (3 Bft)
13.04.2017 16:44 12,2 °C 12,2 °C 64 % 1012,6 hPa 0,0 mm 8,6 km/h (2 Bft) N 351 ° 0 min 0,000 mm 2,0 UV-I 258 W/m² 5,6 °C 12,2 °C 14,5 km/h (3 Bft)
13.04.2017 16:45 12,2 °C 12,2 °C 64 % 1012,6 hPa 0,0 mm 12,4 km/h (3 Bft) NW 324 ° 0 min 0,000 mm 2,1 UV-I 258 W/m² 5,6 °C 12,2 °C 16,1 km/h (3 Bft)
13.04.2017 16:46 12,3 °C 12,3 °C 64 % 1012,5 hPa 0,0 mm 9,5 km/h (2 Bft) N 355 ° 1 min 0,000 mm 2,3 UV-I 387 W/m² 5,7 °C 12,3 °C 16,1 km/h (3 Bft)
13.04.2017 16:47 12,4 °C 12,4 °C 63 % 1012,6 hPa 0,0 mm 7,9 km/h (2 Bft) N-NW 344 ° 1 min 0,000 mm 2,2 UV-I 362 W/m² 5,6 °C 12,4 °C 12,9 km/h (3 Bft)
13.04.2017 16:48 12,4 °C 12,4 °C 64 % 1012,5 hPa 0,0 mm 4,8 km/h (1 Bft) W 262 ° 1 min 0,000 mm 2,1 UV-I 322 W/m² 5,8 °C 12,4 °C 9,7 km/h (2 Bft)
13.04.2017 16:49 12,5 °C 12,5 °C 62 % 1012,5 hPa 0,0 mm 13,6 km/h (3 Bft) W 263 ° 1 min 0,000 mm 2,1 UV-I 323 W/m² 5,4 °C 12,5 °C 17,7 km/h (3 Bft)
13.04.2017 16:50 12,5 °C 12,5 °C 61 % 1012,5 hPa 0,0 mm 11,1 km/h (2 Bft) W-NW 285 ° 1 min 0,000 mm 2,1 UV-I 302 W/m² 5,2 °C 12,5 °C 14,5 km/h (3 Bft)
13.04.2017 16:51 12,4 °C 12,5 °C 60 % 1012,5 hPa 0,0 mm 12,4 km/h (3 Bft) W 268 ° 0 min 0,000 mm 2,1 UV-I 264 W/m² 4,9 °C 12,4 °C 16,1 km/h (3 Bft)
13.04.2017 16:52 12,4 °C 12,4 °C 62 % 1012,5 hPa 0,0 mm 12,6 km/h (3 Bft) N-NW 336 ° 0 min 0,000 mm 1,7 UV-I 264 W/m² 5,3 °C 12,4 °C 17,7 km/h (3 Bft)
13.04.2017 16:53 12,3 °C 12,4 °C 61 % 1012,5 hPa 0,0 mm 6,1 km/h (2 Bft) W-NW 302 ° 0 min 0,000 mm 1,7 UV-I 264 W/m² 5,0 °C 12,3 °C 8,0 km/h (2 Bft)
13.04.2017 16:54 12,3 °C 12,4 °C 61 % 1012,5 hPa 0,0 mm 4,5 km/h (1 Bft) W-NW 286 ° 1 min 0,000 mm 1,9 UV-I 360 W/m² 5,0 °C 12,3 °C 6,4 km/h (2 Bft)
13.04.2017 16:55 12,3 °C 12,3 °C 60 % 1012,5 hPa 0,0 mm 4,2 km/h (1 Bft) W 279 ° 1 min 0,000 mm 2,1 UV-I 304 W/m² 4,8 °C 12,3 °C 11,3 km/h (2 Bft)
13.04.2017 16:56 12,3 °C 12,3 °C 62 % 1012,5 hPa 0,0 mm 5,8 km/h (2 Bft) N-NW 331 ° 0 min 0,000 mm 2,0 UV-I 257 W/m² 5,2 °C 12,3 °C 8,0 km/h (2 Bft)
13.04.2017 16:57 12,4 °C 12,4 °C 63 % 1012,5 hPa 0,0 mm 11,5 km/h (2 Bft) W-NW 302 ° 1 min 0,000 mm 2,0 UV-I 357 W/m² 5,6 °C 12,4 °C 19,3 km/h (3 Bft)
13.04.2017 16:58 12,6 °C 12,6 °C 63 % 1012,4 hPa 0,0 mm 9,5 km/h (2 Bft) NW 326 ° 1 min 0,000 mm 2,0 UV-I 336 W/m² 5,7 °C 12,6 °C 16,1 km/h (3 Bft)
13.04.2017 16:59 12,7 °C 12,7 °C 63 % 1012,5 hPa 0,0 mm 10,0 km/h (2 Bft) W-NW 299 ° 0 min 0,000 mm 2,0 UV-I 278 W/m² 5,8 °C 12,7 °C 17,7 km/h (3 Bft)
13.04.2017 17:00 12,8 °C 12,8 °C 60 % 1012,5 hPa 0,0 mm 9,4 km/h (2 Bft) W 271 ° 0 min 0,000 mm 1,8 UV-I 274 W/m² 5,2 °C 12,8 °C 12,9 km/h (3 Bft)
13.04.2017 17:01 12,8 °C 12,8 °C 60 % 1012,4 hPa 0,0 mm 12,4 km/h (3 Bft) W-NW 294 ° 1 min 0,178 mm 1,8 UV-I 290 W/m² 5,2 °C 12,8 °C 14,5 km/h (3 Bft)
13.04.2017 17:02 12,7 °C 12,8 °C 60 % 1012,4 hPa 0,0 mm 10,8 km/h (2 Bft) W-NW 301 ° 0 min 0,000 mm 1,9 UV-I 262 W/m² 5,1 °C 12,7 °C 19,3 km/h (3 Bft)
13.04.2017 17:03 12,7 °C 12,7 °C 61 % 1012,4 hPa 0,0 mm 11,7 km/h (2 Bft) W 281 ° 0 min 0,000 mm 1,8 UV-I 274 W/m² 5,4 °C 12,7 °C 14,5 km/h (3 Bft)
13.04.2017 17:04 12,7 °C 12,7 °C 62 % 1012,4 hPa 0,0 mm 7,6 km/h (2 Bft) N-NO 30 ° 0 min 0,000 mm 1,8 UV-I 264 W/m² 5,6 °C 12,7 °C 11,3 km/h (2 Bft)
13.04.2017 17:05 12,8 °C 12,8 °C 62 % 1012,4 hPa 0,0 mm 9,8 km/h (2 Bft) W-NW 298 ° 0 min 0,000 mm 1,8 UV-I 239 W/m² 5,7 °C 12,8 °C 16,1 km/h (3 Bft)
13.04.2017 17:06 12,8 °C 12,8 °C 61 % 1012,5 hPa 0,0 mm 9,4 km/h (2 Bft) W-NW 288 ° 0 min 0,000 mm 1,7 UV-I 218 W/m² 5,5 °C 12,8 °C 17,7 km/h (3 Bft)
13.04.2017 17:07 12,8 °C 12,8 °C 61 % 1012,4 hPa 0,0 mm 13,9 km/h (3 Bft) W-NW 288 ° 0 min 0,000 mm 1,6 UV-I 199 W/m² 5,5 °C 12,8 °C 20,9 km/h (4 Bft)
13.04.2017 17:08 12,7 °C 12,8 °C 61 % 1012,5 hPa 0,0 mm 9,6 km/h (2 Bft) W-NW 292 ° 0 min 0,000 mm 1,6 UV-I 179 W/m² 5,4 °C 12,7 °C 12,9 km/h (3 Bft)
13.04.2017 17:09 12,7 °C 12,7 °C 60 % 1012,4 hPa 0,0 mm 8,3 km/h (2 Bft) W 279 ° 0 min 0,000 mm 1,6 UV-I 195 W/m² 5,1 °C 12,7 °C 11,3 km/h (2 Bft)
13.04.2017 17:10 12,7 °C 12,7 °C 61 % 1012,4 hPa 0,0 mm 7,1 km/h (2 Bft) N-NW 327 ° 0 min 0,000 mm 1,6 UV-I 209 W/m² 5,4 °C 12,7 °C 12,9 km/h (3 Bft)
13.04.2017 17:11 12,7 °C 12,7 °C 63 % 1012,4 hPa 0,0 mm 11,0 km/h (2 Bft) NW 315 ° 0 min 0,000 mm 1,6 UV-I 223 W/m² 5,8 °C 12,7 °C 17,7 km/h (3 Bft)
13.04.2017 17:12 12,8 °C 12,8 °C 63 % 1012,4 hPa 0,0 mm 7,9 km/h (2 Bft) N-NW 338 ° 0 min 0,000 mm 1,7 UV-I 234 W/m² 5,9 °C 12,8 °C 12,9 km/h (3 Bft)
13.04.2017 17:13 12,9 °C 12,9 °C 61 % 1012,4 hPa 0,0 mm 11,7 km/h (2 Bft) W 271 ° 0 min 0,000 mm 1,7 UV-I 185 W/m² 5,6 °C 12,9 °C 19,3 km/h (3 Bft)
13.04.2017 17:14 12,9 °C 12,9 °C 61 % 1012,4 hPa 0,0 mm 11,1 km/h (2 Bft) NW 315 ° 0 min 0,000 mm 1,6 UV-I 195 W/m² 5,6 °C 12,9 °C 17,7 km/h (3 Bft)
13.04.2017 17:15 12,8 °C 12,9 °C 60 % 1012,5 hPa 0,0 mm 8,0 km/h (2 Bft) N-NW 327 ° 0 min 0,000 mm 1,5 UV-I 218 W/m² 5,2 °C 12,8 °C 11,3 km/h (2 Bft)
13.04.2017 17:16 12,8 °C 12,8 °C 61 % 1012,4 hPa 0,0 mm 14,8 km/h (3 Bft) W-NW 300 ° 0 min 0,000 mm 1,5 UV-I 218 W/m² 5,5 °C 12,8 °C 20,9 km/h (4 Bft)
13.04.2017 17:17 12,8 °C 12,8 °C 61 % 1012,5 hPa 0,0 mm 9,6 km/h (2 Bft) N-NW 331 ° 0 min 0,000 mm 1,6 UV-I 232 W/m² 5,5 °C 12,8 °C 16,1 km/h (3 Bft)
13.04.2017 17:18 12,9 °C 12,9 °C 63 % 1012,4 hPa 0,0 mm 9,7 km/h (2 Bft) W-NW 293 ° 0 min 0,000 mm 1,6 UV-I 225 W/m² 6,0 °C 12,9 °C 17,7 km/h (3 Bft)
13.04.2017 17:19 12,9 °C 12,9 °C 60 % 1012,4 hPa 0,0 mm 9,7 km/h (2 Bft) NW 313 ° 0 min 0,000 mm 1,5 UV-I 195 W/m² 5,3 °C 12,9 °C 14,5 km/h (3 Bft)
13.04.2017 17:20 12,9 °C 12,9 °C 60 % 1012,4 hPa 0,0 mm 11,3 km/h (2 Bft) NW 317 ° 0 min 0,000 mm 1,5 UV-I 174 W/m² 5,3 °C 12,9 °C 14,5 km/h (3 Bft)
13.04.2017 17:21 12,9 °C 12,9 °C 62 % 1012,4 hPa 0,0 mm 7,1 km/h (2 Bft) N 351 ° 0 min 0,000 mm 1,5 UV-I 163 W/m² 5,8 °C 12,9 °C 9,7 km/h (2 Bft)
13.04.2017 17:22 12,8 °C 12,9 °C 61 % 1012,4 hPa 0,0 mm 8,1 km/h (2 Bft) W-NW 286 ° 0 min 0,000 mm 1,4 UV-I 156 W/m² 5,5 °C 12,8 °C 11,3 km/h (2 Bft)
13.04.2017 17:23 12,9 °C 12,9 °C 61 % 1012,4 hPa 0,0 mm 8,0 km/h (2 Bft) W 271 ° 0 min 0,000 mm 1,4 UV-I 163 W/m² 5,6 °C 12,9 °C 12,9 km/h (3 Bft)
13.04.2017 17:24 12,8 °C 12,9 °C 60 % 1012,4 hPa 0,0 mm 11,9 km/h (2 Bft) W 269 ° 0 min 0,000 mm 1,4 UV-I 160 W/m² 5,2 °C 12,8 °C 17,7 km/h (3 Bft)
13.04.2017 17:25 12,8 °C 12,9 °C 60 % 1012,4 hPa 0,0 mm 13,4 km/h (3 Bft) W 272 ° 0 min 0,000 mm 1,4 UV-I 151 W/m² 5,2 °C 12,8 °C 19,3 km/h (3 Bft)
13.04.2017 17:26 12,8 °C 12,8 °C 60 % 1012,5 hPa 0,0 mm 8,2 km/h (2 Bft) N-NW 332 ° 0 min 0,000 mm 1,4 UV-I 149 W/m² 5,2 °C 12,8 °C 16,1 km/h (3 Bft)
13.04.2017 17:27 12,8 °C 12,9 °C 62 % 1012,4 hPa 0,0 mm 7,0 km/h (2 Bft) W-NW 294 ° 0 min 0,000 mm 1,4 UV-I 171 W/m² 5,7 °C 12,8 °C 12,9 km/h (3 Bft)
13.04.2017 17:28 12,9 °C 12,9 °C 62 % 1012,4 hPa 0,0 mm 9,0 km/h (2 Bft) NW 320 ° 0 min 0,000 mm 1,4 UV-I 188 W/m² 5,8 °C 12,9 °C 12,9 km/h (3 Bft)
13.04.2017 17:29 13,0 °C 13,0 °C 62 % 1012,4 hPa 0,0 mm 11,5 km/h (2 Bft) W 268 ° 0 min 0,000 mm 1,4 UV-I 181 W/m² 5,9 °C 13,0 °C 17,7 km/h (3 Bft)
13.04.2017 17:30 13,1 °C 13,1 °C 60 % 1012,4 hPa 0,0 mm 12,9 km/h (3 Bft) W-NW 292 ° 0 min 0,000 mm 1,4 UV-I 135 W/m² 5,5 °C 13,1 °C 17,7 km/h (3 Bft)
13.04.2017 17:31 13,0 °C 13,1 °C 60 % 1012,3 hPa 0,0 mm 8,6 km/h (2 Bft) W 263 ° 0 min 0,000 mm 1,3 UV-I 141 W/m² 5,4 °C 13,0 °C 11,3 km/h (2 Bft)
13.04.2017 17:32 12,9 °C 13,0 °C 61 % 1012,4 hPa 0,0 mm 13,6 km/h (3 Bft) NW 304 ° 0 min 0,000 mm 1,3 UV-I 111 W/m² 5,6 °C 12,9 °C 17,7 km/h (3 Bft)
13.04.2017 17:33 12,9 °C 12,9 °C 59 % 1012,3 hPa 0,0 mm 11,7 km/h (2 Bft) NW 308 ° 0 min 0,000 mm 1,2 UV-I 105 W/m² 5,1 °C 12,9 °C 12,9 km/h (3 Bft)
13.04.2017 17:34 12,8 °C 12,9 °C 61 % 1012,5 hPa 0,0 mm 6,7 km/h (2 Bft) W 275 ° 0 min 0,000 mm 1,3 UV-I 144 W/m² 5,5 °C 12,8 °C 12,9 km/h (3 Bft)
13.04.2017 17:35 12,8 °C 12,8 °C 61 % 1012,5 hPa 0,0 mm 9,2 km/h (2 Bft) W 261 ° 0 min 0,000 mm 1,3 UV-I 167 W/m² 5,5 °C 12,8 °C 14,5 km/h (3 Bft)
13.04.2017 17:36 12,9 °C 12,9 °C 61 % 1012,4 hPa 0,0 mm 10,6 km/h (2 Bft) W 277 ° 0 min 0,000 mm 1,3 UV-I 134 W/m² 5,6 °C 12,9 °C 16,1 km/h (3 Bft)
13.04.2017 17:37 12,9 °C 12,9 °C 61 % 1012,4 hPa 0,0 mm 8,2 km/h (2 Bft) W-SW 245 ° 0 min 0,000 mm 1,2 UV-I 105 W/m² 5,6 °C 12,9 °C 12,9 km/h (3 Bft)
13.04.2017 17:38 12,9 °C 12,9 °C 61 % 1012,4 hPa 0,0 mm 12,7 km/h (3 Bft) W 267 ° 0 min 0,000 mm 1,2 UV-I 104 W/m² 5,6 °C 12,9 °C 17,7 km/h (3 Bft)
13.04.2017 17:39 12,9 °C 12,9 °C 61 % 1012,5 hPa 0,0 mm 13,3 km/h (3 Bft) W 265 ° 0 min 0,000 mm 1,2 UV-I 104 W/m² 5,6 °C 12,9 °C 19,3 km/h (3 Bft)
13.04.2017 17:40 12,8 °C 12,9 °C 61 % 1012,5 hPa 0,0 mm 13,8 km/h (3 Bft) W 273 ° 0 min 0,000 mm 1,2 UV-I 116 W/m² 5,5 °C 12,8 °C 20,9 km/h (4 Bft)
13.04.2017 17:41 12,8 °C 12,9 °C 60 % 1012,5 hPa 0,0 mm 14,1 km/h (3 Bft) W 268 ° 0 min 0,000 mm 1,2 UV-I 139 W/m² 5,2 °C 12,8 °C 19,3 km/h (3 Bft)
13.04.2017 17:42 12,8 °C 12,8 °C 61 % 1012,5 hPa 0,0 mm 12,9 km/h (3 Bft) NW 318 ° 0 min 0,000 mm 1,2 UV-I 128 W/m² 5,5 °C 12,8 °C 19,3 km/h (3 Bft)
13.04.2017 17:43 12,8 °C 12,8 °C 61 % 1012,5 hPa 0,0 mm 7,5 km/h (2 Bft) NW 304 ° 0 min 0,000 mm 1,2 UV-I 142 W/m² 5,5 °C 12,8 °C 14,5 km/h (3 Bft)
13.04.2017 17:44 12,8 °C 12,8 °C 61 % 1012,4 hPa 0,0 mm 5,9 km/h (2 Bft) N-NW 333 ° 0 min 0,000 mm 1,2 UV-I 165 W/m² 5,5 °C 12,8 °C 12,9 km/h (3 Bft)
13.04.2017 17:45 12,7 °C 12,8 °C 61 % 1012,4 hPa 0,0 mm 11,9 km/h (2 Bft) NW 318 ° 0 min 0,000 mm 1,2 UV-I 202 W/m² 5,4 °C 12,7 °C 19,3 km/h (3 Bft)
13.04.2017 17:46 12,8 °C 12,8 °C 61 % 1012,4 hPa 0,0 mm 13,0 km/h (3 Bft) W-NW 300 ° 0 min 0,000 mm 1,2 UV-I 218 W/m² 5,5 °C 12,8 °C 20,9 km/h (4 Bft)
13.04.2017 17:47 12,7 °C 12,8 °C 61 % 1012,4 hPa 0,0 mm 12,7 km/h (3 Bft) W-NW 298 ° 0 min 0,000 mm 1,1 UV-I 141 W/m² 5,4 °C 12,7 °C 19,3 km/h (3 Bft)
13.04.2017 17:48 12,7 °C 12,8 °C 60 % 1012,4 hPa 0,0 mm 11,9 km/h (2 Bft) NW 319 ° 0 min 0,000 mm 1,1 UV-I 120 W/m² 5,1 °C 12,7 °C 17,7 km/h (3 Bft)
13.04.2017 17:49 12,7 °C 12,7 °C 60 % 1012,5 hPa 0,0 mm 10,9 km/h (2 Bft) NW 315 ° 0 min 0,000 mm 1,1 UV-I 125 W/m² 5,1 °C 12,7 °C 17,7 km/h (3 Bft)
13.04.2017 17:50 12,6 °C 12,7 °C 61 % 1012,5 hPa 0,0 mm 14,0 km/h (3 Bft) N-NW 334 ° 0 min 0,000 mm 1,1 UV-I 200 W/m² 5,3 °C 12,6 °C 20,9 km/h (4 Bft)
13.04.2017 17:51 12,6 °C 12,6 °C 60 % 1012,4 hPa 0,0 mm 8,7 km/h (2 Bft) W-NW 294 ° 0 min 0,000 mm 1,1 UV-I 206 W/m² 5,0 °C 12,6 °C 14,5 km/h (3 Bft)
13.04.2017 17:52 12,6 °C 12,6 °C 61 % 1012,5 hPa 0,0 mm 8,4 km/h (2 Bft) NW 304 ° 0 min 0,000 mm 1,1 UV-I 160 W/m² 5,3 °C 12,6 °C 14,5 km/h (3 Bft)
13.04.2017 17:53 12,6 °C 12,6 °C 61 % 1012,4 hPa 0,0 mm 8,7 km/h (2 Bft) N-NW 338 ° 0 min 0,000 mm 1,1 UV-I 142 W/m² 5,3 °C 12,6 °C 17,7 km/h (3 Bft)
13.04.2017 17:54 12,5 °C 12,6 °C 62 % 1012,4 hPa 0,0 mm 11,7 km/h (2 Bft) N-NW 341 ° 0 min 0,000 mm 1,1 UV-I 141 W/m² 5,4 °C 12,5 °C 16,1 km/h (3 Bft)
13.04.2017 17:55 12,6 °C 12,6 °C 61 % 1012,4 hPa 0,0 mm 8,9 km/h (2 Bft) W-NW 301 ° 0 min 0,000 mm 1,1 UV-I 142 W/m² 5,3 °C 12,6 °C 12,9 km/h (3 Bft)
13.04.2017 17:56 12,6 °C 12,6 °C 60 % 1012,4 hPa 0,0 mm 11,8 km/h (2 Bft) N-NW 347 ° 0 min 0,000 mm 1,1 UV-I 148 W/m² 5,0 °C 12,6 °C 16,1 km/h (3 Bft)
13.04.2017 17:57 12,6 °C 12,6 °C 63 % 1012,4 hPa 0,0 mm 13,0 km/h (3 Bft) N-NW 341 ° 0 min 0,000 mm 1,1 UV-I 153 W/m² 5,7 °C 12,6 °C 19,3 km/h (3 Bft)
13.04.2017 17:58 12,7 °C 12,7 °C 61 % 1012,3 hPa 0,0 mm 10,0 km/h (2 Bft) N-NW 330 ° 0 min 0,000 mm 1,1 UV-I 156 W/m² 5,4 °C 12,7 °C 17,7 km/h (3 Bft)
13.04.2017 17:59 12,7 °C 12,7 °C 61 % 1012,4 hPa 0,0 mm 13,0 km/h (3 Bft) N-NW 344 ° 0 min 0,000 mm 1,1 UV-I 156 W/m² 5,4 °C 12,7 °C 19,3 km/h (3 Bft)
13.04.2017 18:00 12,7 °C 12,7 °C 61 % 1012,4 hPa 0,0 mm 9,2 km/h (2 Bft) W-NW 285 ° 0 min 0,000 mm 1,1 UV-I 132 W/m² 5,4 °C 12,7 °C 12,9 km/h (3 Bft)
13.04.2017 18:01 12,6 °C 12,7 °C 60 % 1012,4 hPa 0,0 mm 11,7 km/h (2 Bft) NW 306 ° 0 min 0,127 mm 1,0 UV-I 120 W/m² 5,0 °C 12,6 °C 16,1 km/h (3 Bft)
13.04.2017 18:02 12,7 °C 12,7 °C 60 % 1012,4 hPa 0,0 mm 8,0 km/h (2 Bft) W 277 ° 0 min 0,000 mm 1,0 UV-I 114 W/m² 5,1 °C 12,7 °C 16,1 km/h (3 Bft)
13.04.2017 18:03 12,7 °C 12,7 °C 60 % 1012,4 hPa 0,0 mm 11,1 km/h (2 Bft) W-NW 288 ° 0 min 0,000 mm 1,0 UV-I 111 W/m² 5,1 °C 12,7 °C 14,5 km/h (3 Bft)
13.04.2017 18:04 12,7 °C 12,7 °C 60 % 1012,4 hPa 0,0 mm 7,8 km/h (2 Bft) W-NW 301 ° 0 min 0,000 mm 1,0 UV-I 111 W/m² 5,1 °C 12,7 °C 12,9 km/h (3 Bft)
13.04.2017 18:05 12,7 °C 12,7 °C 62 % 1012,4 hPa 0,0 mm 12,8 km/h (3 Bft) W-NW 300 ° 0 min 0,000 mm 1,0 UV-I 127 W/m² 5,6 °C 12,7 °C 16,1 km/h (3 Bft)
13.04.2017 18:06 12,7 °C 12,7 °C 61 % 1012,4 hPa 0,0 mm 11,0 km/h (2 Bft) W 273 ° 0 min 0,000 mm 1,0 UV-I 118 W/m² 5,4 °C 12,7 °C 16,1 km/h (3 Bft)
13.04.2017 18:07 12,7 °C 12,7 °C 61 % 1012,4 hPa 0,0 mm 13,2 km/h (3 Bft) W 270 ° 0 min 0,000 mm 0,9 UV-I 105 W/m² 5,4 °C 12,7 °C 17,7 km/h (3 Bft)
13.04.2017 18:08 12,7 °C 12,7 °C 62 % 1012,4 hPa 0,0 mm 12,1 km/h (2 Bft) N-NW 330 ° 0 min 0,000 mm 0,9 UV-I 93 W/m² 5,6 °C 12,7 °C 17,7 km/h (3 Bft)
13.04.2017 18:09 12,7 °C 12,7 °C 60 % 1012,3 hPa 0,0 mm 8,4 km/h (2 Bft) W 265 ° 0 min 0,000 mm 0,9 UV-I 91 W/m² 5,1 °C 12,7 °C 12,9 km/h (3 Bft)
13.04.2017 18:10 12,7 °C 12,7 °C 60 % 1012,4 hPa 0,0 mm 13,8 km/h (3 Bft) NW 311 ° 0 min 0,000 mm 0,9 UV-I 95 W/m² 5,1 °C 12,7 °C 19,3 km/h (3 Bft)
13.04.2017 18:11 12,7 °C 12,7 °C 61 % 1012,4 hPa 0,0 mm 8,7 km/h (2 Bft) NW 315 ° 0 min 0,000 mm 0,9 UV-I 195 W/m² 5,4 °C 12,7 °C 12,9 km/h (3 Bft)
13.04.2017 18:12 12,7 °C 12,7 °C 61 % 1012,4 hPa 0,0 mm 8,4 km/h (2 Bft) N-NW 331 ° 0 min 0,000 mm 0,9 UV-I 167 W/m² 5,4 °C 12,7 °C 16,1 km/h (3 Bft)
13.04.2017 18:13 12,7 °C 12,8 °C 61 % 1012,4 hPa 0,0 mm 11,8 km/h (2 Bft) W 274 ° 0 min 0,000 mm 0,9 UV-I 156 W/m² 5,4 °C 12,7 °C 20,9 km/h (4 Bft)
13.04.2017 18:14 12,7 °C 12,8 °C 60 % 1012,4 hPa 0,0 mm 7,6 km/h (2 Bft) W-NW 289 ° 0 min 0,000 mm 0,9 UV-I 130 W/m² 5,1 °C 12,7 °C 12,9 km/h (3 Bft)
13.04.2017 18:15 12,7 °C 12,7 °C 59 % 1012,4 hPa 0,0 mm 7,9 km/h (2 Bft) N-NW 327 ° 0 min 0,000 mm 0,9 UV-I 116 W/m² 4,9 °C 12,7 °C 14,5 km/h (3 Bft)
13.04.2017 18:16 12,6 °C 12,7 °C 60 % 1012,4 hPa 0,0 mm 11,5 km/h (2 Bft) W-NW 292 ° 0 min 0,000 mm 0,9 UV-I 156 W/m² 5,0 °C 12,6 °C 14,5 km/h (3 Bft)
13.04.2017 18:17 12,6 °C 12,6 °C 61 % 1012,4 hPa 0,0 mm 8,7 km/h (2 Bft) NW 306 ° 0 min 0,000 mm 0,9 UV-I 169 W/m² 5,3 °C 12,6 °C 14,5 km/h (3 Bft)
13.04.2017 18:18 12,6 °C 12,6 °C 61 % 1012,4 hPa 0,0 mm 12,2 km/h (2 Bft) W 269 ° 0 min 0,000 mm 0,9 UV-I 125 W/m² 5,3 °C 12,6 °C 19,3 km/h (3 Bft)
13.04.2017 18:19 12,6 °C 12,6 °C 61 % 1012,4 hPa 0,0 mm 12,1 km/h (2 Bft) W 269 ° 0 min 0,000 mm 0,8 UV-I 95 W/m² 5,3 °C 12,6 °C 14,5 km/h (3 Bft)
13.04.2017 18:20 12,6 °C 12,6 °C 60 % 1012,4 hPa 0,0 mm 8,4 km/h (2 Bft) N-NW 348 ° 0 min 0,000 mm 0,8 UV-I 90 W/m² 5,0 °C 12,6 °C 12,9 km/h (3 Bft)
13.04.2017 18:21 12,6 °C 12,6 °C 61 % 1012,3 hPa 0,0 mm 5,0 km/h (1 Bft) N-NW 335 ° 0 min 0,000 mm 0,8 UV-I 81 W/m² 5,3 °C 12,6 °C 8,0 km/h (2 Bft)
13.04.2017 18:22 12,6 °C 12,6 °C 61 % 1012,4 hPa 0,0 mm 4,9 km/h (1 Bft) NW 309 ° 0 min 0,000 mm 0,8 UV-I 113 W/m² 5,3 °C 12,6 °C 6,4 km/h (2 Bft)
13.04.2017 18:23 12,7 °C 12,7 °C 62 % 1012,4 hPa 0,0 mm 7,2 km/h (2 Bft) W-NW 296 ° 0 min 0,000 mm 0,7 UV-I 81 W/m² 5,6 °C 12,7 °C 11,3 km/h (2 Bft)
13.04.2017 18:24 12,7 °C 12,7 °C 61 % 1012,4 hPa 0,0 mm 9,0 km/h (2 Bft) N 355 ° 0 min 0,000 mm 0,7 UV-I 70 W/m² 5,4 °C 12,7 °C 12,9 km/h (3 Bft)
13.04.2017 18:25 12,6 °C 12,7 °C 61 % 1012,4 hPa 0,0 mm 7,4 km/h (2 Bft) W-NW 300 ° 0 min 0,000 mm 0,7 UV-I 67 W/m² 5,3 °C 12,6 °C 11,3 km/h (2 Bft)
13.04.2017 18:26 12,6 °C 12,6 °C 61 % 1012,4 hPa 0,0 mm 8,9 km/h (2 Bft) NW 324 ° 0 min 0,000 mm 0,7 UV-I 62 W/m² 5,3 °C 12,6 °C 14,5 km/h (3 Bft)
13.04.2017 18:27 12,6 °C 12,6 °C 60 % 1012,4 hPa 0,0 mm 5,0 km/h (1 Bft) W 265 ° 0 min 0,000 mm 0,7 UV-I 62 W/m² 5,0 °C 12,6 °C 9,7 km/h (2 Bft)
13.04.2017 18:28 12,5 °C 12,6 °C 60 % 1012,4 hPa 0,0 mm 6,6 km/h (2 Bft) N-NW 329 ° 0 min 0,000 mm 0,7 UV-I 69 W/m² 5,0 °C 12,5 °C 9,7 km/h (2 Bft)
13.04.2017 18:29 12,4 °C 12,5 °C 60 % 1012,4 hPa 0,0 mm 7,2 km/h (2 Bft) W 272 ° 0 min 0,000 mm 0,7 UV-I 74 W/m² 4,9 °C 12,4 °C 11,3 km/h (2 Bft)
13.04.2017 18:30 12,4 °C 12,4 °C 60 % 1012,4 hPa 0,0 mm 5,7 km/h (1 Bft) W-NW 302 ° 0 min 0,000 mm 0,7 UV-I 65 W/m² 4,9 °C 12,4 °C 6,4 km/h (2 Bft)
13.04.2017 18:31 12,3 °C 12,4 °C 61 % 1012,4 hPa 0,0 mm 7,4 km/h (2 Bft) W 277 ° 0 min 0,000 mm 0,6 UV-I 60 W/m² 5,0 °C 12,3 °C 11,3 km/h (2 Bft)
13.04.2017 18:32 12,3 °C 12,3 °C 61 % 1012,4 hPa 0,0 mm 3,8 km/h (1 Bft) W-NW 283 ° 0 min 0,000 mm 0,0 UV-I 53 W/m² 5,0 °C 12,3 °C 4,8 km/h (1 Bft)
13.04.2017 18:33 12,3 °C 12,3 °C 61 % 1012,4 hPa 0,0 mm 7,2 km/h (2 Bft) W-NW 296 ° 0 min 0,000 mm 0,0 UV-I 53 W/m² 5,0 °C 12,3 °C 11,3 km/h (2 Bft)
13.04.2017 18:34 12,3 °C 12,3 °C 62 % 1012,4 hPa 0,0 mm 7,6 km/h (2 Bft) NW 323 ° 0 min 0,000 mm 0,0 UV-I 53 W/m² 5,2 °C 12,3 °C 11,3 km/h (2 Bft)
13.04.2017 18:35 12,2 °C 12,3 °C 62 % 1012,4 hPa 0,0 mm 11,0 km/h (2 Bft) NW 317 ° 0 min 0,000 mm 0,0 UV-I 56 W/m² 5,1 °C 12,2 °C 14,5 km/h (3 Bft)
13.04.2017 18:36 12,2 °C 12,3 °C 62 % 1012,4 hPa 0,0 mm 3,8 km/h (1 Bft) NW 322 ° 0 min 0,000 mm 0,6 UV-I 58 W/m² 5,1 °C 12,2 °C 6,4 km/h (2 Bft)
13.04.2017 18:37 12,2 °C 12,2 °C 62 % 1012,4 hPa 0,0 mm 3,0 km/h (1 Bft) N-NW 336 ° 0 min 0,000 mm 0,6 UV-I 60 W/m² 5,1 °C 12,2 °C 6,4 km/h (2 Bft)
13.04.2017 18:38 12,2 °C 12,2 °C 61 % 1012,3 hPa 0,0 mm 5,2 km/h (1 Bft) NW 320 ° 0 min 0,000 mm 0,6 UV-I 60 W/m² 4,9 °C 12,2 °C 11,3 km/h (2 Bft)
13.04.2017 18:39 12,2 °C 12,3 °C 61 % 1012,3 hPa 0,0 mm 6,1 km/h (2 Bft) NW 314 ° 0 min 0,000 mm 0,6 UV-I 65 W/m² 4,9 °C 12,2 °C 8,0 km/h (2 Bft)
13.04.2017 18:40 12,2 °C 12,3 °C 61 % 1012,4 hPa 0,0 mm 4,0 km/h (1 Bft) NW 323 ° 0 min 0,000 mm 0,6 UV-I 91 W/m² 4,9 °C 12,2 °C 6,4 km/h (2 Bft)
13.04.2017 18:41 12,2 °C 12,2 °C 62 % 1012,4 hPa 0,0 mm 4,7 km/h (1 Bft) W-NW 298 ° 0 min 0,000 mm 0,5 UV-I 79 W/m² 5,1 °C 12,2 °C 6,4 km/h (2 Bft)
13.04.2017 18:42 12,2 °C 12,2 °C 62 % 1012,4 hPa 0,0 mm 4,2 km/h (1 Bft) NW 315 ° 0 min 0,000 mm 0,5 UV-I 86 W/m² 5,1 °C 12,2 °C 6,4 km/h (2 Bft)
13.04.2017 18:43 12,2 °C 12,2 °C 61 % 1012,4 hPa 0,0 mm 4,2 km/h (1 Bft) W-NW 298 ° 0 min 0,000 mm 0,5 UV-I 81 W/m² 4,9 °C 12,2 °C 9,7 km/h (2 Bft)
13.04.2017 18:44 12,2 °C 12,2 °C 62 % 1012,4 hPa 0,0 mm 4,0 km/h (1 Bft) W-NW 288 ° 0 min 0,000 mm 0,5 UV-I 76 W/m² 5,1 °C 12,2 °C 8,0 km/h (2 Bft)
13.04.2017 18:45 12,2 °C 12,2 °C 62 % 1012,4 hPa 0,0 mm 3,7 km/h (1 Bft) NW 311 ° 0 min 0,000 mm 0,5 UV-I 70 W/m² 5,1 °C 12,2 °C 6,4 km/h (2 Bft)
13.04.2017 18:46 12,2 °C 12,2 °C 62 % 1012,4 hPa 0,0 mm 3,2 km/h (1 Bft) NW 311 ° 0 min 0,000 mm 0,5 UV-I 70 W/m² 5,1 °C 12,2 °C 4,8 km/h (1 Bft)
13.04.2017 18:47 12,2 °C 12,2 °C 63 % 1012,3 hPa 0,0 mm 2,7 km/h (1 Bft) NW 309 ° 0 min 0,000 mm 0,5 UV-I 60 W/m² 5,4 °C 12,2 °C 4,8 km/h (1 Bft)
13.04.2017 18:48 12,1 °C 12,2 °C 63 % 1012,4 hPa 0,0 mm 2,8 km/h (1 Bft) NW 309 ° 0 min 0,000 mm 0,5 UV-I 62 W/m² 5,3 °C 12,1 °C 4,8 km/h (1 Bft)
13.04.2017 18:49 12,2 °C 12,2 °C 62 % 1012,4 hPa 0,0 mm 3,0 km/h (1 Bft) NW 309 ° 0 min 0,000 mm 0,5 UV-I 70 W/m² 5,1 °C 12,2 °C 4,8 km/h (1 Bft)
13.04.2017 18:50 12,2 °C 12,2 °C 61 % 1012,4 hPa 0,0 mm 4,8 km/h (1 Bft) N-NW 337 ° 0 min 0,000 mm 0,5 UV-I 77 W/m² 4,9 °C 12,2 °C 8,0 km/h (2 Bft)
13.04.2017 18:51 12,2 °C 12,2 °C 63 % 1012,4 hPa 0,0 mm 6,3 km/h (2 Bft) W-NW 300 ° 0 min 0,000 mm 0,5 UV-I 72 W/m² 5,4 °C 12,2 °C 9,7 km/h (2 Bft)
13.04.2017 18:52 12,1 °C 12,2 °C 61 % 1012,4 hPa 0,0 mm 7,4 km/h (2 Bft) W 279 ° 0 min 0,000 mm 0,0 UV-I 86 W/m² 4,8 °C 12,1 °C 11,3 km/h (2 Bft)
13.04.2017 18:53 12,1 °C 12,1 °C 62 % 1012,4 hPa 0,0 mm 5,2 km/h (1 Bft) W-NW 292 ° 0 min 0,000 mm 0,0 UV-I 93 W/m² 5,0 °C 12,1 °C 8,0 km/h (2 Bft)
13.04.2017 18:54 12,1 °C 12,1 °C 61 % 1012,4 hPa 0,0 mm 4,7 km/h (1 Bft) NW 326 ° 0 min 0,000 mm 0,0 UV-I 93 W/m² 4,8 °C 12,1 °C 6,4 km/h (2 Bft)
13.04.2017 18:55 12,1 °C 12,1 °C 61 % 1012,3 hPa 0,0 mm 3,6 km/h (1 Bft) W-NW 297 ° 0 min 0,000 mm 0,0 UV-I 91 W/m² 4,8 °C 12,1 °C 4,8 km/h (1 Bft)
13.04.2017 18:56 12,1 °C 12,1 °C 61 % 1012,4 hPa 0,0 mm 4,4 km/h (1 Bft) N-NW 346 ° 0 min 0,000 mm 0,0 UV-I 90 W/m² 4,8 °C 12,1 °C 6,4 km/h (2 Bft)
13.04.2017 18:57 12,1 °C 12,1 °C 62 % 1012,4 hPa 0,0 mm 4,8 km/h (1 Bft) NW 323 ° 0 min 0,000 mm 0,0 UV-I 97 W/m² 5,0 °C 12,1 °C 9,7 km/h (2 Bft)
13.04.2017 18:58 12,1 °C 12,1 °C 62 % 1012,3 hPa 0,0 mm 3,2 km/h (1 Bft) NW 315 ° 0 min 0,000 mm 0,0 UV-I 91 W/m² 5,0 °C 12,1 °C 6,4 km/h (2 Bft)
13.04.2017 18:59 12,1 °C 12,1 °C 64 % 1012,3 hPa 0,0 mm 2,1 km/h (1 Bft) NW 315 ° 0 min 0,000 mm 0,0 UV-I 88 W/m² 5,5 °C 12,1 °C 3,2 km/h (1 Bft)
13.04.2017 19:00 11,9 °C 12,1 °C 64 % 1012,3 hPa 0,0 mm 1,8 km/h (1 Bft) NW 315 ° 0 min 0,000 mm 0,0 UV-I 81 W/m² 5,3 °C 11,9 °C 3,2 km/h (1 Bft)
13.04.2017 19:01 11,9 °C 11,9 °C 62 % 1012,4 hPa 0,0 mm 3,5 km/h (1 Bft) NW 304 ° 0 min 0,076 mm 0,0 UV-I 67 W/m² 4,9 °C 11,9 °C 4,8 km/h (1 Bft)
13.04.2017 19:02 11,8 °C 11,9 °C 64 % 1012,4 hPa 0,0 mm 1,7 km/h (1 Bft) NW 304 ° 0 min 0,000 mm 0,0 UV-I 58 W/m² 5,2 °C 11,8 °C 3,2 km/h (1 Bft)
13.04.2017 19:03 11,8 °C 11,8 °C 63 % 1012,4 hPa 0,0 mm 2,1 km/h (1 Bft) W-NW 282 ° 0 min 0,000 mm 0,0 UV-I 62 W/m² 5,0 °C 11,8 °C 4,8 km/h (1 Bft)
13.04.2017 19:04 11,8 °C 11,8 °C 63 % 1012,4 hPa 0,0 mm 3,1 km/h (1 Bft) W-NW 282 ° 0 min 0,000 mm 0,0 UV-I 65 W/m² 5,0 °C 11,8 °C 4,8 km/h (1 Bft)
13.04.2017 19:05 11,8 °C 11,8 °C 63 % 1012,5 hPa 0,0 mm 2,7 km/h (1 Bft) W-NW 282 ° 0 min 0,000 mm 0,0 UV-I 65 W/m² 5,0 °C 11,8 °C 4,8 km/h (1 Bft)
13.04.2017 19:06 11,7 °C 11,8 °C 64 % 1012,5 hPa 0,0 mm 2,4 km/h (1 Bft) W-NW 283 ° 0 min 0,000 mm 0,0 UV-I 63 W/m² 5,1 °C 11,7 °C 4,8 km/h (1 Bft)
13.04.2017 19:07 11,7 °C 11,7 °C 65 % 1012,5 hPa 0,0 mm 2,2 km/h (1 Bft) W-NW 283 ° 0 min 0,000 mm 0,0 UV-I 60 W/m² 5,3 °C 11,7 °C 3,2 km/h (1 Bft)
13.04.2017 19:08 11,6 °C 11,7 °C 65 % 1012,5 hPa 0,0 mm 0,3 km/h (0 Bft) W-NW 283 ° 0 min 0,000 mm 0,0 UV-I 54 W/m² 5,2 °C 11,6 °C 1,6 km/h (1 Bft)
13.04.2017 19:09 11,4 °C 11,6 °C 65 % 1012,5 hPa 0,0 mm 1,7 km/h (1 Bft) W-NW 283 ° 0 min 0,000 mm 0,0 UV-I 51 W/m² 5,1 °C 11,4 °C 3,2 km/h (1 Bft)
13.04.2017 19:10 11,4 °C 11,5 °C 65 % 1012,5 hPa 0,0 mm 2,5 km/h (1 Bft) W-NW 283 ° 0 min 0,000 mm 0,0 UV-I 54 W/m² 5,1 °C 11,4 °C 3,2 km/h (1 Bft)
13.04.2017 19:11 11,4 °C 11,4 °C 65 % 1012,5 hPa 0,0 mm 1,5 km/h (1 Bft) W-NW 283 ° 0 min 0,000 mm 0,0 UV-I 54 W/m² 5,1 °C 11,4 °C 3,2 km/h (1 Bft)
13.04.2017 19:12 11,3 °C 11,4 °C 66 % 1012,6 hPa 0,0 mm 1,1 km/h (1 Bft) W-NW 283 ° 0 min 0,000 mm 0,0 UV-I 56 W/m² 5,2 °C 11,3 °C 1,6 km/h (1 Bft)
13.04.2017 19:13 11,3 °C 11,3 °C 66 % 1012,6 hPa 0,0 mm 1,7 km/h (1 Bft) W-NW 283 ° 0 min 0,000 mm 0,0 UV-I 54 W/m² 5,2 °C 11,3 °C 3,2 km/h (1 Bft)
13.04.2017 19:14 11,2 °C 11,3 °C 66 % 1012,5 hPa 0,0 mm 1,2 km/h (1 Bft) W-NW 283 ° 0 min 0,000 mm 0,0 UV-I 46 W/m² 5,1 °C 11,2 °C 1,6 km/h (1 Bft)
13.04.2017 19:15 11,2 °C 11,2 °C 67 % 1012,6 hPa 0,0 mm 0,5 km/h (0 Bft) W-NW 283 ° 0 min 0,000 mm 0,0 UV-I 51 W/m² 5,3 °C 11,2 °C 1,6 km/h (1 Bft)
13.04.2017 19:16 11,2 °C 11,2 °C 66 % 1012,6 hPa 0,0 mm 0,3 km/h (0 Bft) W-NW 283 ° 0 min 0,000 mm 0,0 UV-I 42 W/m² 5,1 °C 11,2 °C 1,6 km/h (1 Bft)
13.04.2017 19:17 11,2 °C 11,2 °C 66 % 1012,5 hPa 0,0 mm 0,2 km/h (0 Bft) W-NW 283 ° 0 min 0,000 mm 0,0 UV-I 40 W/m² 5,1 °C 11,2 °C 1,6 km/h (1 Bft)
13.04.2017 19:18 11,2 °C 11,2 °C 66 % 1012,5 hPa 0,0 mm 0,7 km/h (0 Bft) W-NW 283 ° 0 min 0,000 mm 0,0 UV-I 39 W/m² 5,1 °C 11,2 °C 1,6 km/h (1 Bft)
13.04.2017 19:19 11,2 °C 11,2 °C 67 % 1012,5 hPa 0,0 mm 0,1 km/h (0 Bft) W-NW 283 ° 0 min 0,000 mm 0,0 UV-I 39 W/m² 5,3 °C 11,2 °C 1,6 km/h (1 Bft)
13.04.2017 19:20 11,2 °C 11,2 °C 68 % 1012,5 hPa 0,0 mm 0,0 km/h (0 Bft) W-NW 283 ° 0 min 0,000 mm 0,0 UV-I 39 W/m² 5,5 °C 11,2 °C 0,0 km/h (0 Bft)
13.04.2017 19:21 11,1 °C 11,2 °C 67 % 1012,5 hPa 0,0 mm 0,0 km/h (0 Bft) W-NW 283 ° 0 min 0,000 mm 0,0 UV-I 37 W/m² 5,2 °C 11,1 °C 0,0 km/h (0 Bft)
13.04.2017 19:22 11,1 °C 11,1 °C 67 % 1012,6 hPa 0,0 mm 0,0 km/h (0 Bft) W-NW 283 ° 0 min 0,000 mm 0,0 UV-I 33 W/m² 5,2 °C 11,1 °C 0,0 km/h (0 Bft)
13.04.2017 19:23 10,9 °C 11,1 °C 67 % 1012,6 hPa 0,0 mm 0,0 km/h (0 Bft) W-NW 283 ° 0 min 0,000 mm 0,0 UV-I 32 W/m² 5,0 °C 10,9 °C 0,0 km/h (0 Bft)
13.04.2017 19:24 10,9 °C 10,9 °C 68 % 1012,6 hPa 0,0 mm 0,0 km/h (0 Bft) W-NW 283 ° 0 min 0,000 mm 0,0 UV-I 30 W/m² 5,2 °C 10,9 °C 0,0 km/h (0 Bft)
13.04.2017 19:25 10,9 °C 10,9 °C 68 % 1012,6 hPa 0,0 mm 0,0 km/h (0 Bft) W-NW 283 ° 0 min 0,000 mm 0,0 UV-I 30 W/m² 5,2 °C 10,9 °C 0,0 km/h (0 Bft)
13.04.2017 19:26 10,8 °C 10,9 °C 68 % 1012,6 hPa 0,0 mm 0,0 km/h (0 Bft) W-NW 283 ° 0 min 0,000 mm 0,0 UV-I 28 W/m² 5,1 °C 10,8 °C 0,0 km/h (0 Bft)
13.04.2017 19:27 10,8 °C 10,8 °C 68 % 1012,6 hPa 0,0 mm 0,0 km/h (0 Bft) W-NW 283 ° 0 min 0,000 mm 0,0 UV-I 26 W/m² 5,1 °C 10,8 °C 0,0 km/h (0 Bft)
13.04.2017 19:28 10,7 °C 10,8 °C 69 % 1012,6 hPa 0,0 mm 0,0 km/h (0 Bft) W-NW 283 ° 0 min 0,000 mm 0,0 UV-I 25 W/m² 5,2 °C 10,7 °C 0,0 km/h (0 Bft)
13.04.2017 19:29 10,7 °C 10,7 °C 69 % 1012,6 hPa 0,0 mm 0,0 km/h (0 Bft) W-NW 283 ° 0 min 0,000 mm 0,0 UV-I 25 W/m² 5,2 °C 10,7 °C 0,0 km/h (0 Bft)
13.04.2017 19:30 10,7 °C 10,7 °C 69 % 1012,7 hPa 0,0 mm 0,1 km/h (0 Bft) W-NW 283 ° 0 min 0,000 mm 0,0 UV-I 25 W/m² 5,2 °C 10,7 °C 1,6 km/h (1 Bft)
13.04.2017 19:31 10,7 °C 10,7 °C 69 % 1012,7 hPa 0,0 mm 0,0 km/h (0 Bft) W-NW 283 ° 0 min 0,000 mm 0,0 UV-I 25 W/m² 5,2 °C 10,7 °C 0,0 km/h (0 Bft)
13.04.2017 19:32 10,7 °C 10,7 °C 70 % 1012,7 hPa 0,0 mm 0,6 km/h (0 Bft) W-NW 283 ° 0 min 0,000 mm 0,0 UV-I 25 W/m² 5,5 °C 10,7 °C 1,6 km/h (1 Bft)
13.04.2017 19:33 10,6 °C 10,7 °C 70 % 1012,7 hPa 0,0 mm 1,5 km/h (1 Bft) W-NW 283 ° 0 min 0,000 mm 0,0 UV-I 23 W/m² 5,4 °C 10,6 °C 1,6 km/h (1 Bft)
13.04.2017 19:34 10,6 °C 10,6 °C 69 % 1012,8 hPa 0,0 mm 1,8 km/h (1 Bft) W-NW 283 ° 0 min 0,000 mm 0,0 UV-I 21 W/m² 5,2 °C 10,6 °C 3,2 km/h (1 Bft)
13.04.2017 19:35 10,6 °C 10,6 °C 69 % 1012,7 hPa 0,0 mm 2,1 km/h (1 Bft) W-NW 283 ° 0 min 0,000 mm 0,0 UV-I 19 W/m² 5,2 °C 10,6 °C 3,2 km/h (1 Bft)
13.04.2017 19:36 10,6 °C 10,6 °C 70 % 1012,7 hPa 0,0 mm 1,6 km/h (1 Bft) W-NW 283 ° 0 min 0,000 mm 0,0 UV-I 19 W/m² 5,4 °C 10,6 °C 3,2 km/h (1 Bft)
13.04.2017 19:37 10,5 °C 10,6 °C 70 % 1012,7 hPa 0,0 mm 0,9 km/h (0 Bft) W-NW 283 ° 0 min 0,000 mm 0,0 UV-I 18 W/m² 5,3 °C 10,5 °C 3,2 km/h (1 Bft)
13.04.2017 19:38 10,4 °C 10,5 °C 70 % 1012,7 hPa 0,0 mm 0,0 km/h (0 Bft) W-NW 283 ° 0 min 0,000 mm 0,0 UV-I 18 W/m² 5,2 °C 10,4 °C 0,0 km/h (0 Bft)
13.04.2017 19:39 10,3 °C 10,4 °C 71 % 1012,7 hPa 0,0 mm 0,0 km/h (0 Bft) W-NW 283 ° 0 min 0,000 mm 0,0 UV-I 16 W/m² 5,3 °C 10,3 °C 0,0 km/h (0 Bft)
13.04.2017 19:40 10,2 °C 10,3 °C 70 % 1012,7 hPa 0,0 mm 0,0 km/h (0 Bft) W-NW 283 ° 0 min 0,000 mm 0,0 UV-I 16 W/m² 5,0 °C 10,2 °C 0,0 km/h (0 Bft)
13.04.2017 19:41 10,1 °C 10,2 °C 70 % 1012,8 hPa 0,0 mm 1,3 km/h (1 Bft) W-NW 283 ° 0 min 0,000 mm 0,0 UV-I 16 W/m² 4,9 °C 10,1 °C 3,2 km/h (1 Bft)
13.04.2017 19:42 10,0 °C 10,1 °C 70 % 1012,7 hPa 0,0 mm 0,1 km/h (0 Bft) W-NW 283 ° 0 min 0,000 mm 0,0 UV-I 16 W/m² 4,8 °C 10,0 °C 1,6 km/h (1 Bft)
13.04.2017 19:43 9,9 °C 10,0 °C 71 % 1012,8 hPa 0,0 mm 2,3 km/h (1 Bft) W-NW 282 ° 0 min 0,000 mm 0,0 UV-I 16 W/m² 4,9 °C 9,9 °C 4,8 km/h (1 Bft)
13.04.2017 19:44 10,0 °C 10,0 °C 71 % 1012,8 hPa 0,0 mm 3,6 km/h (1 Bft) W-NW 282 ° 0 min 0,000 mm 0,0 UV-I 14 W/m² 5,0 °C 10,0 °C 4,8 km/h (1 Bft)
13.04.2017 19:45 10,0 °C 10,0 °C 71 % 1012,8 hPa 0,0 mm 3,3 km/h (1 Bft) W-NW 282 ° 0 min 0,000 mm 0,0 UV-I 14 W/m² 5,0 °C 10,0 °C 4,8 km/h (1 Bft)
13.04.2017 19:46 10,0 °C 10,0 °C 72 % 1012,8 hPa 0,0 mm 3,0 km/h (1 Bft) W-NW 282 ° 0 min 0,000 mm 0,0 UV-I 14 W/m² 5,2 °C 10,0 °C 4,8 km/h (1 Bft)
13.04.2017 19:47 10,0 °C 10,0 °C 73 % 1012,9 hPa 0,0 mm 2,4 km/h (1 Bft) W-NW 282 ° 0 min 0,000 mm 0,0 UV-I 14 W/m² 5,4 °C 10,0 °C 3,2 km/h (1 Bft)
13.04.2017 19:48 10,0 °C 10,0 °C 72 % 1012,9 hPa 0,0 mm 2,7 km/h (1 Bft) W-SW 247 ° 0 min 0,000 mm 0,0 UV-I 14 W/m² 5,2 °C 10,0 °C 4,8 km/h (1 Bft)
13.04.2017 19:49 9,9 °C 10,0 °C 73 % 1012,9 hPa 0,0 mm 3,3 km/h (1 Bft) W-SW 247 ° 0 min 0,000 mm 0,0 UV-I 12 W/m² 5,3 °C 9,9 °C 4,8 km/h (1 Bft)
13.04.2017 19:50 9,9 °C 9,9 °C 73 % 1012,9 hPa 0,0 mm 1,8 km/h (1 Bft) W-SW 247 ° 0 min 0,000 mm 0,0 UV-I 12 W/m² 5,3 °C 9,9 °C 3,2 km/h (1 Bft)
13.04.2017 19:51 9,8 °C 9,9 °C 73 % 1012,9 hPa 0,0 mm 2,3 km/h (1 Bft) W-SW 247 ° 0 min 0,000 mm 0,0 UV-I 11 W/m² 5,2 °C 9,8 °C 3,2 km/h (1 Bft)
13.04.2017 19:52 9,7 °C 9,8 °C 73 % 1012,9 hPa 0,0 mm 1,5 km/h (1 Bft) W-SW 247 ° 0 min 0,000 mm 0,0 UV-I 11 W/m² 5,1 °C 9,7 °C 1,6 km/h (1 Bft)
13.04.2017 19:53 9,7 °C 9,7 °C 73 % 1012,9 hPa 0,0 mm 1,8 km/h (1 Bft) W-SW 247 ° 0 min 0,000 mm 0,0 UV-I 9 W/m² 5,1 °C 9,7 °C 3,2 km/h (1 Bft)
13.04.2017 19:54 9,7 °C 9,7 °C 73 % 1012,9 hPa 0,0 mm 2,1 km/h (1 Bft) W-SW 247 ° 0 min 0,000 mm 0,0 UV-I 9 W/m² 5,1 °C 9,7 °C 3,2 km/h (1 Bft)
13.04.2017 19:55 9,7 °C 9,7 °C 73 % 1012,9 hPa 0,0 mm 0,7 km/h (0 Bft) W-SW 247 ° 0 min 0,000 mm 0,0 UV-I 9 W/m² 5,1 °C 9,7 °C 1,6 km/h (1 Bft)
13.04.2017 19:56 9,7 °C 9,7 °C 72 % 1013,0 hPa 0,0 mm 0,6 km/h (0 Bft) W-SW 247 ° 0 min 0,000 mm 0,0 UV-I 9 W/m² 4,9 °C 9,7 °C 1,6 km/h (1 Bft)
13.04.2017 19:57 9,7 °C 9,7 °C 73 % 1013,0 hPa 0,0 mm 0,1 km/h (0 Bft) W-SW 247 ° 0 min 0,000 mm 0,0 UV-I 7 W/m² 5,1 °C 9,7 °C 1,6 km/h (1 Bft)
13.04.2017 19:58 9,7 °C 9,7 °C 72 % 1013,0 hPa 0,0 mm 1,3 km/h (1 Bft) W-SW 247 ° 0 min 0,000 mm 0,0 UV-I 7 W/m² 4,9 °C 9,7 °C 1,6 km/h (1 Bft)
13.04.2017 19:59 9,6 °C 9,7 °C 72 % 1013,0 hPa 0,0 mm 0,2 km/h (0 Bft) W-SW 247 ° 0 min 0,000 mm 0,0 UV-I 7 W/m² 4,8 °C 9,6 °C 1,6 km/h (1 Bft)
13.04.2017 20:00 9,6 °C 9,6 °C 73 % 1012,9 hPa 0,0 mm 0,5 km/h (0 Bft) W-SW 247 ° 0 min 0,000 mm 0,0 UV-I 5 W/m² 5,0 °C 9,6 °C 1,6 km/h (1 Bft)
13.04.2017 20:01 9,4 °C 9,6 °C 73 % 1013,0 hPa 0,0 mm 0,5 km/h (0 Bft) W-SW 247 ° 0 min 0,026 mm 0,0 UV-I 5 W/m² 4,8 °C 9,4 °C 1,6 km/h (1 Bft)
13.04.2017 20:02 9,4 °C 9,4 °C 73 % 1013,0 hPa 0,0 mm 1,9 km/h (1 Bft) W-SW 247 ° 0 min 0,000 mm 0,0 UV-I 5 W/m² 4,8 °C 9,4 °C 4,8 km/h (1 Bft)
13.04.2017 20:03 9,3 °C 9,4 °C 73 % 1013,0 hPa 0,0 mm 1,3 km/h (1 Bft) W-SW 247 ° 0 min 0,000 mm 0,0 UV-I 5 W/m² 4,7 °C 9,3 °C 3,2 km/h (1 Bft)
13.04.2017 20:04 9,2 °C 9,3 °C 74 % 1013,0 hPa 0,0 mm 1,7 km/h (1 Bft) W-SW 247 ° 0 min 0,000 mm 0,0 UV-I 0 W/m² 4,8 °C 9,2 °C 3,2 km/h (1 Bft)
13.04.2017 20:05 9,1 °C 9,2 °C 74 % 1013,0 hPa 0,0 mm 3,7 km/h (1 Bft) SW 229 ° 0 min 0,000 mm 0,0 UV-I 0 W/m² 4,7 °C 9,1 °C 4,8 km/h (1 Bft)
13.04.2017 20:06 9,2 °C 9,2 °C 74 % 1013,0 hPa 0,0 mm 2,9 km/h (1 Bft) SW 228 ° 0 min 0,000 mm 0,0 UV-I 0 W/m² 4,8 °C 9,2 °C 4,8 km/h (1 Bft)
13.04.2017 20:07 9,2 °C 9,2 °C 75 % 1013,0 hPa 0,0 mm 3,7 km/h (1 Bft) S-SW 213 ° 0 min 0,000 mm 0,0 UV-I 0 W/m² 5,0 °C 9,2 °C 6,4 km/h (2 Bft)
13.04.2017 20:08 9,2 °C 9,2 °C 75 % 1013,1 hPa 0,0 mm 2,8 km/h (1 Bft) S-SW 213 ° 0 min 0,000 mm 0,0 UV-I 0 W/m² 5,0 °C 9,2 °C 4,8 km/h (1 Bft)
13.04.2017 20:09 9,1 °C 9,2 °C 75 % 1013,1 hPa 0,0 mm 3,4 km/h (1 Bft) S-SW 213 ° 0 min 0,000 mm 0,0 UV-I 0 W/m² 4,9 °C 9,1 °C 4,8 km/h (1 Bft)
13.04.2017 20:10 9,1 °C 9,1 °C 76 % 1013,1 hPa 0,0 mm 3,8 km/h (1 Bft) S-SW 213 ° 0 min 0,000 mm 0,0 UV-I 0 W/m² 5,1 °C 9,1 °C 6,4 km/h (2 Bft)
13.04.2017 20:11 9,0 °C 9,1 °C 76 % 1013,1 hPa 0,0 mm 3,1 km/h (1 Bft) S-SW 213 ° 0 min 0,000 mm 0,0 UV-I 0 W/m² 5,0 °C 9,0 °C 4,8 km/h (1 Bft)
13.04.2017 20:12 9,0 °C 9,0 °C 75 % 1013,1 hPa 0,0 mm 3,7 km/h (1 Bft) S-SW 211 ° 0 min 0,000 mm 0,0 UV-I 0 W/m² 4,8 °C 9,0 °C 6,4 km/h (2 Bft)
13.04.2017 20:13 9,0 °C 9,0 °C 75 % 1013,1 hPa 0,0 mm 3,0 km/h (1 Bft) S-SW 211 ° 0 min 0,000 mm 0,0 UV-I 0 W/m² 4,8 °C 9,0 °C 4,8 km/h (1 Bft)
13.04.2017 20:14 8,9 °C 9,0 °C 75 % 1013,2 hPa 0,0 mm 1,7 km/h (1 Bft) S-SW 211 ° 0 min 0,000 mm 0,0 UV-I 0 W/m² 4,7 °C 8,9 °C 4,8 km/h (1 Bft)
13.04.2017 20:15 8,8 °C 8,9 °C 75 % 1013,1 hPa 0,0 mm 4,0 km/h (1 Bft) S-SW 211 ° 0 min 0,000 mm 0,0 UV-I 0 W/m² 4,6 °C 8,8 °C 4,8 km/h (1 Bft)
13.04.2017 20:16 8,8 °C 8,8 °C 75 % 1013,2 hPa 0,0 mm 2,6 km/h (1 Bft) S-SW 211 ° 0 min 0,000 mm 0,0 UV-I 0 W/m² 4,6 °C 8,8 °C 4,8 km/h (1 Bft)
13.04.2017 20:17 8,8 °C 8,8 °C 75 % 1013,2 hPa 0,0 mm 2,6 km/h (1 Bft) S-SW 211 ° 0 min 0,000 mm 0,0 UV-I 0 W/m² 4,6 °C 8,8 °C 4,8 km/h (1 Bft)
13.04.2017 20:18 8,7 °C 8,8 °C 75 % 1013,2 hPa 0,0 mm 3,9 km/h (1 Bft) S-SW 211 ° 0 min 0,000 mm 0,0 UV-I 0 W/m² 4,5 °C 8,7 °C 4,8 km/h (1 Bft)
13.04.2017 20:19 8,7 °C 8,7 °C 75 % 1013,2 hPa 0,0 mm 3,0 km/h (1 Bft) S-SW 211 ° 0 min 0,000 mm 0,0 UV-I 0 W/m² 4,5 °C 8,7 °C 4,8 km/h (1 Bft)
13.04.2017 20:20 8,7 °C 8,7 °C 76 % 1013,2 hPa 0,0 mm 4,2 km/h (1 Bft) S-SW 211 ° 0 min 0,000 mm 0,0 UV-I 0 W/m² 4,7 °C 8,7 °C 6,4 km/h (2 Bft)
13.04.2017 20:21 8,7 °C 8,7 °C 76 % 1013,2 hPa 0,0 mm 2,3 km/h (1 Bft) S-SW 211 ° 0 min 0,000 mm 0,0 UV-I 0 W/m² 4,7 °C 8,7 °C 4,8 km/h (1 Bft)
13.04.2017 20:22 8,6 °C 8,7 °C 76 % 1013,2 hPa 0,0 mm 1,8 km/h (1 Bft) S-SW 211 ° 0 min 0,000 mm 0,0 UV-I 0 W/m² 4,6 °C 8,6 °C 3,2 km/h (1 Bft)
13.04.2017 20:23 8,5 °C 8,6 °C 76 % 1013,2 hPa 0,0 mm 3,3 km/h (1 Bft) S-SW 211 ° 0 min 0,000 mm 0,0 UV-I 0 W/m² 4,5 °C 8,5 °C 4,8 km/h (1 Bft)
13.04.2017 20:24 8,4 °C 8,5 °C 76 % 1013,2 hPa 0,0 mm 2,1 km/h (1 Bft) S-SW 211 ° 0 min 0,000 mm 0,0 UV-I 0 W/m² 4,4 °C 8,4 °C 3,2 km/h (1 Bft)
13.04.2017 20:25 8,3 °C 8,4 °C 76 % 1013,2 hPa 0,0 mm 2,1 km/h (1 Bft) S-SW 211 ° 0 min 0,000 mm 0,0 UV-I 0 W/m² 4,3 °C 8,3 °C 3,2 km/h (1 Bft)
13.04.2017 20:26 8,3 °C 8,3 °C 77 % 1013,3 hPa 0,0 mm 0,6 km/h (0 Bft) S-SW 211 ° 0 min 0,000 mm 0,0 UV-I 0 W/m² 4,5 °C 8,3 °C 3,2 km/h (1 Bft)
13.04.2017 20:27 8,3 °C 8,3 °C 77 % 1013,3 hPa 0,0 mm 0,1 km/h (0 Bft) S-SW 211 ° 0 min 0,000 mm 0,0 UV-I 0 W/m² 4,5 °C 8,3 °C 1,6 km/h (1 Bft)
13.04.2017 20:28 8,1 °C 8,3 °C 77 % 1013,3 hPa 0,0 mm 0,0 km/h (0 Bft) S-SW 211 ° 0 min 0,000 mm 0,0 UV-I 0 W/m² 4,3 °C 8,1 °C 0,0 km/h (0 Bft)
13.04.2017 20:29 7,9 °C 8,1 °C 77 % 1013,3 hPa 0,0 mm 0,0 km/h (0 Bft) S-SW 211 ° 0 min 0,000 mm 0,0 UV-I 0 W/m² 4,1 °C 7,9 °C 0,0 km/h (0 Bft)
13.04.2017 20:30 7,7 °C 7,9 °C 78 % 1013,3 hPa 0,0 mm 0,0 km/h (0 Bft) S-SW 211 ° 0 min 0,000 mm 0,0 UV-I 0 W/m² 4,1 °C 7,7 °C 0,0 km/h (0 Bft)
13.04.2017 20:31 7,6 °C 7,7 °C 79 % 1013,3 hPa 0,0 mm 0,0 km/h (0 Bft) S-SW 211 ° 0 min 0,000 mm 0,0 UV-I 0 W/m² 4,2 °C 7,6 °C 0,0 km/h (0 Bft)
13.04.2017 20:32 7,6 °C 7,6 °C 79 % 1013,3 hPa 0,0 mm 0,0 km/h (0 Bft) S-SW 211 ° 0 min 0,000 mm 0,0 UV-I 0 W/m² 4,2 °C 7,6 °C 0,0 km/h (0 Bft)
13.04.2017 20:33 7,7 °C 7,7 °C 79 % 1013,4 hPa 0,0 mm 0,0 km/h (0 Bft) S-SW 211 ° 0 min 0,000 mm 0,0 UV-I 0 W/m² 4,3 °C 7,7 °C 0,0 km/h (0 Bft)
13.04.2017 20:34 7,7 °C 7,7 °C 79 % 1013,4 hPa 0,0 mm 0,0 km/h (0 Bft) S-SW 211 ° 0 min 0,000 mm 0,0 UV-I 0 W/m² 4,3 °C 7,7 °C 0,0 km/h (0 Bft)
13.04.2017 20:35 7,7 °C 7,7 °C 79 % 1013,4 hPa 0,0 mm 0,0 km/h (0 Bft) S-SW 211 ° 0 min 0,000 mm 0,0 UV-I 0 W/m² 4,3 °C 7,7 °C 0,0 km/h (0 Bft)
13.04.2017 20:36 7,7 °C 7,8 °C 79 % 1013,4 hPa 0,0 mm 0,1 km/h (0 Bft) S-SW 211 ° 0 min 0,000 mm 0,0 UV-I 0 W/m² 4,3 °C 7,7 °C 1,6 km/h (1 Bft)
13.04.2017 20:37 7,6 °C 7,7 °C 79 % 1013,4 hPa 0,0 mm 0,0 km/h (0 Bft) S-SW 211 ° 0 min 0,000 mm 0,0 UV-I 0 W/m² 4,2 °C 7,6 °C 0,0 km/h (0 Bft)
13.04.2017 20:38 7,4 °C 7,6 °C 78 % 1013,4 hPa 0,0 mm 1,2 km/h (1 Bft) S-SW 211 ° 0 min 0,000 mm 0,0 UV-I 0 W/m² 3,8 °C 7,4 °C 3,2 km/h (1 Bft)
13.04.2017 20:39 7,4 °C 7,4 °C 80 % 1013,4 hPa 0,0 mm 0,1 km/h (0 Bft) S-SW 211 ° 0 min 0,000 mm 0,0 UV-I 0 W/m² 4,2 °C 7,4 °C 1,6 km/h (1 Bft)
13.04.2017 20:40 7,4 °C 7,4 °C 80 % 1013,4 hPa 0,0 mm 0,0 km/h (0 Bft) S-SW 211 ° 0 min 0,000 mm 0,0 UV-I 0 W/m² 4,2 °C 7,4 °C 0,0 km/h (0 Bft)
13.04.2017 20:41 7,6 °C 7,6 °C 80 % 1013,5 hPa 0,0 mm 1,2 km/h (1 Bft) S-SW 211 ° 0 min 0,000 mm 0,0 UV-I 0 W/m² 4,4 °C 7,6 °C 1,6 km/h (1 Bft)
13.04.2017 20:42 7,6 °C 7,6 °C 80 % 1013,5 hPa 0,0 mm 0,2 km/h (0 Bft) S-SW 211 ° 0 min 0,000 mm 0,0 UV-I 0 W/m² 4,4 °C 7,6 °C 1,6 km/h (1 Bft)
13.04.2017 20:43 7,6 °C 7,7 °C 79 % 1013,5 hPa 0,0 mm 0,1 km/h (0 Bft) S-SW 211 ° 0 min 0,000 mm 0,0 UV-I 0 W/m² 4,2 °C 7,6 °C 1,6 km/h (1 Bft)
13.04.2017 20:44 7,6 °C 7,6 °C 80 % 1013,5 hPa 0,0 mm 3,9 km/h (1 Bft) S-SW 211 ° 0 min 0,000 mm 0,0 UV-I 0 W/m² 4,4 °C 7,6 °C 4,8 km/h (1 Bft)
13.04.2017 20:45 7,6 °C 7,6 °C 80 % 1013,5 hPa 0,0 mm 3,8 km/h (1 Bft) S-SW 211 ° 0 min 0,000 mm 0,0 UV-I 0 W/m² 4,4 °C 7,6 °C 4,8 km/h (1 Bft)
13.04.2017 20:46 7,6 °C 7,6 °C 80 % 1013,5 hPa 0,0 mm 3,8 km/h (1 Bft) S-SW 211 ° 0 min 0,000 mm 0,0 UV-I 0 W/m² 4,4 °C 7,6 °C 4,8 km/h (1 Bft)
13.04.2017 20:47 7,7 °C 7,7 °C 80 % 1013,5 hPa 0,0 mm 3,9 km/h (1 Bft) S-SW 211 ° 0 min 0,000 mm 0,0 UV-I 0 W/m² 4,5 °C 7,7 °C 4,8 km/h (1 Bft)
13.04.2017 20:48 7,7 °C 7,7 °C 80 % 1013,5 hPa 0,0 mm 3,5 km/h (1 Bft) S-SW 211 ° 0 min 0,000 mm 0,0 UV-I 0 W/m² 4,5 °C 7,7 °C 4,8 km/h (1 Bft)
13.04.2017 20:49 7,7 °C 7,7 °C 80 % 1013,5 hPa 0,0 mm 2,5 km/h (1 Bft) S-SW 211 ° 0 min 0,000 mm 0,0 UV-I 0 W/m² 4,5 °C 7,7 °C 4,8 km/h (1 Bft)
13.04.2017 20:50 7,7 °C 7,7 °C 79 % 1013,6 hPa 0,0 mm 1,9 km/h (1 Bft) W-SW 250 ° 0 min 0,000 mm 0,0 UV-I 0 W/m² 4,3 °C 7,7 °C 4,8 km/h (1 Bft)
13.04.2017 20:51 7,4 °C 7,7 °C 78 % 1013,6 hPa 0,0 mm 3,2 km/h (1 Bft) W-NW 289 ° 0 min 0,000 mm 0,0 UV-I 0 W/m² 3,8 °C 7,4 °C 4,8 km/h (1 Bft)
13.04.2017 20:52 7,2 °C 7,4 °C 79 % 1013,6 hPa 0,0 mm 1,8 km/h (1 Bft) W-NW 289 ° 0 min 0,000 mm 0,0 UV-I 0 W/m² 3,8 °C 7,2 °C 3,2 km/h (1 Bft)
13.04.2017 20:53 6,8 °C 7,2 °C 79 % 1013,6 hPa 0,0 mm 0,1 km/h (0 Bft) W-NW 289 ° 0 min 0,000 mm 0,0 UV-I 0 W/m² 3,4 °C 6,8 °C 1,6 km/h (1 Bft)
13.04.2017 20:54 6,6 °C 6,8 °C 81 % 1013,6 hPa 0,0 mm 0,0 km/h (0 Bft) W-NW 289 ° 0 min 0,000 mm 0,0 UV-I 0 W/m² 3,6 °C 6,6 °C 0,0 km/h (0 Bft)
13.04.2017 20:55 6,4 °C 6,6 °C 82 % 1013,6 hPa 0,0 mm 1,8 km/h (1 Bft) W-NW 289 ° 0 min 0,000 mm 0,0 UV-I 0 W/m² 3,6 °C 6,4 °C 3,2 km/h (1 Bft)
13.04.2017 20:56 6,4 °C 6,4 °C 83 % 1013,7 hPa 0,0 mm 1,5 km/h (1 Bft) W-NW 289 ° 0 min 0,000 mm 0,0 UV-I 0 W/m² 3,7 °C 6,4 °C 1,6 km/h (1 Bft)
13.04.2017 20:57 6,3 °C 6,4 °C 83 % 1013,7 hPa 0,0 mm 0,5 km/h (0 Bft) W-NW 289 ° 0 min 0,000 mm 0,0 UV-I 0 W/m² 3,6 °C 6,3 °C 1,6 km/h (1 Bft)
13.04.2017 20:58 6,2 °C 6,3 °C 82 % 1013,7 hPa 0,0 mm 0,4 km/h (0 Bft) W-NW 289 ° 0 min 0,000 mm 0,0 UV-I 0 W/m² 3,4 °C 6,2 °C 1,6 km/h (1 Bft)
13.04.2017 20:59 6,1 °C 6,2 °C 83 % 1013,7 hPa 0,0 mm 0,0 km/h (0 Bft) W-NW 289 ° 0 min 0,000 mm 0,0 UV-I 0 W/m² 3,4 °C 6,1 °C 0,0 km/h (0 Bft)
13.04.2017 21:00 6,1 °C 6,1 °C 84 % 1013,7 hPa 0,0 mm 0,0 km/h (0 Bft) W-NW 289 ° 0 min 0,000 mm 0,0 UV-I 0 W/m² 3,6 °C 6,1 °C 0,0 km/h (0 Bft)
13.04.2017 21:01 6,1 °C 6,1 °C 84 % 1013,7 hPa 0,0 mm 0,0 km/h (0 Bft) W-NW 289 ° 0 min 0,000 mm 0,0 UV-I 0 W/m² 3,6 °C 6,1 °C 0,0 km/h (0 Bft)
13.04.2017 21:02 6,1 °C 6,1 °C 84 % 1013,8 hPa 0,0 mm 0,0 km/h (0 Bft) W-NW 289 ° 0 min 0,000 mm 0,0 UV-I 0 W/m² 3,6 °C 6,1 °C 0,0 km/h (0 Bft)
13.04.2017 21:03 6,2 °C 6,2 °C 84 % 1013,8 hPa 0,0 mm 0,0 km/h (0 Bft) W-NW 289 ° 0 min 0,000 mm 0,0 UV-I 0 W/m² 3,7 °C 6,2 °C 0,0 km/h (0 Bft)
13.04.2017 21:04 6,2 °C 6,2 °C 84 % 1013,8 hPa 0,0 mm 1,2 km/h (1 Bft) W-NW 289 ° 0 min 0,000 mm 0,0 UV-I 0 W/m² 3,7 °C 6,2 °C 3,2 km/h (1 Bft)
13.04.2017 21:05 6,3 °C 6,3 °C 84 % 1013,8 hPa 0,0 mm 2,2 km/h (1 Bft) W-NW 289 ° 0 min 0,000 mm 0,0 UV-I 0 W/m² 3,8 °C 6,3 °C 3,2 km/h (1 Bft)
13.04.2017 21:06 6,4 °C 6,4 °C 84 % 1013,8 hPa 0,0 mm 2,1 km/h (1 Bft) W-NW 289 ° 0 min 0,000 mm 0,0 UV-I 0 W/m² 3,9 °C 6,4 °C 3,2 km/h (1 Bft)
13.04.2017 21:07 6,5 °C 6,5 °C 84 % 1013,8 hPa 0,0 mm 1,8 km/h (1 Bft) W-NW 289 ° 0 min 0,000 mm 0,0 UV-I 0 W/m² 4,0 °C 6,5 °C 3,2 km/h (1 Bft)
13.04.2017 21:08 6,6 °C 6,6 °C 84 % 1013,8 hPa 0,0 mm 0,4 km/h (0 Bft) W-NW 289 ° 0 min 0,000 mm 0,0 UV-I 0 W/m² 4,1 °C 6,6 °C 1,6 km/h (1 Bft)
13.04.2017 21:09 6,4 °C 6,6 °C 82 % 1013,8 hPa 0,0 mm 0,3 km/h (0 Bft) W-NW 289 ° 0 min 0,000 mm 0,0 UV-I 0 W/m² 3,6 °C 6,4 °C 1,6 km/h (1 Bft)
13.04.2017 21:10 6,3 °C 6,4 °C 83 % 1013,9 hPa 0,0 mm 0,0 km/h (0 Bft) W-NW 289 ° 0 min 0,000 mm 0,0 UV-I 0 W/m² 3,6 °C 6,3 °C 0,0 km/h (0 Bft)
13.04.2017 21:11 6,2 °C 6,3 °C 84 % 1013,9 hPa 0,0 mm 0,0 km/h (0 Bft) W-NW 289 ° 0 min 0,000 mm 0,0 UV-I 0 W/m² 3,7 °C 6,2 °C 0,0 km/h (0 Bft)
13.04.2017 21:12 6,3 °C 6,3 °C 85 % 1013,9 hPa 0,0 mm 0,0 km/h (0 Bft) W-NW 289 ° 0 min 0,000 mm 0,0 UV-I 0 W/m² 4,0 °C 6,3 °C 0,0 km/h (0 Bft)
13.04.2017 21:13 6,4 °C 6,4 °C 85 % 1013,9 hPa 0,0 mm 2,3 km/h (1 Bft) W-NW 289 ° 0 min 0,000 mm 0,0 UV-I 0 W/m² 4,1 °C 6,4 °C 3,2 km/h (1 Bft)
13.04.2017 21:14 6,4 °C 6,4 °C 85 % 1013,9 hPa 0,0 mm 2,3 km/h (1 Bft) W-NW 289 ° 0 min 0,000 mm 0,0 UV-I 0 W/m² 4,1 °C 6,4 °C 3,2 km/h (1 Bft)
13.04.2017 21:15 6,6 °C 6,6 °C 85 % 1013,9 hPa 0,0 mm 3,3 km/h (1 Bft) W-NW 289 ° 0 min 0,000 mm 0,0 UV-I 0 W/m² 4,3 °C 6,6 °C 4,8 km/h (1 Bft)
13.04.2017 21:16 6,7 °C 6,7 °C 84 % 1013,9 hPa 0,0 mm 2,5 km/h (1 Bft) W-NW 289 ° 0 min 0,000 mm 0,0 UV-I 0 W/m² 4,2 °C 6,7 °C 4,8 km/h (1 Bft)
13.04.2017 21:17 6,7 °C 6,7 °C 84 % 1013,9 hPa 0,0 mm 2,0 km/h (1 Bft) W-NW 289 ° 0 min 0,000 mm 0,0 UV-I 0 W/m² 4,2 °C 6,7 °C 3,2 km/h (1 Bft)
13.04.2017 21:18 6,8 °C 6,8 °C 84 % 1013,9 hPa 0,0 mm 1,2 km/h (1 Bft) W-NW 289 ° 0 min 0,000 mm 0,0 UV-I 0 W/m² 4,3 °C 6,8 °C 3,2 km/h (1 Bft)
13.04.2017 21:19 6,8 °C 6,8 °C 83 % 1013,8 hPa 0,0 mm 0,1 km/h (0 Bft) W-NW 289 ° 0 min 0,000 mm 0,0 UV-I 0 W/m² 4,1 °C 6,8 °C 1,6 km/h (1 Bft)
13.04.2017 21:20 6,5 °C 6,8 °C 81 % 1013,8 hPa 0,0 mm 0,0 km/h (0 Bft) W-NW 289 ° 0 min 0,000 mm 0,0 UV-I 0 W/m² 3,5 °C 6,5 °C 0,0 km/h (0 Bft)
13.04.2017 21:21 6,3 °C 6,5 °C 81 % 1013,7 hPa 0,0 mm 0,0 km/h (0 Bft) W-NW 289 ° 0 min 0,000 mm 0,0 UV-I 0 W/m² 3,3 °C 6,3 °C 0,0 km/h (0 Bft)
13.04.2017 21:22 6,1 °C 6,3 °C 83 % 1013,8 hPa 0,0 mm 0,0 km/h (0 Bft) W-NW 289 ° 0 min 0,000 mm 0,0 UV-I 0 W/m² 3,4 °C 6,1 °C 0,0 km/h (0 Bft)
13.04.2017 21:23 6,0 °C 6,1 °C 84 % 1013,9 hPa 0,0 mm 0,5 km/h (0 Bft) W-NW 289 ° 0 min 0,000 mm 0,0 UV-I 0 W/m² 3,5 °C 6,0 °C 3,2 km/h (1 Bft)
13.04.2017 21:24 6,1 °C 6,1 °C 85 % 1013,9 hPa 0,0 mm 2,4 km/h (1 Bft) W-NW 289 ° 0 min 0,000 mm 0,0 UV-I 0 W/m² 3,8 °C 6,1 °C 3,2 km/h (1 Bft)
13.04.2017 21:25 6,1 °C 6,1 °C 85 % 1013,9 hPa 0,0 mm 4,1 km/h (1 Bft) W-NW 289 ° 0 min 0,000 mm 0,0 UV-I 0 W/m² 3,8 °C 6,1 °C 4,8 km/h (1 Bft)
13.04.2017 21:26 6,1 °C 6,2 °C 85 % 1013,8 hPa 0,0 mm 2,7 km/h (1 Bft) W-NW 289 ° 0 min 0,000 mm 0,0 UV-I 0 W/m² 3,8 °C 6,1 °C 4,8 km/h (1 Bft)
13.04.2017 21:27 6,1 °C 6,2 °C 84 % 1013,8 hPa 0,0 mm 0,0 km/h (0 Bft) W-NW 289 ° 0 min 0,000 mm 0,0 UV-I 0 W/m² 3,6 °C 6,1 °C 0,0 km/h (0 Bft)
13.04.2017 21:28 5,9 °C 6,1 °C 83 % 1013,8 hPa 0,0 mm 0,0 km/h (0 Bft) W-NW 289 ° 0 min 0,000 mm 0,0 UV-I 0 W/m² 3,2 °C 5,9 °C 0,0 km/h (0 Bft)
13.04.2017 21:29 5,6 °C 5,9 °C 83 % 1013,8 hPa 0,0 mm 0,0 km/h (0 Bft) W-NW 289 ° 0 min 0,000 mm 0,0 UV-I 0 W/m² 2,9 °C 5,6 °C 0,0 km/h (0 Bft)
13.04.2017 21:30 5,4 °C 5,6 °C 83 % 1013,8 hPa 0,0 mm 0,0 km/h (0 Bft) W-NW 289 ° 0 min 0,000 mm 0,0 UV-I 0 W/m² 2,7 °C 5,4 °C 0,0 km/h (0 Bft)
13.04.2017 21:31 5,2 °C 5,4 °C 84 % 1013,8 hPa 0,0 mm 0,0 km/h (0 Bft) W-NW 289 ° 0 min 0,000 mm 0,0 UV-I 0 W/m² 2,7 °C 5,2 °C 0,0 km/h (0 Bft)
13.04.2017 21:32 5,2 °C 5,2 °C 85 % 1013,9 hPa 0,0 mm 0,0 km/h (0 Bft) W-NW 289 ° 0 min 0,000 mm 0,0 UV-I 0 W/m² 2,9 °C 5,2 °C 0,0 km/h (0 Bft)
13.04.2017 21:33 5,1 °C 5,2 °C 86 % 1013,8 hPa 0,0 mm 0,0 km/h (0 Bft) W-NW 289 ° 0 min 0,000 mm 0,0 UV-I 0 W/m² 3,0 °C 5,1 °C 0,0 km/h (0 Bft)
13.04.2017 21:34 5,0 °C 5,1 °C 86 % 1013,9 hPa 0,0 mm 0,0 km/h (0 Bft) W-NW 289 ° 0 min 0,000 mm 0,0 UV-I 0 W/m² 2,9 °C 5,0 °C 0,0 km/h (0 Bft)
13.04.2017 21:35 4,9 °C 5,0 °C 87 % 1013,9 hPa 0,0 mm 0,0 km/h (0 Bft) W-NW 289 ° 0 min 0,000 mm 0,0 UV-I 0 W/m² 2,9 °C 4,9 °C 0,0 km/h (0 Bft)
13.04.2017 21:36 5,0 °C 5,0 °C 87 % 1013,9 hPa 0,0 mm 0,0 km/h (0 Bft) W-NW 289 ° 0 min 0,000 mm 0,0 UV-I 0 W/m² 3,0 °C 5,0 °C 0,0 km/h (0 Bft)
13.04.2017 21:37 5,0 °C 5,0 °C 87 % 1013,9 hPa 0,0 mm 0,0 km/h (0 Bft) W-NW 289 ° 0 min 0,000 mm 0,0 UV-I 0 W/m² 3,0 °C 5,0 °C 0,0 km/h (0 Bft)
13.04.2017 21:38 5,1 °C 5,1 °C 87 % 1013,9 hPa 0,0 mm 0,0 km/h (0 Bft) W-NW 289 ° 0 min 0,000 mm 0,0 UV-I 0 W/m² 3,1 °C 5,1 °C 0,0 km/h (0 Bft)
13.04.2017 21:39 5,2 °C 5,2 °C 87 % 1014,0 hPa 0,0 mm 0,2 km/h (0 Bft) W-NW 289 ° 0 min 0,000 mm 0,0 UV-I 0 W/m² 3,2 °C 5,2 °C 1,6 km/h (1 Bft)
13.04.2017 21:40 5,4 °C 5,4 °C 87 % 1013,9 hPa 0,0 mm 0,6 km/h (0 Bft) W-NW 289 ° 0 min 0,000 mm 0,0 UV-I 0 W/m² 3,4 °C 5,4 °C 1,6 km/h (1 Bft)
13.04.2017 21:41 5,6 °C 5,6 °C 87 % 1013,9 hPa 0,0 mm 1,8 km/h (1 Bft) W-NW 289 ° 0 min 0,000 mm 0,0 UV-I 0 W/m² 3,6 °C 5,6 °C 3,2 km/h (1 Bft)
13.04.2017 21:42 5,7 °C 5,7 °C 87 % 1013,9 hPa 0,0 mm 1,9 km/h (1 Bft) W-NW 289 ° 0 min 0,000 mm 0,0 UV-I 0 W/m² 3,7 °C 5,7 °C 3,2 km/h (1 Bft)
13.04.2017 21:43 5,8 °C 5,8 °C 87 % 1013,9 hPa 0,0 mm 2,4 km/h (1 Bft) W-NW 289 ° 0 min 0,000 mm 0,0 UV-I 0 W/m² 3,8 °C 5,8 °C 3,2 km/h (1 Bft)
13.04.2017 21:44 5,9 °C 5,9 °C 86 % 1013,9 hPa 0,0 mm 3,3 km/h (1 Bft) W-NW 289 ° 0 min 0,000 mm 0,0 UV-I 0 W/m² 3,7 °C 5,9 °C 4,8 km/h (1 Bft)
13.04.2017 21:45 6,1 °C 6,1 °C 86 % 1013,9 hPa 0,0 mm 3,4 km/h (1 Bft) W-NW 289 ° 0 min 0,000 mm 0,0 UV-I 0 W/m² 3,9 °C 6,1 °C 4,8 km/h (1 Bft)
13.04.2017 21:46 6,1 °C 6,1 °C 85 % 1013,9 hPa 0,0 mm 0,8 km/h (0 Bft) W-NW 289 ° 0 min 0,000 mm 0,0 UV-I 0 W/m² 3,8 °C 6,1 °C 3,2 km/h (1 Bft)
13.04.2017 21:47 5,9 °C 6,1 °C 84 % 1013,9 hPa 0,0 mm 3,0 km/h (1 Bft) O-NO 57 ° 0 min 0,000 mm 0,0 UV-I 0 W/m² 3,4 °C 5,9 °C 6,4 km/h (2 Bft)
13.04.2017 21:48 5,7 °C 5,9 °C 83 % 1014,0 hPa 0,0 mm 4,0 km/h (1 Bft) O-NO 66 ° 0 min 0,000 mm 0,0 UV-I 0 W/m² 3,0 °C 5,7 °C 6,4 km/h (2 Bft)
13.04.2017 21:49 5,5 °C 5,7 °C 83 % 1013,9 hPa 0,0 mm 2,4 km/h (1 Bft) O-NO 66 ° 0 min 0,000 mm 0,0 UV-I 0 W/m² 2,8 °C 5,5 °C 4,8 km/h (1 Bft)
13.04.2017 21:50 5,3 °C 5,5 °C 84 % 1014,0 hPa 0,0 mm 1,1 km/h (1 Bft) O-NO 66 ° 0 min 0,000 mm 0,0 UV-I 0 W/m² 2,8 °C 5,3 °C 1,6 km/h (1 Bft)
13.04.2017 21:51 5,2 °C 5,3 °C 85 % 1014,0 hPa 0,0 mm 0,0 km/h (0 Bft) O-NO 66 ° 0 min 0,000 mm 0,0 UV-I 0 W/m² 2,9 °C 5,2 °C 0,0 km/h (0 Bft)
13.04.2017 21:52 5,2 °C 5,2 °C 86 % 1014,0 hPa 0,0 mm 0,0 km/h (0 Bft) O-NO 66 ° 0 min 0,000 mm 0,0 UV-I 0 W/m² 3,1 °C 5,2 °C 0,0 km/h (0 Bft)
13.04.2017 21:53 5,1 °C 5,2 °C 86 % 1014,0 hPa 0,0 mm 0,0 km/h (0 Bft) O-NO 66 ° 0 min 0,000 mm 0,0 UV-I 0 W/m² 3,0 °C 5,1 °C 0,0 km/h (0 Bft)
13.04.2017 21:54 5,1 °C 5,2 °C 86 % 1014,0 hPa 0,0 mm 0,0 km/h (0 Bft) O-NO 66 ° 0 min 0,000 mm 0,0 UV-I 0 W/m² 3,0 °C 5,1 °C 0,0 km/h (0 Bft)
13.04.2017 21:55 5,0 °C 5,1 °C 86 % 1014,0 hPa 0,0 mm 0,0 km/h (0 Bft) O-NO 66 ° 0 min 0,000 mm 0,0 UV-I 0 W/m² 2,9 °C 5,0 °C 0,0 km/h (0 Bft)
13.04.2017 21:56 4,9 °C 5,0 °C 87 % 1014,0 hPa 0,0 mm 0,0 km/h (0 Bft) O-NO 65 ° 0 min 0,000 mm 0,0 UV-I 0 W/m² 2,9 °C 4,9 °C 0,0 km/h (0 Bft)
13.04.2017 21:57 4,8 °C 4,9 °C 87 % 1014,0 hPa 0,0 mm 0,0 km/h (0 Bft) O-NO 65 ° 0 min 0,000 mm 0,0 UV-I 0 W/m² 2,8 °C 4,8 °C 0,0 km/h (0 Bft)
13.04.2017 21:58 4,8 °C 4,8 °C 88 % 1014,0 hPa 0,0 mm 0,0 km/h (0 Bft) O-NO 65 ° 0 min 0,000 mm 0,0 UV-I 0 W/m² 3,0 °C 4,8 °C 0,0 km/h (0 Bft)
13.04.2017 21:59 4,9 °C 4,9 °C 88 % 1013,9 hPa 0,0 mm 0,0 km/h (0 Bft) O-NO 65 ° 0 min 0,000 mm 0,0 UV-I 0 W/m² 3,1 °C 4,9 °C 0,0 km/h (0 Bft)
13.04.2017 22:00 4,9 °C 4,9 °C 88 % 1013,9 hPa 0,0 mm 0,0 km/h (0 Bft) O-NO 65 ° 0 min 0,000 mm 0,0 UV-I 0 W/m² 3,1 °C 4,9 °C 0,0 km/h (0 Bft)
13.04.2017 22:01 4,9 °C 4,9 °C 87 % 1013,9 hPa 0,0 mm 0,0 km/h (0 Bft) O-NO 65 ° 0 min 0,000 mm 0,0 UV-I 0 W/m² 2,9 °C 4,9 °C 0,0 km/h (0 Bft)
13.04.2017 22:02 5,0 °C 5,0 °C 88 % 1013,9 hPa 0,0 mm 0,1 km/h (0 Bft) O-NO 65 ° 0 min 0,000 mm 0,0 UV-I 0 W/m² 3,2 °C 5,0 °C 1,6 km/h (1 Bft)
13.04.2017 22:03 5,1 °C 5,1 °C 89 % 1014,0 hPa 0,0 mm 1,6 km/h (1 Bft) O 95 ° 0 min 0,000 mm 0,0 UV-I 0 W/m² 3,4 °C 5,1 °C 3,2 km/h (1 Bft)
13.04.2017 22:04 5,2 °C 5,2 °C 88 % 1013,9 hPa 0,0 mm 0,0 km/h (0 Bft) O 95 ° 0 min 0,000 mm 0,0 UV-I 0 W/m² 3,4 °C 5,2 °C 0,0 km/h (0 Bft)
13.04.2017 22:05 5,3 °C 5,3 °C 88 % 1013,9 hPa 0,0 mm 0,0 km/h (0 Bft) O 95 ° 0 min 0,000 mm 0,0 UV-I 0 W/m² 3,5 °C 5,3 °C 0,0 km/h (0 Bft)
13.04.2017 22:06 5,3 °C 5,3 °C 87 % 1013,9 hPa 0,0 mm 0,0 km/h (0 Bft) O 95 ° 0 min 0,000 mm 0,0 UV-I 0 W/m² 3,3 °C 5,3 °C 0,0 km/h (0 Bft)
13.04.2017 22:07 5,2 °C 5,3 °C 87 % 1014,0 hPa 0,0 mm 0,0 km/h (0 Bft) O 95 ° 0 min 0,000 mm 0,0 UV-I 0 W/m² 3,2 °C 5,2 °C 0,0 km/h (0 Bft)
13.04.2017 22:08 5,1 °C 5,2 °C 86 % 1014,0 hPa 0,0 mm 0,0 km/h (0 Bft) O 95 ° 0 min 0,000 mm 0,0 UV-I 0 W/m² 3,0 °C 5,1 °C 0,0 km/h (0 Bft)
13.04.2017 22:09 4,9 °C 5,1 °C 87 % 1013,9 hPa 0,0 mm 0,0 km/h (0 Bft) O 95 ° 0 min 0,000 mm 0,0 UV-I 0 W/m² 2,9 °C 4,9 °C 0,0 km/h (0 Bft)
13.04.2017 22:10 4,9 °C 4,9 °C 87 % 1013,9 hPa 0,0 mm 0,0 km/h (0 Bft) O 95 ° 0 min 0,000 mm 0,0 UV-I 0 W/m² 2,9 °C 4,9 °C 0,0 km/h (0 Bft)
13.04.2017 22:11 4,9 °C 4,9 °C 88 % 1013,9 hPa 0,0 mm 1,9 km/h (1 Bft) O 95 ° 0 min 0,000 mm 0,0 UV-I 0 W/m² 3,1 °C 4,9 °C 3,2 km/h (1 Bft)
13.04.2017 22:12 5,0 °C 5,0 °C 89 % 1014,0 hPa 0,0 mm 2,4 km/h (1 Bft) O 95 ° 0 min 0,000 mm 0,0 UV-I 0 W/m² 3,3 °C 5,0 °C 3,2 km/h (1 Bft)
13.04.2017 22:13 5,1 °C 5,1 °C 89 % 1013,9 hPa 0,0 mm 0,9 km/h (0 Bft) O 95 ° 0 min 0,000 mm 0,0 UV-I 0 W/m² 3,4 °C 5,1 °C 3,2 km/h (1 Bft)
13.04.2017 22:14 4,9 °C 5,1 °C 87 % 1013,9 hPa 0,0 mm 0,0 km/h (0 Bft) O 95 ° 0 min 0,000 mm 0,0 UV-I 0 W/m² 2,9 °C 4,9 °C 0,0 km/h (0 Bft)
13.04.2017 22:15 4,9 °C 4,9 °C 87 % 1013,9 hPa 0,0 mm 0,0 km/h (0 Bft) O 95 ° 0 min 0,000 mm 0,0 UV-I 0 W/m² 2,9 °C 4,9 °C 0,0 km/h (0 Bft)
13.04.2017 22:16 4,8 °C 4,9 °C 87 % 1014,0 hPa 0,0 mm 0,0 km/h (0 Bft) O 95 ° 0 min 0,000 mm 0,0 UV-I 0 W/m² 2,8 °C 4,8 °C 0,0 km/h (0 Bft)
13.04.2017 22:17 4,8 °C 4,8 °C 88 % 1014,0 hPa 0,0 mm 0,0 km/h (0 Bft) O 95 ° 0 min 0,000 mm 0,0 UV-I 0 W/m² 3,0 °C 4,8 °C 0,0 km/h (0 Bft)
13.04.2017 22:18 4,9 °C 4,9 °C 88 % 1014,0 hPa 0,0 mm 0,5 km/h (0 Bft) O 95 ° 0 min 0,000 mm 0,0 UV-I 0 W/m² 3,1 °C 4,9 °C 1,6 km/h (1 Bft)
13.04.2017 22:19 4,9 °C 4,9 °C 88 % 1014,0 hPa 0,0 mm 1,5 km/h (1 Bft) O 98 ° 0 min 0,000 mm 0,0 UV-I 0 W/m² 3,1 °C 4,9 °C 3,2 km/h (1 Bft)
13.04.2017 22:20 5,1 °C 5,1 °C 88 % 1013,9 hPa 0,0 mm 3,2 km/h (1 Bft) S-SO 149 ° 0 min 0,000 mm 0,0 UV-I 0 W/m² 3,3 °C 5,1 °C 4,8 km/h (1 Bft)
13.04.2017 22:21 5,1 °C 5,1 °C 88 % 1014,0 hPa 0,0 mm 2,4 km/h (1 Bft) S-SO 149 ° 0 min 0,000 mm 0,0 UV-I 0 W/m² 3,3 °C 5,1 °C 3,2 km/h (1 Bft)
13.04.2017 22:22 5,2 °C 5,2 °C 88 % 1013,9 hPa 0,0 mm 1,3 km/h (1 Bft) S-SO 149 ° 0 min 0,000 mm 0,0 UV-I 0 W/m² 3,4 °C 5,2 °C 3,2 km/h (1 Bft)
13.04.2017 22:23 5,1 °C 5,2 °C 86 % 1014,0 hPa 0,0 mm 0,0 km/h (0 Bft) S-SO 149 ° 0 min 0,000 mm 0,0 UV-I 0 W/m² 3,0 °C 5,1 °C 0,0 km/h (0 Bft)
13.04.2017 22:24 4,9 °C 5,1 °C 86 % 1014,0 hPa 0,0 mm 0,0 km/h (0 Bft) S-SO 149 ° 0 min 0,000 mm 0,0 UV-I 0 W/m² 2,8 °C 4,9 °C 0,0 km/h (0 Bft)
13.04.2017 22:25 4,9 °C 4,9 °C 87 % 1013,9 hPa 0,0 mm 0,6 km/h (0 Bft) S-SO 149 ° 0 min 0,000 mm 0,0 UV-I 0 W/m² 2,9 °C 4,9 °C 3,2 km/h (1 Bft)
13.04.2017 22:26 4,9 °C 4,9 °C 88 % 1014,0 hPa 0,0 mm 2,4 km/h (1 Bft) S-SO 149 ° 0 min 0,000 mm 0,0 UV-I 0 W/m² 3,1 °C 4,9 °C 3,2 km/h (1 Bft)
13.04.2017 22:27 5,0 °C 5,0 °C 88 % 1013,9 hPa 0,0 mm 2,8 km/h (1 Bft) S-SO 149 ° 0 min 0,000 mm 0,0 UV-I 0 W/m² 3,2 °C 5,0 °C 3,2 km/h (1 Bft)
13.04.2017 22:28 5,2 °C 5,2 °C 89 % 1013,9 hPa 0,0 mm 3,1 km/h (1 Bft) S-SO 149 ° 0 min 0,000 mm 0,0 UV-I 0 W/m² 3,5 °C 5,2 °C 4,8 km/h (1 Bft)
13.04.2017 22:29 5,3 °C 5,3 °C 88 % 1014,0 hPa 0,0 mm 1,9 km/h (1 Bft) S-SO 149 ° 0 min 0,000 mm 0,0 UV-I 0 W/m² 3,5 °C 5,3 °C 3,2 km/h (1 Bft)
13.04.2017 22:30 5,4 °C 5,4 °C 88 % 1014,0 hPa 0,0 mm 1,7 km/h (1 Bft) S-SO 149 ° 0 min 0,000 mm 0,0 UV-I 0 W/m² 3,6 °C 5,4 °C 3,2 km/h (1 Bft)
13.04.2017 22:31 5,4 °C 5,4 °C 88 % 1014,0 hPa 0,0 mm 1,2 km/h (1 Bft) S-SO 149 ° 0 min 0,000 mm 0,0 UV-I 0 W/m² 3,6 °C 5,4 °C 1,6 km/h (1 Bft)
13.04.2017 22:32 5,4 °C 5,4 °C 87 % 1014,0 hPa 0,0 mm 0,2 km/h (0 Bft) S-SO 149 ° 0 min 0,000 mm 0,0 UV-I 0 W/m² 3,4 °C 5,4 °C 1,6 km/h (1 Bft)
13.04.2017 22:33 5,5 °C 5,5 °C 87 % 1014,0 hPa 0,0 mm 0,4 km/h (0 Bft) S-SO 149 ° 0 min 0,000 mm 0,0 UV-I 0 W/m² 3,5 °C 5,5 °C 1,6 km/h (1 Bft)
13.04.2017 22:34 5,3 °C 5,5 °C 85 % 1014,0 hPa 0,0 mm 0,0 km/h (0 Bft) S-SO 149 ° 0 min 0,000 mm 0,0 UV-I 0 W/m² 3,0 °C 5,3 °C 0,0 km/h (0 Bft)
13.04.2017 22:35 5,1 °C 5,3 °C 85 % 1014,1 hPa 0,0 mm 0,0 km/h (0 Bft) S-SO 149 ° 0 min 0,000 mm 0,0 UV-I 0 W/m² 2,8 °C 5,1 °C 0,0 km/h (0 Bft)
13.04.2017 22:36 4,8 °C 5,1 °C 85 % 1014,1 hPa 0,0 mm 0,0 km/h (0 Bft) S-SO 149 ° 0 min 0,000 mm 0,0 UV-I 0 W/m² 2,5 °C 4,8 °C 0,0 km/h (0 Bft)
13.04.2017 22:37 4,7 °C 4,8 °C 86 % 1014,1 hPa 0,0 mm 0,0 km/h (0 Bft) S-SO 149 ° 0 min 0,000 mm 0,0 UV-I 0 W/m² 2,6 °C 4,7 °C 0,0 km/h (0 Bft)
13.04.2017 22:38 4,5 °C 4,7 °C 86 % 1014,1 hPa 0,0 mm 0,0 km/h (0 Bft) S-SO 149 ° 0 min 0,000 mm 0,0 UV-I 0 W/m² 2,4 °C 4,5 °C 0,0 km/h (0 Bft)
13.04.2017 22:39 4,6 °C 4,6 °C 89 % 1014,2 hPa 0,0 mm 0,0 km/h (0 Bft) S-SO 149 ° 0 min 0,000 mm 0,0 UV-I 0 W/m² 2,9 °C 4,6 °C 0,0 km/h (0 Bft)
13.04.2017 22:40 4,7 °C 4,7 °C 89 % 1014,1 hPa 0,0 mm 0,7 km/h (0 Bft) S-SO 149 ° 0 min 0,000 mm 0,0 UV-I 0 W/m² 3,0 °C 4,7 °C 3,2 km/h (1 Bft)
13.04.2017 22:41 4,9 °C 4,9 °C 89 % 1014,2 hPa 0,0 mm 0,4 km/h (0 Bft) S-SO 149 ° 0 min 0,000 mm 0,0 UV-I 0 W/m² 3,2 °C 4,9 °C 1,6 km/h (1 Bft)
13.04.2017 22:42 5,2 °C 5,2 °C 89 % 1014,2 hPa 0,0 mm 1,2 km/h (1 Bft) S-SO 149 ° 0 min 0,000 mm 0,0 UV-I 0 W/m² 3,5 °C 5,2 °C 3,2 km/h (1 Bft)
13.04.2017 22:43 5,3 °C 5,3 °C 88 % 1014,2 hPa 0,0 mm 0,9 km/h (0 Bft) S-SO 149 ° 0 min 0,000 mm 0,0 UV-I 0 W/m² 3,5 °C 5,3 °C 3,2 km/h (1 Bft)
13.04.2017 22:44 5,3 °C 5,3 °C 88 % 1014,1 hPa 0,0 mm 0,2 km/h (0 Bft) S-SO 149 ° 0 min 0,000 mm 0,0 UV-I 0 W/m² 3,5 °C 5,3 °C 1,6 km/h (1 Bft)
13.04.2017 22:45 5,2 °C 5,3 °C 88 % 1014,1 hPa 0,0 mm 0,1 km/h (0 Bft) S-SO 149 ° 0 min 0,000 mm 0,0 UV-I 0 W/m² 3,4 °C 5,2 °C 1,6 km/h (1 Bft)
13.04.2017 22:46 5,1 °C 5,2 °C 88 % 1014,1 hPa 0,0 mm 1,3 km/h (1 Bft) S-SO 149 ° 0 min 0,000 mm 0,0 UV-I 0 W/m² 3,3 °C 5,1 °C 1,6 km/h (1 Bft)
13.04.2017 22:47 5,1 °C 5,1 °C 88 % 1014,1 hPa 0,0 mm 0,5 km/h (0 Bft) S-SO 149 ° 0 min 0,000 mm 0,0 UV-I 0 W/m² 3,3 °C 5,1 °C 3,2 km/h (1 Bft)
13.04.2017 22:48 5,1 °C 5,1 °C 89 % 1014,1 hPa 0,0 mm 1,1 km/h (1 Bft) S-SO 149 ° 0 min 0,000 mm 0,0 UV-I 0 W/m² 3,4 °C 5,1 °C 3,2 km/h (1 Bft)
13.04.2017 22:49 5,1 °C 5,1 °C 89 % 1014,1 hPa 0,0 mm 1,1 km/h (1 Bft) S-SO 149 ° 0 min 0,000 mm 0,0 UV-I 0 W/m² 3,4 °C 5,1 °C 1,6 km/h (1 Bft)
13.04.2017 22:50 5,2 °C 5,2 °C 88 % 1014,1 hPa 0,0 mm 0,6 km/h (0 Bft) S-SO 149 ° 0 min 0,000 mm 0,0 UV-I 0 W/m² 3,4 °C 5,2 °C 1,6 km/h (1 Bft)
13.04.2017 22:51 5,2 °C 5,2 °C 88 % 1014,1 hPa 0,0 mm 1,1 km/h (1 Bft) S-SO 149 ° 0 min 0,000 mm 0,0 UV-I 0 W/m² 3,4 °C 5,2 °C 3,2 km/h (1 Bft)
13.04.2017 22:52 5,2 °C 5,2 °C 88 % 1014,1 hPa 0,0 mm 2,0 km/h (1 Bft) S-SO 149 ° 0 min 0,000 mm 0,0 UV-I 0 W/m² 3,4 °C 5,2 °C 3,2 km/h (1 Bft)
13.04.2017 22:53 5,2 °C 5,3 °C 88 % 1014,1 hPa 0,0 mm 1,0 km/h (0 Bft) S-SO 149 ° 0 min 0,000 mm 0,0 UV-I 0 W/m² 3,4 °C 5,2 °C 1,6 km/h (1 Bft)
13.04.2017 22:54 5,2 °C 5,3 °C 88 % 1014,1 hPa 0,0 mm 0,0 km/h (0 Bft) S-SO 149 ° 0 min 0,000 mm 0,0 UV-I 0 W/m² 3,4 °C 5,2 °C 0,0 km/h (0 Bft)
13.04.2017 22:55 5,1 °C 5,2 °C 87 % 1014,1 hPa 0,0 mm 3,0 km/h (1 Bft) O 81 ° 0 min 0,000 mm 0,0 UV-I 0 W/m² 3,1 °C 5,1 °C 4,8 km/h (1 Bft)
13.04.2017 22:56 5,1 °C 5,1 °C 87 % 1014,2 hPa 0,0 mm 4,2 km/h (1 Bft) O-NO 62 ° 0 min 0,000 mm 0,0 UV-I 0 W/m² 3,1 °C 5,1 °C 6,4 km/h (2 Bft)
13.04.2017 22:57 4,9 °C 5,1 °C 87 % 1014,2 hPa 0,0 mm 2,8 km/h (1 Bft) O-NO 62 ° 0 min 0,000 mm 0,0 UV-I 0 W/m² 2,9 °C 4,9 °C 4,8 km/h (1 Bft)
13.04.2017 22:58 4,8 °C 4,9 °C 87 % 1014,2 hPa 0,0 mm 2,5 km/h (1 Bft) O-NO 62 ° 0 min 0,000 mm 0,0 UV-I 0 W/m² 2,8 °C 4,8 °C 4,8 km/h (1 Bft)
13.04.2017 22:59 4,8 °C 4,8 °C 88 % 1014,2 hPa 0,0 mm 2,0 km/h (1 Bft) O-NO 62 ° 0 min 0,000 mm 0,0 UV-I 0 W/m² 3,0 °C 4,8 °C 3,2 km/h (1 Bft)
13.04.2017 23:00 4,8 °C 4,8 °C 88 % 1014,2 hPa 0,0 mm 1,5 km/h (1 Bft) O-NO 62 ° 0 min 0,000 mm 0,0 UV-I 0 W/m² 3,0 °C 4,8 °C 1,6 km/h (1 Bft)
13.04.2017 23:01 4,8 °C 4,8 °C 89 % 1014,2 hPa 0,0 mm 3,0 km/h (1 Bft) S-SO 167 ° 0 min 0,000 mm 0,0 UV-I 0 W/m² 3,1 °C 4,8 °C 6,4 km/h (2 Bft)
13.04.2017 23:02 4,8 °C 4,8 °C 89 % 1014,2 hPa 0,0 mm 4,2 km/h (1 Bft) S-SO 167 ° 0 min 0,000 mm 0,0 UV-I 0 W/m² 3,1 °C 4,8 °C 6,4 km/h (2 Bft)
13.04.2017 23:03 4,8 °C 4,8 °C 89 % 1014,2 hPa 0,0 mm 3,6 km/h (1 Bft) S-SO 167 ° 0 min 0,000 mm 0,0 UV-I 0 W/m² 3,1 °C 4,8 °C 4,8 km/h (1 Bft)
13.04.2017 23:04 4,8 °C 4,8 °C 89 % 1014,2 hPa 0,0 mm 2,5 km/h (1 Bft) S-SO 167 ° 0 min 0,000 mm 0,0 UV-I 0 W/m² 3,1 °C 4,8 °C 4,8 km/h (1 Bft)
13.04.2017 23:05 4,8 °C 4,8 °C 89 % 1014,3 hPa 0,0 mm 0,1 km/h (0 Bft) S-SO 167 ° 0 min 0,000 mm 0,0 UV-I 0 W/m² 3,1 °C 4,8 °C 1,6 km/h (1 Bft)
13.04.2017 23:06 4,8 °C 4,8 °C 89 % 1014,2 hPa 0,0 mm 0,9 km/h (0 Bft) S-SO 167 ° 0 min 0,000 mm 0,0 UV-I 0 W/m² 3,1 °C 4,8 °C 4,8 km/h (1 Bft)
13.04.2017 23:07 4,7 °C 4,8 °C 88 % 1014,3 hPa 0,0 mm 1,1 km/h (1 Bft) S-SO 167 ° 0 min 0,000 mm 0,0 UV-I 0 W/m² 2,9 °C 4,7 °C 1,6 km/h (1 Bft)
13.04.2017 23:08 4,7 °C 4,7 °C 89 % 1014,2 hPa 0,0 mm 0,1 km/h (0 Bft) S-SO 167 ° 0 min 0,000 mm 0,0 UV-I 0 W/m² 3,0 °C 4,7 °C 1,6 km/h (1 Bft)
13.04.2017 23:09 4,7 °C 4,7 °C 89 % 1014,2 hPa 0,0 mm 0,3 km/h (0 Bft) S-SO 167 ° 0 min 0,000 mm 0,0 UV-I 0 W/m² 3,0 °C 4,7 °C 1,6 km/h (1 Bft)
13.04.2017 23:10 4,7 °C 4,8 °C 88 % 1014,2 hPa 0,0 mm 1,1 km/h (1 Bft) S-SO 167 ° 0 min 0,000 mm 0,0 UV-I 0 W/m² 2,9 °C 4,7 °C 4,8 km/h (1 Bft)
13.04.2017 23:11 4,8 °C 4,8 °C 88 % 1014,2 hPa 0,0 mm 0,0 km/h (0 Bft) S-SO 167 ° 0 min 0,000 mm 0,0 UV-I 0 W/m² 3,0 °C 4,8 °C 0,0 km/h (0 Bft)
13.04.2017 23:12 4,7 °C 4,8 °C 87 % 1014,2 hPa 0,0 mm 0,0 km/h (0 Bft) S-SO 167 ° 0 min 0,000 mm 0,0 UV-I 0 W/m² 2,7 °C 4,7 °C 0,0 km/h (0 Bft)
13.04.2017 23:14 4,7 °C 4,7 °C 88 % 1014,3 hPa 0,0 mm 0,0 km/h (0 Bft) S-SO 167 ° 0 min 0,000 mm 0,0 UV-I 0 W/m² 2,9 °C 4,7 °C 0,0 km/h (0 Bft)
13.04.2017 23:15 4,7 °C 4,8 °C 88 % 1014,3 hPa 0,0 mm 0,2 km/h (0 Bft) S-SO 167 ° 0 min 0,000 mm 0,0 UV-I 0 W/m² 2,9 °C 4,7 °C 1,6 km/h (1 Bft)
13.04.2017 23:16 4,8 °C 4,8 °C 88 % 1014,3 hPa 0,0 mm 0,0 km/h (0 Bft) S-SO 167 ° 0 min 0,000 mm 0,0 UV-I 0 W/m² 3,0 °C 4,8 °C 0,0 km/h (0 Bft)
13.04.2017 23:17 4,8 °C 4,8 °C 88 % 1014,2 hPa 0,0 mm 0,0 km/h (0 Bft) S-SO 167 ° 0 min 0,000 mm 0,0 UV-I 0 W/m² 3,0 °C 4,8 °C 0,0 km/h (0 Bft)
13.04.2017 23:18 4,7 °C 4,8 °C 87 % 1014,3 hPa 0,0 mm 0,0 km/h (0 Bft) S-SO 167 ° 0 min 0,000 mm 0,0 UV-I 0 W/m² 2,7 °C 4,7 °C 0,0 km/h (0 Bft)
13.04.2017 23:19 4,6 °C 4,7 °C 87 % 1014,3 hPa 0,0 mm 0,0 km/h (0 Bft) S-SO 167 ° 0 min 0,000 mm 0,0 UV-I 0 W/m² 2,6 °C 4,6 °C 0,0 km/h (0 Bft)
13.04.2017 23:20 4,4 °C 4,6 °C 87 % 1014,3 hPa 0,0 mm 0,0 km/h (0 Bft) S-SO 167 ° 0 min 0,000 mm 0,0 UV-I 0 W/m² 2,4 °C 4,4 °C 0,0 km/h (0 Bft)
13.04.2017 23:21 4,4 °C 4,4 °C 88 % 1014,3 hPa 0,0 mm 0,0 km/h (0 Bft) S-SO 167 ° 0 min 0,000 mm 0,0 UV-I 0 W/m² 2,6 °C 4,4 °C 0,0 km/h (0 Bft)
13.04.2017 23:22 4,3 °C 4,4 °C 88 % 1014,3 hPa 0,0 mm 0,0 km/h (0 Bft) S-SO 167 ° 0 min 0,000 mm 0,0 UV-I 0 W/m² 2,5 °C 4,3 °C 0,0 km/h (0 Bft)
13.04.2017 23:23 4,3 °C 4,3 °C 88 % 1014,3 hPa 0,0 mm 0,0 km/h (0 Bft) S-SO 167 ° 0 min 0,000 mm 0,0 UV-I 0 W/m² 2,5 °C 4,3 °C 0,0 km/h (0 Bft)
13.04.2017 23:24 4,2 °C 4,3 °C 87 % 1014,4 hPa 0,0 mm 0,0 km/h (0 Bft) S-SO 167 ° 0 min 0,000 mm 0,0 UV-I 0 W/m² 2,2 °C 4,2 °C 0,0 km/h (0 Bft)
13.04.2017 23:25 4,1 °C 4,2 °C 88 % 1014,4 hPa 0,0 mm 0,0 km/h (0 Bft) S-SO 167 ° 0 min 0,000 mm 0,0 UV-I 0 W/m² 2,3 °C 4,1 °C 0,0 km/h (0 Bft)
13.04.2017 23:26 4,1 °C 4,1 °C 89 % 1014,4 hPa 0,0 mm 0,0 km/h (0 Bft) S-SO 167 ° 0 min 0,000 mm 0,0 UV-I 0 W/m² 2,5 °C 4,1 °C 0,0 km/h (0 Bft)
13.04.2017 23:27 4,1 °C 4,1 °C 89 % 1014,3 hPa 0,0 mm 0,0 km/h (0 Bft) S-SO 167 ° 0 min 0,000 mm 0,0 UV-I 0 W/m² 2,5 °C 4,1 °C 0,0 km/h (0 Bft)
13.04.2017 23:28 4,0 °C 4,1 °C 89 % 1014,3 hPa 0,0 mm 0,0 km/h (0 Bft) S-SO 167 ° 0 min 0,000 mm 0,0 UV-I 0 W/m² 2,4 °C 4,0 °C 0,0 km/h (0 Bft)
13.04.2017 23:29 3,9 °C 4,0 °C 88 % 1014,4 hPa 0,0 mm 0,0 km/h (0 Bft) S-SO 167 ° 0 min 0,000 mm 0,0 UV-I 0 W/m² 2,1 °C 3,9 °C 0,0 km/h (0 Bft)
13.04.2017 23:30 3,9 °C 4,0 °C 88 % 1014,4 hPa 0,0 mm 0,0 km/h (0 Bft) S-SO 167 ° 0 min 0,000 mm 0,0 UV-I 0 W/m² 2,1 °C 3,9 °C 0,0 km/h (0 Bft)
13.04.2017 23:31 3,8 °C 3,9 °C 88 % 1014,3 hPa 0,0 mm 0,0 km/h (0 Bft) S-SO 167 ° 0 min 0,000 mm 0,0 UV-I 0 W/m² 2,0 °C 3,8 °C 0,0 km/h (0 Bft)
13.04.2017 23:32 3,7 °C 3,8 °C 88 % 1014,4 hPa 0,0 mm 0,8 km/h (0 Bft) S-SO 167 ° 0 min 0,000 mm 0,0 UV-I 0 W/m² 1,9 °C 3,7 °C 1,6 km/h (1 Bft)
13.04.2017 23:33 3,7 °C 3,7 °C 89 % 1014,4 hPa 0,0 mm 0,0 km/h (0 Bft) S-SO 167 ° 0 min 0,000 mm 0,0 UV-I 0 W/m² 2,1 °C 3,7 °C 0,0 km/h (0 Bft)
13.04.2017 23:34 3,7 °C 3,7 °C 89 % 1014,3 hPa 0,0 mm 0,0 km/h (0 Bft) S-SO 167 ° 0 min 0,000 mm 0,0 UV-I 0 W/m² 2,1 °C 3,7 °C 0,0 km/h (0 Bft)
13.04.2017 23:35 3,8 °C 3,8 °C 90 % 1014,4 hPa 0,0 mm 0,0 km/h (0 Bft) S-SO 167 ° 0 min 0,000 mm 0,0 UV-I 0 W/m² 2,3 °C 3,8 °C 0,0 km/h (0 Bft)
13.04.2017 23:36 3,7 °C 3,8 °C 89 % 1014,4 hPa 0,0 mm 0,0 km/h (0 Bft) S-SO 167 ° 0 min 0,000 mm 0,0 UV-I 0 W/m² 2,1 °C 3,7 °C 0,0 km/h (0 Bft)
13.04.2017 23:37 3,7 °C 3,8 °C 89 % 1014,4 hPa 0,0 mm 0,0 km/h (0 Bft) S-SO 167 ° 0 min 0,000 mm 0,0 UV-I 0 W/m² 2,1 °C 3,7 °C 0,0 km/h (0 Bft)
13.04.2017 23:38 3,8 °C 3,8 °C 90 % 1014,4 hPa 0,0 mm 0,0 km/h (0 Bft) S-SO 167 ° 0 min 0,000 mm 0,0 UV-I 0 W/m² 2,3 °C 3,8 °C 0,0 km/h (0 Bft)
13.04.2017 23:39 3,7 °C 3,8 °C 89 % 1014,4 hPa 0,0 mm 0,0 km/h (0 Bft) S-SO 167 ° 0 min 0,000 mm 0,0 UV-I 0 W/m² 2,1 °C 3,7 °C 0,0 km/h (0 Bft)
13.04.2017 23:40 3,7 °C 3,7 °C 89 % 1014,5 hPa 0,0 mm 0,0 km/h (0 Bft) S-SO 167 ° 0 min 0,000 mm 0,0 UV-I 0 W/m² 2,1 °C 3,7 °C 0,0 km/h (0 Bft)
13.04.2017 23:41 3,7 °C 3,7 °C 89 % 1014,5 hPa 0,0 mm 0,0 km/h (0 Bft) S-SO 167 ° 0 min 0,000 mm 0,0 UV-I 0 W/m² 2,1 °C 3,7 °C 0,0 km/h (0 Bft)
13.04.2017 23:42 3,7 °C 3,7 °C 89 % 1014,5 hPa 0,0 mm 0,0 km/h (0 Bft) S-SO 167 ° 0 min 0,000 mm 0,0 UV-I 0 W/m² 2,1 °C 3,7 °C 0,0 km/h (0 Bft)
13.04.2017 23:43 3,7 °C 3,7 °C 90 % 1014,4 hPa 0,0 mm 0,0 km/h (0 Bft) S-SO 167 ° 0 min 0,000 mm 0,0 UV-I 0 W/m² 2,2 °C 3,7 °C 0,0 km/h (0 Bft)
13.04.2017 23:44 3,7 °C 3,7 °C 90 % 1014,5 hPa 0,0 mm 0,0 km/h (0 Bft) S-SO 167 ° 0 min 0,000 mm 0,0 UV-I 0 W/m² 2,2 °C 3,7 °C 0,0 km/h (0 Bft)
13.04.2017 23:45 3,8 °C 3,8 °C 90 % 1014,5 hPa 0,0 mm 0,0 km/h (0 Bft) S-SO 167 ° 0 min 0,000 mm 0,0 UV-I 0 W/m² 2,3 °C 3,8 °C 0,0 km/h (0 Bft)
13.04.2017 23:46 3,8 °C 3,8 °C 90 % 1014,5 hPa 0,0 mm 0,0 km/h (0 Bft) S-SO 167 ° 0 min 0,000 mm 0,0 UV-I 0 W/m² 2,3 °C 3,8 °C 0,0 km/h (0 Bft)
13.04.2017 23:47 3,8 °C 3,8 °C 90 % 1014,4 hPa 0,0 mm 0,0 km/h (0 Bft) S-SO 167 ° 0 min 0,000 mm 0,0 UV-I 0 W/m² 2,3 °C 3,8 °C 0,0 km/h (0 Bft)
13.04.2017 23:48 3,9 °C 3,9 °C 90 % 1014,5 hPa 0,0 mm 0,0 km/h (0 Bft) S-SO 167 ° 0 min 0,000 mm 0,0 UV-I 0 W/m² 2,4 °C 3,9 °C 0,0 km/h (0 Bft)
13.04.2017 23:49 4,1 °C 4,1 °C 90 % 1014,5 hPa 0,0 mm 0,0 km/h (0 Bft) S-SO 167 ° 0 min 0,000 mm 0,0 UV-I 0 W/m² 2,6 °C 4,1 °C 0,0 km/h (0 Bft)
13.04.2017 23:50 4,2 °C 4,2 °C 91 % 1014,5 hPa 0,0 mm 0,0 km/h (0 Bft) S-SO 167 ° 0 min 0,000 mm 0,0 UV-I 0 W/m² 2,9 °C 4,2 °C 0,0 km/h (0 Bft)
13.04.2017 23:51 4,4 °C 4,4 °C 90 % 1014,5 hPa 0,0 mm 2,0 km/h (1 Bft) S-SO 167 ° 0 min 0,000 mm 0,0 UV-I 0 W/m² 2,9 °C 4,4 °C 6,4 km/h (2 Bft)
13.04.2017 23:52 4,5 °C 4,5 °C 90 % 1014,5 hPa 0,0 mm 0,3 km/h (0 Bft) S-SO 167 ° 0 min 0,000 mm 0,0 UV-I 0 W/m² 3,0 °C 4,5 °C 1,6 km/h (1 Bft)
13.04.2017 23:53 4,4 °C 4,5 °C 89 % 1014,5 hPa 0,0 mm 0,0 km/h (0 Bft) S-SO 167 ° 0 min 0,000 mm 0,0 UV-I 0 W/m² 2,7 °C 4,4 °C 0,0 km/h (0 Bft)
13.04.2017 23:54 4,3 °C 4,4 °C 88 % 1014,5 hPa 0,0 mm 0,0 km/h (0 Bft) S-SO 167 ° 0 min 0,000 mm 0,0 UV-I 0 W/m² 2,5 °C 4,3 °C 0,0 km/h (0 Bft)
13.04.2017 23:55 4,2 °C 4,3 °C 88 % 1014,5 hPa 0,0 mm 0,0 km/h (0 Bft) S-SO 167 ° 0 min 0,000 mm 0,0 UV-I 0 W/m² 2,4 °C 4,2 °C 0,0 km/h (0 Bft)
13.04.2017 23:56 4,2 °C 4,2 °C 88 % 1014,5 hPa 0,0 mm 0,0 km/h (0 Bft) S-SO 167 ° 0 min 0,000 mm 0,0 UV-I 0 W/m² 2,4 °C 4,2 °C 0,0 km/h (0 Bft)
13.04.2017 23:57 4,1 °C 4,2 °C 88 % 1014,6 hPa 0,0 mm 0,0 km/h (0 Bft) S-SO 167 ° 0 min 0,000 mm 0,0 UV-I 0 W/m² 2,3 °C 4,1 °C 0,0 km/h (0 Bft)
13.04.2017 23:58 4,1 °C 4,1 °C 88 % 1014,5 hPa 0,0 mm 0,0 km/h (0 Bft) S-SO 167 ° 0 min 0,000 mm 0,0 UV-I 0 W/m² 2,3 °C 4,1 °C 0,0 km/h (0 Bft)
13.04.2017 23:59 4,0 °C 4,1 °C 89 % 1014,5 hPa 0,0 mm 0,0 km/h (0 Bft) S-SO 167 ° 0 min 0,000 mm 0,0 UV-I 0 W/m² 2,4 °C 4,0 °C 0,0 km/h (0 Bft)
_ Min-Zeit 23:42 23:44 01:42 06:15 - 23:59 - - - - - - 01:42 23:44 23:59
Minimum _ 3,6 °C 3,7 °C 48 % 1011,5 hPa - 0,0 km/h (0 Bft) - - - - - - 1,2 °C 3,7 °C 0,0 km/h (0 Bft)
_ Max-Zeit 17:30 17:31 23:50 23:57 23:59 14:41 - - 17:01 15:01 14:52 14:56 17:18 17:30 14:41
Maximum _ 13,1 °C 13,1 °C 91 % 1014,6 hPa 0,0 mm 25,1 km/h
W-NW (4 Bft)
- - 1 min 0,254 mm 4,6 UV-I 826 W/m² 6,0 °C 13,1 °C 37,0 km/h
W (5 Bft)
Durchschnitt _ 10,1 °C 10,1 °C 66 % 1012,8 hPa #0,0 mm 10,6 km/h (2 Bft) W - #1:24 h #2,083 mm 1,5 UV-I 81 W/m² 3,9 °C 9,9 °C 16,0 km/h (3 Bft)